# Wetter Temperatur Luftdruck Luftfeuchtigkeit Sichtweite Windgeschwindigkeit Windrichtung Zeit
1 Clouds 25 1005 94 10000 1.03 0 14:22 01.02.2023
2 Clouds 25 1006 94 10000 2.57 330 13:19 01.02.2023
3 Clouds 27 1008 81 10000 0.72 104 12:26 01.02.2023
4 Clouds 25 1006 94 10000 2.06 330 11:49 01.02.2023
5 Clouds 25 1006 94 10000 1.54 310 08:41 01.02.2023
6 Clouds 31 1007 70 10000 1.54 160 23:58 31.01.2023
7 Clouds 27 1008 89 10000 1.54 310 21:26 31.01.2023
8 Clouds 24 1007 94 10000 1.54 310 19:24 31.01.2023
9 Clouds 24 1007 94 10000 1.54 310 17:54 31.01.2023
10 Clouds 24 1007 94 10000 2.06 320 15:36 31.01.2023
11 Clouds 24 1007 94 10000 2.06 320 15:18 31.01.2023
12 Clouds 25 1009 94 10000 1.54 20 13:43 31.01.2023
13 Clouds 25 1009 94 10000 2.57 310 11:41 31.01.2023
14 Clouds 26 1008 89 10000 2.06 310 10:26 31.01.2023
15 Clouds 26 1008 89 10000 1.54 310 09:44 31.01.2023
16 Clouds 26 1007 89 10000 2.06 310 08:56 31.01.2023
17 Rain 27 1006 89 10000 2.57 300 07:59 31.01.2023
18 Rain 31 1007 70 10000 3.6 40 03:39 31.01.2023
19 Clouds 30 1009 74 10000 1.03 0 23:29 30.01.2023
20 Clouds 30 1009 79 10000 1.54 330 22:50 30.01.2023
21 Clouds 27 1008 89 10000 3.09 310 21:48 30.01.2023
22 Clouds 25 1007 94 10000 2.57 310 20:44 30.01.2023
23 Clouds 24 1005 94 10000 0 0 18:55 30.01.2023
24 Clouds 24 1005 94 10000 1.54 330 17:25 30.01.2023
25 Clouds 25 1007 94 10000 2.06 330 14:47 30.01.2023
26 Clouds 25 1008 94 10000 0 0 13:55 30.01.2023
27 Clouds 25 1009 94 10000 2.06 300 12:18 30.01.2023
28 Clouds 26 1009 89 10000 1.54 310 10:21 30.01.2023
29 Clouds 27 1009 83 10000 1.54 270 09:53 30.01.2023
30 Rain 27 1008 83 10000 1.54 200 08:23 30.01.2023
31 Clouds 30 1007 74 10000 2.57 60 04:32 30.01.2023
32 Clouds 31 1008 74 10000 2.57 340 23:35 29.01.2023
33 Clouds 30 1008 79 10000 2.57 310 22:59 29.01.2023
34 Clouds 30 1008 79 10000 2.57 310 22:31 29.01.2023
35 Clouds 25 1008 94 10000 1.54 330 20:52 29.01.2023
36 Clouds 25 1008 94 10000 1.54 330 20:19 29.01.2023
37 Clouds 24 1007 100 10000 2.06 330 19:32 29.01.2023
38 Clouds 25 1007 94 10000 2.57 310 17:55 29.01.2023
39 Clouds 25 1007 94 10000 2.06 330 16:22 29.01.2023
40 Clouds 25 1007 100 10000 1.03 0 15:51 29.01.2023
41 Clouds 25 1009 100 10000 0 0 13:58 29.01.2023
42 Clouds 26 1010 94 10000 1.54 310 12:58 29.01.2023
43 Clouds 26 1010 94 10000 1.54 310 12:36 29.01.2023
44 Clouds 26 1010 94 10000 1.54 310 12:18 29.01.2023
45 Rain 26 1010 94 10000 1.54 310 11:36 29.01.2023
46 Clouds 26 1010 89 10000 2.06 320 10:38 29.01.2023
47 Clouds 30 1008 74 10000 2.06 110 07:57 29.01.2023
48 Clouds 31 1008 70 10000 2.57 70 03:43 29.01.2023
49 Clouds 32 1009 70 10000 2.06 10 23:49 28.01.2023
50 Clouds 24 1009 94 10000 2.06 330 20:50 28.01.2023
51 Clouds 24 1009 94 10000 2.06 330 19:54 28.01.2023
52 Clouds 24 1008 94 10000 1.54 310 18:49 28.01.2023
53 Clouds 24 1008 94 10000 2.57 300 17:27 28.01.2023
54 Clouds 24 1007 94 10000 2.06 330 16:32 28.01.2023
55 Clouds 24 1008 94 10000 2.06 310 15:59 28.01.2023
56 Clouds 24 1008 94 10000 2.06 310 15:22 28.01.2023
57 Clouds 25 1009 94 10000 1.54 330 13:47 28.01.2023
58 Clouds 25 1010 94 10000 1.54 300 11:55 28.01.2023
59 Clouds 26 1009 94 10000 1.54 320 10:35 28.01.2023
60 Clouds 25 1009 100 10000 1.54 320 09:21 28.01.2023
61 Clouds 32 1007 58 10000 4.12 60 01:51 28.01.2023
62 Clouds 31 1008 70 10000 3.6 50 00:27 28.01.2023
63 Clouds 28 1008 89 10000 1.54 310 21:56 27.01.2023
64 Clouds 25 1007 100 10000 0 0 18:57 27.01.2023
65 Clouds 25 1006 94 10000 2.06 340 17:58 27.01.2023
66 Clouds 25 1006 94 10000 2.06 340 17:20 27.01.2023
67 Clouds 26 1006 94 10000 1.54 10 16:35 27.01.2023
68 Clouds 26 1007 94 10000 1.54 100 15:25 27.01.2023
69 Clouds 26 1008 94 10000 2.57 290 14:26 27.01.2023
70 Clouds 26 1009 94 10000 2.57 300 13:32 27.01.2023
71 Clouds 28 1008 78 10000 1.54 120 08:48 27.01.2023
72 Clouds 31 1007 62 10000 3.6 110 06:29 27.01.2023
73 Clouds 32 1008 66 10000 3.6 60 00:27 27.01.2023
74 Clouds 28 1010 83 10000 2.57 330 21:52 26.01.2023
75 Clouds 25 1010 94 10000 2.06 310 20:40 26.01.2023
76 Clouds 24 1010 94 10000 2.06 310 19:57 26.01.2023
77 Clouds 24 1009 94 10000 1.03 0 17:56 26.01.2023
78 Clouds 24 1009 94 10000 1.03 0 16:30 26.01.2023
79 Clouds 24 1010 100 10000 1.03 0 15:58 26.01.2023
80 Clouds 24 1010 100 10000 1.03 0 15:38 26.01.2023
81 Clouds 24 1010 100 10000 1.03 0 15:20 26.01.2023
82 Clouds 25 1011 94 10000 2.06 320 13:32 26.01.2023
83 Clouds 26 1010 94 10000 0 0 12:31 26.01.2023
84 Clouds 27 1010 89 10000 0 0 10:34 26.01.2023
85 Clouds 28 1010 83 10000 1.03 150 09:44 26.01.2023
86 Clouds 29 1009 84 10000 2.06 120 08:40 26.01.2023
87 Clouds 31 1008 66 10000 4.12 110 06:27 26.01.2023
88 Clouds 30 1011 79 10000 1.54 270 23:41 25.01.2023
89 Clouds 29 1011 79 10000 2.06 270 22:43 25.01.2023
90 Clouds 28 1011 78 10000 0 0 21:25 25.01.2023
91 Clouds 26 1011 89 10000 2.06 20 20:59 25.01.2023
92 Clouds 25 1010 94 10000 1.03 0 18:24 25.01.2023
93 Clouds 24 1010 100 10000 0 0 15:58 25.01.2023
94 Clouds 25 1010 94 10000 0 0 14:30 25.01.2023
95 Clouds 26 1012 89 10000 1.03 0 11:53 25.01.2023
96 Clouds 28 1011 83 10000 1.03 0 09:52 25.01.2023
97 Clouds 28 1011 83 10000 1.03 0 09:18 25.01.2023
98 Clouds 31 1009 70 10000 5.14 110 06:18 25.01.2023
99 Clouds 32 1010 70 10000 5.14 100 00:30 25.01.2023
100 Clouds 29 1011 84 10000 3.09 110 21:55 24.01.2023
101 Clouds 29 1011 84 10000 3.09 110 21:27 24.01.2023
102 Clouds 26 1010 94 10000 1.54 130 19:37 24.01.2023
103 Clouds 25 1010 100 10000 0 0 18:30 24.01.2023
104 Clouds 25 1010 100 10000 0 0 17:18 24.01.2023
105 Clouds 25 1010 100 10000 0 0 16:52 24.01.2023
106 Clouds 26 1011 94 10000 1.03 0 13:57 24.01.2023
107 Clouds 26 1011 100 10000 0 0 12:21 24.01.2023
108 Clouds 28 1010 89 10000 1.54 110 09:36 24.01.2023
109 Clouds 29 1010 84 10000 1.03 0 08:20 24.01.2023
110 Clouds 30 1009 79 10000 3.09 90 07:49 24.01.2023
111 Clouds 32 1009 66 10000 4.12 90 02:54 24.01.2023
112 Clouds 32 1010 62 10000 5.14 70 00:41 24.01.2023
113 Clouds 29 1011 72 10000 3.45 72 23:34 23.01.2023
114 Clouds 27 1011 83 10000 0.51 0 21:39 23.01.2023
115 Clouds 25 1010 100 10000 1.03 0 19:29 23.01.2023
116 Clouds 26 1009 94 10000 0 0 17:32 23.01.2023
117 Clouds 25 1009 100 10000 0 0 15:33 23.01.2023
118 Clouds 26 1011 94 10000 0 0 13:57 23.01.2023
119 Clouds 26 1011 94 10000 0 0 13:21 23.01.2023
120 Clouds 26 1011 94 10000 1.03 90 12:34 23.01.2023
121 Clouds 27 1011 89 10000 1.54 120 11:29 23.01.2023
122 Clouds 29 1010 79 10000 2.06 110 08:25 23.01.2023
123 Clouds 32 1010 66 10000 3.6 70 02:23 23.01.2023
124 Clouds 29 1011 84 10000 1.54 100 22:49 22.01.2023
125 Clouds 28 1011 89 10000 1.54 310 21:19 22.01.2023
126 Clouds 25 1011 94 10000 3.09 300 20:24 22.01.2023
127 Clouds 24 1010 100 10000 3.09 330 19:45 22.01.2023
128 Clouds 25 1010 94 10000 0 0 18:49 22.01.2023
129 Clouds 25 1009 94 10000 1.54 310 17:56 22.01.2023
130 Clouds 25 1009 94 10000 1.54 310 17:26 22.01.2023
131 Clouds 26 1010 94 10000 0 0 15:51 22.01.2023
132 Clouds 26 1010 94 10000 1.03 350 14:54 22.01.2023
133 Clouds 26 1011 94 10000 0 0 13:40 22.01.2023
134 Clouds 26 1011 83 10000 1.03 130 12:34 22.01.2023
135 Clouds 26 1011 83 10000 0 0 11:35 22.01.2023
136 Clouds 27 1010 83 10000 1.03 20 09:35 22.01.2023
137 Clouds 30 1008 62 10000 5.14 40 06:40 22.01.2023
138 Clouds 32 1009 70 10000 4.12 30 02:27 22.01.2023
139 Clouds 31 1010 70 10000 5.14 60 23:32 21.01.2023
140 Clouds 29 1010 84 10000 2.06 10 22:18 21.01.2023
141 Clouds 23 1009 100 10000 1.03 0 19:47 21.01.2023
142 Clouds 23 1008 100 10000 2.06 340 17:22 21.01.2023
143 Clouds 24 1010 100 10000 3.09 330 14:34 21.01.2023
144 Clouds 26 1010 94 10000 0 0 12:57 21.01.2023
145 Clouds 26 1010 94 10000 0 0 12:35 21.01.2023
146 Clouds 26 1010 94 10000 3.6 80 11:22 21.01.2023
147 Clouds 28 1008 89 10000 0 0 09:29 21.01.2023
148 Clouds 31 1007 70 10000 4.63 80 04:34 21.01.2023
149 Clouds 28 1010 89 10000 1.03 0 22:29 20.01.2023
150 Clouds 28 1010 89 10000 1.03 0 22:29 20.01.2023
151 Clouds 27 1008 94 10000 0 0 21:38 20.01.2023
152 Clouds 26 1008 94 10000 0 0 20:57 20.01.2023
153 Clouds 25 1008 100 10000 0 0 19:45 20.01.2023
154 Rain 25 1007 100 10000 0 0 16:44 20.01.2023
155 Rain 26 1008 94 10000 0 0 14:46 20.01.2023
156 Rain 26 1009 94 10000 0 0 13:51 20.01.2023
157 Clouds 27 1009 89 10000 1.03 0 10:24 20.01.2023
158 Rain 28 1008 78 10000 1.54 210 08:54 20.01.2023
159 Clouds 31 1006 70 10000 5.14 340 05:56 20.01.2023
160 Clouds 31 1007 66 10000 4.63 330 02:30 20.01.2023
161 Rain 29 1008 84 10000 2.06 360 22:35 19.01.2023
162 Clouds 25 1007 94 10000 0 0 20:44 19.01.2023
163 Clouds 24 1007 87 10000 3 356 19:29 19.01.2023
164 Clouds 24 1006 86 10000 2.85 341 16:51 19.01.2023
165 Clouds 25 1007 85 10000 3.36 349 13:30 19.01.2023
166 Clouds 26 1008 84 10000 3.59 347 09:37 19.01.2023
167 Clouds 32 1005 66 10000 4.12 20 02:59 19.01.2023
168 Rain 26 1006 94 10000 2.06 340 22:24 18.01.2023
169 Rain 24 1007 100 10000 2.06 300 20:20 18.01.2023
170 Rain 24 1006 100 10000 2.57 320 19:38 18.01.2023
171 Fog 24 1005 100 400 1.54 320 18:30 18.01.2023
172 Clouds 24 1005 94 10000 1.03 340 15:56 18.01.2023
173 Clouds 24 1007 100 10000 0 0 13:49 18.01.2023
174 Clouds 25 1008 94 10000 1.03 0 11:28 18.01.2023
175 Rain 26 1007 94 5000 3.6 10 09:22 18.01.2023
176 Clouds 30 1006 70 10000 4.12 60 02:29 18.01.2023
177 Clouds 29 1007 70 10000 3.6 40 00:20 18.01.2023
178 Clouds 24 1007 88 10000 2.06 310 20:56 17.01.2023
179 Clouds 22 1007 94 10000 1.54 330 19:35 17.01.2023
180 Clouds 22 1006 100 10000 1.54 330 18:36 17.01.2023
181 Clouds 23 1006 94 10000 2.06 320 17:31 17.01.2023
182 Clouds 23 1006 94 10000 2.06 320 15:20 17.01.2023
183 Clouds 23 1006 100 10000 2.06 310 14:24 17.01.2023
184 Clouds 25 1008 76 10000 1.84 232 13:27 17.01.2023
185 Clouds 25 1008 88 10000 0 0 11:44 17.01.2023
186 Clouds 26 1008 73 10000 0.51 0 09:35 17.01.2023
187 Clouds 27 1007 65 10000 1.54 200 08:20 17.01.2023
188 Clouds 29 1005 65 10000 4.12 210 05:51 17.01.2023
189 Clouds 29 1007 70 10000 3.09 200 00:57 17.01.2023
190 Clouds 29 1007 70 10000 3.6 220 23:45 16.01.2023
191 Clouds 27 1008 83 10000 2.57 250 21:59 16.01.2023
192 Clouds 26 1008 89 10000 1.54 280 20:49 16.01.2023
193 Clouds 24 1008 94 10000 1.54 330 19:42 16.01.2023
194 Clouds 24 1007 100 10000 1.54 290 18:55 16.01.2023
195 Clouds 24 1007 100 10000 1.54 290 18:21 16.01.2023
196 Drizzle 25 1007 94 10000 1.54 270 17:35 16.01.2023
197 Clouds 24 1007 100 10000 1.54 320 15:49 16.01.2023
198 Rain 25 1009 94 10000 1.03 0 13:39 16.01.2023
199 Rain 25 1008 100 10000 2.06 190 11:57 16.01.2023
200 Thunderstorm 25 1010 94 3000 3.09 290 10:20 16.01.2023
201 Rain 25 1009 94 3000 2.06 240 00:55 16.01.2023
202 Rain 25 1010 94 4000 1.03 0 22:27 15.01.2023
203 Rain 25 1008 100 10000 1.03 0 20:47 15.01.2023
204 Rain 25 1008 100 10000 0 0 19:59 15.01.2023
205 Clouds 25 1007 94 10000 0 0 18:19 15.01.2023
206 Clouds 25 1006 100 10000 0 0 16:22 15.01.2023
207 Clouds 26 1010 94 10000 2.06 270 12:39 15.01.2023
208 Clouds 26 1010 94 10000 1.03 0 11:36 15.01.2023
209 Clouds 26 1009 94 10000 2.57 220 10:30 15.01.2023
210 Clouds 27 1009 89 10000 1.03 0 09:36 15.01.2023
211 Clouds 31 1008 66 10000 1.03 0 01:51 15.01.2023
212 Clouds 31 1009 70 10000 1.03 0 23:20 14.01.2023
213 Clouds 27 1010 76 10000 1.35 272 22:00 14.01.2023
214 Clouds 26 1009 89 10000 1.54 340 21:36 14.01.2023
215 Clouds 26 1009 89 10000 1.54 340 21:36 14.01.2023
216 Clouds 26 1009 89 10000 1.54 340 21:18 14.01.2023
217 Clouds 24 1009 94 10000 1.54 340 20:39 14.01.2023
218 Clouds 23 1007 100 10000 1.54 320 18:40 14.01.2023
219 Fog 23 1007 100 100 0 0 16:59 14.01.2023
220 Fog 23 1007 100 300 1.54 300 15:28 14.01.2023
221 Clouds 24 1008 100 10000 0 0 14:25 14.01.2023
222 Clouds 24 1009 94 10000 1.54 320 13:41 14.01.2023
223 Clouds 24 1009 100 10000 2.06 320 11:46 14.01.2023
224 Clouds 25 1009 94 10000 2.57 310 10:46 14.01.2023
225 Clouds 25 1008 94 10000 2.57 250 08:19 14.01.2023
226 Clouds 30 1008 74 10000 1.54 290 23:30 13.01.2023
227 Clouds 29 1008 84 10000 1.54 330 22:45 13.01.2023
228 Clouds 29 1008 84 10000 1.54 330 22:20 13.01.2023
229 Clouds 26 1008 89 10000 2.06 310 21:35 13.01.2023
230 Clouds 23 1007 100 10000 1.54 310 19:42 13.01.2023
231 Clouds 23 1007 100 10000 1.54 320 18:21 13.01.2023
232 Clouds 24 1006 94 10000 1.54 320 16:24 13.01.2023
233 Clouds 24 1008 100 10000 1.03 320 13:19 13.01.2023
234 Clouds 24 1009 100 10000 0 0 12:20 13.01.2023
235 Clouds 24 1008 100 10000 0 0 10:26 13.01.2023
236 Clouds 24 1008 100 10000 1.54 330 09:45 13.01.2023
237 Clouds 24 1007 100 10000 0 0 08:52 13.01.2023
238 Clouds 24 1007 100 10000 0 0 08:20 13.01.2023
239 Rain 25 1007 100 10000 1.54 210 06:52 13.01.2023
240 Thunderstorm 31 1006 66 10000 3.09 30 03:56 13.01.2023
241 Clouds 27 1008 89 10000 2.57 290 23:47 12.01.2023
242 Clouds 26 1008 94 10000 2.57 310 22:41 12.01.2023
243 Rain 25 1007 100 10000 1.03 330 20:55 12.01.2023
244 Rain 25 1007 94 10000 1.54 260 19:38 12.01.2023
245 Rain 25 1007 100 8000 1.54 350 17:34 12.01.2023
246 Rain 25 1007 100 5000 2.06 210 15:54 12.01.2023
247 Rain 25 1007 100 10000 0 0 14:44 12.01.2023
248 Rain 25 1007 100 10000 0 0 14:22 12.01.2023
249 Clouds 26 1009 94 10000 1.54 320 12:45 12.01.2023
250 Clouds 26 1008 94 10000 1.54 240 10:34 12.01.2023
251 Clouds 26 1008 94 10000 1.03 350 08:21 12.01.2023
252 Clouds 31 1008 74 10000 6.17 50 01:49 12.01.2023
253 Clouds 29 1009 70 10000 1.42 255 23:59 11.01.2023
254 Clouds 29 1009 70 10000 1.42 255 23:39 11.01.2023
255 Clouds 27 1010 76 10000 1.34 302 23:20 11.01.2023
256 Clouds 27 1010 89 10000 3.09 320 21:41 11.01.2023
257 Clouds 24 1009 94 10000 2.57 340 19:40 11.01.2023
258 Clouds 24 1009 94 10000 2.57 340 18:26 11.01.2023
259 Clouds 25 1009 94 10000 2.57 340 16:34 11.01.2023
260 Rain 25 1010 94 10000 2.06 350 14:40 11.01.2023
261 Clouds 25 1010 94 10000 1.54 330 12:34 11.01.2023
262 Clouds 25 1010 94 10000 0 0 11:51 11.01.2023
263 Clouds 25 1009 94 10000 0 0 09:46 11.01.2023
264 Clouds 27 1008 83 10000 2.57 80 07:37 11.01.2023
265 Rain 28 1008 78 10000 1.54 160 06:57 11.01.2023
266 Clouds 30 1009 74 10000 2.57 330 23:55 10.01.2023
267 Clouds 29 1009 79 10000 2.57 310 22:36 10.01.2023
268 Clouds 28 1008 83 10000 3.6 320 21:30 10.01.2023
269 Clouds 24 1007 100 10000 0 0 19:56 10.01.2023
270 Clouds 24 1007 100 10000 0 0 19:34 10.01.2023
271 Clouds 24 1007 94 10000 0 0 18:47 10.01.2023
272 Clouds 24 1007 94 10000 0 0 17:53 10.01.2023
273 Clouds 24 1007 100 10000 2.57 10 15:48 10.01.2023
274 Clouds 24 1007 100 10000 2.57 10 15:22 10.01.2023
275 Clouds 25 1007 94 10000 1.54 340 13:42 10.01.2023
276 Clouds 25 1009 94 10000 2.06 350 11:28 10.01.2023
277 Clouds 25 1007 94 10000 1.54 350 08:44 10.01.2023
278 Clouds 25 1007 94 10000 2.06 290 07:59 10.01.2023
279 Clouds 25 1007 94 10000 2.06 290 07:59 10.01.2023
280 Clouds 25 1006 94 7000 3.09 220 07:25 10.01.2023
281 Clouds 32 1005 66 10000 5.14 50 03:33 10.01.2023
282 Clouds 29 1006 84 10000 3.09 330 22:50 09.01.2023
283 Clouds 27 1007 83 10000 2.06 350 21:20 09.01.2023
284 Clouds 25 1006 88 10000 3.09 340 20:32 09.01.2023
285 Clouds 24 1005 94 10000 2.57 340 18:41 09.01.2023
286 Clouds 24 1005 94 10000 2.06 310 17:51 09.01.2023
287 Clouds 24 1005 94 10000 0 0 16:41 09.01.2023
288 Clouds 24 1005 94 10000 0 0 15:59 09.01.2023
289 Clouds 24 1005 94 10000 0 0 15:22 09.01.2023
290 Clouds 24 1006 94 10000 0 0 14:42 09.01.2023
291 Rain 24 1009 100 10000 1.03 0 12:54 09.01.2023
292 Rain 24 1009 100 10000 1.54 320 11:59 09.01.2023
293 Rain 24 1009 100 10000 1.54 320 11:19 09.01.2023
294 Clouds 30 1007 74 8000 2.57 300 07:20 09.01.2023
295 Clouds 32 1005 70 10000 2.57 110 04:46 09.01.2023
296 Clouds 32 1006 66 10000 2.57 100 02:52 09.01.2023
297 Clouds 30 1009 74 10000 2.06 310 22:29 08.01.2023
298 Clouds 27 1008 83 10000 3.09 320 21:22 08.01.2023
299 Clouds 25 1008 94 10000 2.06 350 20:53 08.01.2023
300 Clouds 24 1007 100 10000 0 0 18:51 08.01.2023
301 Clouds 24 1007 100 10000 2.57 310 17:23 08.01.2023
302 Clouds 24 1007 100 10000 2.06 310 16:46 08.01.2023
303 Clouds 24 1008 100 10000 1.54 330 15:36 08.01.2023
304 Clouds 25 1009 94 10000 1.54 350 13:58 08.01.2023
305 Clouds 25 1009 94 10000 1.54 350 13:31 08.01.2023
306 Clouds 25 1010 94 10000 1.03 0 12:49 08.01.2023
307 Clouds 26 1010 94 10000 2.06 340 10:37 08.01.2023
308 Clouds 27 1009 83 10000 2.06 330 09:36 08.01.2023
309 Clouds 29 1009 74 10000 5.14 320 07:48 08.01.2023
310 Clouds 30 1009 74 10000 3.09 220 00:24 08.01.2023
311 Clouds 29 1010 79 10000 2.06 320 22:48 07.01.2023
312 Clouds 29 1010 79 10000 2.06 320 22:24 07.01.2023
313 Clouds 27 1010 89 10000 1.54 290 21:47 07.01.2023
314 Clouds 25 1010 94 10000 2.57 310 20:43 07.01.2023
315 Clouds 25 1010 94 10000 2.57 310 20:22 07.01.2023
316 Clouds 24 1008 100 10000 1.54 310 18:45 07.01.2023
317 Clouds 25 1008 94 10000 1.54 320 17:50 07.01.2023
318 Clouds 25 1008 94 10000 1.54 320 17:28 07.01.2023
319 Clouds 25 1008 100 10000 1.03 330 16:37 07.01.2023
320 Clouds 25 1008 100 10000 0 0 15:46 07.01.2023
321 Clouds 25 1008 100 10000 0 0 15:26 07.01.2023
322 Clouds 25 1009 94 10000 2.06 320 14:27 07.01.2023
323 Clouds 26 1009 94 10000 2.06 310 13:47 07.01.2023
324 Clouds 26 1009 94 10000 2.06 310 13:23 07.01.2023
325 Clouds 26 1010 89 10000 1.54 300 12:22 07.01.2023
326 Clouds 26 1009 94 10000 2.57 300 11:18 07.01.2023
327 Clouds 27 1009 89 10000 2.57 290 10:25 07.01.2023
328 Clouds 29 1008 84 10000 1.03 0 08:21 07.01.2023
329 Clouds 29 1007 79 10000 2.57 200 07:44 07.01.2023
330 Clouds 30 1007 74 10000 3.09 200 06:49 07.01.2023
331 Clouds 32 1008 70 10000 2.06 210 00:42 07.01.2023
332 Clouds 30 1009 74 10000 2.06 230 22:23 06.01.2023
333 Clouds 28 1010 83 10000 1.54 280 21:58 06.01.2023
334 Clouds 26 1009 89 10000 2.06 320 20:59 06.01.2023
335 Clouds 25 1009 94 10000 1.54 240 19:57 06.01.2023
336 Clouds 25 1009 94 10000 1.54 240 19:39 06.01.2023
337 Clouds 25 1009 94 10000 1.54 240 19:21 06.01.2023
338 Clouds 24 1008 94 10000 1.03 0 18:25 06.01.2023
339 Clouds 26 1008 83 10000 1.54 240 16:55 06.01.2023
340 Clouds 26 1008 83 10000 1.54 240 16:23 06.01.2023
341 Clouds 26 1008 83 10000 2.06 250 15:53 06.01.2023
342 Clouds 26 1008 83 10000 2.06 250 15:34 06.01.2023
343 Clouds 26 1010 89 10000 1.54 250 13:48 06.01.2023
344 Clouds 26 1009 94 10000 1.54 230 12:21 06.01.2023
345 Rain 26 1009 100 10000 1.54 290 10:57 06.01.2023
346 Rain 27 1008 94 10000 1.54 350 08:53 06.01.2023
347 Rain 28 1007 83 10000 0 0 05:26 06.01.2023
348 Clouds 29 1009 79 10000 2.06 340 23:39 05.01.2023
349 Clouds 27 1009 89 10000 1.54 240 22:45 05.01.2023
350 Clouds 26 1008 89 10000 2.06 300 21:19 05.01.2023
351 Clouds 24 1006 94 10000 0 0 17:57 05.01.2023
352 Clouds 24 1006 94 10000 0 0 17:26 05.01.2023
353 Clouds 24 1007 94 10000 2.06 10 15:59 05.01.2023
354 Clouds 24 1007 94 10000 2.06 10 15:34 05.01.2023
355 Clouds 24 1007 94 10000 0 0 14:34 05.01.2023
356 Clouds 24 1009 94 10000 2.06 350 12:42 05.01.2023
357 Clouds 25 1009 94 10000 1.54 320 11:42 05.01.2023
358 Rain 25 1008 94 10000 2.06 340 09:48 05.01.2023
359 Clouds 25 1008 94 10000 2.57 320 08:23 05.01.2023
360 Drizzle 25 1007 94 10000 2.06 300 06:50 05.01.2023
361 Drizzle 27 1008 89 10000 2.57 220 03:34 05.01.2023
362 Rain 27 1008 89 10000 1.03 0 22:27 04.01.2023
363 Rain 26 1008 83 10000 1.54 320 21:32 04.01.2023
364 Rain 25 1008 94 10000 2.06 340 20:23 04.01.2023
365 Clouds 24 1007 100 10000 1.54 260 19:47 04.01.2023
366 Clouds 24 1007 100 10000 1.54 260 19:29 04.01.2023
367 Rain 25 1006 94 10000 1.54 340 18:18 04.01.2023
368 Rain 25 1006 94 10000 1.54 300 16:31 04.01.2023
369 Rain 25 1007 94 10000 1.54 280 14:50 04.01.2023
370 Clouds 25 1008 94 10000 0 0 12:36 04.01.2023
371 Clouds 26 1008 89 10000 2.06 340 11:23 04.01.2023
372 Clouds 25 1008 88 10000 2.06 340 10:44 04.01.2023
373 Clouds 25 1008 88 10000 2.06 340 10:25 04.01.2023
374 Clouds 27 1008 89 10000 0 0 09:40 04.01.2023
375 Clouds 28 1006 83 10000 4.63 340 05:39 04.01.2023
376 Clouds 31 1008 70 10000 5.14 330 01:40 04.01.2023
377 Clouds 28 1009 83 10000 1.54 260 23:42 03.01.2023
378 Clouds 27 1009 89 10000 1.03 0 22:56 03.01.2023
379 Clouds 26 1008 89 10000 1.03 240 21:39 03.01.2023
380 Clouds 25 1007 94 10000 1.54 340 20:50 03.01.2023
381 Clouds 24 1006 94 10000 1.54 20 18:24 03.01.2023
382 Clouds 24 1006 94 10000 0 0 16:40 03.01.2023
383 Clouds 25 1007 94 10000 1.03 320 14:23 03.01.2023
384 Clouds 25 1008 94 10000 1.03 320 13:33 03.01.2023
385 Clouds 25 1008 94 10000 1.03 320 13:32 03.01.2023
386 Clouds 25 1008 94 10000 2.57 40 12:59 03.01.2023
387 Clouds 25 1008 94 10000 2.57 40 12:31 03.01.2023
388 Clouds 25 1009 94 10000 1.54 40 11:53 03.01.2023
389 Rain 26 1008 94 10000 1.54 10 09:26 03.01.2023
390 Rain 28 1007 83 10000 4.63 350 04:26 03.01.2023
391 Clouds 27 1007 83 10000 4.12 10 03:47 03.01.2023
392 Clouds 27 1007 83 10000 4.12 10 03:27 03.01.2023
393 Clouds 26 1009 94 10000 3.6 340 23:19 02.01.2023
394 Clouds 25 1009 94 10000 3.09 330 22:26 02.01.2023
395 Clouds 24 1009 100 10000 2.06 300 20:51 02.01.2023
396 Clouds 24 1009 100 10000 2.06 300 20:26 02.01.2023
397 Rain 24 1006 100 10000 2.57 330 18:40 02.01.2023
398 Clouds 25 1008 94 10000 1.54 360 15:43 02.01.2023
399 Clouds 25 1008 94 10000 2.57 350 13:51 02.01.2023
400 Clouds 26 1009 94 10000 2.06 330 12:19 02.01.2023
401 Clouds 26 1008 94 10000 1.54 360 10:57 02.01.2023
402 Clouds 27 1006 83 10000 2.06 340 08:38 02.01.2023
403 Clouds 34 1004 55 10000 5.66 350 03:32 02.01.2023
404 Clouds 28 1008 89 10000 0 0 22:43 01.01.2023
405 Clouds 26 1009 89 10000 1.54 320 21:43 01.01.2023
406 Clouds 25 1008 94 10000 1.03 0 20:48 01.01.2023
407 Clouds 25 1008 94 10000 1.03 0 20:18 01.01.2023
408 Clouds 23 1007 100 10000 1.54 320 18:39 01.01.2023
409 Clouds 24 1007 94 10000 1.03 0 17:23 01.01.2023
410 Clouds 24 1007 94 10000 1.54 300 16:34 01.01.2023
411 Clouds 24 1007 94 10000 2.06 300 15:27 01.01.2023
412 Clouds 24 1009 94 10000 1.03 0 13:42 01.01.2023
413 Clouds 25 1008 94 10000 0 0 12:41 01.01.2023
414 Clouds 25 1008 94 10000 0 0 11:39 01.01.2023
415 Clouds 26 1008 94 10000 1.54 300 10:47 01.01.2023
416 Rain 26 1007 94 10000 1.54 20 08:59 01.01.2023
417 Clouds 26 1007 94 10000 1.54 20 08:23 01.01.2023
418 Clouds 27 1006 89 10000 2.06 360 07:27 01.01.2023
419 Clouds 29 1007 79 10000 4.12 320 03:47 01.01.2023
420 Clouds 25 1009 94 8000 2.06 310 23:44 31.12.2022
421 Rain 26 1009 89 10000 1.54 290 22:35 31.12.2022
422 Rain 26 1008 89 10000 1.54 330 21:41 31.12.2022
423 Rain 26 1008 89 10000 1.54 330 21:19 31.12.2022
424 Rain 24 1007 94 10000 1.54 340 19:43 31.12.2022
425 Clouds 24 1006 94 10000 2.06 350 18:45 31.12.2022
426 Clouds 24 1006 94 10000 2.06 350 18:19 31.12.2022
427 Clouds 24 1006 94 10000 0 0 17:48 31.12.2022
428 Clouds 24 1006 94 10000 0 0 16:59 31.12.2022
429 Clouds 24 1006 94 10000 0 0 16:29 31.12.2022
430 Rain 24 1007 94 10000 0 0 14:45 31.12.2022
431 Rain 25 1007 94 10000 0 0 13:44 31.12.2022
432 Rain 24 1009 94 10000 2.06 330 12:40 31.12.2022
433 Rain 24 1009 94 10000 2.06 330 12:20 31.12.2022
434 Rain 24 1009 94 10000 2.06 330 12:20 31.12.2022
435 Rain 25 1009 88 10000 1.54 350 11:50 31.12.2022
436 Clouds 25 1009 94 10000 1.03 0 10:37 31.12.2022
437 Clouds 25 1009 94 10000 1.03 0 09:55 31.12.2022
438 Clouds 25 1009 94 10000 1.03 0 09:35 31.12.2022
439 Rain 26 1008 89 10000 1.03 0 07:49 31.12.2022
440 Clouds 27 1009 89 10000 4.12 310 00:43 31.12.2022
441 Clouds 26 1009 89 10000 2.57 330 23:47 30.12.2022
442 Clouds 25 1009 94 10000 3.09 330 22:50 30.12.2022
443 Rain 24 1008 94 10000 1.03 0 21:50 30.12.2022
444 Rain 24 1008 94 10000 1.03 0 21:30 30.12.2022
445 Rain 24 1009 94 10000 2.06 320 19:24 30.12.2022
446 Clouds 24 1007 94 10000 0 0 17:52 30.12.2022
447 Clouds 24 1007 94 10000 0 0 17:33 30.12.2022
448 Rain 24 1007 94 10000 1.03 0 15:58 30.12.2022
449 Rain 24 1007 94 10000 0 0 14:53 30.12.2022
450 Clouds 26 1008 94 10000 0 0 11:58 30.12.2022
451 Rain 27 1007 94 10000 0 0 08:21 30.12.2022
452 Clouds 30 1007 74 10000 3.6 10 03:40 30.12.2022
453 Clouds 27 1008 83 10000 1.54 350 01:53 30.12.2022
454 Rain 25 1010 94 10000 3.09 310 22:58 29.12.2022
455 Rain 25 1009 94 10000 2.57 330 21:31 29.12.2022
456 Rain 24 1009 100 10000 2.57 300 20:54 29.12.2022
457 Rain 24 1009 100 10000 2.57 300 20:25 29.12.2022
458 Clouds 24 1007 94 10000 2.06 330 18:30 29.12.2022
459 Rain 24 1007 94 10000 2.06 330 17:32 29.12.2022
460 Clouds 24 1007 94 10000 2.57 330 16:55 29.12.2022
461 Rain 25 1007 88 10000 2.52 329 16:21 29.12.2022
462 Clouds 24 1007 100 10000 1.54 330 15:33 29.12.2022
463 Rain 24 1008 100 10000 1.54 300 13:33 29.12.2022
464 Clouds 24 1009 100 10000 0 0 11:29 29.12.2022
465 Rain 25 1008 100 9000 1.03 0 07:45 29.12.2022
466 Thunderstorm 28 1009 83 10000 2.06 10 00:18 29.12.2022
467 Rain 30 1010 70 10000 3.09 10 23:27 28.12.2022
468 Clouds 28 1010 83 10000 2.06 320 21:21 28.12.2022
469 Clouds 25 1010 94 10000 2.06 340 20:25 28.12.2022
470 Clouds 25 1010 94 10000 0 0 19:23 28.12.2022
471 Clouds 24 1009 100 10000 2.06 320 16:56 28.12.2022
472 Clouds 25 1010 94 10000 1.54 330 14:38 28.12.2022
473 Clouds 26 1011 94 10000 1.54 310 12:54 28.12.2022
474 Rain 26 1011 94 10000 1.54 340 11:52 28.12.2022
475 Clouds 27 1011 89 10000 1.54 280 10:37 28.12.2022
476 Clouds 30 1009 70 10000 2.06 30 07:51 28.12.2022
477 Clouds 31 1009 66 10000 4.12 30 06:48 28.12.2022
478 Clouds 32 1009 66 10000 6.69 60 03:43 28.12.2022
479 Clouds 30 1011 74 10000 1.03 90 23:22 27.12.2022
480 Clouds 24 1011 94 10000 1.03 0 19:58 27.12.2022
481 Clouds 24 1011 94 10000 1.03 0 19:24 27.12.2022
482 Clouds 24 1011 94 10000 2.06 340 17:20 27.12.2022
483 Clouds 24 1011 94 10000 1.03 0 16:35 27.12.2022
484 Clouds 24 1012 94 10000 2.06 310 14:55 27.12.2022
485 Clouds 24 1013 100 10000 1.54 330 12:28 27.12.2022
486 Clouds 25 1012 94 10000 3.09 240 10:37 27.12.2022
487 Clouds 27 1011 89 10000 2.57 210 09:45 27.12.2022
488 Clouds 27 1011 89 10000 2.57 210 09:22 27.12.2022
489 Rain 31 1009 70 10000 6.17 70 04:59 27.12.2022
490 Clouds 31 1011 70 10000 5.14 60 00:23 27.12.2022
491 Clouds 28 1011 89 10000 2.06 310 21:53 26.12.2022
492 Clouds 25 1010 94 10000 0 0 20:45 26.12.2022
493 Clouds 24 1010 94 10000 0 0 19:56 26.12.2022
494 Clouds 24 1009 94 10000 0 0 18:42 26.12.2022
495 Clouds 24 1009 94 10000 0 0 17:25 26.12.2022
496 Clouds 25 1009 94 10000 1.03 0 15:40 26.12.2022
497 Clouds 26 1012 94 10000 1.54 340 12:59 26.12.2022
498 Clouds 26 1012 89 10000 1.03 0 11:44 26.12.2022
499 Clouds 31 1010 70 10000 5.66 60 05:44 26.12.2022
500 Clouds 30 1011 74 10000 5.66 60 23:42 25.12.2022
501 Clouds 30 1011 70 10000 5.66 60 22:51 25.12.2022
502 Clouds 30 1011 70 10000 5.66 60 22:22 25.12.2022
503 Clouds 24 1011 100 10000 2.06 280 19:56 25.12.2022
504 Clouds 25 1010 94 10000 2.06 300 17:52 25.12.2022
505 Clouds 25 1010 94 10000 2.06 300 17:34 25.12.2022
506 Clouds 25 1011 94 10000 2.57 10 16:41 25.12.2022
507 Clouds 26 1012 89 10000 0 0 13:30 25.12.2022
508 Clouds 26 1012 94 10000 0 0 11:38 25.12.2022
509 Clouds 32 1011 62 10000 4.12 60 04:19 25.12.2022
510 Clouds 27 1012 89 10000 0 0 22:47 24.12.2022
511 Clouds 24 1011 94 10000 2.06 340 19:53 24.12.2022
512 Rain 24 1010 94 10000 1.03 0 16:59 24.12.2022
513 Clouds 24 1011 94 10000 2.57 320 15:28 24.12.2022
514 Clouds 25 1012 86 10000 3.09 8 14:22 24.12.2022
515 Rain 25 1012 94 10000 1.54 50 12:20 24.12.2022
516 Clouds 27 1012 83 10000 3.09 60 10:23 24.12.2022
517 Clouds 28 1011 78 10000 2.57 60 09:37 24.12.2022
518 Clouds 28 1011 78 10000 2.57 60 08:36 24.12.2022
519 Clouds 30 1011 70 10000 4.63 50 02:51 24.12.2022
520 Clouds 28 1011 74 10000 4.12 50 00:29 24.12.2022
521 Clouds 24 1012 94 10000 1.54 40 22:30 23.12.2022
522 Clouds 24 1012 94 10000 1.03 70 21:30 23.12.2022
523 Clouds 23 1011 100 10000 3.6 340 19:40 23.12.2022
524 Clouds 23 1011 100 10000 3.6 340 19:22 23.12.2022
525 Clouds 23 1011 100 10000 1.54 330 18:53 23.12.2022
526 Rain 23 1011 100 10000 1.54 330 18:21 23.12.2022
527 Clouds 23 1010 100 10000 1.54 340 16:48 23.12.2022
528 Clouds 24 1010 94 10000 0 0 15:45 23.12.2022
529 Rain 25 1014 88 10000 3.09 20 12:31 23.12.2022
530 Rain 25 1012 94 10000 1.03 0 09:53 23.12.2022
531 Rain 25 1012 94 10000 1.03 0 09:34 23.12.2022
532 Rain 27 1011 83 10000 1.03 0 07:23 23.12.2022
533 Rain 27 1010 78 10000 1.54 110 06:49 23.12.2022
534 Clouds 28 1012 83 10000 3.09 320 23:24 22.12.2022
535 Clouds 26 1012 89 10000 1.54 290 22:59 22.12.2022
536 Rain 25 1013 88 10000 3.09 20 21:49 22.12.2022
537 Clouds 24 1012 94 10000 2.06 310 19:46 22.12.2022
538 Clouds 24 1012 94 10000 2.06 310 19:18 22.12.2022
539 Clouds 24 1011 94 10000 1.03 0 17:33 22.12.2022
540 Clouds 24 1011 94 10000 1.03 0 16:39 22.12.2022
541 Rain 24 1012 94 10000 1.03 0 15:35 22.12.2022
542 Clouds 25 1012 94 5000 7.2 70 14:53 22.12.2022
543 Clouds 27 1013 89 10000 2.06 80 13:51 22.12.2022
544 Clouds 27 1013 89 10000 2.06 80 13:18 22.12.2022
545 Clouds 27 1012 89 10000 0 0 10:55 22.12.2022
546 Clouds 27 1012 89 10000 0 0 10:30 22.12.2022
547 Clouds 28 1012 83 10000 0 0 09:21 22.12.2022
548 Clouds 28 1011 83 10000 1.54 110 08:32 22.12.2022
549 Rain 30 1010 74 10000 3.09 90 07:22 22.12.2022
550 Clouds 31 1010 70 10000 5.66 70 04:18 22.12.2022
551 Clouds 29 1012 84 10000 3.09 60 00:24 22.12.2022
552 Clouds 29 1013 84 10000 2.57 360 22:24 21.12.2022
553 Clouds 29 1012 84 10000 1.54 10 21:24 21.12.2022
554 Clouds 26 1011 94 10000 0 0 20:54 21.12.2022
555 Clouds 26 1011 94 10000 0 0 20:29 21.12.2022
556 Clouds 25 1011 94 10000 0 0 19:44 21.12.2022
557 Clouds 25 1011 94 10000 0 0 19:24 21.12.2022
558 Clouds 25 1011 100 10000 2.06 300 18:46 21.12.2022
559 Clouds 25 1009 100 10000 0 0 17:38 21.12.2022
560 Clouds 25 1010 94 10000 2.57 10 14:59 21.12.2022
561 Thunderstorm 27 1011 89 10000 0 0 13:28 21.12.2022
562 Clouds 27 1011 83 10000 2.06 50 11:47 21.12.2022
563 Clouds 27 1011 83 10000 2.06 50 11:20 21.12.2022
564 Clouds 28 1010 83 10000 2.57 60 09:47 21.12.2022
565 Clouds 29 1008 79 10000 4.63 70 07:38 21.12.2022
566 Clouds 32 1007 66 10000 6.69 70 02:28 21.12.2022
567 Clouds 31 1008 70 10000 5.14 40 22:48 20.12.2022
568 Clouds 28 1008 78 10000 1.54 310 21:21 20.12.2022
569 Clouds 26 1008 94 10000 1.54 330 20:23 20.12.2022
570 Clouds 25 1008 94 10000 0 0 19:40 20.12.2022
571 Clouds 24 1007 100 10000 1.54 270 18:30 20.12.2022
572 Clouds 24 1007 100 8000 1.54 50 17:55 20.12.2022
573 Clouds 24 1007 100 10000 1.54 310 17:34 20.12.2022
574 Clouds 25 1006 94 10000 1.54 340 16:35 20.12.2022
575 Clouds 25 1007 94 10000 0 0 15:29 20.12.2022
576 Clouds 25 1007 94 10000 1.54 310 14:44 20.12.2022
577 Clouds 25 1007 94 10000 1.54 310 14:25 20.12.2022
578 Clouds 26 1008 94 10000 0 0 12:57 20.12.2022
579 Clouds 26 1008 94 10000 0 0 12:26 20.12.2022
580 Clouds 27 1008 83 10000 0 0 11:32 20.12.2022
581 Clouds 29 1007 79 10000 3.6 70 08:47 20.12.2022
582 Clouds 32 1008 62 10000 4.63 70 00:35 20.12.2022
583 Clouds 30 1008 70 10000 3.09 80 22:37 19.12.2022
584 Clouds 28 1008 78 10000 1.54 280 21:44 19.12.2022
585 Clouds 24 1007 94 10000 1.54 330 19:56 19.12.2022
586 Clouds 24 1007 94 10000 1.54 330 19:38 19.12.2022
587 Clouds 24 1007 94 10000 1.03 0 18:24 19.12.2022
588 Clouds 24 1006 94 10000 1.03 330 16:35 19.12.2022
589 Clouds 26 1008 89 10000 1.03 270 13:27 19.12.2022
590 Clouds 28 1008 78 10000 0 0 11:56 19.12.2022
591 Clouds 28 1008 78 10000 0 0 10:34 19.12.2022
592 Clouds 30 1006 70 10000 3.6 60 07:40 19.12.2022
593 Clouds 32 1006 62 10000 5.66 60 02:48 19.12.2022
594 Clouds 30 1007 70 10000 1.03 100 22:20 18.12.2022
595 Clouds 28 1008 78 10000 2.06 330 21:41 18.12.2022
596 Clouds 28 1008 78 10000 2.06 330 21:20 18.12.2022
597 Clouds 22 1007 100 10000 1.54 320 19:49 18.12.2022
598 Clouds 22 1007 100 10000 1.54 320 19:31 18.12.2022
599 Clouds 23 1006 94 10000 1.54 330 17:53 18.12.2022
600 Clouds 23 1006 94 10000 1.54 330 16:27 18.12.2022
601 Clouds 23 1006 94 10000 1.54 330 15:39 18.12.2022
602 Clouds 23 1006 94 10000 1.54 330 15:18 18.12.2022
603 Clouds 24 1007 94 10000 0 0 13:36 18.12.2022
604 Clouds 24 1007 94 10000 1.54 330 12:51 18.12.2022
605 Clouds 25 1007 94 10000 1.03 0 11:54 18.12.2022
606 Clouds 26 1007 69 10000 0 0 10:19 18.12.2022
607 Clouds 28 1006 74 10000 1.54 90 08:47 18.12.2022
608 Clouds 30 1005 58 10000 2.06 50 07:20 18.12.2022
609 Clouds 31 1004 55 10000 3.6 50 06:20 18.12.2022
610 Clouds 32 1005 51 10000 4.12 90 02:59 18.12.2022
611 Clouds 31 1006 62 10000 1.03 50 23:40 17.12.2022
612 Clouds 26 1006 78 10000 2.06 300 21:40 17.12.2022
613 Clouds 21 1005 94 10000 1.54 310 18:54 17.12.2022
614 Clouds 22 1004 94 10000 1.54 310 16:39 17.12.2022
615 Clouds 23 1006 94 10000 2.06 320 13:57 17.12.2022
616 Clouds 24 1006 94 10000 1.54 330 11:36 17.12.2022
617 Clouds 25 1005 83 10000 0 0 10:46 17.12.2022
618 Clouds 25 1005 88 10000 0 0 09:41 17.12.2022
619 Clouds 25 1005 88 10000 0 0 09:41 17.12.2022
620 Clouds 28 1003 69 10000 2.06 130 07:26 17.12.2022
621 Clouds 29 1003 61 10000 3.09 170 06:45 17.12.2022
622 Clouds 29 1004 70 10000 2.57 210 23:39 16.12.2022
623 Clouds 24 1004 88 10000 1.03 0 20:55 16.12.2022
624 Clouds 21 1004 94 10000 1.03 0 18:46 16.12.2022
625 Clouds 22 1004 94 10000 1.03 0 15:37 16.12.2022
626 Clear 24 1005 73 10000 2.03 202 14:47 16.12.2022
627 Clouds 23 1005 94 10000 0 0 13:40 16.12.2022
628 Clouds 25 1005 88 10000 1.03 220 11:58 16.12.2022
629 Clouds 25 1004 94 10000 1.54 180 09:53 16.12.2022
630 Clouds 25 1004 94 10000 1.54 180 09:24 16.12.2022
631 Clouds 28 1003 69 10000 3.09 160 07:55 16.12.2022
632 Clouds 28 1003 69 10000 3.09 160 07:25 16.12.2022
633 Clouds 30 1004 62 10000 3.6 190 23:24 15.12.2022
634 Clouds 28 1004 65 10000 2.57 170 21:58 15.12.2022
635 Clouds 23 1004 94 10000 2.06 300 20:30 15.12.2022
636 Clouds 20 1004 100 10000 1.03 0 19:35 15.12.2022
637 Clouds 20 1003 100 10000 0 0 17:28 15.12.2022
638 Clouds 20 1003 100 10000 0 0 16:39 15.12.2022
639 Clouds 22 1004 94 10000 0 0 14:57 15.12.2022
640 Clouds 22 1005 94 10000 0 0 13:18 15.12.2022
641 Clouds 22 1005 100 10000 0 0 12:25 15.12.2022
642 Clouds 25 1004 83 10000 0 0 09:28 15.12.2022
643 Clouds 26 1004 73 10000 0 0 08:46 15.12.2022
644 Clouds 29 1003 61 10000 3.09 160 05:47 15.12.2022
645 Clouds 30 1003 66 10000 3.09 170 02:38 15.12.2022
646 Clouds 28 1005 61 10000 3.09 180 21:25 14.12.2022
647 Clouds 23 1005 94 10000 1.03 0 20:57 14.12.2022
648 Clouds 23 1005 94 10000 1.03 0 20:18 14.12.2022
649 Clouds 22 1003 100 10000 1.03 0 17:52 14.12.2022
650 Clouds 23 1004 94 10000 1.03 0 16:57 14.12.2022
651 Clouds 23 1004 94 10000 1.03 0 15:30 14.12.2022
652 Clouds 24 1005 94 10000 1.03 0 13:40 14.12.2022
653 Clouds 24 1005 88 10000 0 0 11:20 14.12.2022
654 Clouds 24 1005 88 10000 0 0 11:20 14.12.2022
655 Clouds 25 1005 83 10000 0 0 10:25 14.12.2022
656 Clouds 26 1004 78 10000 2.06 170 08:48 14.12.2022
657 Clouds 29 1005 74 10000 3.6 180 22:47 13.12.2022
658 Clouds 29 1005 74 10000 4.63 190 21:46 13.12.2022
659 Clouds 27 1005 78 10000 2.06 190 20:48 13.12.2022
660 Clouds 26 1004 83 10000 1.54 220 19:51 13.12.2022
661 Clouds 25 1004 94 10000 2.06 200 16:50 13.12.2022
662 Clouds 25 1004 94 10000 1.54 210 15:34 13.12.2022
663 Clouds 24 1004 100 10000 1.54 310 14:19 13.12.2022
664 Clouds 25 1005 94 10000 0 0 10:55 13.12.2022
665 Clouds 25 1005 94 10000 0 0 10:55 13.12.2022
666 Clouds 25 1005 94 10000 0 0 10:35 13.12.2022
667 Clouds 25 1005 94 10000 1.03 0 09:21 13.12.2022
668 Clouds 24 1006 100 10000 3.09 10 22:50 12.12.2022
669 Clouds 24 1006 100 10000 3.09 10 22:21 12.12.2022
670 Rain 24 1008 94 3000 5.66 340 20:43 12.12.2022
671 Rain 23 1006 94 10000 2.06 10 18:32 12.12.2022
672 Clouds 24 1007 94 10000 1.03 0 15:46 12.12.2022
673 Clouds 24 1007 100 10000 1.54 20 14:26 12.12.2022
674 Rain 26 1008 89 10000 2.57 240 10:19 12.12.2022
675 Rain 26 1007 89 10000 1.54 300 09:18 12.12.2022
676 Clouds 29 1005 70 10000 3.09 10 04:53 12.12.2022
677 Clouds 28 1008 83 10000 3.6 30 01:52 12.12.2022
678 Rain 25 1009 88 10000 2.06 320 22:19 11.12.2022
679 Rain 23 1008 100 10000 0 0 20:41 11.12.2022
680 Rain 23 1008 100 10000 0 0 19:40 11.12.2022
681 Rain 23 1007 100 10000 2.06 320 18:55 11.12.2022
682 Rain 23 1007 100 10000 2.06 320 18:55 11.12.2022
683 Rain 23 1007 100 10000 0 0 17:57 11.12.2022
684 Clouds 23 1007 100 10000 0 0 17:28 11.12.2022
685 Clouds 23 1007 100 10000 0 0 16:49 11.12.2022
686 Clouds 23 1007 100 10000 0 0 15:45 11.12.2022
687 Clouds 24 1008 100 10000 2.06 310 13:43 11.12.2022
688 Clouds 24 1009 94 10000 1.54 310 12:43 11.12.2022
689 Clouds 25 1009 94 10000 1.03 0 10:44 11.12.2022
690 Clouds 27 1008 83 10000 4.63 320 04:54 11.12.2022
691 Clouds 25 1009 94 10000 4.12 340 00:32 11.12.2022
692 Clouds 29 1009 79 10000 3.09 340 22:51 10.12.2022
693 Clouds 29 1009 79 10000 3.09 340 22:32 10.12.2022
694 Clouds 28 1009 78 10000 2.57 330 21:18 10.12.2022
695 Clouds 27 1008 83 10000 1.03 0 20:24 10.12.2022
696 Clouds 24 1007 94 10000 0 0 18:22 10.12.2022
697 Clouds 24 1008 94 10000 2.57 340 16:47 10.12.2022
698 Clouds 24 1008 100 10000 0 0 15:53 10.12.2022
699 Clouds 24 1008 100 10000 0 0 15:33 10.12.2022
700 Clouds 24 1009 100 10000 0 0 13:44 10.12.2022
701 Clouds 25 1010 94 10000 0 0 12:34 10.12.2022
702 Clouds 25 1010 94 10000 1.54 320 11:22 10.12.2022
703 Clouds 26 1009 94 10000 2.06 30 09:52 10.12.2022
704 Clouds 27 1008 94 10000 0 0 07:23 10.12.2022
705 Clouds 27 1007 89 10000 2.57 10 06:54 10.12.2022
706 Rain 26 1011 94 10000 2.06 320 23:51 09.12.2022
707 Rain 26 1010 94 10000 1.54 340 22:43 09.12.2022
708 Clouds 26 1010 89 10000 2.06 320 21:41 09.12.2022
709 Rain 25 1009 94 10000 2.57 320 20:59 09.12.2022
710 Clouds 24 1009 100 10000 2.06 320 19:46 09.12.2022
711 Clouds 24 1008 100 10000 1.54 320 17:56 09.12.2022
712 Clouds 24 1008 100 10000 1.54 320 17:56 09.12.2022
713 Clouds 24 1008 100 10000 1.54 320 17:27 09.12.2022
714 Clouds 24 1007 100 10000 1.54 310 16:27 09.12.2022
715 Clouds 24 1007 100 10000 1.54 310 15:30 09.12.2022
716 Clouds 25 1010 94 10000 2.06 330 12:52 09.12.2022
717 Clouds 26 1010 89 10000 2.57 310 10:51 09.12.2022
718 Clouds 26 1010 89 10000 2.57 310 10:23 09.12.2022
719 Clouds 30 1007 74 10000 2.57 150 05:39 09.12.2022
720 Clouds 31 1007 70 10000 4.12 160 03:18 09.12.2022
721 Clouds 31 1008 70 10000 3.09 200 23:20 08.12.2022
722 Clouds 27 1007 89 10000 2.06 300 20:56 08.12.2022
723 Clouds 24 1007 94 10000 2.57 320 18:57 08.12.2022
724 Clouds 24 1006 94 10000 1.54 330 16:38 08.12.2022
725 Clouds 25 1006 94 10000 1.54 280 14:30 08.12.2022
726 Clouds 25 1007 94 10000 0 0 12:28 08.12.2022
727 Clouds 26 1007 94 10000 2.06 330 10:36 08.12.2022
728 Clouds 27 1006 89 10000 2.06 330 09:28 08.12.2022
729 Clouds 28 1005 83 10000 1.54 180 07:18 08.12.2022
730 Clouds 28 1005 89 10000 2.57 240 22:44 07.12.2022
731 Clouds 28 1005 89 10000 2.57 240 22:18 07.12.2022
732 Clouds 27 1007 83 10000 2.06 290 21:46 07.12.2022
733 Clouds 25 1007 94 10000 2.57 310 20:24 07.12.2022
734 Clouds 24 1005 94 10000 2.06 310 18:20 07.12.2022
735 Clouds 25 1005 94 10000 2.06 330 15:39 07.12.2022
736 Clouds 25 1006 94 10000 2.06 310 13:26 07.12.2022
737 Clouds 26 1006 94 10000 2.06 330 10:49 07.12.2022
738 Clouds 27 1005 89 10000 1.54 320 09:58 07.12.2022
739 Clouds 28 1005 83 10000 1.54 270 08:55 07.12.2022
740 Clouds 30 1004 74 10000 5.66 240 06:50 07.12.2022
741 Clouds 31 1004 70 10000 5.14 200 05:23 07.12.2022
742 Clouds 30 1007 70 10000 2.57 230 23:44 06.12.2022
743 Clouds 28 1007 83 10000 2.06 310 21:41 06.12.2022
744 Clouds 24 1006 94 10000 2.57 320 18:59 06.12.2022
745 Clouds 24 1006 94 10000 2.06 320 17:18 06.12.2022
746 Clouds 24 1006 94 10000 3.09 310 16:23 06.12.2022
747 Clouds 24 1007 94 10000 2.57 320 15:35 06.12.2022
748 Clouds 24 1007 100 10000 0 0 14:35 06.12.2022
749 Clouds 24 1008 94 10000 0 0 13:39 06.12.2022
750 Clouds 24 1010 94 10000 2.06 330 12:41 06.12.2022
751 Clouds 25 1010 94 10000 3.09 320 11:34 06.12.2022
752 Clouds 26 1008 89 10000 3.09 290 07:49 06.12.2022
753 Clouds 32 1008 58 10000 4.12 160 02:26 06.12.2022
754 Clouds 30 1010 70 10000 0 0 22:47 05.12.2022
755 Clouds 27 1009 78 10000 3.09 320 21:39 05.12.2022
756 Clouds 25 1009 88 10000 3.6 330 20:51 05.12.2022
757 Clouds 23 1009 94 10000 2.57 330 19:51 05.12.2022
758 Clouds 23 1009 94 10000 2.57 330 19:32 05.12.2022
759 Clouds 23 1008 94 10000 2.06 340 16:49 05.12.2022
760 Clouds 23 1008 94 10000 2.06 310 15:28 05.12.2022
761 Clouds 25 1010 94 10000 0 0 13:44 05.12.2022
762 Clouds 25 1011 94 10000 0 0 12:57 05.12.2022
763 Clouds 25 1011 94 10000 0 0 12:37 05.12.2022
764 Clouds 25 1011 94 10000 1.54 330 11:31 05.12.2022
765 Clouds 31 1009 66 10000 3.6 70 06:38 05.12.2022
766 Clouds 32 1010 58 10000 3.09 70 00:18 05.12.2022
767 Clouds 30 1011 70 10000 0 0 22:41 04.12.2022
768 Clouds 30 1011 70 10000 0 0 22:18 04.12.2022
769 Clouds 27 1011 89 10000 2.06 330 21:31 04.12.2022
770 Clouds 23 1010 100 10000 2.06 330 19:53 04.12.2022
771 Clouds 23 1010 100 10000 2.06 330 19:23 04.12.2022
772 Clouds 23 1009 94 10000 1.03 0 18:20 04.12.2022
773 Clouds 23 1009 100 10000 2.06 340 17:22 04.12.2022
774 Clouds 23 1009 94 10000 2.57 330 16:36 04.12.2022
775 Clouds 23 1009 94 10000 2.57 330 16:18 04.12.2022
776 Clouds 23 1009 100 10000 1.03 0 15:26 04.12.2022
777 Clouds 24 1011 94 10000 1.03 0 13:51 04.12.2022
778 Clouds 24 1011 94 10000 0 0 12:46 04.12.2022
779 Clouds 24 1011 94 10000 0 0 12:21 04.12.2022
780 Clouds 25 1012 94 10000 1.54 310 11:19 04.12.2022
781 Clouds 29 1009 79 10000 2.06 150 07:34 04.12.2022
782 Clouds 29 1009 84 10000 1.54 90 02:51 04.12.2022
783 Clouds 31 1010 74 10000 2.06 140 23:44 03.12.2022
784 Clouds 30 1010 74 10000 1.03 0 22:24 03.12.2022
785 Clouds 28 1010 83 10000 2.06 330 21:45 03.12.2022
786 Clouds 26 1010 94 10000 2.06 310 20:36 03.12.2022
787 Clouds 24 1008 94 10000 2.06 330 18:40 03.12.2022
788 Clouds 24 1008 94 10000 2.06 340 17:30 03.12.2022
789 Clouds 24 1008 100 10000 2.06 330 15:49 03.12.2022
790 Clouds 25 1010 94 10000 1.03 0 12:56 03.12.2022
791 Clouds 25 1010 94 10000 1.03 0 12:28 03.12.2022
792 Clouds 25 1010 94 10000 1.03 0 11:21 03.12.2022
793 Clouds 27 1007 89 10000 2.57 330 07:59 03.12.2022
794 Clouds 33 1008 62 10000 5.14 50 01:31 03.12.2022
795 Clouds 33 1008 62 10000 5.14 50 01:31 03.12.2022
796 Clouds 33 1008 62 10000 5.14 50 01:31 03.12.2022
797 Clouds 31 1009 62 10000 4.12 10 23:26 02.12.2022
798 Clouds 27 1010 83 10000 2.57 300 21:42 02.12.2022
799 Clouds 23 1009 94 10000 1.54 330 19:37 02.12.2022
800 Clouds 24 1008 94 10000 1.54 310 16:23 02.12.2022
801 Clouds 24 1008 94 10000 1.54 330 15:53 02.12.2022
802 Clouds 24 1009 94 10000 1.54 310 14:28 02.12.2022
803 Clouds 24 1009 94 10000 2.06 300 13:42 02.12.2022
804 Clouds 26 1009 94 10000 2.06 330 11:48 02.12.2022
805 Clouds 26 1008 94 10000 1.54 300 10:26 02.12.2022
806 Clouds 29 1006 74 10000 1.54 330 07:25 02.12.2022
807 Clouds 29 1005 74 10000 0 0 06:23 02.12.2022
808 Clouds 30 1009 70 10000 1.54 310 22:40 01.12.2022
809 Clouds 28 1008 78 10000 0 0 21:40 01.12.2022
810 Clouds 25 1008 94 10000 0 0 20:32 01.12.2022
811 Clouds 23 1007 100 10000 0 0 18:58 01.12.2022
812 Clouds 23 1007 100 10000 0 0 16:31 01.12.2022
813 Clouds 25 1008 94 10000 2.06 320 13:50 01.12.2022
814 Thunderstorm 26 1009 83 10000 2.57 120 10:43 01.12.2022
815 Thunderstorm 27 1009 83 10000 1.03 0 09:54 01.12.2022
816 Thunderstorm 27 1009 83 10000 1.03 0 09:36 01.12.2022
817 Clouds 30 1006 70 10000 3.6 80 05:49 01.12.2022
818 Clouds 29 1008 74 10000 2.57 270 22:41 30.11.2022
819 Clouds 28 1008 78 10000 2.06 330 21:20 30.11.2022
820 Clouds 25 1008 94 10000 2.06 300 20:55 30.11.2022
821 Clouds 25 1008 94 10000 2.06 300 20:23 30.11.2022
822 Fog 23 1006 100 200 0 0 18:36 30.11.2022
823 Clouds 24 1006 100 10000 1.54 320 17:39 30.11.2022
824 Clouds 24 1007 100 10000 0 0 16:26 30.11.2022
825 Clouds 24 1008 100 10000 1.54 300 14:45 30.11.2022
826 Clouds 24 1008 100 10000 1.54 300 14:24 30.11.2022
827 Clouds 24 1010 100 10000 0 0 11:57 30.11.2022
828 Clouds 25 1009 94 10000 0 0 09:21 30.11.2022
829 Clouds 25 1009 94 10000 0 0 09:21 30.11.2022
830 Clouds 25 1009 94 10000 0 0 09:21 30.11.2022
831 Clouds 27 1008 83 10000 1.54 150 07:59 30.11.2022
832 Clouds 28 1008 83 10000 2.06 320 04:57 30.11.2022
833 Clouds 31 1010 62 10000 3.6 50 23:26 29.11.2022
834 Clouds 29 1010 74 10000 1.03 0 21:48 29.11.2022
835 Clouds 26 1010 89 10000 1.03 0 20:50 29.11.2022
836 Clouds 24 1009 100 10000 0 0 19:46 29.11.2022
837 Clouds 23 1009 94 10000 1.03 0 17:52 29.11.2022
838 Clouds 24 1009 94 10000 1.03 0 16:29 29.11.2022
839 Clouds 26 1009 83 10000 1.54 80 15:21 29.11.2022
840 Clouds 26 1011 83 10000 3.09 90 13:49 29.11.2022
841 Clouds 26 1012 83 10000 2.06 90 12:36 29.11.2022
842 Clouds 26 1012 83 10000 2.57 100 11:30 29.11.2022
843 Clouds 26 1012 89 10000 2.57 110 10:23 29.11.2022
844 Clouds 27 1011 83 10000 2.57 110 08:44 29.11.2022
845 Clouds 27 1010 83 10000 4.63 100 06:34 29.11.2022
846 Clouds 31 1012 62 10000 5.14 60 23:46 28.11.2022
847 Clouds 31 1012 62 10000 5.14 60 23:21 28.11.2022
848 Clouds 29 1012 79 10000 4.63 80 21:55 28.11.2022
849 Clouds 29 1012 79 10000 4.63 80 21:36 28.11.2022
850 Clouds 26 1013 94 10000 0 0 20:20 28.11.2022
851 Clouds 24 1011 94 10000 1.03 330 18:41 28.11.2022
852 Clouds 24 1011 94 10000 1.03 330 17:54 28.11.2022
853 Clouds 24 1011 94 10000 1.03 330 17:21 28.11.2022
854 Clouds 25 1012 94 10000 2.06 330 14:43 28.11.2022
855 Clouds 25 1012 94 10000 1.54 340 13:52 28.11.2022
856 Clouds 25 1013 94 10000 0 0 12:44 28.11.2022
857 Clouds 25 1013 94 10000 0 0 12:44 28.11.2022
858 Clouds 26 1013 83 10000 1.03 0 10:55 28.11.2022
859 Thunderstorm 28 1011 83 10000 3.09 90 07:54 28.11.2022
860 Clouds 30 1010 70 10000 3.6 110 04:53 28.11.2022
861 Rain 30 1010 70 10000 4.12 110 03:59 28.11.2022
862 Clouds 30 1010 70 10000 4.12 110 03:20 28.11.2022
863 Clouds 29 1012 65 10000 3.09 30 23:43 27.11.2022
864 Clouds 26 1013 83 10000 2.06 350 21:49 27.11.2022
865 Clouds 24 1013 94 10000 3.6 340 20:36 27.11.2022
866 Clouds 24 1012 83 10000 0.68 24 18:00 27.11.2022
867 Clouds 22 1012 94 10000 2.06 330 15:36 27.11.2022
868 Clouds 22 1014 94 8000 1.03 0 13:34 27.11.2022
869 Clouds 26 1013 83 10000 1.54 210 10:57 27.11.2022
870 Rain 27 1011 83 10000 1.54 210 08:47 27.11.2022
871 Rain 30 1009 70 10000 3.6 60 04:47 27.11.2022
872 Clouds 29 1012 74 10000 1.54 150 22:34 26.11.2022
873 Clouds 24 1010 94 10000 2.06 320 20:51 26.11.2022
874 Clouds 23 1010 100 10000 2.06 330 19:29 26.11.2022
875 Clouds 23 1009 94 10000 0 0 17:56 26.11.2022
876 Clouds 23 1009 94 10000 1.54 330 15:53 26.11.2022
877 Clouds 24 1010 94 10000 1.54 330 13:35 26.11.2022
878 Clouds 25 1011 88 10000 2.57 330 11:45 26.11.2022
879 Clouds 25 1011 88 10000 2.06 330 10:22 26.11.2022
880 Clouds 26 1010 89 10000 1.03 0 09:31 26.11.2022
881 Rain 29 1008 74 10000 4.63 60 06:30 26.11.2022
882 Clouds 27 1011 83 10000 1.54 340 21:46 25.11.2022
883 Clouds 27 1011 83 10000 1.54 340 21:22 25.11.2022
884 Clouds 23 1010 94 10000 2.06 320 19:56 25.11.2022
885 Clouds 23 1009 94 10000 2.06 310 16:49 25.11.2022
886 Clouds 24 1010 100 10000 1.54 330 14:21 25.11.2022
887 Clouds 26 1011 89 10000 0 0 09:21 25.11.2022
888 Clouds 27 1010 83 10000 0 0 08:40 25.11.2022
889 Rain 29 1009 74 10000 1.03 0 06:54 25.11.2022
890 Rain 29 1009 74 10000 1.03 0 06:22 25.11.2022
891 Clouds 30 1012 70 10000 3.6 40 23:54 24.11.2022
892 Clouds 29 1012 65 10000 3.6 20 22:50 24.11.2022
893 Clouds 27 1012 83 10000 2.06 330 21:58 24.11.2022
894 Clouds 25 1011 88 10000 2.06 330 20:19 24.11.2022
895 Clouds 24 1010 94 10000 1.03 0 18:30 24.11.2022
896 Clouds 24 1010 94 10000 1.03 0 17:40 24.11.2022
897 Clouds 24 1010 94 10000 1.03 0 17:20 24.11.2022
898 Clouds 25 1012 94 10000 2.06 330 14:37 24.11.2022
899 Clouds 26 1012 89 10000 1.54 330 13:48 24.11.2022
900 Clouds 27 1013 89 10000 0 0 11:55 24.11.2022
901 Clouds 27 1012 83 10000 0 0 10:35 24.11.2022
902 Clouds 29 1010 70 10000 3.6 60 07:53 24.11.2022
903 Clouds 32 1010 48 10000 5.14 70 03:19 24.11.2022
904 Clouds 31 1013 55 10000 3.09 50 23:33 23.11.2022
905 Clouds 27 1013 78 10000 2.06 300 21:56 23.11.2022
906 Clouds 27 1013 78 10000 2.06 300 21:19 23.11.2022
907 Clouds 22 1013 100 10000 1.54 320 19:58 23.11.2022
908 Clouds 22 1012 100 10000 2.06 330 18:58 23.11.2022
909 Clouds 22 1012 100 10000 2.06 330 18:33 23.11.2022
910 Clouds 23 1012 94 10000 1.54 330 16:22 23.11.2022
911 Clouds 24 1013 94 10000 1.54 330 13:26 23.11.2022
912 Clouds 23 1014 100 10000 1.03 310 12:58 23.11.2022
913 Clouds 24 1014 88 10000 1.03 0 11:54 23.11.2022
914 Clouds 24 1014 88 10000 1.03 0 11:19 23.11.2022
915 Clouds 25 1013 83 10000 1.03 0 10:42 23.11.2022
916 Clouds 26 1013 83 10000 1.03 0 09:41 23.11.2022
917 Clouds 26 1013 83 10000 1.03 0 09:23 23.11.2022
918 Clouds 27 1012 74 10000 1.03 0 08:36 23.11.2022
919 Clouds 27 1012 74 10000 1.03 0 08:36 23.11.2022
920 Clouds 30 1011 58 10000 3.6 120 05:21 23.11.2022
921 Clouds 31 1012 62 10000 4.63 80 02:36 23.11.2022
922 Clouds 30 1013 58 10000 4.12 90 22:38 22.11.2022
923 Clouds 27 1014 83 10000 1.03 0 21:53 22.11.2022
924 Clouds 27 1014 83 10000 1.03 0 21:32 22.11.2022
925 Clouds 24 1014 94 10000 2.06 340 20:45 22.11.2022
926 Clouds 23 1013 94 10000 2.06 310 19:52 22.11.2022
927 Clouds 23 1012 94 10000 1.03 0 17:54 22.11.2022
928 Clouds 23 1012 94 10000 1.54 330 16:48 22.11.2022
929 Clouds 23 1013 94 10000 1.54 320 14:56 22.11.2022
930 Clouds 23 1014 94 10000 1.54 330 13:21 22.11.2022
931 Clouds 26 1013 83 10000 1.54 120 10:23 22.11.2022
932 Clouds 27 1012 74 10000 0 0 08:59 22.11.2022
933 Clouds 30 1010 62 10000 4.12 80 06:45 22.11.2022
934 Clouds 30 1013 66 10000 5.14 60 01:35 22.11.2022
935 Clouds 29 1014 65 10000 3.6 60 23:28 21.11.2022
936 Clouds 25 1014 88 10000 2.57 90 22:26 21.11.2022
937 Clouds 25 1014 88 10000 1.54 340 21:33 21.11.2022
938 Clouds 24 1013 94 10000 1.03 0 20:35 21.11.2022
939 Clouds 22 1012 94 10000 2.06 310 19:40 21.11.2022
940 Clouds 22 1012 100 10000 0 0 18:52 21.11.2022
941 Clouds 22 1011 94 10000 2.06 320 17:45 21.11.2022
942 Clouds 22 1011 94 10000 0 0 16:44 21.11.2022
943 Clouds 22 1011 94 10000 0 0 16:23 21.11.2022
944 Clouds 22 1011 100 10000 0 0 15:24 21.11.2022
945 Clouds 23 1013 94 10000 2.06 310 13:54 21.11.2022
946 Clouds 23 1013 94 10000 2.06 310 13:27 21.11.2022
947 Clouds 25 1014 88 10000 1.54 310 10:19 21.11.2022
948 Clouds 27 1013 78 10000 2.06 120 08:19 21.11.2022
949 Clouds 27 1013 78 10000 2.06 120 08:19 21.11.2022
950 Clouds 31 1011 58 10000 4.63 70 02:18 21.11.2022
951 Clouds 27 1013 83 10000 2.57 320 21:59 20.11.2022
952 Clouds 26 1012 89 10000 1.54 320 20:48 20.11.2022
953 Clouds 23 1011 100 10000 2.06 210 19:57 20.11.2022
954 Clouds 24 1011 94 10000 1.54 30 17:43 20.11.2022
955 Clouds 24 1012 100 10000 0 0 15:50 20.11.2022
956 Clouds 24 1012 100 10000 0 0 15:24 20.11.2022
957 Clouds 25 1013 88 10000 0 0 14:18 20.11.2022
958 Clouds 25 1013 94 10000 0 0 13:32 20.11.2022
959 Clouds 25 1013 94 10000 0 0 13:32 20.11.2022
960 Clouds 25 1013 94 10000 0 0 13:32 20.11.2022
961 Clouds 26 1013 83 10000 0 0 12:23 20.11.2022
962 Rain 27 1013 83 10000 0 0 10:58 20.11.2022
963 Rain 28 1013 74 10000 0 0 09:44 20.11.2022
964 Clouds 27 1012 74 10000 1.54 120 08:55 20.11.2022
965 Clouds 27 1012 74 10000 1.54 120 08:32 20.11.2022
966 Rain 28 1011 69 10000 1.54 90 07:26 20.11.2022
967 Clouds 31 1011 62 10000 3.6 70 01:29 20.11.2022
968 Clouds 30 1011 66 10000 3.6 40 00:55 20.11.2022
969 Clouds 30 1011 66 10000 3.6 40 00:36 20.11.2022
970 Clouds 30 1011 66 10000 3.6 40 00:18 20.11.2022
971 Clouds 30 1012 66 10000 3.09 60 23:26 19.11.2022
972 Clouds 30 1012 66 10000 3.09 60 23:26 19.11.2022
973 Clouds 29 1012 70 10000 2.57 10 22:48 19.11.2022
974 Clouds 27 1012 83 10000 1.54 340 21:57 19.11.2022
975 Clouds 27 1012 83 10000 1.54 340 21:25 19.11.2022
976 Clouds 25 1011 88 10000 2.06 330 20:41 19.11.2022
977 Clouds 23 1011 94 10000 2.57 330 19:51 19.11.2022
978 Clouds 23 1010 94 10000 2.06 330 18:53 19.11.2022
979 Clouds 23 1010 94 10000 2.06 330 17:38 19.11.2022
980 Clouds 23 1010 94 10000 2.06 330 17:18 19.11.2022
981 Clouds 25 1011 88 10000 0 0 14:58 19.11.2022
982 Clouds 25 1011 94 10000 0 0 13:34 19.11.2022
983 Clouds 27 1012 78 10000 0 0 11:54 19.11.2022
984 Clouds 28 1011 74 10000 2.06 40 09:45 19.11.2022
985 Clouds 28 1010 74 10000 4.12 60 07:53 19.11.2022
986 Clouds 31 1009 62 10000 6.69 50 04:45 19.11.2022
987 Clouds 30 1011 62 10000 5.14 60 00:48 19.11.2022
988 Clouds 30 1012 62 10000 5.14 60 23:34 18.11.2022
989 Clouds 30 1012 62 10000 5.14 60 23:34 18.11.2022
990 Clouds 30 1012 62 10000 5.14 60 23:34 18.11.2022
991 Clouds 30 1012 62 10000 5.14 60 23:34 18.11.2022
992 Clouds 29 1012 74 10000 2.57 10 22:23 18.11.2022
993 Clouds 28 1012 74 10000 2.06 320 21:35 18.11.2022
994 Clouds 25 1012 94 10000 2.06 320 20:57 18.11.2022
995 Clouds 25 1012 94 10000 2.06 320 20:25 18.11.2022
996 Clouds 23 1012 100 10000 4.63 320 19:36 18.11.2022
997 Clouds 23 1010 100 10000 2.06 350 17:45 18.11.2022
998 Clouds 23 1010 100 10000 0 0 15:59 18.11.2022
999 Clouds 24 1012 94 10000 1.03 0 11:52 18.11.2022
1000 Clouds 25 1012 88 10000 1.03 0 10:22 18.11.2022
1001 Clouds 25 1012 88 10000 1.03 0 10:22 18.11.2022
1002 Clouds 28 1009 74 10000 3.6 90 07:52 18.11.2022
1003 Clouds 29 1009 65 10000 3.6 80 05:27 18.11.2022
1004 Clouds 29 1010 65 10000 5.14 50 02:40 18.11.2022
1005 Clouds 29 1012 70 10000 2.57 60 23:29 17.11.2022
1006 Clouds 22 1012 94 10000 2.57 320 20:48 17.11.2022
1007 Clouds 21 1012 100 10000 2.06 320 19:54 17.11.2022
1008 Clouds 21 1012 100 10000 2.06 320 19:25 17.11.2022
1009 Fog 21 1011 94 800 2.06 320 18:27 17.11.2022
1010 Clouds 21 1010 100 10000 2.06 320 17:30 17.11.2022
1011 Clouds 21 1010 100 10000 1.03 0 15:45 17.11.2022
1012 Clouds 22 1011 100 10000 1.54 330 12:19 17.11.2022
1013 Clouds 24 1010 88 10000 0 0 10:35 17.11.2022
1014 Clouds 27 1009 69 10000 2.06 90 07:35 17.11.2022
1015 Clouds 27 1010 74 10000 4.12 90 00:54 17.11.2022
1016 Clouds 29 1010 65 10000 2.57 190 23:21 16.11.2022
1017 Clouds 26 1010 83 10000 2.06 310 21:54 16.11.2022
1018 Clouds 24 1009 88 10000 2.57 320 20:31 16.11.2022
1019 Clouds 22 1009 94 10000 2.06 300 18:48 16.11.2022
1020 Clouds 22 1009 94 10000 2.06 300 18:27 16.11.2022
1021 Clouds 23 1009 94 10000 2.06 290 15:35 16.11.2022
1022 Clouds 25 1011 83 10000 1.03 0 11:23 16.11.2022
1023 Clouds 27 1008 69 10000 3.6 200 06:54 16.11.2022
1024 Clouds 30 1008 58 10000 3.09 200 01:38 16.11.2022
1025 Clouds 30 1009 54 10000 1.03 0 23:31 15.11.2022
1026 Clouds 26 1010 78 10000 1.54 310 21:28 15.11.2022
1027 Clouds 20 1009 94 10000 2.57 320 19:47 15.11.2022
1028 Clouds 20 1008 94 10000 2.06 320 18:51 15.11.2022
1029 Clouds 20 1007 94 10000 2.06 330 17:36 15.11.2022
1030 Clouds 20 1007 94 10000 2.06 320 16:20 15.11.2022
1031 Clouds 20 1007 100 10000 2.57 310 15:35 15.11.2022
1032 Clouds 21 1008 94 10000 2.06 340 13:43 15.11.2022
1033 Clouds 21 1009 100 10000 1.54 330 12:54 15.11.2022
1034 Clouds 22 1009 94 10000 2.06 330 11:21 15.11.2022
1035 Clouds 22 1008 94 10000 2.57 310 09:28 15.11.2022
1036 Clouds 29 1007 65 10000 3.09 220 00:42 15.11.2022
1037 Clouds 29 1007 65 10000 3.09 220 00:22 15.11.2022
1038 Clouds 26 1007 78 10000 0 0 21:51 14.11.2022
1039 Clouds 24 1007 88 10000 2.06 320 20:43 14.11.2022
1040 Clouds 21 1006 100 10000 2.06 300 19:19 14.11.2022
1041 Clouds 21 1005 94 10000 2.57 350 18:21 14.11.2022
1042 Clouds 22 1008 100 10000 1.54 330 12:55 14.11.2022
1043 Clouds 22 1008 100 10000 0 0 11:45 14.11.2022
1044 Clouds 23 1008 94 10000 1.03 0 10:49 14.11.2022
1045 Clouds 24 1007 94 10000 0 0 08:30 14.11.2022
1046 Clouds 25 1007 83 10000 1.54 180 07:51 14.11.2022
1047 Rain 23 1009 94 10000 4.63 230 00:19 14.11.2022
1048 Rain 23 1009 94 10000 4.63 230 00:19 14.11.2022
1049 Rain 23 1009 94 10000 4.63 230 00:19 14.11.2022
1050 Rain 28 1009 78 10000 1.03 0 22:43 13.11.2022
1051 Clouds 26 1009 89 10000 2.06 300 21:40 13.11.2022
1052 Clouds 24 1008 94 10000 2.06 310 20:45 13.11.2022
1053 Clouds 23 1007 100 10000 2.06 330 18:35 13.11.2022
1054 Clouds 23 1006 100 10000 0 0 17:49 13.11.2022
1055 Clouds 23 1007 100 10000 1.03 340 15:20 13.11.2022
1056 Clouds 24 1008 94 10000 1.54 300 14:30 13.11.2022
1057 Clouds 24 1010 100 10000 1.54 290 12:52 13.11.2022
1058 Rain 24 1010 100 10000 1.54 330 11:34 13.11.2022
1059 Clouds 24 1009 94 10000 0 0 09:44 13.11.2022
1060 Rain 25 1009 94 10000 2.06 200 05:52 13.11.2022
1061 Clouds 25 1011 100 10000 1.54 280 23:35 12.11.2022
1062 Clouds 25 1012 94 4000 1.03 0 21:24 12.11.2022
1063 Clouds 25 1012 94 5000 1.03 0 20:23 12.11.2022
1064 Clouds 24 1010 94 10000 0 0 18:45 12.11.2022
1065 Clouds 24 1010 94 10000 1.03 0 16:28 12.11.2022
1066 Clouds 24 1010 100 10000 1.03 0 15:24 12.11.2022
1067 Rain 25 1012 94 10000 1.03 0 13:28 12.11.2022
1068 Clouds 26 1011 89 10000 0 0 09:30 12.11.2022
1069 Clouds 27 1010 83 10000 1.54 190 07:47 12.11.2022
1070 Clouds 30 1012 74 10000 3.6 60 23:23 11.11.2022
1071 Clouds 25 1011 100 10000 2.06 320 20:52 11.11.2022
1072 Clouds 25 1011 100 10000 2.06 320 20:23 11.11.2022
1073 Clouds 24 1011 100 10000 1.54 330 19:25 11.11.2022
1074 Clouds 24 1010 100 10000 0 0 17:58 11.11.2022
1075 Clouds 24 1010 100 10000 0 0 16:55 11.11.2022
1076 Clouds 24 1011 100 10000 0 0 14:29 11.11.2022
1077 Clouds 24 1011 100 10000 0 0 13:31 11.11.2022
1078 Clouds 25 1013 94 10000 2.06 320 10:32 11.11.2022
1079 Clouds 25 1011 94 10000 2.06 320 08:28 11.11.2022
1080 Clouds 26 1010 89 10000 2.06 50 07:38 11.11.2022
1081 Clouds 30 1010 74 10000 0 0 23:58 10.11.2022
1082 Clouds 30 1010 70 10000 2.06 30 22:49 10.11.2022
1083 Clouds 27 1010 89 10000 1.03 0 21:38 10.11.2022
1084 Clouds 27 1010 89 10000 1.03 0 21:19 10.11.2022
1085 Clouds 26 1010 89 10000 2.06 10 20:23 10.11.2022
1086 Clouds 23 1009 100 10000 1.03 0 19:55 10.11.2022
1087 Clouds 23 1009 100 10000 2.06 360 18:44 10.11.2022
1088 Clouds 23 1008 100 10000 0 0 16:26 10.11.2022
1089 Clouds 24 1009 94 10000 1.03 350 14:43 10.11.2022
1090 Clouds 24 1011 89 10000 2.22 328 13:18 10.11.2022
1091 Clouds 26 1009 89 10000 1.54 20 09:19 10.11.2022
1092 Clouds 28 1007 78 10000 4.12 30 06:40 10.11.2022
1093 Rain 29 1010 70 10000 6.69 30 00:56 10.11.2022
1094 Clouds 26 1010 94 10000 3.09 20 22:46 09.11.2022
1095 Rain 24 1010 94 10000 2.06 330 20:58 09.11.2022
1096 Rain 24 1010 94 10000 2.06 330 20:39 09.11.2022
1097 Clouds 24 1010 94 10000 1.54 360 19:48 09.11.2022
1098 Clouds 24 1010 94 10000 1.54 360 19:24 09.11.2022
1099 Rain 24 1008 94 8000 2.06 50 16:57 09.11.2022
1100 Rain 25 1009 94 5000 5.14 20 14:51 09.11.2022
1101 Rain 25 1009 94 5000 5.14 20 14:26 09.11.2022
1102 Rain 25 1009 94 5000 5.14 20 14:26 09.11.2022
1103 Clouds 26 1009 83 10000 2.57 40 13:34 09.11.2022
1104 Rain 26 1010 83 10000 2.57 20 12:49 09.11.2022
1105 Clouds 27 1010 74 10000 3.6 60 09:28 09.11.2022
1106 Clouds 28 1008 69 10000 5.14 70 07:47 09.11.2022
1107 Clouds 29 1009 70 10000 6.17 50 02:33 09.11.2022
1108 Clouds 27 1010 74 10000 4.12 50 22:23 08.11.2022
1109 Clouds 25 1011 94 10000 2.06 340 21:36 08.11.2022
1110 Clouds 24 1011 94 10000 2.06 340 20:41 08.11.2022
1111 Clouds 23 1010 100 10000 2.06 330 19:47 08.11.2022
1112 Clouds 23 1010 100 10000 2.06 330 19:20 08.11.2022
1113 Clouds 25 1010 88 10000 2.57 290 17:34 08.11.2022
1114 Clouds 25 1010 83 10000 2.57 90 14:57 08.11.2022
1115 Clouds 25 1010 83 10000 2.57 90 14:23 08.11.2022
1116 Clouds 26 1011 83 10000 2.06 80 13:26 08.11.2022
1117 Clouds 26 1011 78 10000 3.09 80 10:26 08.11.2022
1118 Clouds 27 1009 74 10000 5.14 80 07:30 08.11.2022
1119 Clouds 30 1010 58 10000 6.69 70 01:41 08.11.2022
1120 Clouds 30 1010 58 10000 6.69 70 01:41 08.11.2022
1121 Clouds 28 1010 69 10000 6.17 70 22:54 07.11.2022
1122 Clouds 27 1011 74 10000 4.63 60 21:39 07.11.2022
1123 Clouds 24 1011 88 10000 1.03 0 20:45 07.11.2022
1124 Clouds 23 1011 94 10000 1.03 0 19:33 07.11.2022
1125 Clouds 23 1010 94 10000 3.09 300 17:39 07.11.2022
1126 Clouds 23 1011 94 5000 2.57 10 15:36 07.11.2022
1127 Clouds 25 1011 88 10000 2.57 320 14:54 07.11.2022
1128 Clouds 25 1012 88 10000 0 0 12:59 07.11.2022
1129 Clouds 25 1012 88 10000 0 0 11:49 07.11.2022
1130 Clouds 25 1011 88 10000 0 0 09:49 07.11.2022
1131 Clouds 28 1009 65 10000 3.6 70 07:54 07.11.2022
1132 Clouds 28 1008 65 10000 4.12 60 06:27 07.11.2022
1133 Clouds 29 1011 65 10000 5.66 60 01:42 07.11.2022
1134 Clouds 28 1013 69 10000 5.66 80 22:39 06.11.2022
1135 Clouds 25 1013 77 10000 4.39 81 21:21 06.11.2022
1136 Clouds 25 1013 77 10000 4.39 81 20:34 06.11.2022
1137 Clouds 25 1013 81 10000 3.84 87 19:55 06.11.2022
1138 Clouds 24 1012 83 10000 3.64 87 18:41 06.11.2022
1139 Clouds 24 1011 84 10000 3.49 88 18:20 06.11.2022
1140 Clouds 23 1011 85 10000 3.1 83 17:22 06.11.2022
1141 Clouds 23 1011 85 10000 3.1 83 16:41 06.11.2022
1142 Clouds 23 1010 85 10000 2.73 77 15:54 06.11.2022
1143 Clouds 23 1011 85 10000 2.11 72 14:36 06.11.2022
1144 Clouds 23 1012 94 10000 1.03 0 12:42 06.11.2022
1145 Clouds 24 1013 83 10000 1.03 0 10:48 06.11.2022
1146 Clouds 25 1012 78 10000 2.06 120 09:30 06.11.2022
1147 Clouds 28 1010 65 10000 4.12 90 06:39 06.11.2022
1148 Clouds 26 1014 71 10000 4.54 93 23:22 05.11.2022
1149 Clouds 24 1012 94 10000 0 0 19:43 05.11.2022
1150 Clouds 24 1012 94 10000 2.57 110 18:20 05.11.2022
1151 Clouds 24 1011 94 10000 0 0 16:21 05.11.2022
1152 Clouds 25 1012 88 10000 0 0 14:34 05.11.2022
1153 Clouds 25 1014 88 10000 0 0 12:51 05.11.2022
1154 Clouds 26 1014 83 10000 2.06 120 10:38 05.11.2022
1155 Clouds 26 1013 83 10000 1.03 0 08:48 05.11.2022
1156 Clouds 28 1012 74 10000 3.09 90 06:57 05.11.2022
1157 Clouds 28 1012 74 10000 3.09 90 06:36 05.11.2022
1158 Clouds 27 1015 83 10000 7.2 100 23:35 04.11.2022
1159 Clouds 28 1015 78 10000 1.03 0 22:31 04.11.2022
1160 -273 0 0 0 0 0 20:21 04.11.2022
1161 Fog 23 1013 94 10000 1.03 340 17:46 04.11.2022
1162 Fog 23 1013 94 10000 1.03 340 16:34 04.11.2022
1163 Clouds 24 1014 94 10000 2.06 340 13:39 04.11.2022
1164 Clouds 24 1015 100 10000 1.03 0 12:25 04.11.2022
1165 Clouds 26 1014 89 10000 0 0 09:41 04.11.2022
1166 Clouds 27 1014 89 10000 1.03 0 08:29 04.11.2022
1167 Clouds 28 1013 78 10000 1.03 0 07:41 04.11.2022
1168 Clouds 31 1013 62 10000 4.63 80 01:36 04.11.2022
1169 Clouds 29 1014 70 10000 3.09 20 22:44 03.11.2022
1170 Clouds 25 1013 94 10000 0 0 20:49 03.11.2022
1171 Clouds 25 1013 94 10000 2.06 330 19:44 03.11.2022
1172 Clouds 25 1012 94 10000 1.54 310 18:46 03.11.2022
1173 Clouds 26 1011 89 10000 3.09 80 17:40 03.11.2022
1174 Clouds 26 1011 83 10000 1.54 80 16:18 03.11.2022
1175 Clouds 27 1012 83 10000 2.57 60 13:54 03.11.2022
1176 Clouds 26 1013 89 10000 2.57 60 12:35 03.11.2022
1177 Clouds 26 1013 83 10000 3.09 60 11:44 03.11.2022
1178 Clouds 27 1011 83 10000 4.12 70 08:51 03.11.2022
1179 Clouds 29 1009 74 10000 5.14 60 06:47 03.11.2022
1180 Clouds 24 1012 88 10000 1.03 0 20:57 02.11.2022
1181 Clouds 24 1012 88 10000 1.03 0 20:33 02.11.2022
1182 Mist 21 1011 100 3000 1.03 0 18:58 02.11.2022
1183 Clouds 22 1010 94 10000 2.06 320 16:31 02.11.2022
1184 Clouds 22 1011 94 10000 2.06 320 15:35 02.11.2022
1185 Clouds 23 1011 94 10000 1.54 340 13:42 02.11.2022
1186 Clouds 23 1011 94 10000 1.54 320 12:35 02.11.2022
1187 Clouds 24 1011 94 10000 0 0 10:25 02.11.2022
1188 Rain 25 1010 83 10000 2.06 110 08:43 02.11.2022
1189 Clouds 28 1009 74 10000 4.12 130 03:32 02.11.2022
1190 Clouds 25 1013 94 10000 1.03 0 22:53 01.11.2022
1191 Rain 25 1013 94 10000 1.03 0 22:18 01.11.2022
1192 Rain 22 1013 89 10000 1.47 332 21:20 01.11.2022
1193 Rain 22 1013 89 10000 1.47 332 21:20 01.11.2022
1194 Clouds 23 1011 94 10000 1.54 310 20:23 01.11.2022
1195 Clouds 23 1011 94 10000 1.54 310 20:23 01.11.2022
1196 Clouds 23 1011 94 10000 1.03 0 19:41 01.11.2022
1197 Rain 23 1010 94 10000 0.51 0 18:26 01.11.2022
1198 Rain 23 1010 94 10000 1.03 0 16:53 01.11.2022
1199 Clouds 24 1011 94 10000 2.57 340 14:45 01.11.2022
1200 Rain 23 1012 89 10000 4.23 31 13:20 01.11.2022
1201 Rain 24 1012 94 10000 1.03 0 12:26 01.11.2022
1202 Rain 24 1012 94 10000 2.57 360 11:21 01.11.2022
1203 Thunderstorm 25 1012 88 10000 2.57 240 09:24 01.11.2022
1204 Rain 27 1011 83 10000 2.57 90 07:53 01.11.2022
1205 Clouds 27 1011 83 10000 2.57 90 07:28 01.11.2022
1206 Rain 28 1010 78 10000 2.57 30 06:46 01.11.2022
1207 Clouds 28 1009 78 10000 4.12 50 05:23 01.11.2022
1208 Clouds 29 1011 70 10000 1.54 40 22:44 31.10.2022
1209 Clouds 27 1011 83 10000 0 0 21:34 31.10.2022
1210 Clouds 23 1010 100 10000 0 0 19:57 31.10.2022
1211 Clouds 23 1009 100 10000 0 0 18:42 31.10.2022
1212 Clouds 23 1009 100 10000 1.54 310 16:44 31.10.2022
1213 Clouds 23 1009 100 10000 0 0 15:35 31.10.2022
1214 Clouds 24 1009 94 10000 0 0 12:30 31.10.2022
1215 Clouds 24 1010 94 10000 1.54 300 09:36 31.10.2022
1216 Clouds 27 1008 78 10000 2.06 30 07:41 31.10.2022
1217 Rain 30 1008 70 10000 2.57 10 02:47 31.10.2022
1218 Clouds 26 1010 89 10000 3.09 350 01:48 31.10.2022
1219 Clouds 26 1010 89 10000 0 0 22:20 30.10.2022
1220 Rain 24 1010 94 10000 1.03 0 20:39 30.10.2022
1221 Rain 24 1009 94 10000 2.06 330 19:36 30.10.2022
1222 Rain 24 1008 100 10000 1.54 360 16:42 30.10.2022
1223 Rain 25 1010 94 10000 2.06 360 14:43 30.10.2022
1224 Rain 25 1009 94 10000 2.06 360 13:50 30.10.2022
1225 Clouds 25 1010 94 10000 1.03 0 12:24 30.10.2022
1226 Clouds 25 1010 94 10000 0 0 10:25 30.10.2022
1227 Clouds 25 1010 94 10000 0 0 09:35 30.10.2022
1228 Clouds 26 1009 89 10000 0 0 07:57 30.10.2022
1229 Clouds 29 1010 70 10000 5.14 50 00:29 30.10.2022
1230 Clouds 28 1010 78 10000 3.6 40 23:47 29.10.2022
1231 Clouds 28 1010 78 10000 3.6 70 22:31 29.10.2022
1232 Clouds 23 1009 100 10000 0 0 19:38 29.10.2022
1233 Clouds 24 1009 100 10000 0 0 17:23 29.10.2022
1234 Clouds 24 1009 100 10000 0 0 15:39 29.10.2022
1235 Clouds 24 1010 94 10000 0 0 14:54 29.10.2022
1236 Clouds 24 1011 94 10000 0 0 13:50 29.10.2022
1237 Clouds 24 1011 100 10000 0 0 12:33 29.10.2022
1238 Clouds 26 1009 89 10000 1.03 0 09:32 29.10.2022
1239 Clouds 29 1008 74 10000 4.12 90 06:51 29.10.2022
1240 Clouds 29 1008 70 10000 4.63 60 05:54 29.10.2022
1241 Clouds 29 1010 70 10000 4.63 90 23:44 28.10.2022
1242 Clouds 25 1010 94 10000 0 0 21:37 28.10.2022
1243 Clouds 23 1009 100 10000 0 0 19:59 28.10.2022
1244 Clouds 23 1009 100 10000 0 0 18:33 28.10.2022
1245 Clouds 24 1008 100 10000 0 0 17:52 28.10.2022
1246 Clouds 24 1009 94 10000 0 0 15:18 28.10.2022
1247 Clouds 24 1011 94 10000 1.03 0 13:43 28.10.2022
1248 Clouds 25 1011 88 10000 1.03 0 11:55 28.10.2022
1249 Clouds 25 1011 88 10000 1.03 0 11:32 28.10.2022
1250 Clouds 25 1011 88 10000 1.03 0 10:45 28.10.2022
1251 Clouds 25 1010 88 10000 1.03 0 09:37 28.10.2022
1252 Clouds 26 1009 83 10000 3.6 60 07:19 28.10.2022
1253 Clouds 29 1010 65 10000 5.14 60 02:30 28.10.2022
1254 Clouds 24 1012 88 10000 5.14 90 23:47 27.10.2022
1255 Clouds 26 1012 84 10000 4.9 53 22:37 27.10.2022
1256 Clouds 23 1009 94 10000 1.03 0 20:58 27.10.2022
1257 Clouds 23 1008 94 10000 1.54 290 18:33 27.10.2022
1258 Clouds 23 1009 88 10000 3.7 56 17:22 27.10.2022
1259 Clouds 24 1011 94 10000 1.03 0 12:54 27.10.2022
1260 Clouds 26 1008 83 10000 4.63 80 07:50 27.10.2022
1261 Clouds 28 1008 74 10000 5.14 70 02:55 27.10.2022
1262 Clouds 27 1009 78 10000 4.12 100 23:53 26.10.2022
1263 Clouds 26 1009 83 10000 1.54 110 22:43 26.10.2022
1264 Clouds 23 1009 94 10000 1.54 320 21:38 26.10.2022
1265 Clouds 22 1008 100 10000 1.54 280 18:28 26.10.2022
1266 Clouds 24 1009 100 10000 0 0 14:54 26.10.2022
1267 Clouds 23 1009 94 10000 1.54 70 13:34 26.10.2022
1268 Clouds 23 1010 94 10000 2.06 80 12:32 26.10.2022
1269 Clouds 23 1008 100 5000 3.09 80 09:20 26.10.2022
1270 Clouds 25 1007 83 10000 1.03 0 08:53 26.10.2022
1271 Clouds 25 1007 83 10000 3.6 60 07:52 26.10.2022
1272 Rain 23 1009 88 10000 4.12 60 00:40 26.10.2022
1273 Rain 23 1010 83 10000 3.6 50 22:59 25.10.2022
1274 Rain 22 1009 88 10000 3.6 70 21:46 25.10.2022
1275 Rain 20 1009 100 10000 1.54 230 20:46 25.10.2022
1276 Clouds 19 1009 100 10000 0 0 18:57 25.10.2022
1277 Rain 19 1009 100 10000 2.57 40 17:49 25.10.2022
1278 Clouds 20 1013 88 10000 3.6 90 13:26 25.10.2022
1279 Rain 21 1012 83 10000 2.06 130 11:38 25.10.2022
1280 Rain 22 1012 88 10000 3.09 120 10:36 25.10.2022
1281 Rain 22 1011 88 10000 2.06 120 08:43 25.10.2022
1282 Rain 22 1011 88 10000 2.06 120 08:18 25.10.2022
1283 Rain 23 1010 78 10000 2.57 100 07:54 25.10.2022
1284 Rain 24 1010 78 10000 2.57 120 06:53 25.10.2022
1285 Clouds 25 1011 78 10000 4.12 120 03:35 25.10.2022
1286 Rain 27 1012 65 10000 6.69 90 00:33 25.10.2022
1287 Clouds 26 1013 69 10000 4.63 100 22:29 24.10.2022
1288 Clouds 24 1012 78 10000 3.6 130 21:50 24.10.2022
1289 Clouds 24 1012 78 10000 3.6 130 21:32 24.10.2022
1290 Clouds 23 1011 88 10000 0 0 20:41 24.10.2022
1291 Clouds 23 1011 83 10000 0 0 18:52 24.10.2022
1292 Clouds 24 1011 73 10000 3.09 130 16:59 24.10.2022
1293 Clouds 24 1012 73 10000 3.09 120 15:51 24.10.2022
1294 Clouds 23 1014 76 10000 4.87 106 14:21 24.10.2022
1295 Clouds 25 1014 65 10000 2.06 140 12:53 24.10.2022
1296 Clouds 24 1013 78 10000 3.6 120 10:27 24.10.2022
1297 Clouds 24 1011 78 10000 4.12 150 07:56 24.10.2022
1298 Clouds 25 1014 69 10000 3.09 150 23:45 23.10.2022
1299 Rain 23 1014 88 10000 2.57 150 20:41 23.10.2022
1300 Clouds 22 1013 94 5000 2.06 160 19:29 23.10.2022
1301 Clouds 22 1013 94 10000 2.06 160 17:30 23.10.2022
1302 Clouds 22 1013 94 10000 2.06 160 17:30 23.10.2022
1303 Clouds 22 1014 94 10000 1.03 0 16:37 23.10.2022
1304 Clouds 23 1013 87 10000 6.53 129 15:19 23.10.2022
1305 Clouds 24 1015 86 10000 6.41 125 12:21 23.10.2022
1306 Clouds 25 1013 83 10000 4.12 140 10:58 23.10.2022
1307 Clouds 25 1011 83 10000 5.14 150 06:36 23.10.2022
1308 Clouds 27 1014 74 10000 3.6 150 23:26 22.10.2022
1309 Clouds 26 1013 83 10000 3.6 160 22:30 22.10.2022
1310 Clouds 25 1013 83 10000 2.06 180 21:40 22.10.2022
1311 Clouds 23 1012 88 10000 1.03 0 20:28 22.10.2022
1312 Clouds 24 1012 83 10000 1.54 170 19:31 22.10.2022
1313 Clouds 23 1012 83 10000 1.54 180 17:42 22.10.2022
1314 Clouds 23 1012 83 10000 1.54 170 16:50 22.10.2022
1315 Clouds 23 1013 85 10000 5.35 132 15:18 22.10.2022
1316 Rain 22 1013 94 10000 1.54 260 14:31 22.10.2022
1317 Clouds 23 1015 83 10000 2.57 170 11:35 22.10.2022
1318 Clouds 23 1014 88 5000 4.12 110 09:46 22.10.2022
1319 Clouds 23 1013 94 5000 4.12 130 08:37 22.10.2022
1320 Clouds 23 1012 84 10000 6.54 129 06:19 22.10.2022
1321 Clouds 24 1013 94 5000 3.09 130 00:55 22.10.2022
1322 Clouds 24 1012 94 10000 2.06 150 22:52 21.10.2022
1323 Clouds 23 1012 100 8000 2.57 140 21:32 21.10.2022
1324 Clouds 23 1011 94 5000 1.54 150 20:27 21.10.2022
1325 Clouds 24 1010 88 10000 1.54 140 18:27 21.10.2022
1326 Clouds 25 1012 83 10000 2.57 120 14:40 21.10.2022
1327 Clouds 24 1013 88 10000 1.54 150 13:39 21.10.2022
1328 Clouds 24 1013 88 10000 2.57 150 11:46 21.10.2022
1329 Clouds 24 1013 94 10000 2.06 160 10:24 21.10.2022
1330 Clouds 23 1011 100 10000 2.06 150 08:45 21.10.2022
1331 Clouds 24 1013 85 10000 5.82 137 08:20 21.10.2022
1332 Clouds 27 1012 69 10000 4.12 150 04:30 21.10.2022
1333 Clouds 24 1013 100 10000 3.6 120 23:23 20.10.2022
1334 Clouds 23 1012 100 10000 1.54 270 20:57 20.10.2022
1335 Clouds 23 1012 100 10000 2.06 50 19:43 20.10.2022
1336 Clouds 23 1011 100 10000 1.54 230 18:34 20.10.2022
1337 Clouds 23 1012 100 10000 0 0 17:38 20.10.2022
1338 Clouds 24 1014 94 10000 1.03 0 13:47 20.10.2022
1339 Clouds 24 1014 100 10000 1.54 310 12:32 20.10.2022
1340 Clouds 24 1014 94 10000 0 0 11:29 20.10.2022
1341 Clouds 25 1013 94 8000 1.54 80 10:51 20.10.2022
1342 Clouds 24 1013 94 8000 2.57 50 09:22 20.10.2022
1343 Clouds 27 1011 78 10000 3.09 140 06:24 20.10.2022
1344 Clouds 27 1013 78 10000 1.54 170 01:59 20.10.2022
1345 Clouds 26 1014 83 10000 0 0 22:53 19.10.2022
1346 Clouds 26 1014 83 10000 0 0 22:23 19.10.2022
1347 Clouds 24 1014 94 10000 1.54 320 21:20 19.10.2022
1348 Clouds 22 1013 100 10000 1.54 320 19:53 19.10.2022
1349 Clouds 23 1012 100 10000 1.54 320 17:44 19.10.2022
1350 Clouds 23 1013 94 10000 0 0 16:24 19.10.2022
1351 Clouds 24 1014 94 10000 2.06 160 14:20 19.10.2022
1352 Clouds 24 1014 94 10000 2.06 340 11:42 19.10.2022
1353 Clouds 26 1013 89 10000 2.06 180 08:47 19.10.2022
1354 Clouds 27 1012 83 10000 2.57 170 07:22 19.10.2022
1355 Clouds 27 1014 94 10000 3.09 170 01:33 19.10.2022
1356 Clouds 28 1015 83 10000 1.54 300 23:22 18.10.2022
1357 Clouds 25 1015 88 10000 1.03 0 21:49 18.10.2022
1358 Clouds 25 1015 88 10000 1.03 0 21:49 18.10.2022
1359 Clouds 25 1015 88 10000 1.03 0 21:19 18.10.2022
1360 Clouds 24 1015 94 10000 1.03 0 20:26 18.10.2022
1361 Drizzle 24 1014 94 10000 1.03 0 18:55 18.10.2022
1362 Clouds 24 1014 94 10000 1.03 0 16:56 18.10.2022
1363 Clouds 24 1015 94 10000 1.03 0 14:59 18.10.2022
1364 Clouds 24 1016 88 10000 2.55 34 13:38 18.10.2022
1365 Clouds 25 1016 94 10000 1.03 190 11:47 18.10.2022
1366 Rain 26 1015 89 10000 1.54 200 10:27 18.10.2022
1367 Rain 27 1014 83 10000 3.09 100 08:40 18.10.2022
1368 Clouds 30 1013 70 10000 4.12 90 05:45 18.10.2022
1369 Clouds 29 1016 70 10000 5.14 50 23:25 17.10.2022
1370 Clouds 25 1015 94 10000 1.54 330 21:28 17.10.2022
1371 Clouds 23 1014 100 10000 2.06 340 20:45 17.10.2022
1372 Clouds 23 1014 100 10000 2.06 340 20:27 17.10.2022
1373 Clouds 23 1014 94 10000 1.54 280 19:37 17.10.2022
1374 Clouds 23 1014 94 10000 1.54 290 17:38 17.10.2022
1375 Clouds 24 1015 94 10000 1.03 0 15:54 17.10.2022
1376 Clouds 25 1016 94 10000 1.03 0 14:35 17.10.2022
1377 Clouds 25 1017 88 10000 1.03 0 12:29 17.10.2022
1378 Clouds 27 1015 83 10000 3.6 110 07:25 17.10.2022
1379 Clouds 28 1016 74 10000 6.17 110 00:27 17.10.2022
1380 Clouds 27 1017 83 10000 5.14 100 22:26 16.10.2022
1381 Clouds 25 1016 88 10000 2.06 100 20:59 16.10.2022
1382 Clouds 25 1016 88 10000 2.06 130 19:50 16.10.2022
1383 Clouds 25 1015 88 10000 3.09 120 18:35 16.10.2022
1384 Clouds 25 1015 88 10000 3.09 130 17:41 16.10.2022
1385 Clouds 24 1015 94 10000 2.57 120 15:59 16.10.2022
1386 Clouds 24 1015 94 10000 2.57 120 15:41 16.10.2022
1387 Clouds 25 1016 83 10000 2.57 120 12:25 16.10.2022
1388 Clouds 25 1015 83 10000 3.6 110 10:28 16.10.2022
1389 Clouds 26 1015 78 10000 3.09 110 09:39 16.10.2022
1390 Clouds 28 1014 65 10000 4.12 100 03:57 16.10.2022
1391 Clouds 28 1015 65 10000 0 0 23:42 15.10.2022
1392 Clouds 21 1015 100 10000 1.03 0 21:29 15.10.2022
1393 Clouds 21 1014 94 10000 1.54 0 20:57 15.10.2022
1394 Clouds 22 1014 94 10000 0 0 19:30 15.10.2022
1395 Clouds 22 1013 94 10000 1.03 0 16:18 15.10.2022
1396 Clouds 22 1014 94 10000 1.03 0 15:43 15.10.2022
1397 Clouds 23 1014 94 10000 0 0 13:18 15.10.2022
1398 Clouds 23 1014 88 10000 0 0 11:37 15.10.2022
1399 Clouds 24 1013 78 10000 1.54 110 09:26 15.10.2022
1400 Clouds 27 1011 69 10000 3.09 170 06:35 15.10.2022
1401 Clouds 28 1012 61 10000 2.57 270 00:40 15.10.2022
1402 Clouds 24 1013 83 10000 3.6 310 22:36 14.10.2022
1403 Clouds 24 1013 83 10000 3.6 310 22:18 14.10.2022
1404 Clouds 19 1012 100 10000 2.06 290 20:28 14.10.2022
1405 Clouds 20 1010 94 10000 2.06 320 17:35 14.10.2022
1406 Clouds 21 1011 100 10000 2.06 260 15:32 14.10.2022
1407 Fog 23 1011 94 10000 1.03 10 12:46 14.10.2022
1408 Clouds 23 1010 94 10000 1.03 310 10:53 14.10.2022
1409 Clouds 26 1008 78 10000 1.03 120 08:25 14.10.2022
1410 Clouds 26 1008 78 10000 1.03 120 08:25 14.10.2022
1411 Clouds 26 1007 89 10000 2.06 210 06:19 14.10.2022
1412 Clouds 26 1008 89 10000 2.06 270 05:59 14.10.2022
1413 Clouds 26 1008 89 10000 2.06 270 05:41 14.10.2022
1414 Clouds 24 1010 88 10000 1.03 230 01:46 14.10.2022
1415 Clouds 24 1010 83 10000 1.03 310 23:20 13.10.2022
1416 Clouds 22 1011 94 8000 1.54 270 21:31 13.10.2022
1417 Clouds 21 1010 100 8000 1.54 40 20:20 13.10.2022
1418 Clouds 21 1010 100 5000 1.54 240 19:41 13.10.2022
1419 Clouds 21 1010 100 3000 1.03 0 18:45 13.10.2022
1420 Rain 21 1010 100 3000 2.06 360 17:53 13.10.2022
1421 Rain 21 1009 100 5000 4.12 260 15:49 13.10.2022
1422 Clouds 23 1009 94 10000 3.09 300 14:59 13.10.2022
1423 Clouds 24 1009 94 10000 2.06 350 13:49 13.10.2022
1424 Clouds 24 1010 94 10000 0 0 11:45 13.10.2022
1425 Rain 25 1008 94 10000 2.57 40 09:57 13.10.2022
1426 Rain 25 1008 94 10000 0 0 08:33 13.10.2022
1427 Rain 25 1008 94 10000 0 0 07:36 13.10.2022
1428 Clouds 27 1009 74 10000 6.17 70 03:37 13.10.2022
1429 Clouds 27 1010 74 10000 5.66 70 01:38 13.10.2022
1430 Clouds 25 1011 83 10000 3.6 80 23:32 12.10.2022
1431 Clouds 24 1010 88 10000 2.06 20 22:44 12.10.2022
1432 Clouds 23 1010 94 10000 1.54 340 21:25 12.10.2022
1433 Clouds 22 1010 94 10000 2.06 320 20:55 12.10.2022
1434 Clouds 22 1010 94 10000 2.06 320 20:26 12.10.2022
1435 Clouds 22 1010 94 10000 1.03 360 19:18 12.10.2022
1436 Clouds 23 1009 88 10000 0 0 17:54 12.10.2022
1437 Clouds 23 1010 88 10000 1.54 300 16:29 12.10.2022
1438 Clouds 23 1011 94 10000 1.54 300 13:58 12.10.2022
1439 Clouds 23 1011 94 10000 1.54 300 13:36 12.10.2022
1440 Clouds 24 1011 78 10000 1.03 0 10:51 12.10.2022
1441 Clouds 25 1010 69 10000 2.57 120 08:54 12.10.2022
1442 Clouds 26 1009 69 10000 3.6 120 07:41 12.10.2022
1443 Clouds 26 1009 69 10000 4.12 120 06:43 12.10.2022
1444 Clouds 28 1011 69 10000 4.63 90 02:46 12.10.2022
1445 Clouds 26 1011 78 10000 0 0 22:43 11.10.2022
1446 Clouds 21 1010 100 10000 0 0 20:57 11.10.2022
1447 Clouds 22 1010 94 10000 0 0 19:58 11.10.2022
1448 Clouds 22 1009 100 10000 0 0 17:38 11.10.2022
1449 Clouds 22 1010 94 10000 0 0 15:32 11.10.2022
1450 Clouds 22 1011 94 10000 2.06 290 13:28 11.10.2022
1451 Clouds 24 1010 78 10000 1.03 0 10:31 11.10.2022
1452 Clouds 24 1010 78 10000 1.03 0 10:31 11.10.2022
1453 Clouds 24 1010 78 10000 2.06 130 09:50 11.10.2022
1454 Clouds 23 1010 82 10000 4.23 132 08:22 11.10.2022
1455 Clouds 28 1010 69 10000 3.09 160 02:39 11.10.2022
1456 Clouds 28 1010 78 10000 2.57 200 00:33 11.10.2022
1457 Clouds 22 1010 94 10000 1.03 0 21:47 10.10.2022
1458 Clouds 20 1009 94 10000 1.03 0 20:32 10.10.2022
1459 Clouds 22 1008 94 10000 1.03 0 18:44 10.10.2022
1460 Clouds 21 1008 100 10000 1.54 300 17:24 10.10.2022
1461 Clouds 22 1008 94 10000 1.03 0 16:22 10.10.2022
1462 Clouds 23 1010 94 10000 1.03 0 13:31 10.10.2022
1463 Clouds 25 1010 83 10000 2.06 190 12:22 10.10.2022
1464 Clouds 24 1009 94 10000 0 0 09:23 10.10.2022
1465 Clouds 27 1008 83 10000 3.6 180 05:52 10.10.2022
1466 Clouds 27 1008 83 10000 3.6 180 05:27 10.10.2022
1467 Clouds 26 1011 78 10000 3.09 170 00:34 10.10.2022
1468 Clouds 26 1011 83 10000 2.57 150 23:36 09.10.2022
1469 Clouds 25 1011 88 10000 1.54 170 22:24 09.10.2022
1470 Clouds 24 1011 88 10000 0 0 21:26 09.10.2022
1471 Clouds 23 1010 100 10000 0 0 20:35 09.10.2022
1472 Clouds 23 1010 100 10000 1.54 140 19:47 09.10.2022
1473 Rain 23 1010 100 10000 1.54 160 18:48 09.10.2022
1474 Clouds 23 1010 100 10000 0 0 17:35 09.10.2022
1475 Clouds 23 1011 100 8000 0 0 16:39 09.10.2022
1476 Clouds 23 1011 100 8000 2.57 320 15:51 09.10.2022
1477 Clouds 23 1013 100 10000 2.57 360 14:38 09.10.2022
1478 Clouds 23 1013 100 10000 2.57 360 13:51 09.10.2022
1479 Clouds 23 1013 100 10000 1.03 0 12:46 09.10.2022
1480 Clouds 24 1013 94 10000 0 0 10:54 09.10.2022
1481 Clouds 24 1012 94 10000 0 0 08:31 09.10.2022
1482 Clouds 26 1011 89 10000 5.14 80 04:27 09.10.2022
1483 Clouds 24 1013 94 10000 3.6 90 03:20 09.10.2022
1484 Clouds 27 1014 74 10000 3.09 50 00:40 09.10.2022
1485 Clouds 26 1014 83 10000 3.6 70 23:19 08.10.2022
1486 Clouds 23 1015 94 10000 2.06 30 22:24 08.10.2022
1487 Clouds 21 1014 100 5000 1.03 0 20:31 08.10.2022
1488 Clouds 21 1014 100 5000 1.54 40 19:22 08.10.2022
1489 Clouds 22 1013 94 10000 2.57 60 17:39 08.10.2022
1490 Clouds 21 1014 100 10000 1.54 290 15:26 08.10.2022
1491 Clouds 21 1015 100 10000 0 0 13:32 08.10.2022
1492 Clouds 22 1016 94 8000 0 0 11:24 08.10.2022
1493 Clouds 22 1016 94 7000 1.03 30 10:32 08.10.2022
1494 Clouds 22 1015 100 5000 3.09 70 09:24 08.10.2022
1495 Clouds 23 1013 94 4000 3.09 80 05:35 08.10.2022
1496 Clouds 27 1015 74 10000 7.2 80 01:19 08.10.2022
1497 Clouds 24 1015 94 10000 1.03 0 23:39 07.10.2022
1498 Clouds 24 1015 94 10000 1.03 0 23:20 07.10.2022
1499 Clouds 22 1014 94 10000 1.54 320 21:52 07.10.2022
1500 Clouds 22 1013 94 10000 2.06 310 19:56 07.10.2022
1501 Clouds 22 1012 94 10000 2.57 310 17:54 07.10.2022
1502 Clouds 22 1013 94 10000 2.57 320 16:50 07.10.2022
1503 Clouds 22 1014 94 10000 2.57 40 15:26 07.10.2022
1504 Clouds 23 1015 88 10000 6.17 20 13:55 07.10.2022
1505 Rain 23 1016 88 10000 1.54 150 11:29 07.10.2022
1506 Clouds 25 1015 88 8000 2.57 130 09:25 07.10.2022
1507 Rain 26 1014 83 10000 3.6 120 08:21 07.10.2022
1508 Clouds 28 1014 78 10000 6.69 110 02:55 07.10.2022
1509 Clouds 25 1017 85 10000 4.84 83 23:21 06.10.2022
1510 Clouds 27 1015 83 10000 0.51 0 22:48 06.10.2022
1511 Rain 25 1014 100 10000 0 0 21:37 06.10.2022
1512 Clouds 24 1014 100 10000 1.03 70 20:39 06.10.2022
1513 Clouds 24 1012 100 10000 0 0 18:57 06.10.2022
1514 Clouds 24 1012 100 10000 0 0 18:32 06.10.2022
1515 Rain 24 1013 94 10000 1.54 90 15:38 06.10.2022
1516 Clouds 24 1015 94 10000 0 0 12:59 06.10.2022
1517 Clouds 25 1014 88 10000 1.03 0 09:27 06.10.2022
1518 Rain 30 1013 70 10000 4.63 90 04:42 06.10.2022
1519 Clouds 29 1016 70 10000 4.12 90 00:51 06.10.2022
1520 Clouds 23 1015 100 10000 1.03 0 21:54 05.10.2022
1521 Clouds 22 1014 100 10000 1.03 0 19:44 05.10.2022
1522 Clouds 23 1014 100 10000 0 0 17:37 05.10.2022
1523 Clouds 23 1014 100 10000 1.54 360 16:40 05.10.2022
1524 Clouds 24 1015 100 10000 1.03 0 14:57 05.10.2022
1525 Clouds 24 1015 100 10000 1.03 0 14:37 05.10.2022
1526 Clouds 24 1016 94 10000 1.03 0 12:45 05.10.2022
1527 Clouds 24 1016 94 10000 1.03 0 11:38 05.10.2022
1528 Clouds 25 1013 88 10000 3.09 90 08:23 05.10.2022
1529 Rain 25 1014 94 10000 1.54 190 06:36 05.10.2022
1530 Rain 26 1014 89 10000 3.09 50 05:31 05.10.2022
1531 Rain 24 1016 94 10000 3.09 180 02:31 05.10.2022
1532 Rain 25 1018 88 10000 3.09 180 00:28 05.10.2022
1533 Rain 25 1017 83 10000 3.09 190 23:21 04.10.2022
1534 Rain 25 1016 88 10000 4.12 170 21:22 04.10.2022
1535 Rain 23 1013 100 10000 1.54 290 19:49 04.10.2022
1536 Clouds 24 1013 94 10000 0 0 18:51 04.10.2022
1537 Rain 24 1013 94 10000 1.54 20 17:53 04.10.2022
1538 Rain 24 1013 94 10000 0 0 16:51 04.10.2022
1539 Clouds 25 1014 94 10000 1.54 20 13:59 04.10.2022
1540 Clouds 26 1013 89 10000 1.54 110 09:57 04.10.2022
1541 Clouds 29 1011 70 10000 3.6 40 07:48 04.10.2022
1542 Rain 30 1011 66 10000 5.14 60 04:42 04.10.2022
1543 Clouds 28 1014 83 10000 3.6 50 23:48 03.10.2022
1544 Clouds 26 1014 83 10000 1.03 0 22:19 03.10.2022
1545 Clouds 25 1014 88 10000 1.03 0 21:27 03.10.2022
1546 Clouds 25 1014 88 10000 1.03 0 21:27 03.10.2022
1547 Rain 24 1013 94 10000 1.54 340 20:33 03.10.2022
1548 Clouds 24 1012 94 8000 3.09 20 18:47 03.10.2022
1549 Clouds 24 1012 94 10000 1.03 0 17:30 03.10.2022
1550 Clouds 25 1012 94 10000 1.03 0 15:55 03.10.2022
1551 Clouds 25 1013 94 10000 1.54 290 14:26 03.10.2022
1552 Clouds 27 1013 83 10000 1.54 20 12:35 03.10.2022
1553 Rain 27 1012 78 10000 3.09 50 10:53 03.10.2022
1554 Clouds 27 1012 83 10000 3.6 50 09:46 03.10.2022
1555 Rain 27 1011 78 10000 3.09 70 08:43 03.10.2022
1556 Rain 29 1010 79 10000 5.14 40 03:52 03.10.2022
1557 Clouds 27 1013 83 10000 2.06 350 22:55 02.10.2022
1558 Clouds 24 1012 94 10000 0.51 40 21:33 02.10.2022
1559 Clouds 24 1011 94 10000 1.54 340 19:47 02.10.2022
1560 Clouds 25 1010 88 10000 2.06 320 17:55 02.10.2022
1561 Clouds 25 1010 88 10000 2.06 320 17:55 02.10.2022
1562 Clouds 26 1011 89 10000 2.06 40 16:50 02.10.2022
1563 Clouds 26 1011 89 10000 2.06 40 16:27 02.10.2022
1564 Clouds 26 1012 89 10000 2.06 40 14:53 02.10.2022
1565 Clouds 25 1012 94 10000 3.09 30 13:46 02.10.2022
1566 Clouds 25 1013 94 10000 2.06 60 12:39 02.10.2022
1567 Clouds 25 1013 88 10000 1.54 190 11:43 02.10.2022
1568 Clouds 25 1013 88 10000 1.54 190 11:23 02.10.2022
1569 Clouds 27 1012 78 10000 3.09 70 09:49 02.10.2022
1570 Rain 27 1011 78 10000 4.12 70 08:27 02.10.2022
1571 Clouds 30 1010 66 10000 6.69 70 05:18 02.10.2022
1572 Clouds 29 1012 65 10000 5.14 50 00:56 02.10.2022
1573 Clouds 29 1012 65 10000 5.14 50 00:36 02.10.2022
1574 Clouds 28 1013 74 10000 3.6 30 23:24 01.10.2022
1575 Clouds 24 1013 88 10000 1.03 0 20:55 01.10.2022
1576 Clouds 23 1012 94 10000 0 0 18:53 01.10.2022
1577 Clouds 23 1012 94 10000 0 0 17:22 01.10.2022
1578 Clouds 25 1013 78 10000 1.03 0 14:44 01.10.2022
1579 Clouds 26 1013 78 10000 2.06 60 13:43 01.10.2022
1580 Clouds 26 1014 78 10000 2.06 60 12:34 01.10.2022
1581 Clouds 24 1015 81 10000 2.99 22 11:22 01.10.2022
1582 Clouds 26 1013 73 10000 2.57 60 10:44 01.10.2022
1583 Clouds 26 1013 73 10000 2.57 60 10:25 01.10.2022
1584 Clouds 25 1013 76 10000 4.09 35 09:18 01.10.2022
1585 Clouds 25 1013 73 10000 3.95 48 08:19 01.10.2022
1586 Clouds 30 1012 51 10000 6.17 60 03:37 01.10.2022
1587 Clouds 29 1014 58 10000 5.14 50 01:22 01.10.2022
1588 Clouds 26 1014 83 10000 2.06 340 23:20 30.09.2022
1589 Clouds 23 1014 94 10000 1.03 330 21:44 30.09.2022
1590 Clouds 22 1013 94 10000 1.54 330 20:45 30.09.2022
1591 Clouds 22 1013 94 10000 1.54 330 20:20 30.09.2022
1592 Clouds 21 1012 94 10000 1.54 320 17:41 30.09.2022
1593 Clouds 21 1013 94 10000 0 0 16:29 30.09.2022
1594 Clouds 24 1014 78 10000 1.54 50 14:22 30.09.2022
1595 Clouds 24 1015 78 10000 2.57 80 12:29 30.09.2022
1596 Clouds 24 1015 78 10000 3.09 80 11:54 30.09.2022
1597 Clouds 25 1013 78 10000 3.6 80 08:51 30.09.2022
1598 Clouds 28 1013 57 10000 5.14 80 06:34 30.09.2022
1599 Clouds 27 1014 65 10000 5.14 80 02:50 30.09.2022
1600 Clouds 28 1015 61 10000 4.12 90 00:35 30.09.2022
1601 Clouds 21 1015 94 10000 3.6 320 21:39 29.09.2022
1602 Clouds 21 1015 94 10000 3.6 320 21:18 29.09.2022
1603 Clouds 20 1013 100 10000 1.54 320 18:48 29.09.2022
1604 Clouds 20 1013 100 10000 2.57 330 17:48 29.09.2022
1605 Clouds 21 1014 94 10000 0 0 16:29 29.09.2022
1606 Clouds 23 1014 83 10000 1.03 310 15:36 29.09.2022
1607 Clouds 23 1015 83 10000 1.03 180 14:59 29.09.2022
1608 Clouds 24 1015 78 10000 1.54 150 11:53 29.09.2022
1609 Clouds 26 1012 69 10000 3.6 150 07:31 29.09.2022
1610 Clouds 26 1014 58 10000 4.84 118 03:24 29.09.2022
1611 Clouds 27 1015 54 10000 4.63 120 00:29 29.09.2022
1612 Clouds 26 1015 61 10000 3.09 150 23:19 28.09.2022
1613 Clouds 25 1015 65 10000 2.57 160 21:30 28.09.2022
1614 Clouds 23 1014 73 10000 2.57 160 20:45 28.09.2022
1615 Clouds 23 1013 73 10000 3.09 160 18:53 28.09.2022
1616 Clouds 23 1014 83 10000 2.57 160 15:46 28.09.2022
1617 Clouds 24 1014 78 10000 3.09 140 13:28 28.09.2022
1618 Clouds 24 1014 78 10000 3.09 140 13:28 28.09.2022
1619 Clouds 25 1014 78 10000 3.6 150 11:34 28.09.2022
1620 Clouds 25 1013 78 10000 3.09 150 09:34 28.09.2022
1621 Clouds 26 1011 73 10000 3.09 170 07:41 28.09.2022
1622 Clouds 28 1012 65 10000 4.12 180 05:31 28.09.2022
1623 Clouds 28 1014 69 10000 4.12 190 01:40 28.09.2022
1624 Clouds 27 1014 74 10000 3.09 180 23:31 27.09.2022
1625 Clouds 26 1014 83 10000 2.57 180 22:32 27.09.2022
1626 Clouds 23 1012 94 10000 1.03 0 20:56 27.09.2022
1627 Clouds 23 1012 94 10000 1.03 0 20:19 27.09.2022
1628 Clouds 23 1012 94 10000 1.03 0 19:36 27.09.2022
1629 Clouds 23 1011 94 10000 1.03 0 17:46 27.09.2022
1630 Clouds 22 1011 100 10000 2.06 320 16:20 27.09.2022
1631 Clouds 22 1012 94 10000 1.03 0 15:18 27.09.2022
1632 Clouds 23 1014 88 10000 2.06 320 13:36 27.09.2022
1633 Clouds 23 1014 88 10000 1.03 0 12:36 27.09.2022
1634 Clouds 22 1012 88 10000 1.03 0 09:54 27.09.2022
1635 Clouds 25 1011 94 5000 3.09 230 07:41 27.09.2022
1636 Clouds 30 1010 66 10000 5.66 50 03:51 27.09.2022
1637 Clouds 30 1012 66 10000 3.6 50 01:36 27.09.2022
1638 Clouds 28 1012 74 10000 1.54 360 23:39 26.09.2022
1639 Clouds 26 1014 79 10000 2.02 78 23:20 26.09.2022
1640 Clouds 22 1011 94 10000 1.54 320 20:48 26.09.2022
1641 Clouds 22 1010 94 10000 1.54 320 19:42 26.09.2022
1642 Clouds 23 1010 94 10000 1.03 310 18:38 26.09.2022
1643 Clouds 22 1010 94 10000 1.54 320 17:24 26.09.2022
1644 Clouds 24 1012 94 10000 1.54 270 14:48 26.09.2022
1645 Clouds 24 1012 94 10000 0.51 0 11:37 26.09.2022
1646 Clouds 24 1011 94 10000 0.51 0 10:41 26.09.2022
1647 Clouds 24 1013 90 10000 2.57 80 10:22 26.09.2022
1648 Clouds 25 1011 88 10000 1.03 0 09:56 26.09.2022
1649 Clouds 25 1011 88 10000 1.03 0 09:25 26.09.2022
1650 Clouds 25 1010 88 10000 1.03 0 08:58 26.09.2022
1651 Clouds 27 1011 83 10000 4.12 150 02:59 26.09.2022
1652 Clouds 28 1011 78 10000 4.12 160 01:31 26.09.2022
1653 Clouds 26 1011 89 10000 0 0 23:20 25.09.2022
1654 Clouds 23 1011 94 10000 1.03 0 21:44 25.09.2022
1655 Clouds 22 1010 100 10000 1.54 0 20:54 25.09.2022
1656 Mist 22 1010 100 3000 0 0 19:55 25.09.2022
1657 Clouds 23 1011 100 10000 1.03 0 18:43 25.09.2022
1658 Clouds 23 1011 100 10000 1.03 0 18:20 25.09.2022
1659 Clouds 23 1011 100 10000 1.03 0 16:55 25.09.2022
1660 Clouds 24 1011 94 10000 0 0 15:46 25.09.2022
1661 Clouds 24 1012 100 10000 0 0 14:30 25.09.2022
1662 Clouds 24 1012 100 10000 0 0 13:19 25.09.2022
1663 Clouds 25 1012 94 10000 2.57 100 10:36 25.09.2022
1664 Clouds 27 1011 78 10000 2.06 80 08:25 25.09.2022
1665 Clouds 29 1010 65 10000 4.12 100 06:23 25.09.2022
1666 Clear 29 1012 70 10000 3.6 120 03:20 25.09.2022
1667 Clouds 24 1014 88 10000 3.09 140 22:50 24.09.2022
1668 Clouds 23 1013 100 10000 1.54 190 21:19 24.09.2022
1669 Clouds 23 1012 100 10000 0 0 19:23 24.09.2022
1670 Clouds 23 1011 100 10000 0 0 18:18 24.09.2022
1671 Clouds 23 1012 100 10000 1.03 290 16:36 24.09.2022
1672 Clouds 23 1013 100 10000 1.03 320 15:22 24.09.2022
1673 Clouds 23 1014 100 10000 2.06 330 13:35 24.09.2022
1674 Clouds 24 1014 94 10000 2.06 310 12:51 24.09.2022
1675 Clouds 24 1013 94 10000 1.03 300 11:41 24.09.2022
1676 Clouds 24 1012 94 10000 1.03 10 09:54 24.09.2022
1677 Clouds 24 1012 100 10000 1.03 20 08:47 24.09.2022
1678 Clouds 24 1011 94 10000 2.57 280 07:38 24.09.2022
1679 Clouds 29 1012 70 10000 6.69 70 04:48 24.09.2022
1680 Clouds 28 1012 78 10000 4.63 70 03:42 24.09.2022
1681 Clouds 26 1015 89 10000 1.03 0 22:36 23.09.2022
1682 Clouds 23 1014 94 10000 1.03 0 21:28 23.09.2022
1683 Clouds 23 1013 94 10000 1.03 0 20:56 23.09.2022
1684 Clouds 23 1013 94 10000 1.03 0 20:20 23.09.2022
1685 Clouds 22 1012 100 10000 1.03 0 18:50 23.09.2022
1686 Rain 23 1015 94 10000 3.09 310 14:33 23.09.2022
1687 Rain 24 1014 100 10000 2.06 350 10:55 23.09.2022
1688 Rain 25 1012 94 10000 2.57 330 09:32 23.09.2022
1689 Clouds 26 1013 89 10000 5.14 90 05:20 23.09.2022
1690 Clouds 28 1015 78 10000 7.2 70 00:31 23.09.2022
1691 Clouds 28 1015 78 10000 6.17 90 23:21 22.09.2022
1692 Clouds 27 1014 83 10000 4.63 70 22:26 22.09.2022
1693 Clouds 26 1013 83 10000 4.63 80 20:51 22.09.2022
1694 Clouds 26 1012 83 10000 4.12 70 19:37 22.09.2022
1695 Clouds 26 1013 89 10000 3.6 70 16:57 22.09.2022
1696 Clouds 26 1014 94 10000 2.06 40 12:20 22.09.2022
1697 Clouds 26 1013 83 10000 2.06 50 10:32 22.09.2022
1698 Clouds 27 1012 83 10000 1.54 70 08:46 22.09.2022
1699 Rain 28 1012 69 10000 3.6 80 06:45 22.09.2022
1700 Clouds 30 1012 58 10000 5.14 40 02:52 22.09.2022
1701 Clouds 27 1013 78 10000 2.57 20 23:25 21.09.2022
1702 Clouds 23 1011 94 10000 2.06 320 21:41 21.09.2022
1703 Rain 23 1011 88 10000 1.03 0 19:55 21.09.2022
1704 Clouds 25 1011 83 10000 4.12 50 17:48 21.09.2022
1705 Clouds 26 1011 73 10000 4.12 50 16:30 21.09.2022
1706 Clouds 24 1013 94 10000 2.57 70 13:59 21.09.2022
1707 Clouds 24 1014 94 10000 1.54 90 12:41 21.09.2022
1708 Clouds 24 1014 94 10000 0.51 0 11:28 21.09.2022
1709 Clouds 26 1013 83 10000 3.09 90 09:50 21.09.2022
1710 Clouds 26 1012 83 10000 2.57 110 08:58 21.09.2022
1711 Clouds 26 1012 78 10000 5.48 69 06:22 21.09.2022
1712 Clouds 29 1013 61 10000 5.14 70 02:45 21.09.2022
1713 Clouds 29 1013 61 10000 5.14 70 02:23 21.09.2022
1714 Clouds 28 1014 65 10000 5.66 80 00:34 21.09.2022
1715 Clouds 26 1015 78 10000 5.14 90 22:41 20.09.2022
1716 Clouds 24 1014 94 10000 3.09 90 20:45 20.09.2022
1717 Clouds 25 1014 83 10000 3.09 100 19:30 20.09.2022
1718 Clouds 25 1014 83 10000 4.12 100 16:25 20.09.2022
1719 Clouds 25 1016 83 10000 4.12 100 14:45 20.09.2022
1720 Clouds 25 1016 83 10000 4.12 110 12:58 20.09.2022
1721 Clouds 25 1015 88 10000 4.12 110 09:19 20.09.2022
1722 Clouds 26 1015 78 10000 4.63 110 08:26 20.09.2022
1723 Clouds 25 1015 85 10000 6.22 96 04:46 20.09.2022
1724 Clouds 28 1015 65 10000 7.72 110 03:38 20.09.2022
1725 Clouds 27 1017 74 10000 7.72 110 22:51 19.09.2022
1726 Clouds 26 1017 83 10000 3.6 110 21:40 19.09.2022
1727 Clouds 25 1016 83 10000 2.57 110 20:47 19.09.2022
1728 Clouds 25 1016 83 10000 2.57 110 20:24 19.09.2022
1729 Clouds 25 1015 83 10000 0 0 17:44 19.09.2022
1730 Clouds 23 1018 89 7944 5.74 94 14:18 19.09.2022
1731 Rain 24 1017 94 10000 2.06 120 12:56 19.09.2022
1732 Clouds 24 1017 88 10000 1.54 130 10:47 19.09.2022
1733 Clouds 24 1016 88 10000 1.54 110 08:51 19.09.2022
1734 Clouds 27 1015 78 10000 5.14 140 05:42 19.09.2022
1735 Clouds 28 1018 74 10000 6.69 110 01:53 19.09.2022
1736 Clouds 28 1018 78 10000 6.69 110 23:22 18.09.2022
1737 Clouds 26 1018 83 10000 4.12 100 21:34 18.09.2022
1738 Clouds 24 1017 94 10000 2.57 100 20:23 18.09.2022
1739 Clouds 25 1016 88 10000 3.09 100 17:53 18.09.2022
1740 Clouds 25 1016 88 10000 3.09 100 17:19 18.09.2022
1741 Clouds 25 1017 88 10000 2.57 100 15:34 18.09.2022
1742 Clouds 25 1018 88 10000 2.06 100 13:47 18.09.2022
1743 Clouds 25 1018 88 10000 2.06 100 12:33 18.09.2022
1744 Clouds 26 1017 83 10000 2.57 110 10:44 18.09.2022
1745 Clouds 29 1016 70 10000 5.14 70 03:37 18.09.2022
1746 Clouds 28 1017 74 10000 6.17 80 01:23 18.09.2022
1747 Clouds 27 1018 78 10000 6.17 100 00:21 18.09.2022
1748 Clouds 26 1017 83 10000 4.12 110 21:36 17.09.2022
1749 Clouds 25 1016 88 10000 1.54 120 19:40 17.09.2022
1750 Clouds 25 1015 88 10000 2.57 120 18:43 17.09.2022
1751 Clouds 25 1017 94 10000 2.06 140 14:54 17.09.2022
1752 Clouds 25 1017 94 10000 2.57 140 13:38 17.09.2022
1753 Clouds 26 1016 89 10000 4.12 120 10:50 17.09.2022
1754 Clouds 27 1015 83 10000 2.06 110 08:30 17.09.2022
1755 Clouds 28 1013 74 10000 2.57 110 06:21 17.09.2022
1756 Clouds 26 1016 83 10000 1.03 0 23:56 16.09.2022
1757 Clouds 25 1016 88 10000 1.03 0 22:42 16.09.2022
1758 Clouds 22 1015 100 10000 0 0 20:54 16.09.2022
1759 Clouds 22 1015 100 10000 0 0 20:54 16.09.2022
1760 Clouds 22 1014 100 10000 0 0 19:41 16.09.2022
1761 Clouds 23 1013 100 10000 1.03 0 16:26 16.09.2022
1762 Clouds 24 1014 94 10000 2.06 330 14:52 16.09.2022
1763 Clouds 24 1015 90 10000 2.64 35 13:21 16.09.2022
1764 Clouds 25 1014 88 10000 1.03 0 10:24 16.09.2022
1765 Clouds 27 1012 74 10000 3.09 120 07:52 16.09.2022
1766 Clouds 28 1012 74 10000 4.63 110 06:48 16.09.2022
1767 Clouds 28 1012 74 10000 4.63 90 05:57 16.09.2022
1768 Clouds 29 1013 70 10000 3.09 50 02:35 16.09.2022
1769 Clouds 23 1014 100 10000 1.03 0 21:47 15.09.2022
1770 Clouds 23 1014 100 10000 1.54 330 20:39 15.09.2022
1771 Clouds 23 1013 94 10000 1.54 330 19:42 15.09.2022
1772 Clouds 23 1013 100 10000 0 0 17:58 15.09.2022
1773 Clouds 23 1013 100 10000 0 0 17:28 15.09.2022
1774 Clouds 23 1013 100 10000 0 0 15:47 15.09.2022
1775 Clouds 24 1014 88 10000 1.03 320 12:51 15.09.2022
1776 Clouds 24 1014 88 10000 1.03 260 11:48 15.09.2022
1777 Clouds 25 1013 88 10000 1.54 130 09:45 15.09.2022
1778 Clouds 30 1012 66 10000 4.63 80 06:58 15.09.2022
1779 Clouds 30 1015 62 10000 5.14 50 03:46 15.09.2022
1780 Clouds 27 1015 69 10000 4.12 40 23:22 14.09.2022
1781 Clouds 22 1015 94 10000 1.54 310 20:37 14.09.2022
1782 Clouds 22 1015 94 10000 1.54 310 19:32 14.09.2022
1783 Clouds 23 1015 94 10000 1.54 320 17:47 14.09.2022
1784 Clouds 23 1015 94 10000 0 0 16:36 14.09.2022
1785 Clouds 24 1017 83 10000 1.54 360 14:56 14.09.2022
1786 Clouds 23 1017 94 10000 2.06 330 12:40 14.09.2022
1787 Clouds 26 1016 73 10000 2.06 80 09:52 14.09.2022
1788 Clouds 27 1015 74 10000 2.57 80 08:28 14.09.2022
1789 Clouds 29 1014 65 10000 3.6 50 06:50 14.09.2022
1790 Clouds 29 1014 65 10000 3.6 50 06:28 14.09.2022
1791 Clouds 29 1017 70 10000 4.63 90 02:25 14.09.2022
1792 Clouds 29 1018 70 10000 5.14 90 01:34 14.09.2022
1793 Clouds 27 1018 74 10000 4.12 100 00:52 14.09.2022
1794 Clouds 27 1017 78 10000 3.09 100 23:54 13.09.2022
1795 Clouds 27 1017 78 10000 3.09 100 23:36 13.09.2022
1796 Clouds 27 1017 78 10000 3.09 100 23:18 13.09.2022
1797 Clouds 24 1018 94 10000 1.03 300 22:26 13.09.2022
1798 Clouds 22 1018 94 10000 1.03 340 21:35 13.09.2022
1799 Clouds 21 1017 100 10000 0 0 18:54 13.09.2022
1800 Clouds 22 1017 94 10000 1.54 300 16:34 13.09.2022
1801 Clouds 23 1018 94 10000 0 0 15:18 13.09.2022
1802 Clouds 24 1018 88 10000 1.03 140 13:31 13.09.2022
1803 Clouds 26 1016 78 10000 2.06 50 09:58 13.09.2022
1804 Clouds 28 1015 69 10000 4.12 80 07:47 13.09.2022
1805 Clouds 28 1018 74 10000 5.66 70 00:58 13.09.2022
1806 Clouds 28 1018 74 10000 5.14 60 23:21 12.09.2022
1807 Clouds 27 1018 83 10000 4.63 80 22:26 12.09.2022
1808 Clouds 24 1017 94 10000 2.57 80 20:54 12.09.2022
1809 Clouds 24 1016 94 10000 3.6 90 19:26 12.09.2022
1810 Clouds 24 1016 94 10000 1.03 120 17:46 12.09.2022
1811 Clouds 23 1017 100 10000 0 0 15:40 12.09.2022
1812 Clouds 24 1017 94 10000 0 0 12:26 12.09.2022
1813 Clouds 25 1016 88 10000 1.54 110 10:24 12.09.2022
1814 Clouds 29 1015 65 10000 3.6 130 05:57 12.09.2022
1815 Clouds 28 1015 65 10000 4.12 120 04:32 12.09.2022
1816 Clouds 27 1017 69 10000 3.6 110 00:42 12.09.2022
1817 Clouds 23 1017 94 10000 1.03 0 22:45 11.09.2022
1818 Clouds 21 1017 94 10000 1.54 330 21:22 11.09.2022
1819 Clouds 20 1016 94 10000 1.54 330 20:43 11.09.2022
1820 Clouds 20 1015 100 10000 1.03 0 19:27 11.09.2022
1821 Clouds 20 1015 100 10000 1.03 0 18:58 11.09.2022
1822 Clouds 20 1015 100 10000 1.03 0 16:58 11.09.2022
1823 Clouds 20 1016 100 10000 0 0 15:44 11.09.2022
1824 Clouds 22 1016 94 10000 0 0 13:18 11.09.2022
1825 Clouds 24 1015 78 10000 1.54 110 10:35 11.09.2022
1826 Clouds 27 1013 69 10000 4.63 110 07:49 11.09.2022
1827 Clouds 29 1014 65 10000 3.6 60 04:36 11.09.2022
1828 Clouds 27 1016 74 10000 1.03 0 23:48 10.09.2022
1829 Clouds 22 1016 100 10000 0 0 21:38 10.09.2022
1830 Clouds 21 1014 100 10000 0 0 19:58 10.09.2022
1831 Clouds 21 1014 100 10000 0 0 19:40 10.09.2022
1832 Clouds 21 1014 100 10000 0 0 19:20 10.09.2022
1833 Clouds 22 1015 94 10000 0 0 16:58 10.09.2022
1834 Clouds 22 1015 94 10000 0 0 15:32 10.09.2022
1835 Clouds 23 1016 94 10000 0 0 12:55 10.09.2022
1836 Clouds 23 1016 94 10000 0 0 12:55 10.09.2022
1837 Clouds 24 1016 88 10000 1.03 0 11:36 10.09.2022
1838 Clouds 24 1016 94 10000 2.57 100 10:25 10.09.2022
1839 Clouds 26 1015 73 10000 3.09 80 08:37 10.09.2022
1840 Clouds 26 1015 73 10000 3.09 80 08:18 10.09.2022
1841 Clouds 26 1015 73 10000 3.09 80 08:18 10.09.2022
1842 Clouds 30 1016 62 10000 4.63 70 03:42 10.09.2022
1843 Clouds 27 1018 78 10000 1.54 70 23:35 09.09.2022
1844 Clouds 25 1018 88 10000 0 0 22:22 09.09.2022
1845 Clouds 22 1017 94 10000 1.54 320 20:49 09.09.2022
1846 Clouds 22 1016 94 10000 0 0 19:26 09.09.2022
1847 Clouds 22 1016 94 10000 0 0 18:55 09.09.2022
1848 Clouds 23 1017 94 10000 0 0 16:34 09.09.2022
1849 Clouds 23 1018 94 10000 0 0 14:28 09.09.2022
1850 Clouds 25 1018 88 10000 2.57 90 12:59 09.09.2022
1851 Clouds 25 1017 88 10000 0 0 10:23 09.09.2022
1852 Clouds 28 1015 69 10000 4.63 80 07:18 09.09.2022
1853 Clouds 29 1017 61 10000 6.69 70 03:28 09.09.2022
1854 Clouds 24 1019 94 10000 1.03 0 22:19 08.09.2022
1855 Clouds 22 1018 94 10000 1.03 0 21:47 08.09.2022
1856 Clouds 21 1017 100 10000 1.03 0 20:46 08.09.2022
1857 Clouds 21 1017 100 10000 1.03 0 20:21 08.09.2022
1858 Clouds 22 1017 94 10000 1.03 0 18:34 08.09.2022
1859 Clouds 22 1017 94 10000 1.03 0 16:38 08.09.2022
1860 Clouds 23 1018 94 10000 0 0 14:41 08.09.2022
1861 Clouds 23 1019 94 10000 0 0 13:27 08.09.2022
1862 Clouds 23 1019 94 10000 0 0 12:33 08.09.2022
1863 Clouds 24 1018 94 10000 0 0 10:58 08.09.2022
1864 Clouds 26 1016 83 10000 2.57 70 08:55 08.09.2022
1865 Clouds 28 1016 69 10000 6.17 70 06:43 08.09.2022
1866 Clouds 29 1018 65 10000 5.14 70 02:37 08.09.2022
1867 Clouds 29 1018 65 10000 5.14 70 02:19 08.09.2022
1868 Clouds 29 1018 70 10000 4.12 100 01:38 08.09.2022
1869 Clouds 22 1018 100 10000 2.06 300 22:55 07.09.2022
1870 Clouds 21 1017 100 10000 1.03 0 21:43 07.09.2022
1871 Clouds 21 1016 100 10000 1.54 330 20:49 07.09.2022
1872 Clouds 21 1016 100 10000 1.03 340 19:53 07.09.2022
1873 Clouds 22 1015 94 10000 1.54 310 18:37 07.09.2022
1874 Clouds 22 1016 100 10000 1.54 310 14:45 07.09.2022
1875 Clouds 24 1015 88 10000 2.57 70 10:49 07.09.2022
1876 Clouds 25 1015 83 10000 2.06 40 09:39 07.09.2022
1877 Clouds 28 1014 69 10000 4.12 60 07:23 07.09.2022
1878 Clouds 30 1014 58 10000 5.14 70 03:33 07.09.2022
1879 Clouds 27 1017 83 10000 1.03 0 23:38 06.09.2022
1880 Clouds 22 1016 94 10000 0 0 21:42 06.09.2022
1881 Clouds 21 1015 100 10000 2.57 310 20:45 06.09.2022
1882 Clouds 21 1013 100 10000 2.06 310 18:45 06.09.2022
1883 Clouds 21 1013 100 10000 2.06 310 18:22 06.09.2022
1884 Clouds 21 1014 94 10000 2.06 340 17:22 06.09.2022
1885 Clouds 21 1014 94 10000 0 0 16:37 06.09.2022
1886 Clouds 22 1015 88 10000 0 0 15:22 06.09.2022
1887 Clouds 23 1016 94 10000 1.03 0 13:45 06.09.2022
1888 Clouds 23 1016 94 10000 1.03 0 13:24 06.09.2022
1889 Clouds 23 1015 94 10000 0 0 11:57 06.09.2022
1890 Clouds 23 1015 94 10000 1.03 0 10:41 06.09.2022
1891 Clouds 26 1013 78 10000 2.57 80 08:50 06.09.2022
1892 Clouds 28 1012 65 10000 3.6 70 07:45 06.09.2022
1893 Clouds 29 1013 70 10000 5.14 40 02:44 06.09.2022
1894 Clouds 25 1016 78 10000 3.6 330 23:23 05.09.2022
1895 Clouds 20 1016 94 10000 2.06 330 21:53 05.09.2022
1896 Clouds 19 1015 100 10000 1.54 300 20:35 05.09.2022
1897 Clouds 19 1015 100 10000 0 0 19:20 05.09.2022
1898 Clouds 19 1015 100 10000 0 0 18:45 05.09.2022
1899 Clouds 19 1015 100 10000 0 0 18:21 05.09.2022
1900 Clouds 19 1014 100 10000 2.57 330 16:37 05.09.2022
1901 Clouds 20 1015 94 10000 2.57 330 15:47 05.09.2022
1902 Clouds 19 1014 94 10000 2.06 330 13:25 05.09.2022
1903 Clouds 19 1015 94 10000 2.06 320 12:27 05.09.2022
1904 Clouds 24 1014 73 10000 0 0 09:44 05.09.2022
1905 Clouds 27 1012 57 10000 5.66 70 06:40 05.09.2022
1906 Clouds 27 1015 54 10000 3.6 10 01:56 05.09.2022
1907 Clouds 21 1015 88 10000 2.06 310 22:44 04.09.2022
1908 Clouds 21 1015 88 10000 2.06 310 22:26 04.09.2022
1909 Clouds 19 1014 100 10000 1.54 330 20:44 04.09.2022
1910 Clouds 19 1014 100 10000 1.54 330 19:29 04.09.2022
1911 Clouds 19 1014 94 10000 1.54 320 17:50 04.09.2022
1912 Clouds 20 1015 94 10000 1.03 320 16:28 04.09.2022
1913 Clouds 22 1016 88 10000 2.06 60 14:27 04.09.2022
1914 Clouds 22 1016 88 10000 0 0 12:57 04.09.2022
1915 Clouds 23 1016 78 10000 1.54 70 11:52 04.09.2022
1916 Clouds 24 1015 69 10000 2.06 110 09:50 04.09.2022
1917 Clouds 26 1014 65 10000 5.14 100 06:51 04.09.2022
1918 Clouds 26 1015 57 10000 4.12 110 03:30 04.09.2022
1919 Clouds 26 1016 65 10000 4.12 90 23:33 03.09.2022
1920 Clouds 22 1017 83 10000 1.03 0 22:20 03.09.2022
1921 Clouds 20 1016 94 10000 1.03 0 21:22 03.09.2022
1922 Clouds 21 1015 88 10000 1.03 0 18:57 03.09.2022
1923 Clouds 21 1015 88 10000 1.03 0 17:22 03.09.2022
1924 Clouds 22 1016 83 10000 1.03 0 16:20 03.09.2022
1925 Clouds 23 1016 78 10000 2.57 110 14:43 03.09.2022
1926 Clouds 24 1016 73 10000 2.06 120 13:50 03.09.2022
1927 Clouds 23 1016 78 10000 2.06 120 11:34 03.09.2022
1928 Clouds 23 1015 78 10000 2.06 130 09:37 03.09.2022
1929 Clouds 24 1014 78 10000 2.06 120 07:54 03.09.2022
1930 Clouds 24 1014 88 10000 2.06 60 04:56 03.09.2022
1931 Clouds 24 1015 88 10000 1.54 70 03:29 03.09.2022
1932 Clouds 23 1017 94 8000 5.14 100 23:49 02.09.2022
1933 Clouds 22 1016 94 10000 2.57 130 22:27 02.09.2022
1934 Clouds 22 1015 94 10000 2.06 120 20:56 02.09.2022
1935 Clouds 22 1016 84 10000 4.39 108 20:22 02.09.2022
1936 Clouds 22 1014 94 10000 1.54 140 18:51 02.09.2022
1937 Clouds 22 1014 94 10000 1.54 140 18:26 02.09.2022
1938 Clouds 22 1014 94 10000 2.57 150 17:28 02.09.2022
1939 Clouds 23 1014 94 10000 2.57 150 16:32 02.09.2022
1940 Clouds 23 1015 88 10000 1.54 160 13:50 02.09.2022
1941 Clouds 23 1016 88 10000 1.03 0 11:36 02.09.2022
1942 Clouds 24 1015 83 10000 1.54 130 09:46 02.09.2022
1943 Clouds 25 1014 78 10000 2.06 130 08:47 02.09.2022
1944 Clouds 27 1014 65 10000 3.6 130 06:48 02.09.2022
1945 Clouds 27 1014 65 10000 3.6 130 06:24 02.09.2022
1946 Clouds 27 1016 65 10000 3.6 110 01:41 02.09.2022
1947 Clouds 21 1016 94 10000 1.54 310 22:24 01.09.2022
1948 Clouds 20 1016 100 10000 1.54 320 21:38 01.09.2022
1949 Clouds 20 1016 100 10000 1.54 320 21:20 01.09.2022
1950 Clouds 20 1015 94 10000 0 0 20:26 01.09.2022
1951 Clouds 20 1014 100 10000 0 0 18:34 01.09.2022
1952 Clouds 21 1015 100 10000 1.03 0 16:55 01.09.2022
1953 Clouds 22 1016 94 10000 2.06 300 15:22 01.09.2022
1954 Clouds 21 1017 94 10000 1.03 0 13:27 01.09.2022
1955 Clouds 22 1017 88 10000 1.54 340 12:55 01.09.2022
1956 Clouds 22 1017 88 10000 1.03 0 11:51 01.09.2022
1957 Clouds 23 1018 80 10000 4.26 101 11:20 01.09.2022
1958 Clouds 23 1016 78 10000 1.54 120 09:32 01.09.2022
1959 Clouds 26 1015 61 10000 5.14 110 06:41 01.09.2022
1960 Clouds 26 1016 61 10000 3.09 140 02:39 01.09.2022
1961 Clouds 26 1017 61 10000 3.6 130 01:30 01.09.2022
1962 Clouds 26 1017 61 10000 3.6 130 01:30 01.09.2022
1963 Clouds 26 1017 61 10000 3.6 130 01:30 01.09.2022
1964 Clouds 26 1017 61 10000 3.6 130 01:30 01.09.2022
1965 Clouds 26 1017 61 10000 3.6 130 01:30 01.09.2022
1966 Clouds 25 1017 65 10000 2.57 150 22:43 31.08.2022
1967 Clouds 23 1016 73 10000 2.06 160 20:43 31.08.2022
1968 Clouds 23 1015 78 10000 2.06 160 18:45 31.08.2022
1969 Clouds 23 1016 83 10000 1.54 160 16:36 31.08.2022
1970 Clouds 23 1016 83 10000 1.54 160 15:21 31.08.2022
1971 Clouds 23 1016 88 10000 2.57 130 12:37 31.08.2022
1972 Clouds 23 1016 88 10000 3.09 170 11:54 31.08.2022
1973 Clouds 22 1015 94 10000 1.03 0 09:31 31.08.2022
1974 Clouds 24 1014 88 10000 3.09 140 07:28 31.08.2022
1975 Clouds 27 1015 65 10000 4.63 150 02:25 31.08.2022
1976 Clouds 22 1015 100 10000 3.6 150 22:18 30.08.2022
1977 Clouds 22 1015 100 10000 4.63 130 21:27 30.08.2022
1978 Clouds 21 1013 100 10000 4.63 110 19:26 30.08.2022
1979 Clouds 22 1013 100 10000 1.03 0 16:35 30.08.2022
1980 Clouds 23 1014 94 10000 3.09 170 13:30 30.08.2022
1981 Clouds 22 1014 94 10000 2.57 180 11:23 30.08.2022
1982 Clouds 23 1013 94 10000 3.09 160 10:57 30.08.2022
1983 Clouds 24 1012 83 10000 2.57 160 08:49 30.08.2022
1984 Clouds 27 1013 74 10000 3.09 170 03:55 30.08.2022
1985 Clouds 26 1014 78 10000 1.03 0 23:45 29.08.2022
1986 Clouds 23 1015 88 10000 1.03 0 22:33 29.08.2022
1987 Clouds 21 1014 88 10000 1.03 0 21:34 29.08.2022
1988 Clouds 21 1014 88 10000 1.03 0 21:34 29.08.2022
1989 Clouds 19 1013 94 10000 1.54 290 20:26 29.08.2022
1990 Clouds 19 1012 94 10000 2.06 330 18:39 29.08.2022
1991 Clouds 19 1013 100 10000 2.06 320 17:25 29.08.2022
1992 Clouds 19 1013 100 10000 1.03 0 16:50 29.08.2022
1993 Clouds 19 1014 100 10000 1.03 0 15:18 29.08.2022
1994 Clouds 21 1014 88 10000 1.03 0 13:34 29.08.2022
1995 Clouds 22 1014 88 10000 1.54 200 11:33 29.08.2022
1996 Rain 23 1013 83 10000 1.54 100 10:39 29.08.2022
1997 Clouds 25 1013 73 10000 1.54 160 08:38 29.08.2022
1998 Clouds 28 1013 69 10000 3.6 130 05:58 29.08.2022
1999 Clouds 25 1016 83 10000 1.54 170 01:25 29.08.2022
2000 Clouds 22 1015 94 10000 2.57 310 22:50 28.08.2022
2001 Clouds 21 1015 100 10000 3.09 220 21:44 28.08.2022
2002 Clouds 22 1015 94 10000 1.54 200 20:56 28.08.2022
2003 Clouds 21 1014 94 10000 0 0 19:29 28.08.2022
2004 Clouds 23 1015 83 10000 4.09 140 18:21 28.08.2022
2005 Clouds 20 1015 94 10000 1.54 320 17:25 28.08.2022
2006 Clouds 20 1015 100 10000 1.03 320 16:28 28.08.2022
2007 Clouds 21 1017 94 10000 1.03 0 14:42 28.08.2022
2008 Clouds 23 1017 88 10000 1.54 130 12:48 28.08.2022
2009 Clouds 24 1017 83 10000 1.54 170 10:51 28.08.2022
2010 Clouds 24 1017 83 10000 1.54 160 09:54 28.08.2022
2011 Clouds 25 1016 78 10000 2.06 150 08:37 28.08.2022
2012 Clouds 26 1016 73 10000 3.09 150 07:43 28.08.2022
2013 Clouds 29 1017 58 10000 4.12 120 02:48 28.08.2022
2014 Clouds 28 1018 69 10000 4.12 110 00:29 28.08.2022
2015 Clouds 25 1017 88 10000 1.03 0 22:37 27.08.2022
2016 Clouds 22 1016 94 10000 0 0 21:36 27.08.2022
2017 Clouds 22 1016 88 10000 4.12 130 19:49 27.08.2022
2018 Clouds 22 1015 88 10000 0 0 17:43 27.08.2022
2019 Clouds 23 1016 88 10000 0 0 15:53 27.08.2022
2020 Clouds 23 1016 88 10000 0 0 15:53 27.08.2022
2021 Clouds 23 1016 88 10000 0 0 15:24 27.08.2022
2022 Clouds 25 1017 83 10000 3.09 110 12:30 27.08.2022
2023 Clouds 25 1017 83 10000 3.09 110 11:32 27.08.2022
2024 Clouds 25 1017 83 10000 3.09 110 11:32 27.08.2022
2025 Clouds 25 1015 83 10000 3.6 100 09:49 27.08.2022
2026 Clouds 26 1015 78 10000 4.12 110 08:22 27.08.2022
2027 Clouds 28 1015 65 10000 7.2 90 03:40 27.08.2022
2028 Clouds 27 1017 74 10000 7.2 110 23:58 26.08.2022
2029 Clouds 26 1017 83 10000 5.14 110 22:50 26.08.2022
2030 Clouds 25 1016 83 10000 3.6 110 21:30 26.08.2022
2031 Clouds 24 1015 83 10000 6.17 90 19:23 26.08.2022
2032 Clouds 25 1015 83 10000 3.6 120 16:50 26.08.2022
2033 Clouds 25 1016 83 10000 3.09 120 15:31 26.08.2022
2034 Clouds 25 1016 83 10000 3.09 120 14:34 26.08.2022
2035 Clouds 25 1016 88 10000 2.57 130 12:51 26.08.2022
2036 Clouds 25 1016 83 10000 4.12 120 11:33 26.08.2022
2037 Clouds 26 1016 83 10000 3.09 120 10:46 26.08.2022
2038 Clouds 27 1014 74 10000 4.63 120 07:31 26.08.2022
2039 Clouds 27 1015 69 10000 4.12 130 02:31 26.08.2022
2040 Clouds 26 1017 19 10000 4.12 120 23:44 25.08.2022
2041 Clouds 20 1016 94 10000 1.03 0 21:37 25.08.2022
2042 Clouds 19 1016 100 10000 1.54 320 20:50 25.08.2022
2043 Clouds 24 1016 71 10000 4.32 95 19:20 25.08.2022
2044 Clouds 21 1016 94 10000 1.03 0 17:59 25.08.2022
2045 Clouds 21 1016 94 10000 1.03 0 17:31 25.08.2022
2046 Clouds 20 1016 100 10000 1.54 330 15:43 25.08.2022
2047 Clouds 20 1016 100 10000 1.54 330 15:25 25.08.2022
2048 Clouds 24 1017 83 10000 1.54 100 11:55 25.08.2022
2049 Clouds 24 1016 78 10000 1.54 100 10:48 25.08.2022
2050 Clouds 25 1015 78 10000 4.12 120 08:54 25.08.2022
2051 Clouds 27 1014 65 10000 5.14 110 05:24 25.08.2022
2052 Clouds 27 1016 74 10000 5.14 120 01:37 25.08.2022
2053 Clouds 24 1016 88 10000 0 0 23:26 24.08.2022
2054 Clouds 22 1016 88 10000 1.03 0 22:22 24.08.2022
2055 Clouds 21 1016 94 10000 1.03 0 21:36 24.08.2022
2056 Clouds 20 1015 100 10000 1.03 0 20:52 24.08.2022
2057 Clouds 21 1014 100 10000 2.57 320 18:58 24.08.2022
2058 Clouds 20 1015 100 10000 1.03 0 16:37 24.08.2022
2059 Clouds 20 1016 100 10000 1.03 0 15:52 24.08.2022
2060 Clouds 21 1016 94 10000 0 0 13:40 24.08.2022
2061 Clouds 22 1016 88 10000 1.54 130 11:29 24.08.2022
2062 Clouds 24 1015 78 10000 4.42 105 09:35 24.08.2022
2063 Clouds 26 1014 73 10000 6.69 110 07:50 24.08.2022
2064 Clouds 24 1016 94 5000 2.06 170 02:29 24.08.2022
2065 Clouds 22 1018 100 5000 4.63 90 23:26 23.08.2022
2066 Clouds 23 1017 94 10000 3.09 140 22:30 23.08.2022
2067 Clouds 23 1016 94 10000 2.06 110 21:28 23.08.2022
2068 Clouds 23 1016 86 10000 4.92 113 20:20 23.08.2022
2069 Clouds 22 1014 94 10000 1.54 310 18:44 23.08.2022
2070 Clouds 22 1014 94 10000 1.03 0 17:48 23.08.2022
2071 Clouds 22 1015 94 10000 4.12 120 16:53 23.08.2022
2072 Clouds 22 1015 94 10000 2.06 90 15:37 23.08.2022
2073 Clouds 22 1016 94 10000 1.03 300 13:26 23.08.2022
2074 Clouds 22 1016 94 10000 1.03 300 13:26 23.08.2022
2075 Clouds 23 1017 94 10000 1.54 150 11:24 23.08.2022
2076 Clouds 23 1016 88 10000 1.03 0 10:36 23.08.2022
2077 Clouds 24 1016 88 10000 1.03 0 09:52 23.08.2022
2078 Clouds 25 1015 83 10000 2.57 140 08:51 23.08.2022
2079 Clouds 25 1015 83 10000 2.57 140 08:20 23.08.2022
2080 Clouds 25 1015 88 10000 3.09 120 07:34 23.08.2022
2081 Clouds 25 1014 88 10000 3.6 130 06:27 23.08.2022
2082 Clouds 26 1016 69 10000 4.63 100 02:28 23.08.2022
2083 Clouds 26 1017 69 10000 5.66 110 00:28 23.08.2022
2084 Clouds 25 1017 78 10000 5.14 100 23:33 22.08.2022
2085 Clouds 23 1016 94 10000 2.06 330 22:34 22.08.2022
2086 Clouds 21 1015 88 10000 0 0 21:24 22.08.2022
2087 Clouds 19 1015 100 10000 2.06 330 19:47 22.08.2022
2088 Clouds 19 1014 100 10000 1.54 300 18:44 22.08.2022
2089 Clouds 19 1015 100 10000 1.03 330 16:47 22.08.2022
2090 Clouds 19 1015 100 10000 0 0 15:38 22.08.2022
2091 Clouds 19 1016 100 10000 1.03 320 13:44 22.08.2022
2092 Clouds 22 1015 88 10000 1.03 0 10:38 22.08.2022
2093 Clouds 26 1013 69 10000 3.09 140 07:58 22.08.2022
2094 Clouds 27 1014 65 10000 3.6 110 03:49 22.08.2022
2095 Clouds 25 1016 73 10000 0 0 00:38 22.08.2022
2096 Clouds 25 1016 73 10000 0 0 00:18 22.08.2022
2097 Clouds 20 1015 94 10000 1.54 0 22:18 21.08.2022
2098 Clouds 18 1015 94 10000 2.06 330 21:23 21.08.2022
2099 Clouds 18 1014 94 10000 1.03 0 20:36 21.08.2022
2100 Clouds 17 1013 100 10000 2.06 330 19:24 21.08.2022
2101 Clouds 18 1014 100 10000 1.03 0 16:55 21.08.2022
2102 Clouds 19 1014 94 10000 1.03 0 15:53 21.08.2022
2103 Clouds 19 1014 94 10000 1.03 0 15:20 21.08.2022
2104 Clouds 21 1015 83 10000 1.03 0 13:51 21.08.2022
2105 Clouds 21 1015 83 10000 1.03 0 13:24 21.08.2022
2106 Clouds 22 1015 83 10000 0 0 11:29 21.08.2022
2107 Clouds 22 1014 83 10000 0 0 09:31 21.08.2022
2108 Clouds 23 1013 78 10000 2.06 140 08:56 21.08.2022
2109 Clouds 23 1013 78 10000 2.06 140 08:38 21.08.2022
2110 Clouds 25 1013 69 10000 3.09 140 07:26 21.08.2022
2111 Clouds 27 1013 61 10000 3.6 150 03:24 21.08.2022
2112 Clouds 26 1015 69 10000 3.6 140 23:45 20.08.2022
2113 Clouds 19 1015 82 10000 0 0 22:23 20.08.2022
2114 Clouds 19 1015 88 10000 2.06 310 21:26 20.08.2022
2115 Clouds 20 1014 100 10000 2.06 320 19:58 20.08.2022
2116 Clouds 20 1014 100 10000 2.06 320 19:39 20.08.2022
2117 Clouds 20 1014 100 10000 2.06 310 18:27 20.08.2022
2118 Clouds 20 1014 94 10000 1.54 310 17:38 20.08.2022
2119 Clouds 21 1014 94 10000 2.06 320 16:40 20.08.2022
2120 Clouds 21 1015 94 10000 2.57 280 15:23 20.08.2022
2121 Clouds 23 1015 88 10000 1.03 0 12:46 20.08.2022
2122 Clouds 23 1015 88 10000 1.54 160 11:47 20.08.2022
2123 Clouds 24 1014 73 10000 3.09 140 09:29 20.08.2022
2124 Clouds 24 1014 73 10000 3.09 150 08:25 20.08.2022
2125 Clouds 27 1013 50 10000 5.14 110 05:48 20.08.2022
2126 Clouds 26 1016 53 10000 5.66 100 00:58 20.08.2022
2127 Clouds 26 1016 53 10000 5.66 110 23:52 19.08.2022
2128 Clouds 25 1016 61 10000 4.63 120 22:48 19.08.2022
2129 Clouds 24 1016 78 10000 3.6 130 21:34 19.08.2022
2130 Clouds 23 1015 83 10000 3.09 130 19:40 19.08.2022
2131 Clouds 23 1016 83 10000 3.09 130 16:32 19.08.2022
2132 Clouds 23 1017 94 10000 2.57 170 14:22 19.08.2022
2133 Clouds 23 1017 76 10000 6.2 114 12:19 19.08.2022
2134 Clouds 22 1016 88 10000 1.54 120 10:41 19.08.2022
2135 Clouds 22 1016 94 10000 5.14 90 09:36 19.08.2022
2136 Clouds 27 1015 65 10000 7.72 100 04:56 19.08.2022
2137 Clouds 26 1018 69 10000 5.66 100 00:43 19.08.2022
2138 Clouds 26 1018 69 10000 5.66 100 00:19 19.08.2022
2139 Clouds 26 1017 57 10000 4.12 90 22:58 18.08.2022
2140 Clouds 26 1017 57 10000 4.12 90 22:26 18.08.2022
2141 Clouds 24 1016 69 10000 6.17 100 21:50 18.08.2022
2142 Clouds 23 1015 83 10000 5.66 90 20:56 18.08.2022
2143 Drizzle 23 1015 78 10000 5.14 90 19:40 18.08.2022
2144 Drizzle 23 1015 78 10000 5.14 90 19:20 18.08.2022
2145 Clouds 23 1017 73 10000 3.6 80 17:38 18.08.2022
2146 Clouds 23 1016 68 10000 3.09 80 16:18 18.08.2022
2147 Clouds 23 1017 68 10000 4.12 100 14:21 18.08.2022
2148 Clouds 24 1017 78 10000 5.14 90 13:44 18.08.2022
2149 Clouds 24 1017 78 10000 5.14 90 13:44 18.08.2022
2150 Clouds 24 1018 83 10000 5.66 100 12:28 18.08.2022
2151 Clouds 24 1018 83 10000 4.12 100 11:20 18.08.2022
2152 Clouds 24 1017 83 10000 2.57 110 09:43 18.08.2022
2153 Clouds 25 1016 78 10000 5.66 80 07:27 18.08.2022
2154 Clouds 27 1016 69 10000 7.72 90 06:30 18.08.2022
2155 Clouds 27 1017 69 10000 8.23 80 01:44 18.08.2022
2156 Clouds 27 1017 69 10000 5.14 80 22:45 17.08.2022
2157 Clouds 25 1016 78 10000 5.14 90 20:21 17.08.2022
2158 Clouds 25 1015 78 10000 5.14 90 19:55 17.08.2022
2159 Clouds 25 1015 78 10000 6.17 100 18:33 17.08.2022
2160 Clouds 25 1016 83 10000 4.12 90 16:52 17.08.2022
2161 Clouds 25 1017 83 10000 4.12 90 15:45 17.08.2022
2162 Clouds 25 1017 83 10000 4.12 80 14:36 17.08.2022
2163 Clouds 25 1017 88 10000 4.12 100 12:22 17.08.2022
2164 Clouds 26 1017 83 10000 2.06 80 10:59 17.08.2022
2165 Clouds 26 1016 83 10000 4.63 90 08:26 17.08.2022
2166 Clouds 26 1015 78 10000 5.14 80 06:29 17.08.2022
2167 Clouds 28 1018 69 10000 7.72 90 00:50 17.08.2022
2168 Clouds 27 1018 74 10000 6.69 80 23:18 16.08.2022
2169 Clouds 25 1016 83 10000 3.6 100 21:21 16.08.2022
2170 Clouds 25 1015 88 10000 3.6 90 19:56 16.08.2022
2171 Clouds 25 1015 88 10000 3.6 90 19:22 16.08.2022
2172 Clouds 25 1015 83 10000 3.6 90 17:55 16.08.2022
2173 Clouds 25 1015 83 10000 5.14 90 16:47 16.08.2022
2174 Clouds 25 1016 83 10000 4.12 80 15:45 16.08.2022
2175 Clouds 25 1016 83 10000 3.6 90 14:54 16.08.2022
2176 Clouds 25 1016 83 10000 3.6 90 14:36 16.08.2022
2177 Clouds 25 1017 83 10000 4.63 100 12:19 16.08.2022
2178 Clouds 24 1016 88 10000 7.2 80 10:20 16.08.2022
2179 Clouds 26 1016 73 10000 5.14 90 08:53 16.08.2022
2180 Clouds 26 1016 73 10000 5.14 90 08:21 16.08.2022
2181 Clouds 27 1015 69 10000 6.17 90 05:55 16.08.2022
2182 Clouds 26 1018 69 10000 7.2 90 23:37 15.08.2022
2183 Clouds 24 1019 81 10000 7.21 85 22:21 15.08.2022
2184 Clouds 25 1017 73 10000 5.66 100 21:48 15.08.2022
2185 Clouds 25 1017 78 10000 4.12 90 20:31 15.08.2022
2186 Clouds 23 1016 80 10000 6.73 88 19:18 15.08.2022
2187 Clouds 24 1016 88 10000 5.14 100 17:59 15.08.2022
2188 Clouds 25 1016 83 10000 5.14 100 16:24 15.08.2022
2189 Clouds 24 1016 83 10000 5.14 100 15:26 15.08.2022
2190 Clouds 24 1017 88 10000 2.57 100 13:27 15.08.2022
2191 Clouds 25 1016 69 10000 4.63 100 10:37 15.08.2022
2192 Clouds 25 1015 69 10000 4.12 90 08:55 15.08.2022
2193 Clouds 26 1014 61 10000 6.69 110 06:51 15.08.2022
2194 Clouds 26 1016 61 10000 6.69 100 03:56 15.08.2022
2195 Clouds 26 1017 57 10000 7.2 110 23:38 14.08.2022
2196 Clouds 24 1017 69 10000 3.6 120 21:49 14.08.2022
2197 Clouds 23 1016 73 10000 5.14 100 20:54 14.08.2022
2198 Clouds 23 1016 73 10000 4.12 120 19:45 14.08.2022
2199 Clouds 23 1016 68 10000 5.66 100 18:32 14.08.2022
2200 Clouds 23 1016 68 10000 6.17 100 17:41 14.08.2022
2201 Clouds 23 1017 68 10000 4.12 120 16:25 14.08.2022
2202 Clouds 24 1018 64 10000 4.12 130 15:43 14.08.2022
2203 Clouds 24 1017 64 10000 3.6 120 13:52 14.08.2022
2204 Clouds 24 1017 64 10000 3.6 120 13:33 14.08.2022
2205 Clouds 24 1017 64 10000 4.63 120 12:54 14.08.2022
2206 Clouds 24 1017 64 10000 5.14 120 11:31 14.08.2022
2207 Clouds 23 1016 68 10000 5.14 110 10:18 14.08.2022
2208 Clouds 24 1015 64 10000 4.12 120 08:18 14.08.2022
2209 Clouds 25 1015 61 10000 5.66 120 06:18 14.08.2022
2210 Clouds 23 1018 94 5000 4.12 140 01:48 14.08.2022
2211 Clouds 25 1018 73 10000 4.63 150 23:23 13.08.2022
2212 Clouds 24 1017 69 10000 3.6 120 22:28 13.08.2022
2213 Clouds 22 1016 78 10000 2.57 100 20:56 13.08.2022
2214 Clouds 23 1016 73 10000 2.57 150 19:49 13.08.2022
2215 Clouds 22 1017 74 10000 5.07 118 19:19 13.08.2022
2216 Clouds 22 1016 74 10000 5.45 119 17:22 13.08.2022
2217 Clouds 22 1017 72 10000 5.59 117 15:18 13.08.2022
2218 Clouds 23 1017 68 10000 2.57 130 14:24 13.08.2022
2219 Clouds 24 1017 73 10000 3.6 130 13:36 13.08.2022
2220 Clouds 24 1017 64 10000 3.09 130 11:49 13.08.2022
2221 Clouds 23 1017 68 10000 2.06 140 09:27 13.08.2022
2222 Clouds 24 1016 69 10000 3.6 150 07:48 13.08.2022
2223 Clouds 23 1018 78 10000 3.6 180 01:56 13.08.2022
2224 Clouds 24 1018 69 10000 1.03 0 23:36 12.08.2022
2225 Clouds 23 1016 68 10000 1.03 0 21:40 12.08.2022
2226 Clouds 23 1015 73 10000 2.06 170 19:50 12.08.2022
2227 Clouds 23 1015 73 10000 2.06 170 19:24 12.08.2022
2228 Clouds 22 1015 78 10000 0 0 18:31 12.08.2022
2229 Clouds 23 1016 68 10000 1.54 150 16:27 12.08.2022
2230 Clouds 23 1016 68 10000 0 0 15:23 12.08.2022
2231 Clouds 23 1016 68 10000 0 0 13:50 12.08.2022
2232 Clouds 23 1016 68 10000 2.57 170 12:50 12.08.2022
2233 Clouds 22 1016 70 10000 4.97 169 09:22 12.08.2022
2234 Clouds 24 1014 69 10000 2.06 180 07:46 12.08.2022
2235 Clouds 25 1013 65 10000 2.57 170 06:24 12.08.2022
2236 Clouds 24 1016 63 10000 4.23 187 00:49 12.08.2022
2237 Clouds 23 1017 68 10000 4.14 188 23:59 11.08.2022
2238 Clouds 23 1017 71 10000 4.16 188 23:25 11.08.2022
2239 Clouds 22 1016 73 10000 4.56 189 21:55 11.08.2022
2240 Clouds 22 1015 74 10000 4.84 188 21:28 11.08.2022
2241 Clouds 22 1015 74 10000 4.84 188 20:31 11.08.2022
2242 Clouds 22 1014 76 10000 5.24 191 19:34 11.08.2022
2243 Clouds 22 1014 77 10000 4.99 195 18:57 11.08.2022
2244 Clouds 22 1013 81 10000 4.8 191 17:22 11.08.2022
2245 Clouds 22 1013 81 10000 4.72 190 15:51 11.08.2022
2246 Clouds 22 1013 82 10000 5.1 189 14:46 11.08.2022
2247 Clouds 22 1013 94 10000 0 0 11:59 11.08.2022
2248 Clouds 22 1012 94 10000 0 0 09:22 11.08.2022
2249 Drizzle 23 1010 94 10000 3.09 180 06:52 11.08.2022
2250 Clouds 24 1012 94 10000 3.09 180 02:49 11.08.2022
2251 Clouds 24 1012 94 10000 1.54 190 23:57 10.08.2022
2252 Clouds 24 1011 94 10000 1.03 0 21:49 10.08.2022
2253 Clouds 24 1011 94 10000 1.03 0 21:18 10.08.2022
2254 Rain 24 1010 94 10000 1.54 280 20:36 10.08.2022
2255 Rain 23 1009 100 10000 3.09 340 18:53 10.08.2022
2256 Rain 23 1010 100 10000 2.57 330 17:27 10.08.2022
2257 Rain 23 1010 100 10000 2.57 330 17:27 10.08.2022
2258 Clouds 23 1011 100 10000 1.54 300 14:57 10.08.2022
2259 Clouds 24 1011 94 10000 2.06 330 13:34 10.08.2022
2260 Clouds 25 1011 94 10000 0 0 10:51 10.08.2022
2261 Clouds 26 1010 89 10000 2.06 190 08:42 10.08.2022
2262 Clouds 27 1009 83 10000 3.09 200 07:35 10.08.2022
2263 Rain 29 1009 74 10000 2.57 40 04:50 10.08.2022
2264 Rain 29 1012 74 10000 2.06 360 01:52 10.08.2022
2265 Clouds 26 1011 89 10000 2.57 350 23:32 09.08.2022
2266 Clouds 24 1011 88 10000 2.57 340 22:45 09.08.2022
2267 Clouds 22 1011 94 10000 2.57 320 21:24 09.08.2022
2268 Clouds 22 1010 94 10000 2.57 350 19:28 09.08.2022
2269 Clouds 22 1010 94 10000 2.06 320 17:39 09.08.2022
2270 Clouds 22 1010 94 10000 2.06 320 17:21 09.08.2022
2271 Clouds 22 1010 94 10000 2.57 10 16:30 09.08.2022
2272 Clouds 22 1011 94 10000 1.54 330 15:26 09.08.2022
2273 Clouds 25 1012 94 10000 2.06 40 11:49 09.08.2022
2274 Clouds 27 1010 78 10000 3.6 40 08:53 09.08.2022
2275 Clouds 29 1010 70 10000 5.14 30 07:58 09.08.2022
2276 Clouds 29 1009 65 10000 5.14 40 06:55 09.08.2022
2277 Clouds 29 1013 70 10000 5.14 40 01:57 09.08.2022
2278 Clouds 27 1013 83 10000 3.6 20 23:26 08.08.2022
2279 Clouds 25 1013 88 10000 2.06 320 22:45 08.08.2022
2280 Clouds 22 1012 100 10000 1.03 0 21:47 08.08.2022
2281 Clouds 23 1011 94 10000 1.54 360 20:43 08.08.2022
2282 Clouds 23 1011 100 10000 2.06 340 19:39 08.08.2022
2283 Clouds 23 1011 91 10000 2.91 9 18:18 08.08.2022
2284 Clouds 24 1012 94 10000 1.03 0 15:54 08.08.2022
2285 Clouds 24 1012 94 10000 1.03 0 15:36 08.08.2022
2286 Clouds 24 1013 88 10000 1.03 0 12:30 08.08.2022
2287 Clouds 25 1012 88 10000 1.03 0 10:37 08.08.2022
2288 Clouds 27 1011 78 10000 5.14 70 07:59 08.08.2022
2289 Clouds 29 1011 70 10000 5.14 70 04:31 08.08.2022
2290 Clouds 27 1013 83 10000 2.06 70 00:33 08.08.2022
2291 Clouds 23 1013 94 10000 2.06 300 21:42 07.08.2022
2292 Clouds 23 1013 94 10000 2.06 300 21:19 07.08.2022
2293 Clouds 23 1012 94 10000 0 0 20:23 07.08.2022
2294 Clouds 22 1012 100 10000 0 0 19:52 07.08.2022
2295 Clouds 22 1012 100 10000 0 0 19:22 07.08.2022
2296 Clouds 22 1012 100 10000 0 0 17:31 07.08.2022
2297 Clouds 22 1012 100 10000 0 0 16:52 07.08.2022
2298 Clouds 22 1013 94 10000 0 0 15:29 07.08.2022
2299 Clouds 23 1014 100 10000 0 0 13:55 07.08.2022
2300 Clouds 23 1014 100 10000 1.03 300 12:40 07.08.2022
2301 Clouds 24 1013 94 10000 0 0 10:48 07.08.2022
2302 Clouds 25 1013 88 10000 1.03 120 09:56 07.08.2022
2303 Clouds 28 1011 74 10000 4.63 110 04:33 07.08.2022
2304 Clouds 27 1013 78 10000 4.12 100 02:18 07.08.2022
2305 Clouds 23 1014 94 10000 1.03 0 22:34 06.08.2022
2306 Clouds 22 1013 94 10000 1.54 330 21:52 06.08.2022
2307 Clouds 21 1012 100 10000 1.54 330 19:46 06.08.2022
2308 Clouds 21 1012 100 10000 1.54 330 18:38 06.08.2022
2309 Clouds 21 1012 100 10000 2.06 330 17:45 06.08.2022
2310 Clouds 21 1012 100 10000 1.03 0 16:19 06.08.2022
2311 Clouds 23 1013 100 10000 0 0 13:51 06.08.2022
2312 Clouds 23 1013 94 10000 1.54 300 12:27 06.08.2022
2313 Clouds 23 1013 94 10000 1.54 300 12:27 06.08.2022
2314 Clouds 23 1014 100 10000 1.03 0 10:53 06.08.2022
2315 Clouds 23 1013 100 10000 0 0 09:41 06.08.2022
2316 Clouds 28 1012 74 10000 4.12 140 04:43 06.08.2022
2317 Clouds 27 1014 78 10000 1.03 0 00:49 06.08.2022
2318 Clouds 22 1013 100 10000 2.06 340 22:35 05.08.2022
2319 Clouds 22 1012 100 10000 2.57 330 20:50 05.08.2022
2320 Clouds 22 1012 100 10000 1.54 300 18:56 05.08.2022
2321 Clouds 22 1012 100 10000 1.54 300 18:38 05.08.2022
2322 Clouds 22 1013 100 10000 1.54 180 16:52 05.08.2022
2323 Clouds 22 1014 100 8000 1.54 210 15:24 05.08.2022
2324 Clouds 22 1014 94 7000 4.12 150 14:35 05.08.2022
2325 Clouds 23 1014 100 8000 7.2 120 13:36 05.08.2022
2326 Clouds 23 1014 100 8000 7.2 120 13:18 05.08.2022
2327 Clouds 24 1013 94 10000 5.14 120 11:29 05.08.2022
2328 Clouds 26 1012 89 10000 2.06 120 08:57 05.08.2022
2329 Clouds 28 1011 74 10000 4.12 90 07:34 05.08.2022
2330 Clouds 30 1011 66 10000 4.12 50 04:19 05.08.2022
2331 Clouds 24 1013 100 10000 1.54 330 23:18 04.08.2022
2332 Clouds 23 1014 94 10000 1.03 0 21:28 04.08.2022
2333 Clouds 23 1013 100 10000 2.06 280 20:57 04.08.2022
2334 Clouds 23 1013 100 10000 2.06 280 20:36 04.08.2022
2335 Clouds 22 1012 100 10000 2.06 20 18:58 04.08.2022
2336 Clouds 22 1012 100 10000 2.06 20 18:33 04.08.2022
2337 Clouds 24 1013 94 10000 1.03 0 15:51 04.08.2022
2338 Clouds 25 1013 94 10000 1.54 40 13:26 04.08.2022
2339 Clouds 25 1013 94 10000 1.54 40 13:26 04.08.2022
2340 Clouds 26 1014 89 10000 2.57 70 11:39 04.08.2022
2341 Clouds 26 1013 89 10000 2.57 90 10:21 04.08.2022
2342 Clouds 27 1012 83 10000 3.6 70 07:45 04.08.2022
2343 Clouds 28 1014 78 10000 3.6 120 02:48 04.08.2022
2344 Clouds 28 1015 78 10000 4.63 90 00:33 04.08.2022
2345 Clouds 25 1016 83 10000 0 0 23:39 03.08.2022
2346 Clouds 21 1015 94 10000 1.54 320 21:27 03.08.2022
2347 Clouds 24 1015 88 10000 2.58 42 20:21 03.08.2022
2348 Clouds 23 1014 88 10000 2.73 42 19:19 03.08.2022
2349 Clouds 21 1014 94 10000 1.54 310 16:48 03.08.2022
2350 Clouds 23 1015 87 10000 3.73 46 16:22 03.08.2022
2351 Clouds 22 1015 100 10000 0.51 0 13:40 03.08.2022
2352 Clouds 25 1016 83 10000 2.06 120 10:50 03.08.2022
2353 Clouds 27 1014 78 10000 4.63 80 07:23 03.08.2022
2354 Clouds 26 1015 78 10000 6.38 69 04:22 03.08.2022
2355 Clouds 28 1014 69 10000 6.17 80 03:23 03.08.2022
2356 Clouds 28 1016 74 10000 5.66 90 00:49 03.08.2022
2357 Clouds 25 1016 94 10000 1.03 0 22:36 02.08.2022
2358 Clouds 23 1016 100 10000 1.03 0 21:51 02.08.2022
2359 Clouds 23 1015 100 10000 0 0 20:29 02.08.2022
2360 Clouds 23 1015 94 10000 0 0 17:47 02.08.2022
2361 Clouds 23 1016 94 10000 0 0 14:39 02.08.2022
2362 Clouds 23 1017 94 10000 1.03 0 10:49 02.08.2022
2363 Clouds 26 1016 89 10000 1.03 0 08:54 02.08.2022
2364 Clouds 26 1016 89 10000 1.03 0 08:54 02.08.2022
2365 Clouds 27 1015 83 10000 4.12 120 07:52 02.08.2022
2366 Clouds 28 1015 74 10000 5.66 110 04:59 02.08.2022
2367 Clouds 27 1016 83 10000 5.66 110 03:36 02.08.2022
2368 Clouds 26 1017 94 10000 3.09 120 23:32 01.08.2022
2369 Clouds 25 1016 94 10000 1.03 0 21:53 01.08.2022
2370 Clouds 24 1015 94 10000 1.03 0 20:34 01.08.2022
2371 Clouds 24 1015 94 10000 1.03 0 19:21 01.08.2022
2372 Clouds 24 1015 94 10000 1.03 0 17:22 01.08.2022
2373 Clouds 24 1015 94 10000 0 0 16:48 01.08.2022
2374 Clouds 24 1016 87 10000 2.26 96 15:46 01.08.2022
2375 Clouds 24 1016 88 10000 2.32 87 15:19 01.08.2022
2376 Clouds 24 1016 94 10000 0 0 13:39 01.08.2022
2377 Clouds 24 1016 94 10000 0 0 11:18 01.08.2022
2378 Clouds 25 1015 94 10000 0 0 09:34 01.08.2022
2379 Clouds 26 1014 89 10000 2.06 120 07:37 01.08.2022
2380 Clouds 27 1014 78 10000 4.12 110 04:43 01.08.2022
2381 Clouds 28 1015 74 10000 3.6 130 02:24 01.08.2022
2382 Clouds 24 1015 94 10000 1.54 160 22:54 31.07.2022
2383 Clouds 24 1015 94 10000 1.54 160 22:35 31.07.2022
2384 Clouds 23 1014 100 8000 2.06 160 20:44 31.07.2022
2385 Clouds 23 1014 100 10000 1.54 90 18:42 31.07.2022
2386 Clouds 24 1014 94 8000 1.03 240 17:29 31.07.2022
2387 Clouds 24 1014 100 5000 3.6 10 14:57 31.07.2022
2388 Clouds 24 1014 100 10000 1.03 310 13:19 31.07.2022
2389 Clouds 25 1014 94 10000 1.03 0 11:44 31.07.2022
2390 Clouds 27 1013 83 10000 1.54 40 08:47 31.07.2022
2391 Clouds 28 1012 78 10000 4.12 40 05:38 31.07.2022
2392 Clouds 29 1014 74 10000 5.14 60 02:29 31.07.2022
2393 Clouds 25 1015 88 10000 1.54 320 22:49 30.07.2022
2394 Clouds 23 1015 100 10000 1.54 310 21:52 30.07.2022
2395 Clouds 23 1015 100 10000 1.54 310 21:33 30.07.2022
2396 Clouds 23 1014 94 10000 1.54 320 20:38 30.07.2022
2397 Clouds 23 1014 94 10000 1.03 0 19:50 30.07.2022
2398 Clouds 23 1014 100 10000 1.03 0 18:19 30.07.2022
2399 Clouds 23 1015 100 10000 1.03 0 16:38 30.07.2022
2400 Clouds 23 1015 100 10000 1.03 0 15:33 30.07.2022
2401 Clouds 24 1015 94 10000 1.03 0 14:23 30.07.2022
2402 Clouds 24 1015 100 10000 1.03 300 12:32 30.07.2022
2403 Clouds 24 1015 100 10000 1.03 290 11:53 30.07.2022
2404 Clouds 24 1015 100 10000 0 0 10:20 30.07.2022
2405 Clouds 26 1013 83 10000 2.57 50 08:55 30.07.2022
2406 Clouds 27 1013 78 10000 4.12 80 07:33 30.07.2022
2407 Clouds 29 1015 74 10000 7.2 90 02:33 30.07.2022
2408 Clouds 27 1016 83 10000 5.14 100 00:30 30.07.2022
2409 Clouds 23 1015 94 10000 1.03 0 21:38 29.07.2022
2410 Clouds 23 1014 100 8000 4.63 60 20:50 29.07.2022
2411 Clouds 24 1014 94 10000 2.57 70 19:47 29.07.2022
2412 Clouds 24 1014 94 10000 3.09 100 17:34 29.07.2022
2413 Clouds 25 1015 88 10000 2.06 120 14:50 29.07.2022
2414 Clouds 25 1016 88 10000 3.09 130 12:52 29.07.2022
2415 Clouds 26 1015 78 10000 2.57 120 08:52 29.07.2022
2416 Clouds 26 1015 78 10000 2.57 120 08:24 29.07.2022
2417 Clouds 28 1014 69 10000 4.12 120 05:22 29.07.2022
2418 Clouds 27 1017 63 10000 5.56 73 01:19 29.07.2022
2419 Clouds 27 1017 63 10000 5.56 73 01:19 29.07.2022
2420 Clouds 21 1016 100 10000 1.03 320 21:45 28.07.2022
2421 Clouds 21 1015 100 10000 1.03 310 20:54 28.07.2022
2422 Clouds 21 1015 100 10000 1.03 310 20:20 28.07.2022
2423 Clouds 22 1015 94 10000 1.03 290 19:40 28.07.2022
2424 Clouds 21 1015 100 10000 2.06 20 18:20 28.07.2022
2425 Clouds 21 1015 100 10000 1.03 320 17:36 28.07.2022
2426 Clouds 21 1016 100 10000 1.03 320 16:41 28.07.2022
2427 Clouds 22 1016 94 10000 0 0 14:28 28.07.2022
2428 Clouds 23 1016 94 10000 0.51 0 12:41 28.07.2022
2429 Clouds 24 1016 78 10000 3.79 65 09:21 28.07.2022
2430 Clouds 29 1013 58 10000 4.63 60 05:41 28.07.2022
2431 Clouds 27 1014 67 10000 4.92 66 05:21 28.07.2022
2432 Clouds 25 1017 94 10000 1.54 90 23:41 27.07.2022
2433 Clouds 22 1015 94 10000 1.54 330 21:58 27.07.2022
2434 Clouds 22 1015 94 10000 1.03 0 20:19 27.07.2022
2435 Clouds 21 1014 100 10000 0 0 19:26 27.07.2022
2436 Clouds 22 1015 100 10000 0 0 16:32 27.07.2022
2437 Clouds 22 1015 100 10000 0 0 15:51 27.07.2022
2438 Clouds 22 1015 100 10000 1.03 0 14:42 27.07.2022
2439 Clouds 22 1015 100 10000 1.03 0 13:45 27.07.2022
2440 Clouds 23 1015 94 10000 0 0 11:18 27.07.2022
2441 Clouds 27 1013 74 10000 4.63 70 07:53 27.07.2022
2442 Clouds 29 1012 70 10000 5.66 80 05:18 27.07.2022
2443 Clouds 25 1015 83 10000 1.54 330 23:29 26.07.2022
2444 Clouds 23 1014 88 10000 2.06 330 22:19 26.07.2022
2445 Clouds 21 1013 100 10000 1.54 320 20:58 26.07.2022
2446 Clouds 21 1012 94 10000 1.03 330 19:32 26.07.2022
2447 Clouds 21 1012 94 10000 1.54 320 18:40 26.07.2022
2448 Clouds 21 1013 100 10000 2.06 320 17:54 26.07.2022
2449 Clouds 22 1013 94 10000 3.09 330 15:43 26.07.2022
2450 Clouds 23 1014 100 10000 2.57 320 14:43 26.07.2022
2451 Clouds 24 1015 94 10000 3.6 350 12:33 26.07.2022
2452 Clouds 24 1014 94 10000 2.57 10 10:20 26.07.2022
2453 Clouds 25 1012 94 10000 4.63 90 08:27 26.07.2022
2454 Clouds 28 1014 69 10000 5.14 60 01:55 26.07.2022
2455 Clouds 27 1014 78 10000 3.6 50 00:20 26.07.2022
2456 Clouds 24 1014 100 4000 2.06 40 22:40 25.07.2022
2457 Clouds 23 1014 100 4000 3.6 50 21:43 25.07.2022
2458 Clouds 23 1013 100 5000 2.06 10 20:43 25.07.2022
2459 Clouds 23 1013 100 5000 2.06 10 20:23 25.07.2022
2460 Clouds 23 1013 100 5000 3.09 30 19:24 25.07.2022
2461 Clouds 24 1013 94 8000 4.63 60 17:37 25.07.2022
2462 Clouds 25 1013 88 10000 3.09 80 16:44 25.07.2022
2463 Clouds 24 1014 94 8000 3.6 80 13:22 25.07.2022
2464 Clouds 24 1014 100 8000 3.6 80 10:48 25.07.2022
2465 Clouds 25 1012 94 8000 2.57 80 07:53 25.07.2022
2466 Clouds 25 1015 94 5000 5.14 90 00:57 25.07.2022
2467 Clouds 25 1015 94 5000 2.57 70 23:45 24.07.2022
2468 Clouds 25 1015 83 10000 4.91 68 22:44 24.07.2022
2469 Clouds 23 1014 100 10000 0.51 0 21:41 24.07.2022
2470 Clouds 23 1013 100 10000 0.51 0 20:58 24.07.2022
2471 Clouds 23 1013 100 10000 0.51 0 20:37 24.07.2022
2472 Clouds 24 1014 87 10000 4.35 71 19:18 24.07.2022
2473 Clouds 23 1012 94 10000 0.51 0 17:56 24.07.2022
2474 Clouds 23 1013 94 10000 2.57 70 15:54 24.07.2022
2475 Clouds 23 1014 94 10000 0.51 0 14:41 24.07.2022
2476 Clouds 22 1015 100 10000 0 0 13:47 24.07.2022
2477 Clouds 23 1015 94 10000 0 0 12:28 24.07.2022
2478 Clouds 23 1015 100 10000 3.09 60 11:30 24.07.2022
2479 Clouds 24 1014 88 10000 3.09 110 09:44 24.07.2022
2480 Clouds 24 1014 94 8000 5.14 100 07:53 24.07.2022
2481 Clouds 24 1014 94 8000 5.14 100 07:26 24.07.2022
2482 Clouds 28 1014 69 10000 7.2 90 02:52 24.07.2022
2483 Clouds 21 1016 94 10000 2.06 300 22:45 23.07.2022
2484 Clouds 20 1015 100 10000 1.03 0 20:47 23.07.2022
2485 Clouds 20 1015 100 10000 1.03 0 19:25 23.07.2022
2486 Clouds 20 1015 100 10000 1.03 0 18:18 23.07.2022
2487 Clouds 20 1015 100 10000 0 0 17:25 23.07.2022
2488 Clouds 21 1015 94 10000 0 0 16:21 23.07.2022
2489 Clouds 21 1016 94 10000 0 0 15:21 23.07.2022
2490 Clouds 21 1016 100 10000 1.54 310 14:52 23.07.2022
2491 Clouds 21 1016 100 10000 1.54 200 13:58 23.07.2022
2492 Clouds 22 1016 88 10000 1.03 0 11:48 23.07.2022
2493 Clouds 23 1016 88 10000 1.03 90 10:36 23.07.2022
2494 Clouds 24 1015 83 10000 1.54 120 09:28 23.07.2022
2495 Clouds 27 1014 65 10000 4.63 110 06:40 23.07.2022
2496 Clouds 27 1014 61 10000 5.66 110 03:37 23.07.2022
2497 Clouds 26 1016 73 10000 4.12 140 00:27 23.07.2022
2498 Clouds 24 1015 83 10000 2.57 120 21:28 22.07.2022
2499 Clouds 24 1014 83 10000 2.06 140 20:29 22.07.2022
2500 Clouds 23 1015 78 10000 4.47 114 18:41 22.07.2022
2501 Clouds 24 1015 88 10000 2.57 80 17:38 22.07.2022
2502 Clouds 24 1015 83 10000 2.06 120 15:35 22.07.2022
2503 Clouds 24 1016 88 10000 2.57 120 12:41 22.07.2022
2504 Clouds 24 1015 88 10000 2.06 130 09:52 22.07.2022
2505 Clouds 24 1015 88 10000 2.06 130 09:20 22.07.2022
2506 Clouds 26 1014 78 10000 3.09 130 07:51 22.07.2022
2507 Clouds 28 1014 69 10000 4.12 140 04:22 22.07.2022
2508 Clouds 27 1017 69 10000 4.12 150 23:29 21.07.2022
2509 Clouds 24 1016 88 10000 1.03 130 21:39 21.07.2022
2510 Clouds 22 1014 94 10000 1.54 130 19:41 21.07.2022
2511 Clouds 21 1014 100 10000 1.03 350 18:29 21.07.2022
2512 Clouds 21 1014 100 10000 0 0 17:21 21.07.2022
2513 Clouds 24 1015 88 10000 1.03 120 15:49 21.07.2022
2514 Clouds 24 1016 88 10000 1.03 110 14:46 21.07.2022
2515 Clouds 24 1016 100 10000 1.03 110 13:22 21.07.2022
2516 Clouds 25 1016 88 10000 1.54 130 11:43 21.07.2022
2517 Clouds 25 1016 88 10000 1.54 140 09:44 21.07.2022
2518 Clouds 25 1015 83 10000 2.06 140 08:53 21.07.2022
2519 Clouds 27 1015 74 10000 3.6 100 07:50 21.07.2022
2520 Clouds 28 1014 74 10000 5.14 100 06:26 21.07.2022
2521 Clouds 28 1015 69 10000 4.63 120 02:23 21.07.2022
2522 Clouds 26 1017 83 10000 2.57 80 22:24 20.07.2022
2523 Clouds 25 1016 83 10000 2.57 100 21:49 20.07.2022
2524 Clouds 24 1016 88 10000 3.09 90 20:46 20.07.2022
2525 Clouds 25 1016 83 10000 3.6 100 19:46 20.07.2022
2526 Clouds 25 1016 83 10000 3.6 100 18:53 20.07.2022
2527 Clouds 25 1016 83 10000 3.6 100 18:30 20.07.2022
2528 Clouds 26 1016 78 10000 5.14 110 17:24 20.07.2022
2529 Clouds 26 1016 83 10000 4.12 110 15:32 20.07.2022
2530 Clouds 26 1016 78 10000 5.14 110 14:35 20.07.2022
2531 Clouds 26 1017 78 10000 3.6 100 12:41 20.07.2022
2532 Clouds 26 1016 78 10000 2.57 110 10:28 20.07.2022
2533 Clouds 29 1014 65 10000 4.12 80 05:44 20.07.2022
2534 Clouds 28 1016 65 10000 6.69 90 00:58 20.07.2022
2535 Clouds 28 1016 65 10000 6.69 90 00:40 20.07.2022
2536 Clouds 25 1016 83 10000 3.09 110 22:35 19.07.2022
2537 Clouds 24 1015 88 10000 2.06 110 21:53 19.07.2022
2538 Clouds 24 1015 83 10000 2.06 100 20:49 19.07.2022
2539 Clouds 24 1015 84 10000 5.35 87 19:22 19.07.2022
2540 Clouds 25 1015 78 10000 4.12 120 18:35 19.07.2022
2541 Clouds 25 1015 83 10000 2.06 130 17:53 19.07.2022
2542 Clouds 24 1015 88 10000 2.57 110 15:26 19.07.2022
2543 Clouds 25 1016 88 10000 2.57 100 12:44 19.07.2022
2544 Clouds 25 1016 83 10000 4.12 100 11:32 19.07.2022
2545 Clouds 25 1015 83 10000 4.12 110 09:51 19.07.2022
2546 Clouds 26 1015 78 10000 5.66 100 08:42 19.07.2022
2547 Clouds 27 1014 78 10000 6.17 100 07:19 19.07.2022
2548 Clouds 27 1014 83 10000 6.69 110 05:50 19.07.2022
2549 Clouds 27 1014 83 10000 6.69 110 05:18 19.07.2022
2550 Clouds 29 1015 61 10000 5.14 80 02:33 19.07.2022
2551 Clouds 27 1016 78 10000 3.09 30 23:50 18.07.2022
2552 Clouds 27 1016 78 10000 3.09 30 23:19 18.07.2022
2553 Clouds 25 1016 88 10000 2.06 80 22:23 18.07.2022
2554 Clouds 24 1015 88 10000 2.06 110 20:57 18.07.2022
2555 Clouds 24 1015 94 10000 3.6 90 19:52 18.07.2022
2556 Clouds 24 1015 94 10000 4.12 90 18:24 18.07.2022
2557 Clouds 23 1015 100 10000 3.09 100 16:28 18.07.2022
2558 Clouds 23 1016 100 10000 2.57 90 15:19 18.07.2022
2559 Clouds 24 1016 94 10000 2.57 120 13:31 18.07.2022
2560 Clouds 25 1016 83 10000 4.12 120 11:31 18.07.2022
2561 Clouds 26 1016 69 10000 4.12 110 09:53 18.07.2022
2562 Clouds 27 1015 69 10000 5.14 110 07:49 18.07.2022
2563 Clouds 28 1016 78 10000 6.69 80 02:51 18.07.2022
2564 Clouds 24 1017 94 10000 2.06 80 22:55 17.07.2022
2565 Clouds 24 1017 94 10000 2.06 80 22:28 17.07.2022
2566 Clouds 23 1016 94 10000 0 0 21:26 17.07.2022
2567 Clouds 23 1016 100 10000 0 0 20:44 17.07.2022
2568 Clouds 24 1015 94 10000 2.06 90 19:49 17.07.2022
2569 Clouds 24 1015 94 10000 2.06 90 19:20 17.07.2022
2570 Clouds 24 1015 94 10000 2.06 90 17:39 17.07.2022
2571 Clouds 24 1016 100 10000 2.57 90 16:53 17.07.2022
2572 Clouds 24 1016 100 10000 2.57 90 16:27 17.07.2022
2573 Clouds 24 1016 100 10000 1.03 0 15:34 17.07.2022
2574 Clouds 24 1016 94 10000 1.54 90 13:47 17.07.2022
2575 Clouds 24 1017 88 10000 0 0 12:32 17.07.2022
2576 Clouds 25 1016 94 10000 2.57 130 10:18 17.07.2022
2577 Clouds 27 1015 83 10000 6.69 110 06:58 17.07.2022
2578 Clouds 26 1016 89 10000 2.57 190 02:34 17.07.2022
2579 Clouds 27 1018 83 10000 4.12 150 23:23 16.07.2022
2580 Clouds 25 1017 94 10000 2.57 140 21:57 16.07.2022
2581 Clouds 25 1016 94 10000 1.54 130 20:28 16.07.2022
2582 Clouds 25 1015 94 10000 2.57 140 18:42 16.07.2022
2583 Clouds 24 1015 100 10000 0 0 17:24 16.07.2022
2584 Clouds 24 1016 94 10000 1.03 190 15:41 16.07.2022
2585 Clouds 24 1016 100 10000 0 0 11:55 16.07.2022
2586 Clouds 26 1015 89 10000 1.03 180 09:37 16.07.2022
2587 Clouds 26 1014 89 10000 1.03 130 08:58 16.07.2022
2588 Clouds 26 1014 89 10000 1.03 130 08:33 16.07.2022
2589 Clouds 30 1014 66 10000 3.6 80 05:59 16.07.2022
2590 Clouds 30 1014 66 10000 3.09 60 03:31 16.07.2022
2591 Clouds 24 1016 94 10000 1.54 10 23:51 15.07.2022
2592 Clouds 23 1016 94 10000 1.03 0 22:43 15.07.2022
2593 Fog 22 1015 100 10000 1.03 0 21:31 15.07.2022
2594 Fog 23 1015 94 10000 1.03 0 20:32 15.07.2022
2595 Fog 23 1014 100 800 1.54 310 18:44 15.07.2022
2596 Mist 23 1014 100 3000 1.54 330 17:48 15.07.2022
2597 Clouds 25 1015 94 10000 1.03 0 14:57 15.07.2022
2598 Clouds 26 1015 89 10000 1.54 60 13:20 15.07.2022
2599 Clouds 26 1014 94 10000 2.06 70 11:45 15.07.2022
2600 Clouds 26 1014 94 10000 1.54 80 10:42 15.07.2022
2601 Clouds 28 1013 78 10000 4.63 60 07:42 15.07.2022
2602 Clouds 28 1014 78 10000 5.66 60 02:24 15.07.2022
2603 Clouds 28 1015 78 10000 4.12 60 00:37 15.07.2022
2604 Clouds 23 1015 94 10000 1.03 0 22:53 14.07.2022
2605 Clouds 22 1014 100 10000 1.54 320 21:54 14.07.2022
2606 Clouds 22 1014 100 10000 1.54 320 21:30 14.07.2022
2607 Clouds 22 1014 100 10000 1.03 340 20:45 14.07.2022
2608 Clouds 22 1014 100 10000 1.03 340 20:26 14.07.2022
2609 Clouds 23 1013 94 10000 1.03 330 19:45 14.07.2022
2610 Clouds 24 1014 94 10000 1.03 0 16:23 14.07.2022
2611 Clouds 25 1014 94 10000 2.06 50 15:50 14.07.2022
2612 Clouds 26 1014 89 10000 2.57 60 14:43 14.07.2022
2613 Clouds 25 1014 88 10000 2.06 50 13:21 14.07.2022
2614 Clouds 26 1014 89 10000 3.6 60 11:56 14.07.2022
2615 Clouds 26 1014 89 10000 3.6 60 11:24 14.07.2022
2616 Clouds 25 1013 88 10000 2.57 70 10:39 14.07.2022
2617 Clouds 27 1012 83 10000 4.63 60 07:55 14.07.2022
2618 Clouds 30 1011 70 10000 5.66 40 03:29 14.07.2022
2619 Clouds 27 1013 89 10000 2.57 360 00:54 14.07.2022
2620 Clouds 25 1013 94 10000 1.54 340 23:35 13.07.2022
2621 Clouds 23 1013 94 10000 1.03 0 22:23 13.07.2022
2622 Clouds 23 1012 94 10000 1.03 0 21:21 13.07.2022
2623 Clouds 23 1011 100 10000 1.03 0 20:23 13.07.2022
2624 Clouds 24 1010 88 10000 2.06 50 17:54 13.07.2022
2625 Clouds 23 1011 88 10000 2.57 70 16:47 13.07.2022
2626 Clouds 24 1012 83 10000 2.57 70 15:43 13.07.2022
2627 Clouds 24 1012 94 10000 2.57 80 13:24 13.07.2022
2628 Clouds 25 1012 94 10000 3.6 90 10:46 13.07.2022
2629 Clouds 25 1012 94 10000 3.6 90 10:28 13.07.2022
2630 Clouds 25 1012 94 10000 3.6 90 10:28 13.07.2022
2631 Clouds 25 1012 94 10000 4.12 80 09:27 13.07.2022
2632 Clouds 26 1011 94 10000 3.09 80 07:53 13.07.2022
2633 Clouds 28 1012 83 10000 4.12 40 03:26 13.07.2022
2634 Clouds 29 1014 79 10000 5.14 60 00:19 13.07.2022
2635 Clouds 24 1013 94 10000 0 0 22:19 12.07.2022
2636 Clouds 23 1013 100 10000 2.06 330 21:36 12.07.2022
2637 Clouds 23 1012 94 10000 0 0 20:42 12.07.2022
2638 Clouds 22 1012 100 10000 0 0 19:42 12.07.2022
2639 Clouds 22 1012 100 10000 0 0 18:21 12.07.2022
2640 Clouds 23 1013 100 10000 0 0 16:20 12.07.2022
2641 Clouds 23 1014 100 10000 0 0 14:31 12.07.2022
2642 Clouds 23 1014 100 10000 0 0 13:24 12.07.2022
2643 Clouds 23 1014 100 10000 0 0 11:46 12.07.2022
2644 Clouds 24 1013 94 10000 0 0 10:25 12.07.2022
2645 Clouds 26 1013 78 10000 2.57 90 08:38 12.07.2022
2646 Clouds 28 1013 74 10000 4.63 90 07:38 12.07.2022
2647 Clouds 29 1013 65 10000 4.12 70 05:44 12.07.2022
2648 Clouds 30 1014 70 10000 3.09 70 03:50 12.07.2022
2649 Clouds 26 1016 83 10000 2.06 340 23:50 11.07.2022
2650 Clouds 23 1016 100 10000 1.54 300 22:37 11.07.2022
2651 Fog 22 1014 100 500 0.51 340 20:54 11.07.2022
2652 Fog 22 1014 100 500 0.51 340 20:29 11.07.2022
2653 Fog 23 1014 100 200 1.03 320 18:39 11.07.2022
2654 Clouds 23 1014 100 10000 1.03 330 17:57 11.07.2022
2655 Clouds 23 1014 100 10000 1.54 320 16:22 11.07.2022
2656 Clouds 24 1015 100 10000 0 0 14:52 11.07.2022
2657 Clouds 24 1015 100 10000 1.54 270 12:28 11.07.2022
2658 Clouds 25 1015 94 10000 1.03 0 10:54 11.07.2022
2659 Clouds 26 1014 89 10000 1.03 0 09:54 11.07.2022
2660 Clouds 27 1014 83 10000 3.09 70 08:36 11.07.2022
2661 Clouds 28 1013 74 10000 3.6 70 07:32 11.07.2022
2662 Clouds 28 1016 74 10000 4.63 70 00:47 11.07.2022
2663 Clouds 28 1017 78 10000 3.6 70 23:48 10.07.2022
2664 Clouds 26 1017 89 10000 2.06 90 22:26 10.07.2022
2665 Clouds 24 1015 94 10000 2.06 90 20:55 10.07.2022
2666 Clouds 24 1015 94 10000 1.03 0 19:59 10.07.2022
2667 Clouds 24 1015 94 10000 1.03 0 19:20 10.07.2022
2668 Clouds 24 1015 94 10000 1.03 0 17:50 10.07.2022
2669 Clouds 24 1015 94 10000 2.57 80 16:59 10.07.2022
2670 Clouds 24 1015 94 10000 2.57 80 16:20 10.07.2022
2671 Clouds 24 1016 100 8000 3.09 50 14:35 10.07.2022
2672 Clouds 24 1016 100 8000 3.6 60 12:42 10.07.2022
2673 Rain 24 1016 100 10000 3.6 90 11:36 10.07.2022
2674 Clouds 25 1015 94 10000 1.54 50 09:30 10.07.2022
2675 Clouds 25 1014 94 10000 1.54 60 08:42 10.07.2022
2676 Clouds 25 1014 94 10000 1.54 60 06:32 10.07.2022
2677 Clouds 27 1017 78 10000 5.14 110 23:35 09.07.2022
2678 Clouds 24 1016 94 10000 1.03 0 22:26 09.07.2022
2679 Clouds 21 1015 100 10000 1.03 0 21:40 09.07.2022
2680 Clouds 21 1014 94 10000 1.54 320 19:37 09.07.2022
2681 Clouds 21 1014 94 10000 1.03 0 18:25 09.07.2022
2682 Clouds 23 1015 88 10000 4.41 104 17:18 09.07.2022
2683 Clouds 21 1015 100 10000 0 0 15:56 09.07.2022
2684 Clouds 21 1015 100 10000 0 0 15:36 09.07.2022
2685 Clouds 22 1016 88 10000 1.03 0 13:54 09.07.2022
2686 Clouds 22 1016 88 10000 1.03 0 13:28 09.07.2022
2687 Clouds 23 1016 88 10000 1.03 0 11:34 09.07.2022
2688 Clouds 24 1016 83 10000 2.06 110 10:24 09.07.2022
2689 Clouds 25 1015 83 10000 2.57 120 08:27 09.07.2022
2690 Clouds 26 1014 78 10000 5.14 110 06:59 09.07.2022
2691 Clouds 27 1013 69 10000 5.66 120 04:35 09.07.2022
2692 Clouds 25 1016 73 10000 5.14 110 23:27 08.07.2022
2693 Clouds 23 1017 78 10000 5.25 87 22:00 08.07.2022
2694 Clouds 22 1015 88 10000 1.03 0 21:20 08.07.2022
2695 Clouds 20 1014 100 10000 1.03 0 20:33 08.07.2022
2696 Clouds 20 1014 100 10000 1.54 320 18:36 08.07.2022
2697 Clouds 20 1014 100 10000 1.03 300 17:45 08.07.2022
2698 Clouds 20 1015 100 10000 0 0 15:53 08.07.2022
2699 Clouds 20 1015 100 10000 1.03 310 14:50 08.07.2022
2700 Clouds 24 1015 78 10000 1.03 0 12:30 08.07.2022
2701 Clouds 24 1015 78 10000 2.06 110 10:46 08.07.2022
2702 Clouds 24 1015 78 10000 2.57 120 09:24 08.07.2022
2703 Clouds 27 1013 69 10000 5.66 110 06:55 08.07.2022
2704 Clouds 27 1013 69 10000 5.14 90 04:31 08.07.2022
2705 Clouds 26 1015 78 10000 4.63 100 23:56 07.07.2022
2706 Clouds 23 1015 100 10000 1.03 0 22:47 07.07.2022
2707 Clouds 23 1014 94 10000 3.6 70 21:39 07.07.2022
2708 Clouds 22 1013 94 10000 1.03 0 18:43 07.07.2022
2709 Clouds 22 1013 94 10000 1.03 0 17:42 07.07.2022
2710 Clouds 24 1015 88 10000 2.06 120 15:57 07.07.2022
2711 Clouds 24 1015 94 10000 0 0 13:30 07.07.2022
2712 Clouds 25 1015 88 10000 0 0 12:40 07.07.2022
2713 Clouds 25 1015 88 10000 0 0 12:21 07.07.2022
2714 Clouds 24 1015 94 10000 1.03 0 11:31 07.07.2022
2715 Clouds 24 1015 88 10000 1.03 0 10:44 07.07.2022
2716 Clouds 24 1015 88 10000 1.03 0 10:26 07.07.2022
2717 Clouds 26 1014 78 10000 3.6 130 07:58 07.07.2022
2718 Clouds 26 1014 78 10000 4.63 120 04:44 07.07.2022
2719 Clouds 24 1018 85 10000 5.81 115 23:37 06.07.2022
2720 Clouds 24 1018 86 10000 5.99 115 23:19 06.07.2022
2721 Clouds 24 1018 86 10000 5.99 115 23:19 06.07.2022
2722 Clouds 25 1017 88 10000 2.57 130 22:57 06.07.2022
2723 Clouds 25 1017 88 10000 2.57 130 22:39 06.07.2022
2724 Clouds 25 1016 83 10000 3.09 130 21:46 06.07.2022
2725 Clouds 25 1015 88 10000 3.09 130 19:41 06.07.2022
2726 Clouds 25 1015 88 10000 3.09 130 18:32 06.07.2022
2727 Clouds 24 1016 88 10000 2.06 120 16:27 06.07.2022
2728 Clouds 25 1016 83 10000 2.57 130 15:28 06.07.2022
2729 Clouds 25 1016 94 10000 3.09 110 12:44 06.07.2022
2730 Clouds 25 1016 88 10000 3.09 110 11:49 06.07.2022
2731 Clouds 25 1016 88 10000 3.6 100 10:20 06.07.2022
2732 Clouds 25 1015 88 10000 3.09 130 08:26 06.07.2022
2733 Clouds 26 1015 89 10000 6.17 110 07:36 06.07.2022
2734 Clouds 27 1014 74 10000 6.69 100 05:31 06.07.2022
2735 Clouds 26 1017 89 10000 5.14 110 22:48 05.07.2022
2736 Clouds 24 1017 100 10000 3.09 110 21:59 05.07.2022
2737 Clouds 24 1016 94 10000 3.6 120 20:41 05.07.2022
2738 Clouds 24 1016 100 10000 4.12 120 19:43 05.07.2022
2739 Clouds 24 1016 100 10000 4.12 120 19:22 05.07.2022
2740 Clouds 25 1016 94 10000 3.6 130 17:48 05.07.2022
2741 Clouds 25 1016 100 10000 4.12 130 16:55 05.07.2022
2742 Clouds 24 1016 100 10000 3.09 130 15:31 05.07.2022
2743 Clouds 24 1017 94 10000 2.06 130 14:28 05.07.2022
2744 Clouds 26 1016 78 10000 2.57 120 12:43 05.07.2022
2745 Clouds 25 1016 88 10000 3.6 110 11:49 05.07.2022
2746 Clouds 25 1016 88 10000 2.57 120 10:40 05.07.2022
2747 Clouds 25 1015 88 10000 3.09 130 09:23 05.07.2022
2748 Clouds 26 1015 78 10000 5.14 120 07:47 05.07.2022
2749 Clouds 27 1015 83 10000 6.69 110 04:51 05.07.2022
2750 Clouds 27 1015 83 10000 6.69 110 04:23 05.07.2022
2751 Clouds 25 1017 88 10000 2.57 150 23:56 04.07.2022
2752 Clouds 25 1017 88 10000 2.57 150 23:26 04.07.2022
2753 Clouds 23 1016 88 10000 1.54 220 22:25 04.07.2022
2754 Clouds 22 1016 88 10000 1.03 0 21:30 04.07.2022
2755 Clouds 23 1015 78 10000 1.54 150 20:52 04.07.2022
2756 Clouds 23 1015 78 10000 1.54 150 20:33 04.07.2022
2757 Clouds 23 1015 78 10000 2.06 140 19:52 04.07.2022
2758 Clouds 23 1015 78 10000 2.06 140 19:34 04.07.2022
2759 Clouds 24 1015 78 10000 2.57 130 17:57 04.07.2022
2760 Clouds 25 1015 73 10000 3.09 130 15:50 04.07.2022
2761 Clouds 25 1015 78 10000 3.6 130 14:54 04.07.2022
2762 Clouds 25 1015 83 10000 3.09 130 13:29 04.07.2022
2763 Clouds 25 1016 83 10000 3.6 130 12:20 04.07.2022
2764 Clouds 25 1016 88 10000 4.12 140 10:34 04.07.2022
2765 Clouds 25 1015 88 10000 3.6 150 09:40 04.07.2022
2766 Clouds 25 1014 88 10000 3.6 130 07:21 04.07.2022
2767 Clouds 28 1015 65 10000 4.63 130 03:35 04.07.2022
2768 Clouds 28 1016 61 10000 4.63 120 00:30 04.07.2022
2769 Clouds 25 1015 78 10000 3.09 130 22:58 03.07.2022
2770 Clouds 24 1015 94 10000 3.09 130 20:47 03.07.2022
2771 Clouds 24 1015 94 10000 3.09 130 20:21 03.07.2022
2772 Clouds 24 1014 94 10000 2.57 130 19:26 03.07.2022
2773 Clouds 24 1014 100 10000 3.09 130 18:32 03.07.2022
2774 Clouds 24 1014 100 10000 3.6 130 17:43 03.07.2022
2775 Clouds 23 1015 100 10000 2.06 90 15:29 03.07.2022
2776 Clouds 23 1015 94 10000 2.57 110 14:58 03.07.2022
2777 Clouds 24 1015 88 10000 2.06 130 13:59 03.07.2022
2778 Clouds 24 1015 88 10000 2.06 130 13:27 03.07.2022
2779 Clouds 24 1015 83 10000 3.09 130 12:22 03.07.2022
2780 Clouds 25 1015 83 10000 2.57 130 10:55 03.07.2022
2781 Clouds 25 1015 83 10000 2.57 130 10:36 03.07.2022
2782 Clouds 25 1014 78 10000 2.57 140 08:48 03.07.2022
2783 Clouds 26 1014 78 10000 3.09 130 07:34 03.07.2022
2784 Clouds 28 1016 74 10000 5.66 100 01:32 03.07.2022
2785 Clouds 26 1016 78 10000 4.63 110 23:38 02.07.2022
2786 Clouds 25 1016 83 10000 2.57 110 22:31 02.07.2022
2787 Clouds 24 1014 83 10000 2.06 120 20:37 02.07.2022
2788 Clouds 24 1014 88 10000 2.06 90 19:50 02.07.2022
2789 Clouds 25 1014 88 10000 2.06 140 18:48 02.07.2022
2790 Clouds 25 1015 88 10000 1.54 130 17:40 02.07.2022
2791 Clouds 25 1015 88 10000 3.09 140 16:35 02.07.2022
2792 Clouds 25 1016 100 10000 4.12 130 13:51 02.07.2022
2793 Clouds 25 1016 94 10000 3.6 140 11:51 02.07.2022
2794 Clouds 25 1016 94 10000 4.12 140 10:52 02.07.2022
2795 Clouds 25 1016 94 10000 4.12 140 10:28 02.07.2022
2796 Clouds 26 1015 83 10000 3.6 140 08:39 02.07.2022
2797 Clouds 26 1015 83 10000 3.6 140 08:19 02.07.2022
2798 Clouds 27 1015 78 10000 4.12 130 05:51 02.07.2022
2799 Clouds 27 1017 78 10000 4.63 120 00:47 02.07.2022
2800 Clouds 26 1017 83 10000 4.12 110 23:31 01.07.2022
2801 Clouds 26 1017 83 10000 2.57 110 22:35 01.07.2022
2802 Clouds 25 1016 88 10000 1.54 120 21:39 01.07.2022
2803 Clouds 24 1015 94 10000 2.06 90 20:59 01.07.2022
2804 Clouds 24 1015 94 10000 2.06 90 20:37 01.07.2022
2805 Clouds 25 1016 94 10000 2.57 120 19:40 01.07.2022
2806 Clouds 25 1015 88 10000 3.09 110 17:39 01.07.2022
2807 Clouds 25 1016 88 10000 3.09 110 14:59 01.07.2022
2808 Clouds 25 1014 88 10000 3.09 120 13:54 01.07.2022
2809 Clouds 25 1016 88 10000 3.6 130 11:48 01.07.2022
2810 Clouds 25 1016 88 10000 3.6 120 10:19 01.07.2022
2811 Clouds 26 1015 83 10000 3.6 120 07:40 01.07.2022
2812 Clouds 26 1017 83 10000 4.63 140 02:43 01.07.2022
2813 Clouds 24 1018 87 10000 6.07 133 00:22 01.07.2022
2814 Clouds 26 1017 83 10000 3.09 150 22:52 30.06.2022
2815 Clouds 26 1017 83 10000 3.09 150 22:32 30.06.2022
2816 Clouds 25 1016 88 10000 3.09 160 21:55 30.06.2022
2817 Clouds 25 1015 88 10000 3.09 150 20:58 30.06.2022
2818 Clouds 24 1016 88 10000 5.54 134 20:22 30.06.2022
2819 Clouds 25 1015 88 10000 3.09 150 19:51 30.06.2022
2820 Clouds 24 1015 87 10000 4.92 122 19:18 30.06.2022
2821 Clouds 25 1015 88 10000 2.57 160 18:34 30.06.2022
2822 Clouds 25 1015 88 10000 3.09 160 17:37 30.06.2022
2823 Clouds 24 1016 94 10000 1.54 160 16:28 30.06.2022
2824 Clouds 25 1016 88 10000 2.06 150 14:31 30.06.2022
2825 Clouds 25 1016 94 10000 1.54 150 13:29 30.06.2022
2826 Clouds 25 1016 94 10000 2.06 160 12:34 30.06.2022
2827 Clouds 26 1016 83 10000 3.6 150 11:23 30.06.2022
2828 Clouds 26 1015 83 10000 3.09 140 09:53 30.06.2022
2829 Clouds 26 1015 83 10000 3.09 140 09:29 30.06.2022
2830 Clouds 27 1015 83 10000 3.09 150 07:41 30.06.2022
2831 Clouds 28 1014 78 10000 3.09 160 05:47 30.06.2022
2832 Clouds 28 1016 78 10000 2.57 190 00:27 30.06.2022
2833 Clouds 25 1015 88 10000 2.06 220 22:58 29.06.2022
2834 Clouds 25 1015 88 10000 2.06 220 22:37 29.06.2022
2835 Clouds 24 1014 94 10000 2.06 210 21:31 29.06.2022
2836 Clouds 23 1013 94 10000 2.57 300 20:33 29.06.2022
2837 Clouds 23 1013 94 10000 2.57 300 20:33 29.06.2022
2838 Clouds 23 1012 100 10000 2.06 360 19:34 29.06.2022
2839 Clouds 23 1012 100 10000 2.06 310 17:40 29.06.2022
2840 Clouds 23 1013 100 10000 3.6 350 16:35 29.06.2022
2841 Clouds 24 1014 100 10000 1.03 0 14:50 29.06.2022
2842 Clouds 24 1015 100 10000 0 0 12:39 29.06.2022
2843 Clouds 25 1014 94 10000 0 0 10:25 29.06.2022
2844 Rain 25 1014 94 10000 2.06 340 09:31 29.06.2022
2845 Clouds 27 1013 83 10000 2.06 50 07:36 29.06.2022
2846 Clouds 28 1012 78 10000 2.06 110 04:50 29.06.2022
2847 Clouds 26 1015 89 10000 1.03 0 00:56 29.06.2022
2848 Clouds 26 1015 89 10000 1.03 0 00:35 29.06.2022
2849 Clouds 23 1014 88 10000 1.54 310 22:53 28.06.2022
2850 Clouds 23 1014 88 10000 1.54 310 22:23 28.06.2022
2851 Clouds 21 1014 94 10000 1.03 0 21:53 28.06.2022
2852 Clouds 21 1014 94 10000 1.03 0 21:31 28.06.2022
2853 Clouds 20 1013 100 10000 2.06 350 20:27 28.06.2022
2854 Clouds 21 1014 100 10000 0 0 19:32 28.06.2022
2855 Clouds 21 1014 100 10000 0 0 18:44 28.06.2022
2856 Clouds 22 1014 94 10000 0 0 17:38 28.06.2022
2857 Clouds 22 1015 94 10000 0 0 15:56 28.06.2022
2858 Clouds 22 1015 94 10000 0 0 15:56 28.06.2022
2859 Clouds 22 1015 94 10000 0 0 14:59 28.06.2022
2860 Clouds 24 1015 80 10000 3.98 68 14:20 28.06.2022
2861 Clouds 24 1014 88 10000 0 0 13:49 28.06.2022
2862 Clouds 24 1015 88 10000 1.03 50 12:48 28.06.2022
2863 Clouds 24 1015 94 10000 2.06 90 10:57 28.06.2022
2864 Clouds 24 1014 88 10000 2.06 90 09:25 28.06.2022
2865 Clouds 25 1013 83 10000 3.09 100 08:43 28.06.2022
2866 Clouds 26 1013 78 10000 4.63 100 07:26 28.06.2022
2867 Clouds 27 1014 69 10000 4.12 110 04:59 28.06.2022
2868 Clouds 27 1015 69 10000 4.12 80 23:59 27.06.2022
2869 Clouds 27 1015 69 10000 4.12 80 23:36 27.06.2022
2870 Clouds 25 1015 83 10000 2.06 90 22:50 27.06.2022
2871 Clouds 23 1014 88 10000 1.54 100 21:30 27.06.2022
2872 Clouds 23 1015 79 10000 4.81 89 20:44 27.06.2022
2873 Clouds 24 1013 83 10000 3.09 120 18:58 27.06.2022
2874 Clouds 24 1014 83 10000 3.09 120 17:46 27.06.2022
2875 Clouds 23 1015 84 10000 5.32 103 16:18 27.06.2022
2876 Clouds 23 1015 94 10000 1.03 0 14:44 27.06.2022
2877 Clouds 22 1015 100 10000 0 0 13:24 27.06.2022
2878 Clouds 24 1015 83 10000 1.03 0 12:49 27.06.2022
2879 Clouds 25 1015 83 10000 2.57 130 10:22 27.06.2022
2880 Clouds 25 1014 83 10000 2.57 130 08:43 27.06.2022
2881 Clouds 26 1014 78 10000 3.6 150 07:53 27.06.2022
2882 Clouds 27 1013 78 10000 3.6 140 06:37 27.06.2022
2883 Clouds 27 1016 69 10000 4.12 130 01:54 27.06.2022
2884 Clouds 26 1017 78 10000 4.12 140 23:39 26.06.2022
2885 Clouds 25 1016 83 10000 1.54 140 21:51 26.06.2022
2886 Clouds 25 1015 83 10000 1.54 130 20:34 26.06.2022
2887 Clouds 24 1016 81 10000 4.84 133 19:19 26.06.2022
2888 Clouds 25 1015 83 10000 1.03 140 18:23 26.06.2022
2889 Clouds 24 1016 88 10000 1.03 140 15:38 26.06.2022
2890 Clouds 23 1016 94 10000 0 0 14:33 26.06.2022
2891 Clouds 22 1017 94 10000 1.03 250 13:27 26.06.2022
2892 Clouds 23 1017 83 10000 0 0 12:44 26.06.2022
2893 Clouds 25 1016 73 10000 2.06 110 10:53 26.06.2022
2894 Clouds 25 1016 73 10000 2.06 110 10:22 26.06.2022
2895 Clouds 26 1015 69 10000 3.09 110 08:45 26.06.2022
2896 Clouds 25 1016 76 10000 5.17 99 07:18 26.06.2022
2897 Clouds 27 1018 74 10000 5.14 80 00:45 26.06.2022
2898 Clouds 25 1018 83 10000 6.63 101 00:20 26.06.2022
2899 Clouds 26 1018 83 10000 3.09 120 23:33 25.06.2022
2900 Clouds 24 1017 94 10000 3.6 120 22:51 25.06.2022
2901 Clouds 24 1017 94 10000 3.6 120 22:25 25.06.2022
2902 Clouds 24 1016 88 10000 1.54 90 21:22 25.06.2022
2903 Clouds 24 1016 94 10000 1.03 320 20:54 25.06.2022
2904 Clouds 24 1016 94 10000 1.03 320 20:25 25.06.2022
2905 Clouds 23 1015 94 10000 0 0 18:26 25.06.2022
2906 Clouds 21 1015 100 10000 1.03 320 17:27 25.06.2022
2907 Clouds 21 1016 100 10000 1.03 310 16:29 25.06.2022
2908 Clouds 21 1016 100 10000 1.03 340 14:43 25.06.2022
2909 Clouds 22 1017 100 10000 0 0 12:51 25.06.2022
2910 Clouds 22 1017 100 10000 0 0 12:32 25.06.2022
2911 Clouds 22 1017 100 10000 0 0 12:32 25.06.2022
2912 Clouds 24 1016 83 10000 0 0 09:35 25.06.2022
2913 Clouds 25 1015 78 10000 1.54 100 08:55 25.06.2022
2914 Clouds 25 1015 78 10000 1.54 100 08:25 25.06.2022
2915 Clouds 26 1014 73 10000 4.63 110 06:36 25.06.2022
2916 Clouds 28 1017 61 10000 4.12 90 01:31 25.06.2022
2917 Clouds 27 1017 61 10000 3.6 90 23:58 24.06.2022
2918 Clouds 23 1016 83 10000 1.03 0 22:29 24.06.2022
2919 Clouds 22 1016 94 10000 2.06 100 21:28 24.06.2022
2920 Rain 23 1016 78 10000 2.57 110 20:24 24.06.2022
2921 Clouds 23 1015 83 10000 2.06 110 19:37 24.06.2022
2922 Clouds 23 1016 82 10000 5.76 89 19:18 24.06.2022
2923 Clouds 23 1016 82 10000 5.76 89 18:31 24.06.2022
2924 Clouds 21 1016 100 10000 0 0 17:57 24.06.2022
2925 Clouds 22 1017 94 10000 2.06 290 16:46 24.06.2022
2926 Clouds 22 1017 94 10000 2.06 320 14:32 24.06.2022
2927 Clouds 22 1018 100 10000 1.03 0 13:59 24.06.2022
2928 Clouds 22 1018 100 10000 1.03 0 13:35 24.06.2022
2929 Clouds 23 1018 94 10000 1.54 250 11:41 24.06.2022
2930 Clouds 23 1017 94 10000 1.54 300 10:36 24.06.2022
2931 Clouds 24 1017 88 10000 4.12 80 09:41 24.06.2022
2932 Clouds 24 1016 83 10000 1.03 170 08:53 24.06.2022
2933 Clouds 26 1015 65 10000 2.57 120 07:56 24.06.2022
2934 Clouds 26 1014 65 10000 3.09 110 06:43 24.06.2022
2935 Clouds 24 1016 79 10000 4.25 98 06:20 24.06.2022
2936 Clouds 27 1015 57 10000 5.14 100 04:41 24.06.2022
2937 Clouds 24 1018 72 10000 4.63 88 23:19 23.06.2022
2938 Clouds 22 1016 88 10000 1.03 0 22:40 23.06.2022
2939 Clouds 22 1015 100 10000 2.06 80 20:59 23.06.2022
2940 Clouds 22 1015 100 10000 2.06 80 20:35 23.06.2022
2941 Clouds 22 1015 100 10000 3.6 60 19:40 23.06.2022
2942 Clouds 20 1015 100 10000 1.03 0 17:53 23.06.2022
2943 Clouds 20 1015 100 10000 1.03 0 17:33 23.06.2022
2944 Clouds 20 1016 100 10000 0 0 15:57 23.06.2022
2945 Clouds 20 1016 100 10000 0 0 15:24 23.06.2022
2946 Clouds 21 1017 94 10000 0 0 13:46 23.06.2022
2947 Clouds 20 1017 94 10000 0 0 11:27 23.06.2022
2948 Clouds 21 1016 94 10000 0 0 10:40 23.06.2022
2949 Clouds 23 1017 73 10000 3.76 117 09:18 23.06.2022
2950 Clouds 26 1016 65 10000 3.09 130 03:40 23.06.2022
2951 Clouds 25 1017 69 10000 2.06 150 00:27 23.06.2022
2952 Clouds 24 1017 73 10000 2.57 150 23:41 22.06.2022
2953 Clouds 22 1016 94 10000 1.54 340 22:48 22.06.2022
2954 Clouds 22 1016 94 10000 1.54 340 22:48 22.06.2022
2955 Clouds 20 1016 94 10000 1.03 0 21:22 22.06.2022
2956 Clouds 20 1015 94 10000 1.03 0 20:43 22.06.2022
2957 Clouds 20 1015 94 10000 1.54 300 19:58 22.06.2022
2958 Clouds 19 1014 100 10000 1.54 330 18:49 22.06.2022
2959 Clouds 20 1015 94 10000 1.54 330 17:28 22.06.2022
2960 Clouds 20 1015 94 10000 1.54 330 17:28 22.06.2022
2961 Clouds 20 1015 94 10000 1.03 0 16:33 22.06.2022
2962 Clouds 20 1016 94 10000 1.03 0 15:27 22.06.2022
2963 Clouds 20 1016 94 10000 1.03 0 14:21 22.06.2022
2964 Clouds 20 1016 94 10000 0 0 13:41 22.06.2022
2965 Clouds 20 1016 94 10000 0 0 13:23 22.06.2022
2966 Clouds 22 1016 88 10000 0 0 11:50 22.06.2022
2967 Clouds 22 1015 83 10000 0 0 10:57 22.06.2022
2968 Clouds 22 1015 83 10000 0 0 10:19 22.06.2022
2969 Clouds 23 1014 78 10000 0 0 08:28 22.06.2022
2970 Clouds 26 1013 61 10000 3.09 200 04:50 22.06.2022
2971 Clouds 26 1015 65 10000 3.09 180 01:39 22.06.2022
2972 Clouds 25 1015 100 10000 3.09 180 00:29 22.06.2022
2973 Clouds 21 1015 94 10000 0 0 22:19 21.06.2022
2974 Clouds 21 1012 100 10000 1.54 320 19:56 21.06.2022
2975 Clouds 21 1012 100 10000 1.54 310 18:36 21.06.2022
2976 Clouds 22 1012 100 10000 1.03 290 17:39 21.06.2022
2977 Clouds 23 1013 94 10000 1.03 310 14:22 21.06.2022
2978 Clouds 24 1013 88 10000 1.54 280 11:49 21.06.2022
2979 Clouds 24 1013 88 10000 2.06 240 10:18 21.06.2022
2980 Clouds 26 1012 89 10000 2.57 200 08:48 21.06.2022
2981 Clouds 27 1011 78 10000 2.06 180 07:23 21.06.2022
2982 Clouds 28 1012 74 10000 3.6 230 01:43 21.06.2022
2983 Clouds 23 1012 88 10000 2.06 270 23:25 20.06.2022
2984 Clouds 20 1011 100 10000 2.06 310 21:55 20.06.2022
2985 Clouds 20 1011 100 10000 2.06 310 21:30 20.06.2022
2986 Clouds 20 1010 100 10000 2.06 310 19:44 20.06.2022
2987 Clouds 20 1009 100 10000 1.54 310 18:48 20.06.2022
2988 Clouds 20 1009 100 10000 1.54 310 18:20 20.06.2022
2989 Clouds 20 1009 100 10000 1.54 340 17:35 20.06.2022
2990 Clouds 21 1010 100 10000 1.54 340 15:58 20.06.2022
2991 Clouds 21 1010 100 10000 1.03 270 13:34 20.06.2022
2992 Clouds 22 1010 100 10000 1.03 320 11:25 20.06.2022
2993 Rain 22 1009 100 10000 2.57 310 09:47 20.06.2022
2994 Rain 22 1009 100 10000 1.54 280 08:45 20.06.2022
2995 Rain 22 1008 100 10000 1.54 250 06:49 20.06.2022
2996 Rain 22 1009 94 8000 4.63 320 03:20 20.06.2022
2997 Clouds 28 1009 83 10000 5.66 20 00:37 20.06.2022
2998 Clouds 26 1009 89 10000 1.03 290 23:24 19.06.2022
2999 Clouds 23 1011 89 10000 1.84 348 22:18 19.06.2022
3000 Clouds 22 1009 94 10000 0 0 21:41 19.06.2022
3001 Rain 22 1009 100 10000 0.51 0 20:46 19.06.2022
3002 Clouds 22 1010 100 10000 1.03 0 19:48 19.06.2022
3003 Clouds 22 1010 100 10000 1.03 0 19:23 19.06.2022
3004 Clouds 22 1009 100 10000 1.03 300 18:31 19.06.2022
3005 Clouds 22 1010 100 10000 1.03 0 17:34 19.06.2022
3006 Clouds 22 1010 100 10000 0 0 16:38 19.06.2022
3007 Clouds 22 1010 100 10000 2.06 330 15:44 19.06.2022
3008 Rain 22 1010 100 10000 2.06 330 15:25 19.06.2022
3009 Rain 24 1011 90 10000 2.79 338 14:21 19.06.2022
3010 Rain 23 1010 94 10000 0 0 13:43 19.06.2022
3011 Rain 23 1011 94 10000 0 0 11:52 19.06.2022
3012 Rain 23 1011 94 10000 1.03 60 10:49 19.06.2022
3013 Rain 23 1011 100 10000 2.06 330 08:54 19.06.2022
3014 Clouds 23 1011 100 10000 2.06 330 08:30 19.06.2022
3015 Rain 26 1011 89 10000 2.06 350 05:59 19.06.2022
3016 Clouds 28 1012 83 10000 5.66 70 02:59 19.06.2022
3017 Clouds 26 1013 94 10000 3.09 70 00:26 19.06.2022
3018 Clouds 28 1014 78 10000 4.63 80 23:36 18.06.2022
3019 Clouds 27 1013 83 10000 4.12 80 22:55 18.06.2022
3020 Clouds 24 1013 94 10000 3.09 70 21:52 18.06.2022
3021 Clouds 23 1013 100 10000 1.03 0 20:50 18.06.2022
3022 Clouds 24 1012 94 10000 0 0 19:48 18.06.2022
3023 Clouds 24 1012 100 10000 2.06 100 18:54 18.06.2022
3024 Clouds 25 1013 94 10000 3.09 100 17:54 18.06.2022
3025 Clouds 25 1013 94 10000 3.09 100 17:23 18.06.2022
3026 Clouds 25 1013 94 10000 0 0 15:38 18.06.2022
3027 Clouds 25 1014 94 10000 2.57 100 14:49 18.06.2022
3028 Clouds 26 1014 89 10000 2.06 100 13:53 18.06.2022
3029 Clouds 25 1015 88 10000 1.54 100 11:58 18.06.2022
3030 Clouds 25 1015 88 10000 3.09 110 10:57 18.06.2022
3031 Clouds 25 1015 88 10000 1.03 0 09:28 18.06.2022
3032 Clouds 26 1014 83 10000 2.06 120 08:33 18.06.2022
3033 Clouds 25 1014 85 10000 5.42 78 07:23 18.06.2022
3034 Clouds 28 1014 83 10000 5.14 100 03:58 18.06.2022
3035 Clouds 28 1016 83 10000 6.17 90 01:27 18.06.2022
3036 Clouds 28 1017 74 10000 5.66 90 00:50 18.06.2022
3037 Clouds 28 1017 74 10000 5.66 90 00:21 18.06.2022
3038 Clouds 27 1017 83 10000 4.12 90 23:29 17.06.2022
3039 Rain 25 1016 94 10000 2.06 100 21:33 17.06.2022
3040 Clouds 24 1015 100 10000 1.54 80 20:26 17.06.2022
3041 Clouds 24 1015 100 10000 2.57 100 18:59 17.06.2022
3042 Clouds 25 1015 94 10000 2.57 100 17:46 17.06.2022
3043 Clouds 24 1015 100 10000 0 0 16:43 17.06.2022
3044 Clouds 24 1015 100 10000 0 0 16:19 17.06.2022
3045 Clouds 24 1015 100 10000 1.03 0 15:37 17.06.2022
3046 Clouds 25 1016 94 10000 2.06 50 14:21 17.06.2022
3047 Clouds 25 1016 94 10000 2.57 90 13:48 17.06.2022
3048 Clouds 25 1016 94 10000 2.57 90 13:26 17.06.2022
3049 Clouds 25 1016 94 10000 1.03 0 11:58 17.06.2022
3050 Clouds 25 1016 94 10000 1.03 0 11:39 17.06.2022
3051 Clouds 25 1016 94 10000 1.03 0 11:21 17.06.2022
3052 Clouds 24 1015 94 10000 5.14 110 08:33 17.06.2022
3053 Clouds 26 1014 83 10000 4.12 110 07:51 17.06.2022
3054 Rain 27 1014 78 10000 4.63 110 06:32 17.06.2022
3055 Clouds 27 1015 78 10000 5.14 100 03:20 17.06.2022
3056 Clouds 25 1018 79 10000 6.75 98 00:46 17.06.2022
3057 Clouds 24 1018 85 10000 6.95 101 23:25 16.06.2022
3058 Clouds 24 1018 85 10000 6.95 101 22:31 16.06.2022
3059 Clouds 24 1017 87 10000 5.95 100 21:19 16.06.2022
3060 Clouds 24 1017 87 10000 5.95 100 20:50 16.06.2022
3061 Clouds 24 1017 86 10000 6.09 97 19:59 16.06.2022
3062 Clouds 24 1016 88 10000 6.93 99 18:44 16.06.2022
3063 Clouds 24 1016 88 10000 6.66 102 17:44 16.06.2022
3064 Clouds 24 1016 88 10000 6.46 104 17:22 16.06.2022
3065 Clouds 24 1017 88 10000 6.23 106 15:58 16.06.2022
3066 Clouds 24 1017 87 10000 5.82 104 15:21 16.06.2022
3067 Clouds 25 1017 87 10000 5.93 103 13:55 16.06.2022
3068 Rain 25 1017 88 10000 2.57 140 12:47 16.06.2022
3069 Rain 25 1017 88 10000 2.57 140 12:20 16.06.2022
3070 Rain 25 1016 94 10000 3.09 130 11:21 16.06.2022
3071 Rain 25 1016 88 10000 2.06 130 10:35 16.06.2022
3072 Rain 25 1016 94 10000 2.57 130 09:39 16.06.2022
3073 Rain 25 1015 88 10000 2.57 90 08:50 16.06.2022
3074 Rain 25 1014 94 10000 4.12 100 07:38 16.06.2022
3075 Rain 26 1014 94 10000 3.6 80 05:48 16.06.2022
3076 Rain 25 1015 94 10000 2.57 110 03:44 16.06.2022
3077 Clouds 25 1016 94 10000 4.63 110 01:52 16.06.2022
3078 Clouds 25 1016 94 10000 4.63 110 01:52 16.06.2022
3079 Clouds 25 1016 94 8000 7.2 100 01:22 16.06.2022
3080 Clouds 25 1018 87 10000 6.35 99 23:58 15.06.2022
3081 Clouds 26 1015 89 10000 4.12 110 22:53 15.06.2022
3082 Clouds 26 1016 83 10000 3.09 140 21:34 15.06.2022
3083 Clouds 26 1015 83 10000 3.09 150 20:58 15.06.2022
3084 Clouds 26 1015 83 10000 3.09 150 20:36 15.06.2022
3085 Clouds 26 1015 83 10000 2.57 150 19:52 15.06.2022
3086 Clouds 26 1015 83 10000 2.06 150 18:30 15.06.2022
3087 Clouds 24 1015 94 10000 1.54 140 17:43 15.06.2022
3088 Clouds 22 1016 100 10000 0 0 16:21 15.06.2022
3089 Clouds 22 1016 94 10000 1.54 320 14:37 15.06.2022
3090 Clouds 22 1017 100 10000 1.03 310 13:20 15.06.2022
3091 Clouds 25 1016 83 10000 0 0 12:39 15.06.2022
3092 Clouds 25 1016 83 10000 2.06 120 11:24 15.06.2022
3093 Clouds 24 1016 83 10000 1.54 140 10:21 15.06.2022
3094 Clouds 25 1015 78 10000 2.06 120 08:59 15.06.2022
3095 Clouds 27 1015 69 10000 3.6 110 07:32 15.06.2022
3096 Clouds 28 1015 65 10000 4.12 90 05:36 15.06.2022
3097 Clouds 29 1017 65 10000 5.14 100 02:40 15.06.2022
3098 Clouds 28 1017 65 10000 5.14 100 01:36 15.06.2022
3099 Clouds 26 1018 72 10000 5.43 77 00:18 15.06.2022
3100 Clouds 27 1017 83 10000 3.09 90 23:38 14.06.2022
3101 Clouds 24 1017 94 10000 1.03 0 22:45 14.06.2022
3102 Clouds 22 1016 100 10000 1.03 300 21:43 14.06.2022
3103 Clouds 23 1016 100 10000 0 0 20:58 14.06.2022
3104 Clouds 23 1016 100 10000 0 0 20:36 14.06.2022
3105 Clouds 23 1016 94 10000 0 0 19:32 14.06.2022
3106 Clouds 23 1016 100 10000 1.54 140 18:33 14.06.2022
3107 Clouds 24 1017 94 10000 0 0 16:50 14.06.2022
3108 Clouds 24 1017 94 10000 0 0 16:25 14.06.2022
3109 Clouds 24 1017 94 10000 4.63 120 15:34 14.06.2022
3110 Clouds 24 1017 94 10000 1.03 0 14:53 14.06.2022
3111 Clouds 24 1017 94 10000 1.03 130 13:53 14.06.2022
3112 Clouds 24 1018 94 10000 0 0 12:56 14.06.2022
3113 Clouds 24 1017 94 10000 1.03 120 11:54 14.06.2022
3114 Clouds 24 1017 94 10000 0 0 10:50 14.06.2022
3115 Clouds 24 1017 94 10000 0 0 10:25 14.06.2022
3116 Clouds 26 1016 83 10000 2.06 120 08:52 14.06.2022
3117 Clouds 27 1015 78 10000 3.09 140 07:58 14.06.2022
3118 Clear 26 1015 74 10000 3.51 114 06:19 14.06.2022
3119 Clouds 30 1016 58 10000 3.6 90 03:36 14.06.2022
3120 Clouds 28 1017 74 10000 3.09 80 01:36 14.06.2022
3121 Clouds 25 1017 94 10000 2.06 330 23:51 13.06.2022
3122 Clouds 23 1017 94 10000 2.06 300 22:27 13.06.2022
3123 Clouds 21 1016 100 10000 0 0 21:59 13.06.2022
3124 Clouds 21 1016 100 10000 0 0 21:24 13.06.2022
3125 Clouds 21 1015 100 10000 2.06 300 19:42 13.06.2022
3126 Clouds 21 1015 100 10000 0 0 18:45 13.06.2022
3127 Clouds 22 1016 94 10000 0 0 17:52 13.06.2022
3128 Clouds 22 1016 94 10000 0 0 17:18 13.06.2022
3129 Clouds 22 1016 100 10000 0 0 15:53 13.06.2022
3130 Clouds 22 1017 100 10000 0 0 14:47 13.06.2022
3131 Clouds 22 1017 100 10000 0 0 13:59 13.06.2022
3132 Clouds 23 1017 100 10000 1.54 300 12:59 13.06.2022
3133 Clouds 23 1017 100 10000 0.51 0 11:45 13.06.2022
3134 Clouds 25 1016 94 10000 1.03 0 10:34 13.06.2022
3135 Clouds 25 1015 94 10000 1.03 50 09:42 13.06.2022
3136 Clouds 26 1014 89 10000 1.54 80 08:27 13.06.2022
3137 Clouds 29 1014 65 10000 3.6 60 06:34 13.06.2022
3138 Clouds 28 1014 78 10000 3.6 100 04:18 13.06.2022
3139 Clouds 27 1016 94 10000 3.6 80 01:39 13.06.2022
3140 Clouds 26 1017 94 10000 1.03 0 00:59 13.06.2022
3141 Clouds 24 1016 94 10000 2.06 320 23:33 12.06.2022
3142 Clouds 22 1016 100 10000 1.03 0 22:23 12.06.2022
3143 Clouds 21 1015 100 10000 1.03 0 21:40 12.06.2022
3144 Clouds 21 1014 100 10000 1.03 0 20:40 12.06.2022
3145 Clouds 22 1014 94 10000 1.03 0 19:41 12.06.2022
3146 Clouds 21 1014 100 10000 1.03 0 18:44 12.06.2022
3147 Clouds 22 1015 94 10000 0 0 16:44 12.06.2022
3148 Clouds 22 1015 100 10000 1.03 0 15:32 12.06.2022
3149 Clouds 22 1015 100 10000 1.03 0 14:33 12.06.2022
3150 Clouds 22 1015 94 10000 1.03 0 13:57 12.06.2022
3151 Clouds 22 1015 94 10000 1.03 0 13:38 12.06.2022
3152 Clouds 23 1015 94 10000 0 0 11:48 12.06.2022
3153 Clouds 23 1015 94 10000 0 0 10:45 12.06.2022
3154 Clouds 24 1014 88 10000 0 0 09:28 12.06.2022
3155 Clouds 26 1014 83 10000 0 0 08:49 12.06.2022
3156 Clouds 27 1013 83 10000 2.57 50 07:47 12.06.2022
3157 Clouds 29 1013 65 10000 3.6 40 05:39 12.06.2022
3158 Clouds 30 1014 62 10000 3.6 30 03:38 12.06.2022
3159 Clouds 30 1014 62 10000 3.6 30 03:38 12.06.2022
3160 Clouds 29 1015 65 10000 4.12 30 01:44 12.06.2022
3161 Clouds 25 1015 78 10000 1.54 350 00:59 12.06.2022
3162 Clouds 25 1015 78 10000 1.54 350 00:28 12.06.2022
3163 Clouds 25 1016 88 10000 2.06 330 23:56 11.06.2022
3164 Clouds 22 1015 94 10000 2.06 310 22:49 11.06.2022
3165 Clouds 22 1015 94 10000 2.06 310 22:29 11.06.2022
3166 Clouds 20 1014 100 10000 1.54 310 20:55 11.06.2022
3167 Clouds 20 1014 100 10000 1.54 310 20:24 11.06.2022
3168 Clouds 21 1013 94 10000 2.06 320 19:26 11.06.2022
3169 Clouds 21 1013 100 10000 1.54 310 18:36 11.06.2022
3170 Clouds 21 1013 100 10000 1.54 320 17:52 11.06.2022
3171 Clouds 21 1013 100 10000 1.54 320 17:29 11.06.2022
3172 Clouds 22 1014 100 10000 1.03 310 16:58 11.06.2022
3173 Clouds 22 1014 100 10000 1.03 310 16:30 11.06.2022
3174 Clouds 22 1014 100 10000 1.54 300 15:45 11.06.2022
3175 Clouds 23 1015 94 10000 0 0 13:54 11.06.2022
3176 Clouds 23 1015 94 10000 0 0 13:24 11.06.2022
3177 Clouds 24 1015 94 10000 0 0 10:58 11.06.2022
3178 Clouds 24 1015 94 10000 0 0 10:20 11.06.2022
3179 Clouds 24 1014 88 10000 0 0 09:29 11.06.2022
3180 Clouds 28 1012 74 10000 2.57 40 07:46 11.06.2022
3181 Clouds 28 1012 65 10000 3.6 40 06:31 11.06.2022
3182 Clouds 29 1012 61 10000 4.12 40 05:21 11.06.2022
3183 Clouds 28 1015 74 10000 3.09 60 01:53 11.06.2022
3184 Clouds 28 1015 74 10000 3.09 60 01:33 11.06.2022
3185 Clouds 25 1015 94 10000 2.06 270 00:22 11.06.2022
3186 Clouds 21 1015 100 10000 1.54 310 22:33 10.06.2022
3187 Clouds 20 1014 100 10000 1.54 310 21:53 10.06.2022
3188 Clouds 20 1013 100 10000 2.06 330 20:43 10.06.2022
3189 Clouds 20 1013 100 10000 2.06 330 20:22 10.06.2022
3190 Clouds 20 1013 100 10000 1.54 330 19:48 10.06.2022
3191 Clouds 20 1013 100 10000 1.54 330 19:18 10.06.2022
3192 Clouds 20 1013 100 10000 2.06 330 18:19 10.06.2022
3193 Clouds 20 1013 100 10000 1.54 320 17:36 10.06.2022
3194 Clouds 21 1014 100 10000 1.54 340 16:55 10.06.2022
3195 Clouds 21 1014 100 10000 2.06 330 15:47 10.06.2022
3196 Clouds 21 1014 100 10000 2.06 310 14:57 10.06.2022
3197 Clouds 21 1015 100 10000 0 0 13:41 10.06.2022
3198 Clouds 22 1015 94 10000 0 0 12:24 10.06.2022
3199 Mist 22 1015 100 3000 0 0 11:30 10.06.2022
3200 Clouds 23 1015 94 10000 0 0 10:37 10.06.2022
3201 Clouds 23 1014 94 10000 0 0 09:40 10.06.2022
3202 Clouds 24 1013 100 10000 0 0 08:23 10.06.2022
3203 Clouds 28 1012 65 10000 3.6 50 06:51 10.06.2022
3204 Clouds 28 1012 65 10000 3.6 50 06:32 10.06.2022
3205 Clouds 29 1012 58 10000 3.09 60 05:35 10.06.2022
3206 Clouds 29 1014 61 10000 4.63 60 02:54 10.06.2022
3207 Clouds 28 1015 65 10000 4.12 50 01:37 10.06.2022
3208 Clouds 24 1016 83 10000 2.06 350 23:58 09.06.2022
3209 Clouds 24 1017 75 10000 2.01 36 22:47 09.06.2022
3210 Clouds 18 1015 100 10000 2.06 320 21:46 09.06.2022
3211 Clouds 18 1015 100 10000 2.06 320 21:28 09.06.2022
3212 Clouds 18 1014 100 10000 2.06 330 20:40 09.06.2022
3213 Clouds 19 1014 94 10000 1.54 320 19:51 09.06.2022
3214 Clouds 19 1014 94 10000 2.06 320 18:43 09.06.2022
3215 Clouds 19 1014 100 10000 2.06 330 17:56 09.06.2022
3216 Clouds 19 1014 100 10000 2.06 330 16:37 09.06.2022
3217 Clouds 20 1014 94 10000 1.03 0 15:40 09.06.2022
3218 Clouds 20 1014 100 10000 2.06 320 14:33 09.06.2022
3219 Clouds 21 1015 94 10000 2.06 330 13:44 09.06.2022
3220 Clouds 21 1015 94 10000 2.06 330 13:20 09.06.2022
3221 Clouds 21 1014 94 10000 1.03 320 11:43 09.06.2022
3222 Clouds 22 1014 94 10000 0 0 10:34 09.06.2022
3223 Clouds 24 1013 83 10000 2.57 70 09:38 09.06.2022
3224 Clouds 24 1013 83 10000 2.57 70 09:20 09.06.2022
3225 Clouds 27 1013 69 10000 2.57 70 07:29 09.06.2022
3226 Clouds 29 1013 58 10000 4.63 50 04:47 09.06.2022
3227 Clouds 27 1015 69 10000 1.03 0 00:36 09.06.2022
3228 Clouds 24 1016 83 10000 1.54 320 23:23 08.06.2022
3229 Clouds 22 1015 88 10000 2.06 330 22:44 08.06.2022
3230 Clouds 22 1015 88 10000 2.06 330 22:24 08.06.2022
3231 Clouds 20 1014 94 10000 1.03 0 21:40 08.06.2022
3232 Clouds 20 1014 94 10000 2.06 310 20:25 08.06.2022
3233 Clouds 20 1014 94 10000 2.06 310 19:46 08.06.2022
3234 Clouds 20 1013 94 10000 2.06 310 18:48 08.06.2022
3235 Clouds 20 1013 94 10000 2.06 320 17:46 08.06.2022
3236 Clouds 19 1014 94 10000 2.06 310 15:56 08.06.2022
3237 Clouds 20 1014 94 10000 0 0 14:46 08.06.2022
3238 Clouds 19 1014 100 10000 1.03 330 12:55 08.06.2022
3239 Clouds 19 1014 100 10000 1.03 330 12:55 08.06.2022
3240 Clouds 19 1014 100 10000 1.03 330 12:55 08.06.2022
3241 Clouds 19 1014 100 10000 1.03 330 12:55 08.06.2022
3242 Clouds 20 1014 94 10000 1.03 310 11:41 08.06.2022
3243 Clouds 20 1014 94 10000 1.03 310 11:19 08.06.2022
3244 Clouds 21 1013 88 10000 0 0 09:30 08.06.2022
3245 Clouds 23 1013 73 10000 2.06 110 08:55 08.06.2022
3246 Clouds 25 1013 65 10000 2.57 120 07:21 08.06.2022
3247 Clouds 26 1013 65 10000 4.12 120 04:49 08.06.2022
3248 Clouds 26 1015 69 10000 3.6 110 01:27 08.06.2022
3249 Clouds 25 1016 73 10000 0 0 23:33 07.06.2022
3250 Clouds 20 1016 100 10000 0 0 22:58 07.06.2022
3251 Clouds 20 1016 100 10000 0 0 22:37 07.06.2022
3252 Clouds 18 1015 100 10000 1.03 0 21:41 07.06.2022
3253 Clouds 18 1015 100 10000 1.03 0 21:20 07.06.2022
3254 Clouds 18 1015 94 10000 1.03 0 20:42 07.06.2022
3255 Clouds 18 1014 100 10000 1.03 0 19:58 07.06.2022
3256 Clouds 18 1014 100 10000 1.03 0 18:38 07.06.2022
3257 Clouds 19 1014 94 10000 1.03 0 17:36 07.06.2022
3258 Clouds 19 1014 94 10000 1.03 0 16:47 07.06.2022
3259 Clouds 19 1014 94 10000 1.03 0 16:28 07.06.2022
3260 Clouds 19 1015 94 10000 2.06 330 15:37 07.06.2022
3261 Clouds 19 1015 94 10000 2.06 330 15:18 07.06.2022
3262 Clouds 19 1015 100 10000 1.03 0 14:43 07.06.2022
3263 Clouds 23 1015 73 10000 0 0 13:38 07.06.2022
3264 Clouds 23 1015 73 10000 0 0 13:20 07.06.2022
3265 Clouds 24 1015 78 10000 2.57 130 11:55 07.06.2022
3266 Clouds 23 1015 83 10000 2.06 140 10:48 07.06.2022
3267 Clouds 24 1014 78 10000 2.06 140 08:58 07.06.2022
3268 Clouds 24 1014 78 10000 2.06 140 08:22 07.06.2022
3269 Clouds 26 1013 61 10000 4.12 120 06:42 07.06.2022
3270 Clouds 27 1014 61 10000 3.09 150 04:47 07.06.2022
3271 Clouds 25 1017 67 10000 4.26 128 01:27 07.06.2022
3272 Clouds 25 1017 68 10000 4.39 129 23:58 06.06.2022
3273 Clouds 25 1017 66 10000 4.83 127 22:56 06.06.2022
3274 Clouds 25 1017 66 10000 4.83 127 22:30 06.06.2022
3275 Clouds 23 1016 73 10000 4.16 131 21:18 06.06.2022
3276 Clouds 23 1015 77 10000 3.33 122 19:29 06.06.2022
3277 Clouds 23 1015 77 10000 3.33 122 18:53 06.06.2022
3278 Clouds 23 1015 77 10000 3.5 126 18:26 06.06.2022
3279 Clouds 23 1015 75 10000 3.71 124 17:26 06.06.2022
3280 Clouds 24 1015 70 10000 3.75 125 16:18 06.06.2022
3281 Clouds 24 1016 69 10000 3.85 125 15:28 06.06.2022
3282 Clouds 24 1016 70 10000 3.8 124 14:32 06.06.2022
3283 Clouds 24 1016 73 10000 3.22 123 13:25 06.06.2022
3284 Clouds 23 1015 88 10000 0 0 12:36 06.06.2022
3285 Clouds 24 1015 88 10000 1.03 0 11:53 06.06.2022
3286 Clouds 24 1015 83 10000 1.03 0 10:40 06.06.2022
3287 Clouds 24 1014 88 10000 1.54 170 09:33 06.06.2022
3288 Clouds 25 1014 83 10000 4.12 170 08:32 06.06.2022
3289 Clouds 26 1014 73 10000 2.57 170 07:28 06.06.2022
3290 Clouds 28 1013 69 10000 3.6 150 05:18 06.06.2022
3291 Clouds 27 1014 74 10000 3.09 150 02:42 06.06.2022
3292 Clouds 28 1015 69 10000 2.57 150 01:18 06.06.2022
3293 Clouds 27 1015 74 10000 3.6 120 00:37 06.06.2022
3294 Clouds 27 1015 78 10000 1.03 70 23:28 05.06.2022
3295 Clouds 23 1015 94 10000 0 0 22:45 05.06.2022
3296 Clouds 21 1014 94 10000 2.06 320 20:46 05.06.2022
3297 Clouds 21 1014 94 10000 1.54 310 19:38 05.06.2022
3298 Clouds 21 1014 94 10000 1.54 310 18:26 05.06.2022
3299 Clouds 21 1014 94 10000 1.54 300 17:50 05.06.2022
3300 Clouds 21 1014 94 10000 1.54 300 17:23 05.06.2022
3301 Clouds 20 1014 100 10000 2.06 310 16:49 05.06.2022
3302 Clouds 21 1014 100 10000 1.54 320 15:50 05.06.2022
3303 Clouds 21 1015 100 10000 1.03 330 14:24 05.06.2022
3304 Clouds 22 1015 94 10000 0 0 12:43 05.06.2022
3305 Clouds 23 1015 94 10000 0 0 11:43 05.06.2022
3306 Clouds 23 1015 94 10000 0 0 10:25 05.06.2022
3307 Clouds 24 1015 83 10000 0 0 09:58 05.06.2022
3308 Clouds 25 1014 78 10000 1.03 160 08:26 05.06.2022
3309 Clouds 27 1013 69 10000 3.09 130 06:54 05.06.2022
3310 Clouds 26 1014 71 10000 4.12 103 05:20 05.06.2022
3311 Clouds 28 1014 61 10000 2.57 120 03:38 05.06.2022
3312 Clouds 28 1016 61 10000 3.6 100 01:32 05.06.2022
3313 Clouds 24 1016 88 10000 2.57 300 23:58 04.06.2022
3314 Clouds 20 1015 94 10000 2.06 330 21:49 04.06.2022
3315 Clouds 23 1016 81 10000 2.6 101 20:21 04.06.2022
3316 Clouds 20 1015 100 10000 2.06 320 17:59 04.06.2022
3317 Clouds 23 1015 79 10000 2.67 116 16:42 04.06.2022
3318 Clouds 23 1016 79 10000 2.72 116 16:18 04.06.2022
3319 Clouds 21 1016 94 10000 1.03 330 14:37 04.06.2022
3320 Clouds 22 1016 94 10000 1.03 330 11:51 04.06.2022
3321 Clouds 22 1016 94 10000 1.03 300 10:57 04.06.2022
3322 Clear 24 1017 79 10000 3.09 137 10:22 04.06.2022
3323 Clouds 23 1015 94 10000 1.54 210 09:41 04.06.2022
3324 Clouds 26 1014 73 10000 1.03 190 08:40 04.06.2022
3325 Clouds 27 1014 69 10000 2.06 160 07:38 04.06.2022
3326 Clouds 29 1013 65 10000 3.6 150 04:33 04.06.2022
3327 Clouds 29 1013 65 10000 3.6 150 04:33 04.06.2022
3328 Clouds 29 1013 65 10000 3.6 150 04:33 04.06.2022
3329 Clouds 29 1013 65 10000 3.6 150 04:33 04.06.2022
3330 Clouds 27 1015 78 10000 3.09 160 00:48 04.06.2022
3331 Clouds 27 1015 78 10000 3.09 150 23:31 03.06.2022
3332 Clouds 26 1015 83 10000 2.57 150 22:30 03.06.2022
3333 Clouds 24 1013 94 10000 0 0 20:52 03.06.2022
3334 Clouds 24 1013 94 10000 0 0 20:27 03.06.2022
3335 Clouds 23 1013 100 10000 0 0 17:39 03.06.2022
3336 Clouds 24 1014 94 10000 0 0 16:37 03.06.2022
3337 Clouds 24 1014 94 10000 1.54 260 14:53 03.06.2022
3338 Drizzle 24 1014 94 10000 0.51 0 12:52 03.06.2022
3339 Clouds 25 1013 94 10000 1.03 0 10:36 03.06.2022
3340 Clouds 25 1013 88 10000 2.06 120 09:37 03.06.2022
3341 Clouds 27 1012 78 10000 2.06 130 07:54 03.06.2022
3342 Clouds 27 1012 78 10000 2.06 130 07:26 03.06.2022
3343 Clouds 28 1012 74 10000 3.09 150 06:31 03.06.2022
3344 Clouds 29 1012 70 10000 2.57 160 04:40 03.06.2022
3345 Clouds 28 1014 69 10000 0 0 00:22 03.06.2022
3346 Clouds 23 1014 94 10000 2.06 320 22:35 02.06.2022
3347 Fog 21 1014 100 10000 2.06 320 21:34 02.06.2022
3348 Clouds 22 1013 94 10000 2.06 310 20:22 02.06.2022
3349 Clouds 22 1013 94 10000 2.06 320 19:42 02.06.2022
3350 Clouds 22 1013 94 10000 2.06 320 19:19 02.06.2022
3351 Clouds 23 1013 94 10000 1.03 0 16:46 02.06.2022
3352 Clouds 23 1013 94 10000 1.03 0 16:20 02.06.2022
3353 Clouds 24 1014 94 10000 0 0 13:47 02.06.2022
3354 Clouds 24 1014 94 10000 0 0 13:26 02.06.2022
3355 Clouds 24 1014 94 10000 0 0 11:18 02.06.2022
3356 Clouds 24 1013 94 10000 0 0 10:19 02.06.2022
3357 Clouds 25 1013 94 10000 1.54 100 09:27 02.06.2022
3358 Clouds 25 1013 94 10000 2.06 150 08:25 02.06.2022
3359 Clouds 27 1012 78 10000 2.57 140 06:50 02.06.2022
3360 Clouds 29 1013 74 10000 2.57 130 03:54 02.06.2022
3361 Clouds 29 1014 74 10000 2.57 160 02:22 02.06.2022
3362 Clouds 26 1015 83 10000 1.54 280 23:36 01.06.2022
3363 Clouds 23 1014 100 10000 1.54 310 22:18 01.06.2022
3364 Clouds 22 1014 100 10000 1.54 330 21:26 01.06.2022
3365 Clouds 22 1013 100 10000 1.03 320 20:39 01.06.2022
3366 Clouds 22 1013 100 10000 1.54 320 19:52 01.06.2022
3367 Clouds 21 1013 100 10000 1.54 310 18:52 01.06.2022
3368 Clouds 22 1013 94 10000 1.54 310 17:40 01.06.2022
3369 Clouds 22 1014 100 10000 1.03 320 16:22 01.06.2022
3370 Clouds 22 1014 100 10000 0 0 14:51 01.06.2022
3371 Clouds 22 1014 94 10000 0 0 13:44 01.06.2022
3372 Clouds 22 1014 100 10000 0 0 11:41 01.06.2022
3373 Clouds 24 1013 94 10000 0 0 09:34 01.06.2022
3374 Clouds 26 1013 78 10000 1.54 120 08:28 01.06.2022
3375 Clouds 27 1012 78 10000 3.09 120 07:21 01.06.2022
3376 Clouds 28 1013 74 10000 3.6 110 04:58 01.06.2022
3377 Clouds 27 1015 83 10000 1.54 130 23:56 31.05.2022
3378 Clouds 24 1015 100 10000 0 0 22:43 31.05.2022
3379 Clouds 24 1015 100 10000 0 0 22:25 31.05.2022
3380 Clouds 22 1014 100 10000 0 0 21:44 31.05.2022
3381 Clouds 23 1014 100 10000 1.03 320 20:44 31.05.2022
3382 Clouds 23 1014 100 10000 1.03 320 20:44 31.05.2022
3383 Clouds 23 1013 100 10000 1.03 340 19:46 31.05.2022
3384 Clouds 23 1013 100 10000 1.03 330 18:33 31.05.2022
3385 Clouds 23 1014 100 10000 0 0 17:46 31.05.2022
3386 Clouds 23 1014 100 10000 1.03 300 16:21 31.05.2022
3387 Clouds 23 1014 100 10000 0 0 15:37 31.05.2022
3388 Clouds 24 1015 100 10000 0 0 13:22 31.05.2022
3389 Clouds 24 1015 100 10000 0 0 12:19 31.05.2022
3390 Clouds 25 1014 94 10000 0 0 10:52 31.05.2022
3391 Clouds 27 1013 83 10000 1.54 120 08:35 31.05.2022
3392 Clouds 29 1012 79 10000 2.57 110 06:38 31.05.2022
3393 Clouds 30 1012 70 10000 4.12 100 04:34 31.05.2022
3394 Clouds 27 1015 89 10000 0 0 23:46 30.05.2022
3395 Clouds 27 1015 89 10000 0 0 23:24 30.05.2022
3396 Clouds 24 1014 100 10000 1.03 0 22:42 30.05.2022
3397 Clouds 23 1014 100 10000 1.03 0 21:40 30.05.2022
3398 Clouds 23 1013 100 10000 0 0 20:52 30.05.2022
3399 Fog 23 1013 100 500 1.54 320 19:44 30.05.2022
3400 Clear 24 1013 88 10000 1.4 48 18:18 30.05.2022
3401 Clouds 23 1013 100 10000 1.54 330 17:23 30.05.2022
3402 Clear 24 1014 88 10000 1.42 59 16:22 30.05.2022
3403 Clouds 25 1014 94 10000 1.03 0 13:32 30.05.2022
3404 Clouds 25 1014 100 10000 0 0 11:40 30.05.2022
3405 Clouds 26 1013 94 10000 0 0 09:52 30.05.2022
3406 Clouds 27 1012 89 10000 1.54 120 08:52 30.05.2022
3407 Clouds 29 1011 70 10000 4.12 60 06:26 30.05.2022
3408 Clouds 30 1012 70 10000 2.57 100 04:52 30.05.2022
3409 Clouds 28 1015 78 10000 1.54 200 00:43 30.05.2022
3410 Clouds 23 1014 94 10000 0 0 22:41 29.05.2022
3411 Clouds 22 1013 100 10000 0 0 21:46 29.05.2022
3412 Clouds 22 1012 100 10000 1.03 0 20:23 29.05.2022
3413 Clouds 23 1012 100 10000 0 0 19:29 29.05.2022
3414 Clouds 23 1011 94 10000 2.06 310 17:57 29.05.2022
3415 Clouds 23 1012 100 10000 0 0 16:22 29.05.2022
3416 Clouds 23 1013 100 10000 0 0 15:43 29.05.2022
3417 Clouds 24 1013 94 10000 0 0 14:54 29.05.2022
3418 Clouds 24 1013 100 10000 1.03 330 12:57 29.05.2022
3419 Clouds 25 1013 88 10000 2.04 359 11:20 29.05.2022
3420 Clouds 25 1012 94 10000 2.57 320 10:29 29.05.2022
3421 Clouds 27 1011 89 10000 2.57 70 07:59 29.05.2022
3422 Clouds 28 1010 78 10000 2.57 60 04:58 29.05.2022
3423 Clouds 28 1010 78 10000 2.57 60 04:36 29.05.2022
3424 Clouds 27 1012 89 10000 3.09 50 01:28 29.05.2022
3425 Rain 24 1013 100 10000 0 0 23:48 28.05.2022
3426 Clouds 24 1013 100 10000 0 0 23:19 28.05.2022
3427 Clouds 24 1013 94 10000 1.03 0 21:53 28.05.2022
3428 Drizzle 24 1012 94 10000 1.03 0 20:53 28.05.2022
3429 Clouds 24 1012 94 10000 1.03 0 19:20 28.05.2022
3430 Clouds 23 1012 100 10000 2.06 290 18:24 28.05.2022
3431 Clouds 23 1012 100 10000 2.06 300 17:33 28.05.2022
3432 Clouds 23 1013 100 10000 1.03 0 15:50 28.05.2022
3433 Clouds 23 1013 100 10000 1.03 0 15:20 28.05.2022
3434 Rain 24 1013 100 5000 0 0 13:36 28.05.2022
3435 Rain 24 1013 100 5000 0 0 12:42 28.05.2022
3436 Rain 24 1013 94 10000 0 0 11:37 28.05.2022
3437 Rain 25 1012 88 10000 0 0 10:38 28.05.2022
3438 Clouds 25 1012 88 10000 0 0 09:54 28.05.2022
3439 Rain 27 1011 83 10000 2.57 60 08:24 28.05.2022
3440 Clouds 27 1010 78 10000 4.63 60 06:34 28.05.2022
3441 Clouds 28 1011 83 10000 5.14 80 04:46 28.05.2022
3442 Clouds 29 1012 79 10000 5.14 80 02:18 28.05.2022
3443 Rain 27 1013 89 10000 1.03 0 23:55 27.05.2022
3444 Clouds 25 1013 100 10000 1.03 280 22:38 27.05.2022
3445 Clouds 24 1012 100 10000 1.03 330 21:22 27.05.2022
3446 Rain 24 1011 100 10000 1.54 300 20:43 27.05.2022
3447 Rain 24 1011 100 10000 1.54 300 20:19 27.05.2022
3448 Clouds 24 1010 100 10000 0 0 19:37 27.05.2022
3449 Clouds 24 1010 100 10000 0 0 19:19 27.05.2022
3450 Clouds 24 1010 100 10000 0 0 19:19 27.05.2022
3451 Rain 24 1011 100 10000 1.03 310 16:53 27.05.2022
3452 Clouds 24 1012 100 10000 0 0 15:55 27.05.2022
3453 Clouds 24 1012 100 10000 0 0 14:47 27.05.2022
3454 Clouds 24 1013 94 10000 1.03 0 13:40 27.05.2022
3455 Clouds 25 1013 94 10000 1.03 0 11:55 27.05.2022
3456 Clouds 25 1013 94 10000 1.03 0 11:30 27.05.2022
3457 Clouds 26 1012 89 10000 1.03 0 10:38 27.05.2022
3458 Clouds 26 1011 89 10000 1.03 0 09:58 27.05.2022
3459 Clouds 26 1011 89 10000 1.03 0 09:28 27.05.2022
3460 Clouds 29 1010 79 10000 3.6 70 06:58 27.05.2022
3461 Clouds 28 1011 78 10000 1.54 50 02:59 27.05.2022
3462 Clouds 28 1011 78 10000 2.06 10 01:19 27.05.2022
3463 Clouds 24 1012 88 10000 3.09 330 23:23 26.05.2022
3464 Clouds 24 1011 100 10000 0 0 21:53 26.05.2022
3465 Clouds 24 1011 100 10000 0 0 21:27 26.05.2022
3466 Clouds 23 1010 100 10000 1.03 310 19:34 26.05.2022
3467 Clouds 24 1010 94 10000 1.03 320 18:31 26.05.2022
3468 Clouds 24 1010 100 10000 1.03 310 17:34 26.05.2022
3469 Clouds 24 1011 89 10000 1.7 17 16:18 26.05.2022
3470 Clouds 24 1011 90 10000 1.57 22 15:19 26.05.2022
3471 Rain 25 1011 94 10000 0 0 13:56 26.05.2022
3472 Clouds 25 1011 94 10000 0 0 11:49 26.05.2022
3473 Clouds 26 1011 94 10000 0 0 10:39 26.05.2022
3474 Clouds 26 1010 94 10000 1.03 360 09:38 26.05.2022
3475 Clouds 27 1010 83 10000 2.57 50 08:38 26.05.2022
3476 Rain 27 1009 83 10000 3.6 40 05:26 26.05.2022
3477 Clouds 26 1011 85 10000 5.19 49 02:19 26.05.2022
3478 Clouds 25 1012 94 10000 2.57 350 23:50 25.05.2022
3479 Clouds 23 1012 100 10000 1.03 0 22:51 25.05.2022
3480 Clouds 23 1012 94 10000 1.54 360 21:41 25.05.2022
3481 Clouds 23 1011 94 10000 1.03 0 20:47 25.05.2022
3482 Clouds 24 1012 90 10000 3.07 45 19:32 25.05.2022
3483 Clouds 23 1011 94 10000 2.06 200 18:36 25.05.2022
3484 Clouds 23 1012 94 10000 2.57 320 16:53 25.05.2022
3485 Clouds 23 1012 94 10000 2.57 320 16:25 25.05.2022
3486 Clouds 23 1012 100 10000 1.54 310 15:36 25.05.2022
3487 Clouds 23 1013 100 10000 4.12 350 14:42 25.05.2022
3488 Clouds 23 1013 100 10000 4.12 350 14:24 25.05.2022
3489 Clouds 24 1014 87 10000 2.78 29 13:21 25.05.2022
3490 Rain 25 1014 86 10000 2.7 50 11:32 25.05.2022
3491 Clouds 26 1013 94 10000 0 0 10:23 25.05.2022
3492 Rain 25 1014 86 10000 2.52 43 08:53 25.05.2022
3493 Clouds 26 1012 85 10000 3.68 40 07:23 25.05.2022
3494 Clouds 29 1011 74 10000 5.14 80 05:27 25.05.2022
3495 Clouds 28 1014 83 10000 4.63 80 00:38 25.05.2022
3496 Clouds 25 1014 94 10000 0.51 0 23:47 24.05.2022
3497 Clouds 24 1014 94 10000 1.03 0 22:53 24.05.2022
3498 Clouds 22 1012 100 10000 1.03 0 21:46 24.05.2022
3499 Clouds 22 1012 100 10000 1.03 0 21:22 24.05.2022
3500 Clouds 22 1013 100 10000 1.54 330 20:44 24.05.2022
3501 Clouds 22 1012 100 10000 0 0 18:59 24.05.2022
3502 Clouds 23 1012 100 10000 0 0 17:19 24.05.2022
3503 Clouds 23 1013 94 10000 0 0 16:29 24.05.2022
3504 Clouds 23 1013 94 10000 0 0 15:27 24.05.2022
3505 Clouds 23 1014 100 10000 0 0 14:36 24.05.2022
3506 Clouds 23 1015 100 10000 1.03 310 13:34 24.05.2022
3507 Clouds 24 1015 94 10000 1.03 0 11:53 24.05.2022
3508 Clouds 25 1014 88 10000 1.03 10 09:49 24.05.2022
3509 Clouds 26 1013 89 10000 1.03 40 08:51 24.05.2022
3510 Clouds 26 1013 87 10000 4.28 37 07:30 24.05.2022
3511 Clouds 27 1012 69 10000 1.54 20 06:27 24.05.2022
3512 Clouds 29 1014 74 10000 6.69 60 02:58 24.05.2022
3513 Rain 29 1015 74 10000 4.63 80 01:44 24.05.2022
3514 Clouds 27 1016 83 10000 0 0 23:59 23.05.2022
3515 Clouds 25 1016 94 10000 1.03 0 22:22 23.05.2022
3516 Clouds 24 1015 100 10000 1.03 0 21:42 23.05.2022
3517 Clouds 24 1014 100 10000 1.03 0 20:45 23.05.2022
3518 Clouds 24 1014 94 10000 1.03 0 19:44 23.05.2022
3519 Clouds 24 1014 94 10000 1.03 0 19:18 23.05.2022
3520 Clouds 24 1014 100 10000 1.03 0 18:37 23.05.2022
3521 Clouds 24 1014 94 10000 1.03 0 17:55 23.05.2022
3522 Clouds 25 1014 94 10000 1.54 350 15:54 23.05.2022
3523 Clouds 25 1014 94 10000 0 0 13:44 23.05.2022
3524 Clouds 26 1014 94 10000 0 0 11:40 23.05.2022
3525 Clouds 26 1014 89 10000 1.54 40 10:44 23.05.2022
3526 Clouds 26 1013 94 10000 2.06 50 09:45 23.05.2022
3527 Clouds 28 1013 83 10000 2.57 60 08:44 23.05.2022
3528 Clouds 29 1011 74 10000 4.63 60 06:48 23.05.2022
3529 Clouds 29 1011 74 10000 4.63 60 06:24 23.05.2022
3530 Clouds 31 1013 70 10000 5.14 40 02:36 23.05.2022
3531 Clouds 30 1014 74 10000 4.63 30 01:50 23.05.2022
3532 Clouds 30 1014 74 10000 4.63 30 01:23 23.05.2022
3533 Clouds 25 1014 94 10000 2.06 310 22:48 22.05.2022
3534 Clouds 25 1014 94 10000 2.06 310 22:21 22.05.2022
3535 Clouds 23 1013 100 10000 0 0 21:50 22.05.2022
3536 Clouds 23 1012 100 10000 1.03 330 20:42 22.05.2022
3537 Clouds 23 1012 100 10000 1.03 330 20:20 22.05.2022
3538 Clouds 23 1011 100 10000 1.54 320 18:58 22.05.2022
3539 Clouds 23 1011 100 10000 1.54 320 18:31 22.05.2022
3540 Clouds 24 1011 100 10000 2.06 330 17:55 22.05.2022
3541 Clouds 24 1011 100 10000 1.54 320 16:51 22.05.2022
3542 Clouds 25 1012 100 10000 1.03 320 15:24 22.05.2022
3543 Clouds 25 1012 100 10000 2.57 320 14:36 22.05.2022
3544 Clouds 25 1013 94 10000 0 0 12:54 22.05.2022
3545 Clouds 25 1013 94 10000 0 0 12:24 22.05.2022
3546 Clouds 25 1013 88 10000 1.03 0 10:38 22.05.2022
3547 Clouds 26 1012 89 10000 1.03 0 09:29 22.05.2022
3548 Clouds 27 1011 78 10000 3.09 60 07:44 22.05.2022
3549 Clouds 28 1011 83 10000 4.63 70 06:41 22.05.2022
3550 Clouds 30 1011 70 10000 3.6 60 03:53 22.05.2022
3551 Clouds 29 1013 74 10000 3.6 60 00:49 22.05.2022
3552 Clouds 26 1013 94 10000 1.03 350 23:56 21.05.2022
3553 Clouds 26 1013 94 10000 1.03 350 23:29 21.05.2022
3554 Clouds 23 1013 100 10000 0 0 21:59 21.05.2022
3555 Clouds 23 1013 100 10000 0 0 21:37 21.05.2022
3556 Clouds 23 1012 100 10000 0 0 20:41 21.05.2022
3557 Clouds 24 1012 100 10000 1.03 0 19:53 21.05.2022
3558 Clouds 24 1012 100 10000 1.03 0 18:54 21.05.2022
3559 Clouds 24 1012 100 10000 1.54 320 16:57 21.05.2022
3560 Clouds 25 1013 94 10000 0.51 0 14:49 21.05.2022
3561 Clouds 24 1013 100 10000 0.51 0 13:55 21.05.2022
3562 Clouds 24 1015 91 7924 2.92 115 13:25 21.05.2022
3563 Clouds 25 1013 94 10000 0 0 12:39 21.05.2022
3564 Clouds 25 1013 94 10000 0 0 11:25 21.05.2022
3565 Clouds 25 1013 94 10000 0 0 10:21 21.05.2022
3566 Clouds 27 1012 83 10000 3.74 81 08:59 21.05.2022
3567 Clouds 27 1012 83 10000 3.74 81 08:38 21.05.2022
3568 Clouds 25 1012 89 6977 3.73 70 06:20 21.05.2022
3569 Clouds 28 1014 78 10000 4.63 80 01:42 21.05.2022
3570 Clouds 26 1015 94 10000 2.06 60 23:35 20.05.2022
3571 Clouds 24 1014 94 10000 1.03 300 22:30 20.05.2022
3572 Clouds 23 1014 100 10000 0 0 21:56 20.05.2022
3573 Clouds 23 1014 100 10000 0 0 21:19 20.05.2022
3574 Clouds 23 1013 100 10000 1.03 300 20:45 20.05.2022
3575 Clouds 23 1013 100 10000 1.54 330 19:45 20.05.2022
3576 Clouds 23 1013 100 10000 2.06 300 18:49 20.05.2022
3577 Clouds 23 1013 100 10000 1.03 300 17:53 20.05.2022
3578 Clouds 23 1014 100 10000 2.06 320 16:23 20.05.2022
3579 Clouds 24 1014 94 10000 2.06 310 15:53 20.05.2022
3580 Clouds 24 1015 94 10000 1.54 330 14:32 20.05.2022
3581 Clouds 24 1015 100 10000 0 0 13:59 20.05.2022
3582 Clouds 23 1016 100 10000 0.51 0 11:51 20.05.2022
3583 Rain 23 1015 94 10000 1.54 270 10:34 20.05.2022
3584 Clouds 24 1014 100 10000 2.06 320 08:59 20.05.2022
3585 Clouds 24 1014 94 10000 5.14 80 07:42 20.05.2022
3586 Clouds 26 1013 89 10000 2.06 80 06:39 20.05.2022
3587 Rain 27 1013 89 10000 3.6 90 05:39 20.05.2022
3588 Clouds 27 1015 89 10000 7.2 70 01:18 20.05.2022
3589 Clouds 27 1015 89 10000 6.17 90 23:28 19.05.2022
3590 Rain 25 1015 100 10000 2.57 90 22:33 19.05.2022
3591 Rain 24 1015 100 10000 0 0 21:49 19.05.2022
3592 Rain 24 1015 100 10000 0 0 21:49 19.05.2022
3593 Clouds 24 1015 100 10000 0 0 21:23 19.05.2022
3594 Clouds 24 1014 94 10000 3.09 80 20:40 19.05.2022
3595 Clouds 25 1013 94 10000 1.54 110 19:54 19.05.2022
3596 Clouds 25 1014 94 10000 0 0 18:58 19.05.2022
3597 Clouds 25 1014 94 10000 1.54 80 17:35 19.05.2022
3598 Clouds 25 1015 88 10000 0 0 15:33 19.05.2022
3599 Clouds 25 1015 94 10000 1.54 50 14:30 19.05.2022
3600 Rain 24 1016 94 10000 3.09 50 13:53 19.05.2022
3601 Clouds 23 1016 100 10000 1.03 300 11:46 19.05.2022
3602 Clouds 23 1014 94 10000 3.09 110 09:46 19.05.2022
3603 Clouds 24 1015 88 10000 5.66 60 08:27 19.05.2022
3604 Clouds 28 1014 78 10000 7.2 100 06:39 19.05.2022
3605 Clouds 28 1015 78 10000 7.2 100 02:57 19.05.2022
3606 Clouds 28 1016 74 10000 6.17 100 00:47 19.05.2022
3607 Clouds 27 1016 89 10000 5.14 110 22:53 18.05.2022
3608 Clouds 27 1016 89 10000 5.14 110 22:35 18.05.2022
3609 Clouds 26 1015 94 10000 5.66 110 21:31 18.05.2022
3610 Clouds 25 1015 94 10000 3.09 110 20:54 18.05.2022
3611 Rain 25 1015 94 10000 3.09 110 20:19 18.05.2022
3612 Clouds 24 1015 100 10000 1.03 0 18:43 18.05.2022
3613 Clouds 24 1015 100 10000 3.09 120 17:41 18.05.2022
3614 Clouds 24 1015 100 10000 3.09 120 17:23 18.05.2022
3615 Clouds 25 1015 94 10000 6.17 110 16:35 18.05.2022
3616 Clouds 25 1015 94 10000 3.09 90 15:42 18.05.2022
3617 Clouds 25 1016 94 10000 1.03 0 14:54 18.05.2022
3618 Clouds 25 1015 88 10000 1.03 0 13:47 18.05.2022
3619 Clouds 26 1016 83 10000 1.03 0 12:51 18.05.2022
3620 Clouds 25 1016 83 10000 0 0 11:37 18.05.2022
3621 Clouds 25 1016 83 10000 0 0 11:19 18.05.2022
3622 Clouds 25 1015 78 10000 2.57 110 09:56 18.05.2022
3623 Clouds 26 1014 73 10000 5.66 100 07:54 18.05.2022
3624 Clouds 27 1014 69 10000 6.69 100 06:48 18.05.2022
3625 Clouds 29 1016 70 10000 7.72 100 01:53 18.05.2022
3626 Clouds 28 1017 78 10000 6.69 100 00:23 18.05.2022
3627 Clouds 24 1017 84 10000 5.93 95 22:18 17.05.2022
3628 Clouds 24 1017 85 10000 5.49 97 21:20 17.05.2022
3629 Clouds 23 1016 86 10000 5.11 97 20:22 17.05.2022
3630 Clouds 22 1015 94 10000 1.54 290 19:28 17.05.2022
3631 Clouds 22 1015 94 10000 1.54 310 17:52 17.05.2022
3632 Clouds 23 1016 88 10000 0.51 0 16:59 17.05.2022
3633 Clouds 23 1016 88 10000 0.51 0 16:30 17.05.2022
3634 Clouds 24 1016 83 10000 2.06 110 15:32 17.05.2022
3635 Clouds 25 1016 78 10000 3.09 90 14:30 17.05.2022
3636 Clouds 25 1017 83 10000 3.09 100 13:37 17.05.2022
3637 Clouds 25 1017 78 10000 3.09 120 11:58 17.05.2022
3638 Clouds 25 1016 78 10000 3.09 110 09:38 17.05.2022
3639 Clouds 25 1015 73 10000 3.6 110 08:36 17.05.2022
3640 Clouds 27 1014 65 10000 5.66 120 06:50 17.05.2022
3641 Clouds 28 1015 83 10000 6.69 100 03:45 17.05.2022
3642 Clouds 28 1016 69 10000 6.69 100 00:45 17.05.2022
3643 Clouds 24 1016 94 10000 1.54 140 22:44 16.05.2022
3644 Clouds 22 1016 94 10000 1.54 300 21:45 16.05.2022
3645 Clouds 22 1015 94 10000 1.03 350 20:47 16.05.2022
3646 Clouds 21 1015 94 10000 1.03 310 19:46 16.05.2022
3647 Clouds 23 1015 84 10000 4.97 99 18:20 16.05.2022
3648 Clouds 21 1015 100 10000 1.03 290 15:53 16.05.2022
3649 Clouds 22 1016 94 10000 1.54 270 14:26 16.05.2022
3650 Clouds 24 1016 83 10000 1.54 110 13:23 16.05.2022
3651 Clouds 24 1016 83 10000 2.57 120 11:25 16.05.2022
3652 Clouds 25 1015 78 10000 4.12 110 09:37 16.05.2022
3653 Clouds 26 1014 73 10000 5.14 130 06:56 16.05.2022
3654 Clouds 27 1014 65 10000 5.66 120 03:58 16.05.2022
3655 Clouds 23 1015 88 10000 2.06 50 23:38 15.05.2022
3656 Clouds 22 1015 94 10000 2.06 200 22:32 15.05.2022
3657 Clouds 23 1014 83 10000 2.57 140 21:47 15.05.2022
3658 Clouds 20 1013 100 10000 1.54 330 20:57 15.05.2022
3659 Clouds 20 1013 100 10000 1.03 310 19:52 15.05.2022
3660 Clouds 20 1013 100 10000 1.54 320 17:52 15.05.2022
3661 Clouds 20 1013 100 10000 2.57 320 16:29 15.05.2022
3662 Clouds 21 1014 94 10000 1.54 310 13:58 15.05.2022
3663 Clouds 21 1014 94 10000 1.54 320 12:50 15.05.2022
3664 Clouds 21 1014 94 10000 1.54 320 11:39 15.05.2022
3665 Clouds 23 1013 83 10000 1.54 140 10:27 15.05.2022
3666 Clouds 24 1012 73 10000 2.06 120 08:45 15.05.2022
3667 Clouds 27 1012 61 10000 5.66 110 06:58 15.05.2022
3668 Clouds 27 1012 57 10000 4.63 110 05:47 15.05.2022
3669 Clouds 25 1014 73 10000 1.54 180 00:49 15.05.2022
3670 Clouds 22 1014 88 10000 1.54 20 23:39 14.05.2022
3671 Clouds 20 1014 94 10000 0 0 22:47 14.05.2022
3672 Clouds 18 1013 100 10000 2.06 280 21:29 14.05.2022
3673 Clouds 18 1012 94 10000 0 0 20:51 14.05.2022
3674 Clouds 19 1012 94 10000 0 0 19:38 14.05.2022
3675 Clouds 19 1012 94 10000 0 0 19:19 14.05.2022
3676 Clouds 19 1012 94 10000 2.06 320 18:41 14.05.2022
3677 Clouds 19 1012 94 10000 0 0 16:38 14.05.2022
3678 Clouds 19 1013 94 10000 0 0 15:23 14.05.2022
3679 Clouds 19 1013 94 10000 2.06 320 14:33 14.05.2022
3680 Clouds 19 1014 94 10000 2.06 320 12:23 14.05.2022
3681 Clouds 23 1013 68 10000 1.54 150 10:54 14.05.2022
3682 Clouds 23 1014 67 10000 4.05 135 10:20 14.05.2022
3683 Clouds 23 1012 73 10000 1.54 160 09:53 14.05.2022
3684 Clouds 24 1012 69 10000 2.06 140 08:46 14.05.2022
3685 Clouds 27 1012 61 10000 4.12 160 05:47 14.05.2022
3686 Clouds 27 1013 54 10000 4.12 130 02:32 14.05.2022
3687 Clouds 23 1014 78 10000 2.06 140 23:36 13.05.2022
3688 Clouds 19 1015 94 10000 2.06 300 22:57 13.05.2022
3689 Clouds 19 1015 94 10000 2.06 300 22:23 13.05.2022
3690 Clouds 18 1014 94 10000 2.06 320 21:38 13.05.2022
3691 Clouds 18 1014 94 10000 1.03 0 20:44 13.05.2022
3692 Clouds 18 1014 94 10000 1.03 0 20:24 13.05.2022
3693 Clouds 18 1014 100 10000 2.06 320 19:25 13.05.2022
3694 Clouds 19 1014 94 10000 1.03 0 17:50 13.05.2022
3695 Clouds 19 1014 94 10000 1.03 0 17:50 13.05.2022
3696 Clouds 19 1014 94 10000 1.03 0 17:27 13.05.2022
3697 Clouds 19 1014 94 10000 1.54 320 16:18 13.05.2022
3698 Clouds 20 1015 94 10000 1.03 0 14:54 13.05.2022
3699 Clouds 20 1015 88 10000 0 0 13:27 13.05.2022
3700 Clouds 22 1015 78 10000 0 0 12:25 13.05.2022
3701 Clouds 23 1014 73 10000 0 0 10:42 13.05.2022
3702 Clouds 22 1014 78 10000 0 0 09:31 13.05.2022
3703 Clouds 23 1013 68 10000 2.06 180 08:23 13.05.2022
3704 Clouds 24 1013 64 10000 2.57 180 07:42 13.05.2022
3705 Clouds 25 1013 61 10000 3.6 180 05:59 13.05.2022
3706 Clouds 25 1015 65 10000 3.6 170 02:43 13.05.2022
3707 Clouds 24 1016 69 10000 2.57 160 23:44 12.05.2022
3708 Clouds 24 1015 64 10000 3.09 160 22:44 12.05.2022
3709 Clouds 24 1014 64 10000 3.6 160 21:46 12.05.2022
3710 Clouds 24 1013 69 10000 2.57 160 20:23 12.05.2022
3711 Clouds 22 1013 100 10000 3.6 130 18:31 12.05.2022
3712 Clouds 24 1013 88 10000 3.6 160 16:57 12.05.2022
3713 Clouds 24 1013 88 10000 1.54 120 15:49 12.05.2022
3714 Clouds 23 1015 100 10000 2.57 170 13:59 12.05.2022
3715 Clouds 23 1015 100 10000 2.57 170 13:21 12.05.2022
3716 Clouds 24 1015 83 10000 3.09 160 10:35 12.05.2022
3717 Clouds 24 1013 88 10000 3.6 160 08:58 12.05.2022
3718 Clouds 24 1013 88 10000 3.6 160 08:39 12.05.2022
3719 Clouds 24 1012 88 10000 3.09 170 07:37 12.05.2022
3720 Clouds 26 1012 78 10000 3.6 160 05:30 12.05.2022
3721 Clouds 25 1013 83 10000 1.54 200 02:21 12.05.2022
3722 Clouds 23 1013 83 10000 2.57 270 23:55 11.05.2022
3723 Clouds 23 1013 94 10000 0 0 22:29 11.05.2022
3724 Clouds 23 1013 83 10000 0 0 21:29 11.05.2022
3725 Clouds 22 1012 94 10000 1.03 210 20:48 11.05.2022
3726 Clouds 22 1012 94 10000 0 0 17:54 11.05.2022
3727 Clouds 22 1012 94 10000 1.54 310 16:47 11.05.2022
3728 Clouds 23 1012 94 10000 0 0 14:49 11.05.2022
3729 Clouds 23 1012 94 10000 0 0 14:25 11.05.2022
3730 Clouds 24 1013 83 10000 0 0 13:37 11.05.2022
3731 Clouds 24 1014 83 10000 0 0 11:48 11.05.2022
3732 Clouds 25 1013 73 10000 1.03 150 09:34 11.05.2022
3733 Clouds 27 1011 65 10000 2.06 130 07:52 11.05.2022
3734 Clouds 27 1012 65 10000 2.57 120 03:38 11.05.2022
3735 Clouds 28 1014 61 10000 4.63 110 23:45 10.05.2022
3736 Clouds 25 1013 83 10000 0.51 0 22:30 10.05.2022
3737 Clouds 24 1013 78 10000 1.54 70 21:43 10.05.2022
3738 Clouds 24 1012 73 10000 2.06 120 20:48 10.05.2022
3739 Clouds 23 1013 78 10000 4.25 124 19:18 10.05.2022
3740 Clouds 25 1012 73 10000 2.57 120 17:43 10.05.2022
3741 Clouds 25 1013 73 10000 2.06 130 16:39 10.05.2022
3742 Clouds 25 1014 73 10000 2.57 120 13:54 10.05.2022
3743 Clouds 25 1014 69 10000 3.09 120 12:30 10.05.2022
3744 Clouds 25 1014 69 10000 4.63 120 11:42 10.05.2022
3745 Clouds 25 1014 73 10000 4.12 130 10:57 10.05.2022
3746 Clouds 26 1013 69 10000 4.12 130 09:52 10.05.2022
3747 Clouds 26 1013 69 10000 3.6 120 08:29 10.05.2022
3748 Clouds 26 1013 62 10000 5.02 114 06:21 10.05.2022
3749 Clouds 28 1014 61 10000 7.2 110 02:31 10.05.2022
3750 Clouds 26 1015 69 10000 4.12 120 23:55 09.05.2022
3751 Clouds 22 1015 88 10000 0 0 22:41 09.05.2022
3752 Clouds 19 1014 100 10000 2.06 320 21:42 09.05.2022
3753 Clouds 24 1015 61 10000 4.78 104 20:21 09.05.2022
3754 Clouds 23 1013 73 10000 2.06 130 18:29 09.05.2022
3755 Clouds 24 1014 69 10000 2.57 140 17:27 09.05.2022
3756 Clouds 24 1015 61 10000 4.69 107 16:19 09.05.2022
3757 Clouds 25 1015 69 10000 2.06 120 15:47 09.05.2022
3758 Clouds 24 1015 73 10000 2.57 140 14:41 09.05.2022
3759 Clouds 25 1016 69 10000 3.09 140 13:59 09.05.2022
3760 Clouds 25 1016 69 10000 3.09 140 13:23 09.05.2022
3761 Clouds 24 1016 69 10000 2.57 140 11:53 09.05.2022
3762 Clouds 25 1015 69 10000 2.57 140 10:48 09.05.2022
3763 Clouds 25 1015 69 10000 2.57 140 10:26 09.05.2022
3764 Clouds 26 1014 61 10000 2.57 160 07:57 09.05.2022
3765 Clouds 28 1013 57 10000 4.12 150 05:53 09.05.2022
3766 Clouds 27 1015 61 10000 4.12 130 01:59 09.05.2022
3767 Clouds 26 1016 73 10000 2.57 130 23:28 08.05.2022
3768 Clouds 24 1016 94 10000 1.03 0 22:32 08.05.2022
3769 Clouds 23 1015 94 10000 1.03 0 21:20 08.05.2022
3770 Clouds 24 1015 88 10000 1.54 290 20:25 08.05.2022
3771 Clouds 24 1014 88 10000 3.09 140 19:33 08.05.2022
3772 Clouds 24 1014 88 10000 3.6 130 18:38 08.05.2022
3773 Clouds 23 1014 94 10000 1.03 0 17:39 08.05.2022
3774 Clouds 23 1014 88 10000 1.03 0 15:46 08.05.2022
3775 Clouds 23 1014 88 10000 1.03 0 15:22 08.05.2022
3776 Clouds 23 1014 94 10000 2.06 110 12:48 08.05.2022
3777 Clouds 23 1014 100 10000 1.54 140 11:45 08.05.2022
3778 Clouds 25 1014 94 10000 2.06 140 10:25 08.05.2022
3779 Clouds 24 1013 94 10000 0 0 09:52 08.05.2022
3780 Clouds 26 1012 78 10000 3.09 140 07:44 08.05.2022
3781 Clouds 27 1012 69 10000 4.12 140 05:57 08.05.2022
3782 Clouds 25 1013 77 10000 5.06 158 03:21 08.05.2022
3783 Clouds 24 1014 94 10000 2.06 200 00:48 08.05.2022
3784 Clouds 25 1014 83 10000 3.6 130 23:56 07.05.2022
3785 Clouds 25 1014 83 10000 3.6 130 23:28 07.05.2022
3786 Clouds 24 1013 88 10000 1.54 100 22:35 07.05.2022
3787 Clouds 22 1013 100 10000 0 0 21:55 07.05.2022
3788 Clouds 22 1013 100 10000 0 0 21:20 07.05.2022
3789 Clouds 22 1011 100 10000 1.54 280 19:59 07.05.2022
3790 Clouds 23 1011 94 10000 0 0 18:41 07.05.2022
3791 Clouds 23 1012 94 10000 1.03 140 16:24 07.05.2022
3792 Clouds 24 1012 94 10000 1.03 270 14:51 07.05.2022
3793 Clouds 25 1012 94 10000 1.54 110 11:21 07.05.2022
3794 Clouds 25 1011 83 10000 0 0 09:39 07.05.2022
3795 Clouds 25 1011 83 10000 2.57 170 08:28 07.05.2022
3796 Clouds 28 1010 69 10000 3.09 180 06:44 07.05.2022
3797 Clouds 28 1009 78 10000 3.6 180 05:41 07.05.2022
3798 Clouds 29 1010 70 10000 2.06 160 03:54 07.05.2022
3799 Clouds 25 1012 94 10000 2.06 290 23:41 06.05.2022
3800 Clouds 23 1011 100 10000 2.57 320 22:34 06.05.2022
3801 Clouds 22 1011 100 10000 2.57 310 21:47 06.05.2022
3802 Fog 22 1010 100 500 1.54 320 20:39 06.05.2022
3803 Clouds 24 1011 84 10000 1.32 190 19:43 06.05.2022
3804 Clouds 24 1011 84 10000 1.35 197 19:19 06.05.2022
3805 Fog 20 1009 100 500 2.57 310 18:25 06.05.2022
3806 Fog 20 1010 100 500 2.57 310 17:27 06.05.2022
3807 Clouds 22 1011 100 10000 2.06 340 15:49 06.05.2022
3808 Clouds 22 1011 100 10000 1.54 320 14:58 06.05.2022
3809 Clouds 23 1011 100 10000 1.54 290 13:31 06.05.2022
3810 Clouds 23 1011 100 10000 1.54 320 12:41 06.05.2022
3811 Clouds 24 1011 94 10000 0 0 11:49 06.05.2022
3812 Clouds 24 1011 94 10000 2.06 110 10:34 06.05.2022
3813 Clouds 25 1010 94 10000 1.03 280 09:46 06.05.2022
3814 Clouds 25 1010 100 10000 0 0 08:43 06.05.2022
3815 Clouds 25 1009 100 8000 2.06 220 06:50 06.05.2022
3816 Clear 26 1010 83 10000 3.74 216 05:37 06.05.2022
3817 Clouds 30 1010 66 10000 3.09 230 02:50 06.05.2022
3818 Clouds 29 1011 74 10000 3.09 230 00:26 06.05.2022
3819 Clouds 25 1011 88 10000 1.54 280 22:28 05.05.2022
3820 Clear 25 1012 84 10000 2.54 249 21:22 05.05.2022
3821 Clouds 23 1010 100 10000 1.54 320 19:55 05.05.2022
3822 Clouds 23 1010 94 10000 2.06 310 18:34 05.05.2022
3823 Clouds 23 1010 100 10000 0.51 320 16:33 05.05.2022
3824 Clouds 24 1011 100 10000 3.09 320 14:50 05.05.2022
3825 Clouds 24 1011 94 10000 2.06 320 13:22 05.05.2022
3826 Clouds 24 1011 94 10000 1.54 300 12:49 05.05.2022
3827 Clouds 26 1011 94 10000 0 0 10:48 05.05.2022
3828 Clouds 25 1012 87 10000 0.96 46 09:39 05.05.2022
3829 Clouds 29 1009 70 10000 2.06 190 07:35 05.05.2022
3830 Clouds 31 1009 62 10000 2.57 200 04:42 05.05.2022
3831 Clouds 29 1011 74 10000 1.54 210 01:53 05.05.2022
3832 Clouds 29 1011 74 10000 1.54 210 01:26 05.05.2022
3833 Clouds 27 1011 83 10000 1.03 0 23:50 04.05.2022
3834 Clouds 25 1011 94 10000 2.06 310 22:30 04.05.2022
3835 Clouds 23 1011 100 10000 0 0 21:49 04.05.2022
3836 Clouds 23 1011 100 10000 0 0 21:26 04.05.2022
3837 Clouds 23 1010 100 10000 0 0 20:24 04.05.2022
3838 Clouds 24 1010 94 10000 0 0 19:53 04.05.2022
3839 Clouds 24 1009 94 10000 2.06 330 18:54 04.05.2022
3840 Clouds 24 1009 94 10000 2.06 330 18:22 04.05.2022
3841 Clouds 23 1009 100 10000 0 0 17:38 04.05.2022
3842 Clouds 24 1010 94 10000 0 0 15:40 04.05.2022
3843 Clouds 24 1010 94 10000 0 0 15:22 04.05.2022
3844 Clouds 24 1011 100 10000 0 0 14:21 04.05.2022
3845 Clouds 24 1011 94 10000 0 0 13:26 04.05.2022
3846 Clouds 25 1011 100 10000 1.03 0 12:29 04.05.2022
3847 Clouds 25 1010 94 10000 0 0 10:40 04.05.2022
3848 Clouds 25 1010 94 10000 1.03 0 09:43 04.05.2022
3849 Clouds 27 1009 89 10000 0 0 08:40 04.05.2022
3850 Clouds 28 1008 78 10000 2.06 90 06:31 04.05.2022
3851 Clouds 27 1010 83 10000 3.6 80 02:53 04.05.2022
3852 Clouds 26 1011 89 10000 1.03 0 23:58 03.05.2022
3853 Clouds 25 1011 94 10000 3.09 330 22:34 03.05.2022
3854 Clouds 23 1011 100 10000 2.06 340 21:43 03.05.2022
3855 Clouds 23 1010 100 10000 2.57 290 20:53 03.05.2022
3856 Clouds 23 1010 100 10000 1.03 0 19:49 03.05.2022
3857 Clouds 23 1010 100 10000 1.03 0 18:52 03.05.2022
3858 Clouds 23 1010 100 10000 1.03 0 18:20 03.05.2022
3859 Thunderstorm 23 1011 100 8000 1.03 0 16:37 03.05.2022
3860 Thunderstorm 23 1011 100 5000 3.6 150 15:35 03.05.2022
3861 Rain 26 1010 94 10000 0 0 12:47 03.05.2022
3862 Clouds 26 1010 94 10000 0 0 12:27 03.05.2022
3863 Clouds 26 1010 94 10000 1.03 0 10:57 03.05.2022
3864 Clouds 27 1010 89 10000 1.03 0 09:29 03.05.2022
3865 Clouds 28 1008 78 10000 3.09 90 06:46 03.05.2022
3866 Clouds 30 1008 70 10000 3.6 80 05:58 03.05.2022
3867 Clouds 29 1011 79 10000 2.06 180 00:32 03.05.2022
3868 Clouds 25 1011 94 10000 1.03 350 22:36 02.05.2022
3869 Clouds 24 1010 100 10000 1.03 0 21:52 02.05.2022
3870 Clouds 24 1009 94 10000 0 0 20:51 02.05.2022
3871 Clouds 24 1009 100 10000 0 0 18:37 02.05.2022
3872 Clouds 24 1009 100 10000 0 0 17:57 02.05.2022
3873 Clouds 24 1009 100 10000 0 0 17:34 02.05.2022
3874 Clouds 24 1010 100 10000 0 0 16:21 02.05.2022
3875 Clouds 24 1010 100 10000 0 0 15:29 02.05.2022
3876 Clouds 25 1012 94 10000 1.03 0 13:50 02.05.2022
3877 Clouds 25 1011 94 10000 1.54 300 12:19 02.05.2022
3878 Clouds 26 1011 94 10000 2.06 300 10:38 02.05.2022
3879 Clouds 27 1010 94 10000 3.6 210 08:49 02.05.2022
3880 Clouds 28 1010 89 10000 2.57 200 07:39 02.05.2022
3881 Clouds 28 1010 89 10000 2.57 200 07:39 02.05.2022
3882 Clouds 31 1010 66 10000 3.09 20 02:51 02.05.2022
3883 Clouds 30 1011 74 10000 3.09 20 00:24 02.05.2022
3884 Clouds 27 1010 83 10000 3.09 340 23:47 01.05.2022
3885 Clouds 24 1010 94 10000 1.54 300 22:20 01.05.2022
3886 Clouds 23 1010 94 10000 0 0 21:18 01.05.2022
3887 Clouds 23 1009 100 10000 0 0 19:50 01.05.2022
3888 Clouds 23 1009 100 10000 1.03 0 18:55 01.05.2022
3889 Clouds 23 1009 100 10000 1.03 0 18:22 01.05.2022
3890 Clouds 23 1009 100 10000 1.03 0 17:18 01.05.2022
3891 Clouds 23 1009 100 10000 0 0 16:23 01.05.2022
3892 Clouds 23 1009 100 10000 0 0 15:24 01.05.2022
3893 Clouds 25 1010 94 10000 1.03 0 13:42 01.05.2022
3894 Rain 25 1009 94 10000 1.03 0 10:53 01.05.2022
3895 Rain 26 1007 94 10000 1.03 0 08:53 01.05.2022
3896 Clouds 27 1007 89 10000 1.03 0 07:53 01.05.2022
3897 Clouds 30 1007 74 10000 2.06 340 03:26 01.05.2022
3898 Clouds 27 1010 79 10000 1.21 336 23:23 30.04.2022
3899 Clouds 24 1009 94 10000 3.09 340 21:35 30.04.2022
3900 Clouds 23 1008 100 10000 1.03 0 20:36 30.04.2022
3901 Clouds 23 1008 100 10000 1.03 0 19:41 30.04.2022
3902 Clouds 23 1008 100 10000 2.06 330 17:44 30.04.2022
3903 Clouds 23 1008 100 10000 1.54 340 16:37 30.04.2022
3904 Clouds 25 1009 87 10000 2.02 306 15:21 30.04.2022
3905 Clouds 24 1009 100 10000 1.03 320 14:33 30.04.2022
3906 Clouds 24 1009 100 10000 0 0 12:40 30.04.2022
3907 Clouds 24 1009 100 10000 0 0 11:33 30.04.2022
3908 Clouds 24 1008 100 10000 0 0 10:40 30.04.2022
3909 Clouds 25 1007 94 10000 0 0 08:54 30.04.2022
3910 Clouds 28 1007 89 10000 2.57 360 05:51 30.04.2022
3911 Clouds 29 1009 84 10000 3.6 50 01:51 30.04.2022
3912 Clouds 27 1010 94 10000 0.51 0 23:37 29.04.2022
3913 Clouds 25 1009 94 10000 1.54 290 22:31 29.04.2022
3914 Rain 24 1009 100 10000 0 0 21:27 29.04.2022
3915 Clouds 24 1008 100 10000 0 0 20:39 29.04.2022
3916 Rain 24 1009 100 10000 0 0 19:38 29.04.2022
3917 Rain 24 1008 94 10000 0 0 17:50 29.04.2022
3918 Rain 24 1009 100 10000 0 0 16:56 29.04.2022
3919 Clouds 24 1010 100 10000 0 0 14:50 29.04.2022
3920 Clouds 24 1010 100 10000 0 0 14:20 29.04.2022
3921 Clouds 25 1010 94 10000 3.09 80 12:43 29.04.2022
3922 Clouds 25 1010 94 10000 0 0 10:58 29.04.2022
3923 Rain 25 1009 89 10000 5.87 80 08:18 29.04.2022
3924 Clouds 26 1008 94 10000 1.54 120 07:27 29.04.2022
3925 Clouds 25 1008 94 10000 3.09 100 06:35 29.04.2022
3926 Clouds 25 1009 94 5000 2.57 150 03:34 29.04.2022
3927 Clouds 28 1012 74 10000 5.14 120 00:18 29.04.2022
3928 Clouds 28 1011 74 10000 4.63 120 23:26 28.04.2022
3929 Clouds 27 1011 83 10000 4.63 140 22:40 28.04.2022
3930 Clouds 27 1011 83 10000 4.63 120 21:46 28.04.2022
3931 Clouds 26 1010 89 10000 4.12 120 20:51 28.04.2022
3932 Clouds 26 1010 89 10000 4.12 100 19:59 28.04.2022
3933 Clouds 26 1010 89 10000 4.12 100 19:40 28.04.2022
3934 Clouds 26 1010 89 10000 4.12 100 19:20 28.04.2022
3935 Clouds 26 1011 83 10000 5.14 100 17:56 28.04.2022
3936 Clouds 26 1011 83 10000 5.14 100 16:59 28.04.2022
3937 Clouds 26 1011 83 10000 5.14 100 16:21 28.04.2022
3938 Clouds 26 1012 83 10000 5.66 100 15:57 28.04.2022
3939 Rain 26 1012 83 10000 5.66 100 15:23 28.04.2022
3940 Clouds 27 1013 89 10000 6.17 110 13:43 28.04.2022
3941 Clouds 27 1013 89 10000 5.66 120 12:34 28.04.2022
3942 Clouds 26 1014 94 10000 5.66 120 11:51 28.04.2022
3943 Clouds 26 1013 94 10000 4.12 130 10:30 28.04.2022
3944 Clouds 25 1013 88 10000 3.09 130 09:51 28.04.2022
3945 Clouds 26 1012 78 10000 4.12 120 07:45 28.04.2022
3946 Clouds 26 1012 78 10000 3.6 150 06:54 28.04.2022
3947 Clouds 25 1012 88 10000 4.12 140 05:54 28.04.2022
3948 Clouds 28 1013 74 10000 6.17 130 04:44 28.04.2022
3949 Clouds 28 1013 69 10000 6.17 130 03:28 28.04.2022
3950 Clouds 27 1015 74 10000 4.63 130 23:43 27.04.2022
3951 Clouds 26 1014 78 10000 5.14 120 22:30 27.04.2022
3952 Clouds 26 1014 73 10000 4.12 120 21:50 27.04.2022
3953 Clouds 25 1013 83 10000 4.12 130 20:51 27.04.2022
3954 Clouds 25 1013 83 10000 4.12 130 20:32 27.04.2022
3955 Clouds 25 1012 78 10000 3.6 130 19:36 27.04.2022
3956 Clouds 25 1012 83 10000 3.6 130 18:45 27.04.2022
3957 Clouds 25 1012 83 10000 3.6 130 18:21 27.04.2022
3958 Clouds 24 1013 83 10000 2.57 140 16:21 27.04.2022
3959 Clouds 24 1015 100 10000 2.57 150 13:29 27.04.2022
3960 Clouds 26 1014 78 10000 4.63 120 11:37 27.04.2022
3961 Clouds 26 1014 78 10000 4.12 130 10:51 27.04.2022
3962 Clouds 26 1013 78 10000 3.09 120 08:31 27.04.2022
3963 Clouds 27 1012 74 10000 4.12 120 06:44 27.04.2022
3964 Clouds 29 1013 61 10000 7.72 110 02:40 27.04.2022
3965 Clouds 28 1013 65 10000 6.17 120 01:27 27.04.2022
3966 Clouds 28 1014 65 10000 5.14 120 00:35 27.04.2022
3967 Clouds 28 1013 65 10000 4.63 110 23:24 26.04.2022
3968 Clouds 26 1013 78 10000 2.57 70 22:52 26.04.2022
3969 Clouds 26 1013 78 10000 2.57 70 22:32 26.04.2022
3970 Clouds 24 1013 78 10000 5.06 115 21:25 26.04.2022
3971 Clouds 21 1012 100 10000 1.03 260 20:39 26.04.2022
3972 Clouds 21 1011 100 10000 0 0 19:45 26.04.2022
3973 Clouds 21 1011 100 10000 0 0 19:26 26.04.2022
3974 Clouds 21 1011 100 10000 2.06 310 18:40 26.04.2022
3975 Clouds 21 1010 100 10000 1.54 310 17:42 26.04.2022
3976 Clouds 22 1011 94 10000 1.54 320 15:59 26.04.2022
3977 Clouds 22 1011 100 10000 1.03 310 13:55 26.04.2022
3978 Clouds 22 1011 100 10000 1.03 310 13:28 26.04.2022
3979 Clouds 23 1011 94 10000 1.03 0 11:24 26.04.2022
3980 Clouds 22 1010 100 10000 2.06 330 10:30 26.04.2022
3981 Clouds 23 1009 94 10000 2.06 290 08:34 26.04.2022
3982 Clouds 25 1009 72 10000 5.88 161 05:29 26.04.2022
3983 Clouds 25 1009 74 10000 5.55 161 04:22 26.04.2022
3984 Clouds 25 1010 88 10000 1.54 110 00:52 26.04.2022
3985 Rain 25 1010 88 10000 1.03 70 23:51 25.04.2022
3986 Clouds 22 1008 100 5000 4.63 160 21:57 25.04.2022
3987 Clouds 22 1008 100 5000 4.63 160 21:26 25.04.2022
3988 Clouds 23 1006 100 10000 3.09 110 19:53 25.04.2022
3989 Clouds 23 1006 100 10000 3.09 140 18:48 25.04.2022
3990 Clouds 23 1006 100 10000 3.6 90 17:40 25.04.2022
3991 Clouds 23 1007 100 10000 0 0 16:42 25.04.2022
3992 Clouds 23 1007 100 10000 0 0 15:22 25.04.2022
3993 Rain 23 1008 100 10000 0 0 14:32 25.04.2022
3994 Clouds 24 1008 100 10000 1.03 350 12:47 25.04.2022
3995 Clouds 24 1008 100 10000 0 0 10:42 25.04.2022
3996 Clouds 25 1007 94 10000 0 0 09:41 25.04.2022
3997 Clouds 25 1007 94 10000 0 0 07:38 25.04.2022
3998 Clouds 25 1007 94 10000 1.54 250 05:54 25.04.2022
3999 Clouds 28 1009 78 10000 3.09 340 01:28 25.04.2022
4000 Clouds 27 1009 83 10000 2.57 340 23:54 24.04.2022
4001 Clouds 25 1010 86 10000 1.83 349 23:22 24.04.2022
4002 Rain 24 1009 94 10000 2.06 320 22:38 24.04.2022
4003 Rain 23 1009 94 10000 0 0 21:55 24.04.2022
4004 Clouds 23 1009 94 10000 0 0 21:21 24.04.2022
4005 Clouds 23 1008 94 10000 1.54 330 20:44 24.04.2022
4006 Clouds 23 1008 94 10000 2.06 310 19:57 24.04.2022
4007 Clouds 23 1008 94 10000 0 0 18:37 24.04.2022
4008 Clouds 23 1008 94 10000 1.54 350 17:41 24.04.2022
4009 Clouds 23 1008 94 10000 1.54 350 17:20 24.04.2022
4010 Clouds 23 1009 94 10000 1.54 330 16:51 24.04.2022
4011 Clouds 23 1009 94 10000 1.54 330 16:22 24.04.2022
4012 Clouds 23 1009 94 10000 2.57 330 15:36 24.04.2022
4013 Clouds 23 1010 100 10000 2.57 320 14:30 24.04.2022
4014 Clouds 24 1010 88 10000 3.6 290 13:26 24.04.2022
4015 Clouds 24 1010 94 10000 2.06 350 12:44 24.04.2022
4016 Clouds 24 1011 94 10000 2.57 70 11:44 24.04.2022
4017 Clouds 24 1011 88 10000 4.12 30 10:33 24.04.2022
4018 Clouds 25 1010 88 10000 2.06 320 09:41 24.04.2022
4019 Rain 26 1009 83 10000 1.03 0 07:39 24.04.2022
4020 Clouds 25 1010 88 10000 4.63 180 04:56 24.04.2022
4021 Clouds 30 1011 66 10000 3.09 100 01:50 24.04.2022
4022 Clouds 28 1012 78 10000 1.03 0 00:38 24.04.2022
4023 Clouds 27 1012 83 10000 2.57 280 23:45 23.04.2022
4024 Clouds 27 1012 83 10000 2.57 280 23:22 23.04.2022
4025 Clouds 24 1012 94 10000 2.06 320 21:55 23.04.2022
4026 Clouds 24 1012 94 10000 2.06 320 21:35 23.04.2022
4027 Clouds 23 1011 94 10000 2.57 320 20:57 23.04.2022
4028 Clouds 23 1011 100 10000 2.06 320 19:54 23.04.2022
4029 Clouds 23 1011 100 10000 2.06 320 19:19 23.04.2022
4030 Clouds 24 1010 94 10000 2.06 290 18:53 23.04.2022
4031 Clouds 24 1010 94 10000 2.06 290 18:24 23.04.2022
4032 Clouds 24 1010 94 10000 2.06 330 17:43 23.04.2022
4033 Clouds 24 1011 94 10000 2.57 310 16:43 23.04.2022
4034 Clouds 24 1011 94 10000 2.06 310 15:32 23.04.2022
4035 Clouds 24 1012 94 10000 3.6 320 12:49 23.04.2022
4036 Clouds 25 1012 94 10000 0 0 10:50 23.04.2022
4037 Clouds 26 1011 94 10000 0 0 09:38 23.04.2022
4038 Clouds 28 1010 78 10000 3.09 80 07:21 23.04.2022
4039 Clouds 30 1011 74 10000 4.12 40 03:54 23.04.2022
4040 Clouds 29 1012 79 10000 4.12 60 01:25 23.04.2022
4041 Clouds 26 1013 89 10000 1.54 340 23:31 22.04.2022
4042 Clouds 24 1013 94 10000 1.54 330 22:20 22.04.2022
4043 Fog 23 1012 100 500 1.54 320 21:44 22.04.2022
4044 Clouds 23 1011 100 10000 1.03 280 20:48 22.04.2022
4045 Clouds 23 1011 100 10000 1.03 280 20:27 22.04.2022
4046 Clouds 23 1011 100 10000 1.03 310 19:20 22.04.2022
4047 Clouds 23 1011 100 10000 1.03 310 18:42 22.04.2022
4048 Clouds 23 1011 100 10000 1.54 300 17:41 22.04.2022
4049 Clouds 24 1011 94 10000 1.03 290 16:46 22.04.2022
4050 Clouds 24 1012 100 10000 1.54 340 15:44 22.04.2022
4051 Clouds 24 1012 100 10000 1.54 340 15:18 22.04.2022
4052 Clouds 24 1013 94 10000 1.03 0 13:50 22.04.2022
4053 Clouds 24 1013 100 10000 1.03 0 12:58 22.04.2022
4054 Clouds 24 1013 100 10000 4.12 50 11:50 22.04.2022
4055 Clouds 24 1013 100 10000 4.12 50 11:21 22.04.2022
4056 Clouds 25 1013 100 5000 2.57 170 10:50 22.04.2022
4057 Clouds 25 1013 100 5000 2.57 170 10:30 22.04.2022
4058 Clouds 27 1012 89 10000 1.03 0 09:50 22.04.2022
4059 Clouds 28 1012 83 10000 1.54 120 08:50 22.04.2022
4060 Clouds 30 1011 70 10000 2.57 150 06:58 22.04.2022
4061 Clouds 31 1011 79 10000 2.06 80 02:45 22.04.2022
4062 Clouds 29 1013 70 10000 1.54 200 00:51 22.04.2022
4063 Clouds 25 1013 88 10000 2.06 320 22:59 21.04.2022
4064 Clouds 25 1013 88 10000 2.06 320 22:27 21.04.2022
4065 Clouds 22 1012 100 10000 1.54 330 20:36 21.04.2022
4066 Clouds 24 1012 85 10000 0.84 305 20:18 21.04.2022
4067 Clouds 23 1011 100 10000 2.06 310 18:35 21.04.2022
4068 Clouds 23 1011 100 10000 1.54 300 17:54 21.04.2022
4069 Clouds 24 1012 94 10000 1.54 60 16:30 21.04.2022
4070 Clear 24 1013 85 10000 1.52 329 15:21 21.04.2022
4071 Clouds 25 1013 94 10000 2.57 90 14:47 21.04.2022
4072 Clouds 25 1013 94 10000 2.06 60 13:23 21.04.2022
4073 Clouds 25 1013 94 10000 0 0 12:53 21.04.2022
4074 Clouds 26 1013 89 10000 0 0 10:47 21.04.2022
4075 Clouds 27 1011 89 10000 1.54 70 08:55 21.04.2022
4076 Clouds 29 1011 79 10000 3.09 90 07:24 21.04.2022
4077 Clouds 30 1010 66 10000 4.12 60 04:58 21.04.2022
4078 Clouds 30 1010 70 10000 2.06 40 03:28 21.04.2022
4079 Clouds 30 1011 70 10000 2.57 60 02:46 21.04.2022
4080 Clouds 30 1011 70 10000 2.57 60 02:46 21.04.2022
4081 Clouds 29 1013 70 10000 2.06 340 00:43 21.04.2022
4082 Clouds 29 1013 70 10000 2.06 340 00:43 21.04.2022
4083 Clouds 26 1013 83 10000 2.06 290 23:49 20.04.2022
4084 Clouds 26 1014 75 10000 1.35 308 23:21 20.04.2022
4085 Clouds 24 1013 88 10000 2.06 330 22:45 20.04.2022
4086 Clouds 24 1013 88 10000 2.06 330 22:26 20.04.2022
4087 Clouds 22 1013 94 10000 1.54 330 21:24 20.04.2022
4088 Clouds 23 1013 87 10000 1.9 315 20:23 20.04.2022
4089 Clouds 23 1013 87 10000 1.9 315 20:23 20.04.2022
4090 Clouds 21 1012 100 10000 1.54 330 19:51 20.04.2022
4091 Clouds 23 1012 89 10000 2.02 327 19:18 20.04.2022
4092 Clouds 22 1012 100 10000 1.03 0 17:55 20.04.2022
4093 Clouds 23 1012 94 10000 2.06 330 16:40 20.04.2022
4094 Clouds 24 1012 89 10000 2.06 356 16:18 20.04.2022
4095 Clouds 23 1013 100 10000 1.54 330 13:50 20.04.2022
4096 Clouds 24 1013 94 10000 3.09 320 11:44 20.04.2022
4097 Clouds 24 1012 94 10000 2.06 350 10:56 20.04.2022
4098 Clouds 24 1012 100 10000 2.06 20 09:58 20.04.2022
4099 Clouds 24 1012 100 10000 2.06 20 09:24 20.04.2022
4100 Rain 24 1013 89 10000 2.52 152 08:20 20.04.2022
4101 Rain 24 1012 94 10000 3.09 210 06:56 20.04.2022
4102 Rain 26 1013 83 10000 5.14 200 03:34 20.04.2022
4103 Rain 27 1015 83 10000 3.41 248 00:22 20.04.2022
4104 Rain 26 1013 94 10000 1.03 0 23:35 19.04.2022
4105 Rain 26 1013 89 10000 3.09 310 22:24 19.04.2022
4106 Rain 24 1013 100 10000 1.03 0 21:55 19.04.2022
4107 Clouds 24 1013 100 10000 1.03 0 21:22 19.04.2022
4108 Rain 24 1012 100 10000 0 0 20:41 19.04.2022
4109 Clouds 24 1011 100 10000 0 0 19:52 19.04.2022
4110 Clouds 24 1011 100 10000 0 0 18:47 19.04.2022
4111 Clouds 24 1011 100 10000 2.06 300 17:28 19.04.2022
4112 Clouds 24 1011 100 10000 2.06 330 16:43 19.04.2022
4113 Clouds 24 1011 100 10000 2.06 330 16:21 19.04.2022
4114 Clouds 25 1013 100 10000 1.54 300 14:48 19.04.2022
4115 Clouds 25 1013 100 10000 1.54 310 13:35 19.04.2022
4116 Clouds 26 1013 89 10000 1.03 0 12:50 19.04.2022
4117 Clouds 26 1013 94 10000 1.03 0 11:55 19.04.2022
4118 Clouds 27 1012 89 10000 1.03 0 10:25 19.04.2022
4119 Clouds 26 1013 86 10000 3.23 41 09:18 19.04.2022
4120 Rain 30 1012 79 10000 3.6 80 04:56 19.04.2022
4121 Clouds 30 1013 79 10000 2.57 110 03:25 19.04.2022
4122 Rain 30 1015 79 10000 3.6 90 00:54 19.04.2022
4123 Clouds 27 1015 89 10000 3.6 50 23:29 18.04.2022
4124 Clouds 25 1014 94 10000 1.03 0 21:30 18.04.2022
4125 Clouds 25 1014 94 10000 1.03 0 21:30 18.04.2022
4126 Clouds 25 1013 94 10000 1.03 0 20:54 18.04.2022
4127 Clouds 25 1013 94 10000 1.03 0 20:30 18.04.2022
4128 Clouds 25 1013 94 10000 1.03 0 19:42 18.04.2022
4129 Clouds 25 1013 94 10000 1.03 0 18:54 18.04.2022
4130 Clouds 25 1013 100 10000 2.57 30 17:57 18.04.2022
4131 Clouds 25 1013 100 10000 2.57 30 17:33 18.04.2022
4132 Clouds 25 1014 100 10000 3.09 20 16:50 18.04.2022
4133 Clouds 25 1014 100 10000 3.09 20 16:31 18.04.2022
4134 Rain 25 1015 94 10000 1.03 0 14:45 18.04.2022
4135 Rain 26 1014 89 10000 1.03 0 13:35 18.04.2022
4136 Rain 26 1015 89 10000 1.54 300 12:29 18.04.2022
4137 Clouds 27 1015 83 10000 0 0 11:34 18.04.2022
4138 Clouds 27 1014 83 10000 0 0 10:31 18.04.2022
4139 Clouds 27 1013 83 10000 1.54 100 09:30 18.04.2022
4140 Rain 29 1012 79 10000 3.6 90 07:42 18.04.2022
4141 Clouds 30 1012 79 10000 4.12 100 05:37 18.04.2022
4142 Clouds 30 1016 79 10000 2.06 150 00:27 18.04.2022
4143 Clouds 26 1015 94 10000 0 0 22:40 17.04.2022
4144 Clouds 24 1014 100 10000 0 0 21:42 17.04.2022
4145 Clouds 24 1014 100 10000 0 0 21:22 17.04.2022
4146 Clouds 24 1013 100 10000 1.54 300 20:33 17.04.2022
4147 Clouds 24 1012 100 10000 1.54 330 19:28 17.04.2022
4148 Clouds 25 1013 94 10000 1.54 350 17:45 17.04.2022
4149 Clouds 25 1014 100 10000 0 0 15:39 17.04.2022
4150 Clouds 25 1014 100 10000 0 0 14:54 17.04.2022
4151 Clouds 25 1014 100 10000 0 0 14:54 17.04.2022
4152 Clouds 26 1015 94 10000 1.03 0 13:48 17.04.2022
4153 Clouds 26 1015 100 10000 1.03 0 12:58 17.04.2022
4154 Clouds 26 1015 100 10000 1.03 0 12:18 17.04.2022
4155 Clouds 27 1014 89 10000 1.03 0 10:46 17.04.2022
4156 Clouds 27 1014 89 10000 1.03 0 10:27 17.04.2022
4157 Clouds 27 1014 89 10000 1.03 0 10:27 17.04.2022
4158 Clouds 27 1013 89 10000 1.03 0 09:29 17.04.2022
4159 Clouds 28 1012 83 10000 1.54 0 08:42 17.04.2022
4160 Clouds 29 1012 79 10000 2.57 70 07:26 17.04.2022
4161 Clouds 32 1012 58 10000 3.09 60 03:53 17.04.2022
4162 Clouds 28 1013 83 10000 2.06 10 00:55 17.04.2022
4163 Clouds 28 1013 83 10000 1.54 340 23:50 16.04.2022
4164 Clouds 26 1013 94 10000 2.06 320 22:29 16.04.2022
4165 Clouds 24 1012 100 10000 1.03 0 21:31 16.04.2022
4166 Clouds 25 1012 89 10000 2.85 26 20:18 16.04.2022
4167 Clouds 24 1011 100 10000 1.54 310 18:55 16.04.2022
4168 Clouds 24 1011 100 10000 1.54 330 17:46 16.04.2022
4169 Clouds 25 1012 94 10000 2.06 330 16:38 16.04.2022
4170 Clouds 25 1012 94 10000 1.54 360 15:43 16.04.2022
4171 Clouds 25 1013 100 10000 1.03 0 14:55 16.04.2022
4172 Clouds 25 1013 100 10000 2.06 10 13:58 16.04.2022
4173 Clouds 25 1013 100 10000 2.06 10 13:28 16.04.2022
4174 Rain 25 1012 94 10000 1.54 300 12:20 16.04.2022
4175 Rain 27 1012 89 10000 1.03 320 10:49 16.04.2022
4176 Clouds 28 1011 83 10000 0 0 09:56 16.04.2022
4177 Clouds 28 1010 89 10000 2.57 60 08:57 16.04.2022
4178 Rain 29 1010 84 10000 2.06 60 07:35 16.04.2022
4179 Rain 29 1009 84 10000 3.09 70 06:58 16.04.2022
4180 Clouds 31 1011 70 10000 4.12 50 02:33 16.04.2022
4181 Clouds 29 1012 79 10000 0 0 00:23 16.04.2022
4182 Clouds 28 1013 80 10000 2.76 44 22:57 15.04.2022
4183 Clouds 28 1013 80 10000 2.76 44 22:31 15.04.2022
4184 Clouds 24 1011 100 10000 1.03 0 21:50 15.04.2022
4185 Clouds 24 1011 100 10000 1.03 0 20:56 15.04.2022
4186 Clouds 24 1010 100 10000 2.06 290 19:59 15.04.2022
4187 Clouds 24 1010 100 10000 2.06 290 19:39 15.04.2022
4188 Clouds 25 1010 94 10000 2.06 330 18:46 15.04.2022
4189 Clouds 25 1010 94 10000 2.06 330 18:24 15.04.2022
4190 Clouds 25 1010 94 10000 1.03 0 17:32 15.04.2022
4191 Rain 25 1011 94 10000 1.03 0 16:26 15.04.2022
4192 Clouds 25 1011 94 10000 1.03 0 15:59 15.04.2022
4193 Clouds 26 1012 94 10000 1.03 0 14:41 15.04.2022
4194 Clouds 25 1012 100 10000 1.54 320 13:33 15.04.2022
4195 Clouds 27 1012 89 10000 0 0 12:40 15.04.2022
4196 Clouds 27 1012 89 10000 1.54 120 11:54 15.04.2022
4197 Clouds 27 1011 89 10000 2.06 130 10:53 15.04.2022
4198 Clouds 27 1011 89 10000 2.06 130 10:24 15.04.2022
4199 Clouds 27 1011 89 10000 2.06 120 09:38 15.04.2022
4200 Clouds 26 1011 83 10000 5.14 94 09:18 15.04.2022
4201 Clouds 30 1009 74 10000 4.12 130 06:56 15.04.2022
4202 Clouds 31 1010 70 10000 4.12 120 05:57 15.04.2022
4203 Clouds 31 1012 66 10000 4.63 100 01:49 15.04.2022
4204 Clouds 30 1013 70 10000 3.09 120 23:30 14.04.2022
4205 Clouds 26 1013 94 10000 1.03 0 22:47 14.04.2022
4206 Clouds 26 1013 94 10000 1.03 0 22:28 14.04.2022
4207 Clouds 23 1012 100 10000 1.54 360 21:54 14.04.2022
4208 Clouds 23 1012 94 10000 0 0 20:35 14.04.2022
4209 Clouds 23 1012 94 10000 0 0 19:22 14.04.2022
4210 Clouds 23 1012 100 10000 0 0 17:58 14.04.2022
4211 Clouds 23 1012 100 10000 0 0 17:28 14.04.2022
4212 Clouds 23 1012 100 10000 0 0 16:33 14.04.2022
4213 Clouds 24 1013 94 10000 0 0 14:23 14.04.2022
4214 Clouds 24 1014 94 10000 0 0 13:31 14.04.2022
4215 Clouds 25 1014 94 10000 0 0 12:42 14.04.2022
4216 Clouds 25 1014 94 10000 0 0 12:22 14.04.2022
4217 Clear 26 1015 79 10000 3.38 80 11:21 14.04.2022
4218 Clouds 27 1013 83 10000 1.03 0 10:36 14.04.2022
4219 Clouds 27 1011 83 10000 1.03 0 09:54 14.04.2022
4220 Clouds 28 1012 78 10000 2.06 120 08:39 14.04.2022
4221 Clear 28 1012 64 10000 4.22 94 06:26 14.04.2022
4222 Clouds 31 1013 66 10000 4.12 110 02:45 14.04.2022
4223 Clouds 26 1014 89 10000 2.06 320 22:52 13.04.2022
4224 Clouds 23 1014 100 10000 2.06 330 21:44 13.04.2022
4225 Clouds 23 1013 100 10000 2.06 330 20:53 13.04.2022
4226 Clouds 23 1013 100 10000 2.06 330 20:22 13.04.2022
4227 Clouds 24 1013 94 10000 2.06 310 19:23 13.04.2022
4228 Clouds 24 1012 100 10000 1.54 320 17:55 13.04.2022
4229 Clouds 24 1012 100 10000 1.54 320 17:23 13.04.2022
4230 Clouds 24 1013 100 10000 1.54 320 16:33 13.04.2022
4231 Clouds 25 1013 94 10000 2.06 310 15:32 13.04.2022
4232 Clouds 25 1014 94 10000 1.54 320 14:50 13.04.2022
4233 Clouds 25 1013 100 10000 1.03 0 13:58 13.04.2022
4234 Clear 26 1014 82 10000 2.57 34 13:00 13.04.2022
4235 Clouds 26 1013 94 10000 1.03 0 12:20 13.04.2022
4236 Clouds 27 1012 89 10000 0 0 10:47 13.04.2022
4237 Rain 28 1011 78 10000 0 0 08:57 13.04.2022
4238 Clouds 28 1011 78 10000 0 0 08:31 13.04.2022
4239 Rain 30 1010 62 10000 4.63 60 06:51 13.04.2022
4240 Rain 30 1010 62 10000 4.63 60 06:25 13.04.2022
4241 Clouds 32 1011 66 10000 4.12 70 03:31 13.04.2022
4242 Clouds 30 1013 70 10000 2.57 360 00:20 13.04.2022
4243 Clouds 30 1013 70 10000 2.57 360 00:20 13.04.2022
4244 Clouds 28 1013 78 10000 3.09 310 23:21 12.04.2022
4245 Clouds 23 1011 100 10000 2.06 320 21:57 12.04.2022
4246 Clouds 23 1011 100 10000 1.54 320 20:51 12.04.2022
4247 Clouds 23 1011 100 10000 1.54 320 20:33 12.04.2022
4248 Clouds 23 1010 100 10000 1.03 320 19:47 12.04.2022
4249 Clouds 23 1010 100 10000 1.03 320 19:28 12.04.2022
4250 Clouds 23 1010 100 10000 2.06 320 17:59 12.04.2022
4251 Clouds 24 1010 100 10000 2.06 320 16:53 12.04.2022
4252 Clouds 24 1011 100 10000 1.54 320 15:52 12.04.2022
4253 Clouds 24 1011 100 10000 1.54 320 15:25 12.04.2022
4254 Clouds 25 1012 94 10000 3.09 320 13:54 12.04.2022
4255 Clouds 25 1012 94 10000 3.09 320 13:27 12.04.2022
4256 Clouds 26 1012 89 10000 2.06 320 12:31 12.04.2022
4257 Clouds 27 1012 89 10000 1.03 0 11:40 12.04.2022
4258 Clouds 27 1012 89 10000 1.03 0 10:30 12.04.2022
4259 Clouds 28 1010 78 10000 1.54 90 08:54 12.04.2022
4260 Clouds 28 1010 78 10000 1.54 90 08:54 12.04.2022
4261 Clouds 28 1010 78 10000 1.54 90 08:54 12.04.2022
4262 Rain 29 1009 74 10000 3.6 80 07:47 12.04.2022
4263 Clouds 31 1009 66 10000 4.63 70 05:49 12.04.2022
4264 Clouds 31 1010 70 10000 3.6 70 03:28 12.04.2022
4265 Clouds 28 1012 83 10000 2.06 320 23:36 11.04.2022
4266 Clouds 26 1011 94 10000 2.06 320 22:44 11.04.2022
4267 Clouds 24 1011 100 10000 2.06 350 21:36 11.04.2022
4268 Clouds 24 1011 100 10000 2.06 320 20:49 11.04.2022
4269 Clear 25 1011 83 10000 1.61 343 20:28 11.04.2022
4270 Clouds 24 1010 100 10000 1.54 310 19:36 11.04.2022
4271 Clouds 25 1011 84 10000 1.34 16 19:18 11.04.2022
4272 Clouds 24 1010 94 10000 1.03 320 18:37 11.04.2022
4273 Clouds 24 1010 100 10000 2.57 320 17:44 11.04.2022
4274 Clouds 24 1010 100 10000 1.54 320 16:38 11.04.2022
4275 Clouds 25 1010 100 10000 1.54 330 15:24 11.04.2022
4276 Clouds 25 1011 100 10000 1.03 330 13:44 11.04.2022
4277 Clouds 26 1011 94 10000 0 0 12:43 11.04.2022
4278 Clouds 26 1011 94 10000 0 0 12:22 11.04.2022
4279 Clouds 26 1011 94 10000 0 0 10:56 11.04.2022
4280 Clouds 27 1010 83 10000 0 0 09:58 11.04.2022
4281 Clouds 29 1009 74 10000 1.54 70 08:23 11.04.2022
4282 Clouds 32 1010 58 10000 3.6 60 04:57 11.04.2022
4283 Clouds 30 1013 70 10000 1.54 350 00:30 11.04.2022
4284 Clouds 25 1012 94 10000 2.57 310 22:27 10.04.2022
4285 Clouds 25 1012 94 10000 2.57 310 22:27 10.04.2022
4286 Clouds 23 1012 100 10000 2.06 320 21:53 10.04.2022
4287 Clouds 23 1012 100 10000 2.06 320 21:23 10.04.2022
4288 Clouds 26 1012 79 10000 2.23 95 20:18 10.04.2022
4289 Clouds 23 1011 100 10000 2.06 320 19:36 10.04.2022
4290 Clouds 23 1011 100 10000 1.54 320 18:50 10.04.2022
4291 Clouds 23 1011 100 10000 1.54 320 18:26 10.04.2022
4292 Clouds 23 1011 100 10000 1.03 0 17:44 10.04.2022
4293 Clouds 23 1011 100 10000 1.54 300 16:57 10.04.2022
4294 Clouds 24 1012 94 10000 0.51 0 15:38 10.04.2022
4295 Clouds 24 1012 100 10000 1.03 0 14:42 10.04.2022
4296 Clouds 25 1012 94 10000 0 0 13:28 10.04.2022
4297 Clouds 25 1012 94 10000 0 0 12:27 10.04.2022
4298 Clouds 25 1012 94 10000 0 0 11:38 10.04.2022
4299 Clouds 27 1012 83 10000 1.03 120 10:59 10.04.2022
4300 Clouds 27 1012 83 10000 1.03 120 10:27 10.04.2022
4301 Clouds 27 1011 83 10000 1.54 110 09:41 10.04.2022
4302 Clouds 29 1011 70 10000 2.57 120 08:26 10.04.2022
4303 Clouds 30 1010 70 10000 3.09 110 07:56 10.04.2022
4304 Clouds 31 1010 66 10000 2.57 110 06:59 10.04.2022
4305 Clouds 31 1011 70 10000 3.6 90 03:36 10.04.2022
4306 Clouds 31 1011 70 10000 3.6 90 03:36 10.04.2022
4307 Clouds 31 1013 66 10000 1.54 30 01:30 10.04.2022
4308 Clouds 29 1013 79 10000 1.03 0 23:53 09.04.2022
4309 Clouds 26 1013 89 10000 2.06 330 22:52 09.04.2022
4310 Clouds 23 1013 94 10000 2.06 300 21:51 09.04.2022
4311 Clouds 23 1012 100 10000 0 0 20:58 09.04.2022
4312 Clouds 23 1012 100 10000 0 0 20:26 09.04.2022
4313 Clouds 23 1011 100 10000 0 0 19:43 09.04.2022
4314 Clouds 23 1011 100 10000 0 0 19:21 09.04.2022
4315 Clouds 23 1011 100 10000 2.06 310 18:22 09.04.2022
4316 Clouds 23 1011 100 10000 2.06 320 17:42 09.04.2022
4317 Clouds 24 1011 94 10000 1.54 310 16:55 09.04.2022
4318 Clouds 24 1011 94 10000 1.54 310 16:28 09.04.2022
4319 Clouds 24 1012 94 10000 0 0 15:48 09.04.2022
4320 Clouds 24 1012 100 10000 1.54 320 14:45 09.04.2022
4321 Clouds 24 1012 100 10000 1.54 320 14:24 09.04.2022
4322 Clouds 24 1012 100 10000 1.54 300 13:21 09.04.2022
4323 Clouds 25 1012 94 10000 1.03 320 12:52 09.04.2022
4324 Clouds 25 1012 94 10000 1.03 320 11:41 09.04.2022
4325 Clouds 26 1013 82 10000 2.4 63 10:21 09.04.2022
4326 Clouds 27 1011 83 10000 0.51 0 09:52 09.04.2022
4327 Clouds 29 1011 74 10000 2.06 70 08:57 09.04.2022
4328 Clouds 31 1010 58 10000 3.6 90 07:32 09.04.2022
4329 Clouds 31 1012 66 10000 5.14 70 02:58 09.04.2022
4330 Clouds 29 1013 84 10000 1.03 0 00:30 09.04.2022
4331 Clouds 27 1013 89 10000 2.57 320 22:58 08.04.2022
4332 Clouds 25 1012 100 10000 1.03 0 21:34 08.04.2022
4333 Clouds 25 1012 94 10000 1.03 0 20:41 08.04.2022
4334 Clouds 25 1012 94 10000 1.03 0 19:39 08.04.2022
4335 Clouds 25 1011 100 10000 1.03 0 18:31 08.04.2022
4336 Clouds 25 1011 100 10000 1.03 0 17:53 08.04.2022
4337 Clouds 25 1011 100 10000 1.03 0 17:26 08.04.2022
4338 Clouds 26 1012 94 10000 2.06 330 16:51 08.04.2022
4339 Drizzle 26 1012 94 10000 1.03 0 15:59 08.04.2022
4340 Drizzle 26 1012 94 10000 1.03 0 15:27 08.04.2022
4341 Drizzle 26 1013 100 10000 1.03 0 14:39 08.04.2022
4342 Clouds 26 1013 94 10000 0 0 13:48 08.04.2022
4343 Clouds 26 1013 94 10000 0 0 13:29 08.04.2022
4344 Clouds 26 1013 94 10000 0 0 12:32 08.04.2022
4345 Clouds 28 1012 89 10000 0 0 10:38 08.04.2022
4346 Clouds 28 1012 89 10000 2.06 60 09:39 08.04.2022
4347 Clouds 29 1011 79 10000 1.54 60 08:58 08.04.2022
4348 Clouds 29 1011 79 10000 3.09 80 07:31 08.04.2022
4349 Clouds 31 1010 66 10000 4.63 70 05:23 08.04.2022
4350 Clouds 31 1014 74 10000 4.12 80 01:45 08.04.2022
4351 Clouds 30 1014 79 10000 1.54 90 00:25 08.04.2022
4352 Clouds 26 1013 94 10000 1.54 330 22:59 07.04.2022
4353 Clouds 26 1013 94 10000 1.54 330 22:40 07.04.2022
4354 Clouds 26 1013 94 10000 1.54 330 22:22 07.04.2022
4355 Clouds 25 1013 100 10000 0 0 21:56 07.04.2022
4356 Clouds 25 1013 100 10000 0 0 21:19 07.04.2022
4357 Clouds 25 1012 100 10000 0 0 20:38 07.04.2022
4358 Clouds 25 1011 100 10000 0 0 18:48 07.04.2022
4359 Clouds 25 1011 100 10000 0 0 17:27 07.04.2022
4360 Clouds 25 1012 100 10000 1.03 320 16:45 07.04.2022
4361 Clouds 25 1012 100 10000 1.03 320 16:23 07.04.2022
4362 Clouds 26 1012 100 10000 0 0 14:50 07.04.2022
4363 Clouds 26 1013 94 10000 1.03 0 13:43 07.04.2022
4364 Clouds 26 1013 89 10000 1.03 0 12:58 07.04.2022
4365 Clouds 26 1013 89 10000 1.03 0 11:40 07.04.2022
4366 Clouds 28 1011 89 10000 1.54 70 09:42 07.04.2022
4367 Clouds 29 1011 84 10000 1.03 0 08:38 07.04.2022
4368 Clouds 30 1010 79 10000 3.6 80 06:57 07.04.2022
4369 Rain 30 1011 74 10000 2.06 40 02:58 07.04.2022
4370 Clouds 30 1011 74 10000 2.06 40 02:27 07.04.2022
4371 Rain 28 1013 78 10000 1.03 340 00:28 07.04.2022
4372 Clouds 25 1012 88 10000 2.06 320 22:52 06.04.2022
4373 Clouds 25 1012 88 10000 2.06 320 22:27 06.04.2022
4374 Clouds 23 1012 100 10000 1.54 320 21:45 06.04.2022
4375 Clouds 23 1011 100 10000 1.54 330 20:40 06.04.2022
4376 Clouds 23 1011 100 10000 2.06 320 19:54 06.04.2022
4377 Clouds 23 1011 100 10000 0 0 18:52 06.04.2022
4378 Clouds 23 1011 100 10000 0 0 18:32 06.04.2022
4379 Clouds 23 1011 100 10000 1.54 330 17:35 06.04.2022
4380 Clouds 23 1011 100 10000 1.54 330 17:35 06.04.2022
4381 Clouds 24 1011 94 10000 1.54 280 16:38 06.04.2022
4382 Clouds 24 1011 94 10000 0 0 15:48 06.04.2022
4383 Clouds 24 1011 94 10000 0 0 15:21 06.04.2022
4384 Clouds 24 1012 94 10000 0 0 13:25 06.04.2022
4385 Clouds 25 1012 94 10000 0 0 12:27 06.04.2022
4386 Clouds 26 1012 83 10000 1.54 330 10:48 06.04.2022
4387 Clouds 26 1012 83 10000 1.54 330 10:29 06.04.2022
4388 Clouds 26 1011 83 10000 0 0 09:40 06.04.2022
4389 Rain 27 1010 78 10000 2.06 20 08:32 06.04.2022
4390 Clouds 28 1010 78 10000 3.6 10 07:50 06.04.2022
4391 Clouds 29 1010 74 10000 7.2 330 03:54 06.04.2022
4392 Rain 25 1012 94 10000 5.14 30 23:53 05.04.2022
4393 Rain 25 1012 88 10000 3.09 100 22:58 05.04.2022
4394 Clouds 24 1011 89 10000 3.2 6 21:23 05.04.2022
4395 Clouds 23 1010 100 10000 2.06 330 20:26 05.04.2022
4396 Clouds 23 1009 100 10000 0 0 19:47 05.04.2022
4397 Clouds 24 1010 89 10000 2.83 10 18:18 05.04.2022
4398 Clouds 24 1010 100 10000 1.03 0 16:54 05.04.2022
4399 Clouds 25 1011 94 10000 0 0 15:57 05.04.2022
4400 Clouds 25 1011 94 10000 0 0 15:34 05.04.2022
4401 Clouds 25 1011 94 10000 0 0 14:36 05.04.2022
4402 Clouds 25 1011 94 10000 0 0 13:35 05.04.2022
4403 Clouds 25 1011 94 10000 0 0 11:51 05.04.2022
4404 Clouds 25 1011 94 10000 0 0 11:51 05.04.2022
4405 Clouds 25 1011 94 10000 0 0 11:32 05.04.2022
4406 Clouds 26 1011 83 10000 1.68 9 09:59 05.04.2022
4407 Clouds 29 1009 79 10000 2.06 60 08:54 05.04.2022
4408 Clouds 31 1008 66 10000 5.14 50 06:58 05.04.2022
4409 Clouds 30 1011 70 10000 3.09 40 01:55 05.04.2022
4410 Clouds 25 1010 88 10000 0 0 22:42 04.04.2022
4411 Clouds 25 1010 88 10000 0 0 22:24 04.04.2022
4412 Clouds 23 1010 94 10000 0 0 21:21 04.04.2022
4413 Clouds 23 1009 94 10000 2.57 320 20:49 04.04.2022
4414 Clouds 23 1009 94 10000 3.09 300 19:57 04.04.2022
4415 Clouds 23 1009 94 10000 3.09 300 19:26 04.04.2022
4416 Clouds 23 1009 94 10000 2.06 340 18:33 04.04.2022
4417 Clouds 23 1010 100 10000 1.54 320 16:36 04.04.2022
4418 Clouds 23 1011 100 10000 0 0 15:43 04.04.2022
4419 Clouds 23 1011 100 10000 0 0 15:25 04.04.2022
4420 Clouds 23 1011 100 10000 1.54 330 14:46 04.04.2022
4421 Clouds 23 1012 100 10000 0 0 13:30 04.04.2022
4422 Clouds 23 1012 100 10000 2.57 350 11:55 04.04.2022
4423 Clouds 23 1012 100 10000 2.57 350 11:29 04.04.2022
4424 Rain 24 1010 94 10000 6.69 270 08:54 04.04.2022
4425 Clouds 30 1009 66 10000 4.63 50 04:18 04.04.2022
4426 Clouds 30 1011 66 10000 1.03 0 00:44 04.04.2022
4427 Clouds 26 1012 89 10000 2.57 320 22:40 03.04.2022
4428 Clouds 24 1012 94 10000 2.06 340 21:46 03.04.2022
4429 Clouds 23 1011 100 10000 1.54 30 20:55 03.04.2022
4430 Clouds 24 1011 94 10000 1.03 0 19:50 03.04.2022
4431 Clouds 24 1011 94 10000 2.06 300 18:32 03.04.2022
4432 Clouds 24 1012 94 10000 2.06 330 17:47 03.04.2022
4433 Clouds 24 1012 94 10000 2.57 340 16:57 03.04.2022
4434 Clouds 24 1012 94 10000 2.57 340 16:39 03.04.2022
4435 Clouds 25 1013 94 10000 2.06 40 14:48 03.04.2022
4436 Clouds 24 1012 94 10000 0 0 13:53 03.04.2022
4437 Clouds 25 1013 88 10000 0 0 12:42 03.04.2022
4438 Clouds 25 1012 88 10000 2.06 340 10:58 03.04.2022
4439 Clouds 25 1011 94 10000 3.09 340 09:38 03.04.2022
4440 Clouds 27 1010 83 10000 2.57 300 08:33 03.04.2022
4441 Clouds 29 1009 70 10000 1.54 60 05:38 03.04.2022
4442 Clouds 29 1013 79 10000 2.06 320 01:54 03.04.2022
4443 Clouds 27 1013 83 10000 3.09 350 23:21 02.04.2022
4444 Clouds 25 1012 94 10000 2.06 310 22:18 02.04.2022
4445 Clouds 24 1012 100 10000 0 0 21:46 02.04.2022
4446 Clouds 24 1012 100 10000 0 0 21:18 02.04.2022
4447 Clouds 24 1011 100 10000 2.06 300 19:54 02.04.2022
4448 Clouds 24 1011 100 10000 1.03 340 18:23 02.04.2022
4449 Clouds 24 1012 100 10000 1.54 330 17:53 02.04.2022
4450 Rain 24 1012 100 10000 1.54 320 16:27 02.04.2022
4451 Clouds 24 1012 100 10000 0 0 15:22 02.04.2022
4452 Clouds 25 1013 94 10000 0 0 14:49 02.04.2022
4453 Clouds 25 1013 94 10000 1.03 0 13:36 02.04.2022
4454 Clouds 25 1013 94 10000 1.03 0 12:47 02.04.2022
4455 Clouds 25 1012 94 10000 2.06 210 11:31 02.04.2022
4456 Clouds 25 1012 94 10000 1.54 230 09:30 02.04.2022
4457 Clouds 29 1010 79 10000 4.12 60 06:51 02.04.2022
4458 Clouds 29 1010 79 10000 4.12 60 06:51 02.04.2022
4459 Clouds 29 1011 79 10000 6.17 60 03:53 02.04.2022
4460 Clouds 29 1012 74 10000 3.09 10 00:19 02.04.2022
4461 Clouds 27 1012 83 10000 2.06 10 23:40 01.04.2022
4462 Clouds 24 1012 94 10000 1.03 0 21:52 01.04.2022
4463 Clouds 23 1011 100 10000 2.06 340 20:52 01.04.2022
4464 Clouds 23 1011 100 10000 2.06 340 20:30 01.04.2022
4465 Clouds 23 1010 100 10000 1.54 340 19:37 01.04.2022
4466 Clouds 24 1010 94 10000 1.54 340 18:50 01.04.2022
4467 Clouds 24 1011 100 10000 1.03 350 17:54 01.04.2022
4468 Clouds 24 1011 100 10000 1.03 350 17:34 01.04.2022
4469 Clouds 24 1012 100 10000 2.06 340 15:42 01.04.2022
4470 Rain 24 1012 100 10000 2.06 320 14:26 01.04.2022
4471 Clouds 25 1012 94 10000 2.06 330 13:34 01.04.2022
4472 Rain 25 1012 94 10000 1.54 340 12:33 01.04.2022
4473 Rain 25 1012 94 10000 2.57 70 11:44 01.04.2022
4474 Rain 24 1012 88 10000 4.61 4 10:19 01.04.2022
4475 Rain 24 1011 87 10000 4.59 6 09:19 01.04.2022
4476 Clouds 26 1009 89 10000 1.54 10 06:54 01.04.2022
4477 Clouds 28 1010 78 10000 5.14 10 04:51 01.04.2022
4478 Clouds 28 1010 78 10000 5.14 10 04:33 01.04.2022
4479 Clouds 26 1011 94 10000 3.6 360 01:57 01.04.2022
4480 Clouds 25 1012 94 10000 4.12 40 23:58 31.03.2022
4481 Clouds 24 1010 100 10000 0 0 21:53 31.03.2022
4482 Clouds 24 1010 100 10000 0 0 21:32 31.03.2022
4483 Rain 24 1010 94 10000 0 0 20:29 31.03.2022
4484 Clouds 24 1009 94 10000 0 0 19:50 31.03.2022
4485 Clouds 24 1009 100 10000 0 0 18:46 31.03.2022
4486 Clouds 24 1009 94 10000 0 0 17:50 31.03.2022
4487 Rain 24 1009 94 10000 0 0 16:38 31.03.2022
4488 Rain 24 1010 94 10000 0 0 15:45 31.03.2022
4489 Rain 24 1010 94 10000 0 0 15:19 31.03.2022
4490 Clouds 24 1010 94 10000 3.09 340 14:36 31.03.2022
4491 Clouds 25 1011 94 10000 2.57 340 12:19 31.03.2022
4492 Clouds 25 1011 100 10000 4.63 10 11:22 31.03.2022
4493 Rain 25 1009 100 10000 5.14 20 09:45 31.03.2022
4494 Rain 25 1009 100 10000 5.14 20 09:45 31.03.2022
4495 Rain 29 1008 79 10000 3.6 50 07:59 31.03.2022
4496 Clouds 28 1007 89 10000 0 0 05:23 31.03.2022
4497 Clouds 26 1010 89 10000 3.09 360 23:58 30.03.2022
4498 Clouds 26 1010 89 10000 2.06 330 22:43 30.03.2022
4499 Clouds 25 1009 94 10000 1.03 0 21:39 30.03.2022
4500 Rain 25 1008 94 10000 2.06 310 20:54 30.03.2022
4501 Rain 25 1008 86 10000 0.62 352 20:20 30.03.2022
4502 Rain 25 1008 86 10000 0.62 352 20:20 30.03.2022
4503 Clouds 25 1008 89 10000 2.86 360 19:19 30.03.2022
4504 Clouds 25 1008 88 10000 2.23 18 18:19 30.03.2022
4505 Clouds 24 1008 100 10000 2.57 340 17:45 30.03.2022
4506 Clouds 24 1008 100 10000 2.06 320 16:56 30.03.2022
4507 Clouds 24 1008 100 10000 2.06 320 16:32 30.03.2022
4508 Clouds 25 1009 100 10000 1.03 330 14:59 30.03.2022
4509 Clouds 25 1010 94 10000 1.54 280 13:35 30.03.2022
4510 Rain 26 1010 88 10000 3.48 56 12:42 30.03.2022
4511 Rain 26 1009 94 10000 1.03 0 10:58 30.03.2022
4512 Clouds 27 1008 89 10000 0 0 09:59 30.03.2022
4513 Rain 26 1009 88 10000 3.25 78 09:20 30.03.2022
4514 Clouds 28 1007 83 10000 2.57 70 07:31 30.03.2022
4515 Clouds 30 1007 74 10000 4.63 40 05:40 30.03.2022
4516 Clouds 30 1008 70 10000 4.63 50 03:31 30.03.2022
4517 Clouds 30 1010 74 10000 1.54 40 23:42 29.03.2022
4518 Clouds 27 1010 89 10000 2.57 320 22:20 29.03.2022
4519 Clouds 25 1009 94 10000 1.03 0 21:44 29.03.2022
4520 Clouds 24 1008 100 10000 2.06 330 20:49 29.03.2022
4521 Clouds 24 1008 100 10000 1.03 0 19:47 29.03.2022
4522 Clouds 25 1008 94 10000 1.03 0 18:54 29.03.2022
4523 Clouds 25 1008 94 10000 1.03 0 18:18 29.03.2022
4524 Clouds 25 1008 94 10000 2.06 80 17:21 29.03.2022
4525 Clouds 25 1008 94 10000 1.54 320 16:56 29.03.2022
4526 Clouds 25 1009 94 10000 1.54 350 15:57 29.03.2022
4527 Clouds 26 1009 89 10000 1.03 0 14:44 29.03.2022
4528 Clouds 26 1010 89 10000 1.48 85 13:52 29.03.2022
4529 Clouds 26 1010 89 10000 1.03 0 12:46 29.03.2022
4530 Clouds 27 1010 83 10000 1.03 0 11:28 29.03.2022
4531 Clouds 26 1011 79 10000 2.4 78 10:23 29.03.2022
4532 Clouds 28 1008 74 10000 2.57 120 08:57 29.03.2022
4533 Clouds 30 1007 70 10000 3.6 110 06:54 29.03.2022
4534 Clouds 30 1009 70 10000 4.12 90 03:19 29.03.2022
4535 Rain 28 1011 83 10000 1.03 0 23:46 28.03.2022
4536 Rain 25 1010 100 10000 1.03 320 22:58 28.03.2022
4537 Rain 25 1010 100 10000 1.03 320 22:58 28.03.2022
4538 Clouds 25 1010 100 10000 1.03 320 22:35 28.03.2022
4539 Clouds 24 1009 100 10000 1.54 320 21:48 28.03.2022
4540 Clouds 24 1009 94 10000 1.03 310 20:41 28.03.2022
4541 Clouds 24 1008 94 10000 1.03 340 19:59 28.03.2022
4542 Clouds 24 1008 94 10000 1.03 340 19:40 28.03.2022
4543 Clouds 25 1008 94 10000 2.06 310 18:51 28.03.2022
4544 Clouds 25 1008 94 10000 1.03 310 17:41 28.03.2022
4545 Clouds 25 1009 94 10000 1.54 300 16:58 28.03.2022
4546 Clouds 25 1009 94 10000 2.57 330 15:35 28.03.2022
4547 Clouds 25 1010 94 10000 1.54 300 14:24 28.03.2022
4548 Clouds 24 1010 94 10000 2.06 320 13:19 28.03.2022
4549 Clouds 25 1010 88 10000 1.03 0 11:52 28.03.2022
4550 Clouds 27 1009 78 10000 1.03 0 09:58 28.03.2022
4551 Clouds 27 1009 78 10000 1.03 0 09:21 28.03.2022
4552 Clouds 28 1008 74 10000 2.57 90 08:39 28.03.2022
4553 Clouds 28 1008 74 10000 2.57 90 08:18 28.03.2022
4554 Clouds 30 1007 66 10000 3.6 80 06:31 28.03.2022
4555 Clouds 29 1009 74 10000 1.03 0 00:30 28.03.2022
4556 Clouds 25 1009 88 10000 1.54 330 22:36 27.03.2022
4557 Clouds 24 1009 94 10000 2.06 320 21:43 27.03.2022
4558 Clouds 24 1010 77 10000 1.02 30 21:18 27.03.2022
4559 Clouds 22 1008 100 10000 2.06 330 20:24 27.03.2022
4560 Clouds 22 1008 100 10000 1.54 310 19:37 27.03.2022
4561 Clouds 23 1008 94 10000 0 0 18:42 27.03.2022
4562 Clouds 24 1009 79 10000 1.14 61 18:23 27.03.2022
4563 Clouds 23 1008 94 10000 0 0 17:35 27.03.2022
4564 Clouds 23 1009 94 10000 2.57 310 15:47 27.03.2022
4565 Clouds 24 1010 94 10000 1.03 340 13:58 27.03.2022
4566 Clouds 24 1010 94 10000 1.03 340 13:20 27.03.2022
4567 Clouds 24 1010 94 10000 0 0 11:33 27.03.2022
4568 Clouds 27 1009 78 10000 0 0 09:37 27.03.2022
4569 Clouds 28 1008 69 10000 3.6 120 07:31 27.03.2022
4570 Clouds 29 1009 70 10000 3.6 120 03:45 27.03.2022
4571 Clouds 29 1010 74 10000 2.57 140 00:26 27.03.2022
4572 Clouds 29 1010 79 10000 2.06 130 22:49 26.03.2022
4573 Clouds 26 1010 89 10000 0 0 21:54 26.03.2022
4574 Clouds 26 1010 89 10000 0 0 21:29 26.03.2022
4575 Clouds 23 1009 100 10000 2.06 300 19:32 26.03.2022
4576 Clouds 23 1009 100 10000 2.06 300 19:32 26.03.2022
4577 Clouds 24 1008 94 10000 0 0 18:40 26.03.2022
4578 Clouds 24 1008 100 10000 1.03 0 17:34 26.03.2022
4579 Clouds 24 1008 94 10000 0 0 16:33 26.03.2022
4580 Clouds 24 1009 94 10000 0 0 15:39 26.03.2022
4581 Clouds 25 1010 94 10000 0 0 13:56 26.03.2022
4582 Clouds 25 1010 94 10000 0 0 13:20 26.03.2022
4583 Clouds 26 1010 89 10000 0 0 11:48 26.03.2022
4584 Clouds 26 1010 89 10000 0 0 10:44 26.03.2022
4585 Clouds 27 1009 83 10000 0 0 08:46 26.03.2022
4586 Clouds 28 1007 83 10000 4.12 110 06:38 26.03.2022
4587 Clouds 28 1007 83 10000 1.54 130 05:29 26.03.2022
4588 Clouds 25 1009 94 10000 3.09 120 00:54 26.03.2022
4589 Clouds 25 1009 94 10000 1.54 340 21:58 25.03.2022
4590 Clouds 24 1008 100 10000 1.03 320 20:47 25.03.2022
4591 Clouds 24 1008 100 10000 1.03 320 20:24 25.03.2022
4592 Clouds 24 1007 100 10000 2.06 310 18:59 25.03.2022
4593 Clouds 25 1008 84 10000 2.43 135 18:22 25.03.2022
4594 Clouds 24 1007 94 10000 1.54 310 17:28 25.03.2022
4595 Clouds 25 1008 84 10000 2.48 152 16:21 25.03.2022
4596 Clouds 24 1008 100 10000 2.06 300 14:54 25.03.2022
4597 Clouds 24 1008 100 10000 2.06 320 13:26 25.03.2022
4598 Rain 25 1008 94 10000 2.57 280 10:49 25.03.2022
4599 Rain 25 1008 94 10000 0 0 09:28 25.03.2022
4600 Clouds 25 1007 94 10000 0 0 08:36 25.03.2022
4601 Clouds 25 1007 94 10000 1.03 0 07:30 25.03.2022
4602 Rain 27 1006 83 10000 3.09 310 06:29 25.03.2022
4603 Rain 27 1008 83 10000 2.06 310 01:57 25.03.2022
4604 Clouds 27 1009 83 10000 2.06 300 22:55 24.03.2022
4605 Clouds 26 1009 89 10000 3.09 320 21:52 24.03.2022
4606 Clouds 25 1008 94 10000 2.57 320 20:40 24.03.2022
4607 Clouds 24 1008 100 10000 2.06 330 19:48 24.03.2022
4608 Clouds 24 1008 100 10000 1.03 0 17:50 24.03.2022
4609 Clouds 24 1008 100 10000 1.03 0 17:29 24.03.2022
4610 Rain 25 1008 94 10000 2.57 320 15:52 24.03.2022
4611 Rain 24 1009 100 10000 1.54 310 14:50 24.03.2022
4612 Rain 24 1009 100 10000 1.54 310 14:20 24.03.2022
4613 Clouds 25 1009 94 10000 2.06 330 13:24 24.03.2022
4614 Clouds 25 1010 100 10000 0.51 0 11:52 24.03.2022
4615 Clouds 25 1010 88 10000 4.34 256 10:18 24.03.2022
4616 Rain 25 1009 100 10000 1.03 280 08:49 24.03.2022
4617 Rain 25 1008 94 10000 0.51 0 06:55 24.03.2022
4618 Clouds 24 1009 100 10000 1.03 0 03:59 24.03.2022
4619 Rain 30 1010 74 10000 3.6 340 23:20 23.03.2022
4620 Clouds 26 1010 89 10000 2.06 330 21:45 23.03.2022
4621 Clouds 26 1010 89 10000 2.06 330 21:20 23.03.2022
4622 Clouds 24 1009 100 10000 1.54 340 19:46 23.03.2022
4623 Clouds 25 1009 94 10000 2.06 320 18:55 23.03.2022
4624 Clouds 25 1009 94 10000 1.54 310 17:37 23.03.2022
4625 Clouds 25 1009 94 10000 0 0 16:39 23.03.2022
4626 Rain 25 1010 94 10000 1.03 0 14:51 23.03.2022
4627 Clouds 25 1010 94 10000 1.03 0 14:26 23.03.2022
4628 Rain 26 1011 89 10000 1.03 0 12:54 23.03.2022
4629 Clouds 26 1010 89 10000 0 0 09:45 23.03.2022
4630 Clouds 27 1009 89 10000 2.06 360 06:48 23.03.2022
4631 Drizzle 27 1009 89 10000 2.57 340 05:23 23.03.2022
4632 Clouds 31 1010 70 10000 4.63 340 00:29 23.03.2022
4633 Clouds 31 1010 70 10000 3.6 360 23:39 22.03.2022
4634 Clouds 26 1010 94 10000 2.57 320 21:30 22.03.2022
4635 Clouds 25 1010 94 10000 2.06 320 20:45 22.03.2022
4636 Clouds 25 1009 94 10000 1.54 330 19:43 22.03.2022
4637 Clouds 25 1010 85 10000 2 286 19:18 22.03.2022
4638 Clouds 25 1009 94 10000 1.54 330 18:31 22.03.2022
4639 Clouds 25 1008 94 10000 0 0 17:29 22.03.2022
4640 Clouds 25 1009 86 10000 2.46 320 16:21 22.03.2022
4641 Clouds 25 1009 86 10000 2.59 322 15:22 22.03.2022
4642 Clouds 25 1010 94 10000 2.06 300 14:46 22.03.2022
4643 Clouds 25 1010 94 10000 2.06 300 14:27 22.03.2022
4644 Clouds 25 1010 94 10000 1.03 310 13:35 22.03.2022
4645 Clouds 26 1010 89 10000 0 0 11:52 22.03.2022
4646 Clouds 27 1010 83 10000 1.54 30 10:40 22.03.2022
4647 Clouds 28 1009 78 10000 2.57 20 08:29 22.03.2022
4648 Clouds 30 1008 70 10000 4.12 10 05:25 22.03.2022
4649 Clouds 31 1008 70 10000 4.12 40 03:47 22.03.2022
4650 Clouds 26 1011 81 10000 2.53 3 00:22 22.03.2022
4651 Clouds 29 1010 79 10000 4.12 360 22:29 21.03.2022
4652 Clouds 25 1010 94 10000 2.06 330 20:54 21.03.2022
4653 Clouds 25 1010 94 10000 2.06 330 20:54 21.03.2022
4654 Clouds 25 1010 94 10000 2.06 330 20:34 21.03.2022
4655 Clouds 24 1009 100 10000 2.57 330 19:58 21.03.2022
4656 Clouds 24 1009 100 10000 2.57 330 19:27 21.03.2022
4657 Clouds 25 1010 87 10000 3.22 352 18:18 21.03.2022
4658 Clouds 25 1009 88 10000 3.22 349 17:18 21.03.2022
4659 Clouds 24 1009 100 10000 1.54 0 16:44 21.03.2022
4660 Clouds 25 1009 94 10000 2.06 330 15:52 21.03.2022
4661 Clouds 25 1009 88 10000 3.41 350 15:19 21.03.2022
4662 Clouds 26 1010 94 10000 2.06 330 13:58 21.03.2022
4663 Clouds 27 1010 89 10000 1.54 290 12:35 21.03.2022
4664 Clouds 27 1010 89 10000 0 0 11:45 21.03.2022
4665 Clouds 28 1010 78 10000 0 0 10:36 21.03.2022
4666 Clouds 29 1009 79 10000 0 0 08:30 21.03.2022
4667 Clouds 30 1008 70 10000 2.06 340 06:48 21.03.2022
4668 Clouds 30 1009 79 10000 2.06 70 02:51 21.03.2022
4669 Rain 27 1011 83 10000 2.57 270 23:43 20.03.2022
4670 Clouds 27 1011 83 10000 2.06 330 22:44 20.03.2022
4671 Rain 26 1011 89 10000 1.54 340 21:51 20.03.2022
4672 Rain 24 1012 83 10000 3 17 21:23 20.03.2022
4673 Clouds 24 1011 94 10000 1.54 310 20:43 20.03.2022
4674 Rain 24 1010 94 10000 1.03 0 19:59 20.03.2022
4675 Clouds 24 1010 94 10000 1.03 0 19:28 20.03.2022
4676 Clouds 24 1010 84 10000 2.77 304 18:19 20.03.2022
4677 Rain 24 1010 94 10000 1.54 330 17:33 20.03.2022
4678 Rain 24 1010 94 10000 1.54 330 17:33 20.03.2022
4679 Clouds 23 1009 94 10000 2.57 320 16:57 20.03.2022
4680 Clouds 23 1010 94 10000 1.03 0 15:28 20.03.2022
4681 Rain 25 1011 82 10000 2.06 312 14:23 20.03.2022
4682 Rain 25 1012 94 10000 1.54 320 12:29 20.03.2022
4683 Rain 25 1012 81 10000 3.06 326 11:22 20.03.2022
4684 Rain 28 1010 83 10000 1.03 0 08:59 20.03.2022
4685 Clouds 29 1009 74 10000 2.06 30 07:26 20.03.2022
4686 Rain 31 1008 74 10000 6.17 360 04:23 20.03.2022
4687 Rain 31 1010 62 10000 6.17 10 01:29 20.03.2022
4688 Clouds 30 1010 70 10000 6.17 340 00:39 20.03.2022
4689 Clouds 25 1011 87 10000 5.05 360 23:19 19.03.2022
4690 Clouds 26 1010 89 10000 3.09 350 21:27 19.03.2022
4691 Clouds 25 1010 94 10000 2.57 360 20:39 19.03.2022
4692 Clouds 24 1009 100 10000 3.6 360 18:58 19.03.2022
4693 Clouds 24 1009 100 10000 3.6 360 18:23 19.03.2022
4694 Clouds 24 1009 94 10000 2.06 10 17:35 19.03.2022
4695 Clouds 24 1010 94 10000 2.57 330 15:43 19.03.2022
4696 Clouds 24 1010 94 10000 3.09 350 14:33 19.03.2022
4697 Clouds 24 1011 94 10000 3.09 340 12:58 19.03.2022
4698 Clouds 24 1011 94 10000 3.09 340 12:38 19.03.2022
4699 Clouds 25 1011 88 10000 2.57 10 11:51 19.03.2022
4700 Clouds 25 1010 88 10000 1.03 0 10:45 19.03.2022
4701 Rain 28 1008 78 10000 2.57 350 06:29 19.03.2022
4702 Rain 29 1008 79 10000 2.06 320 03:24 19.03.2022
4703 Rain 27 1009 83 10000 2.57 290 01:41 19.03.2022
4704 Rain 26 1009 94 10000 1.03 0 23:36 18.03.2022
4705 Rain 26 1009 94 10000 1.54 300 22:26 18.03.2022
4706 Rain 24 1008 94 10000 0 0 21:19 18.03.2022
4707 Rain 24 1007 94 10000 1.03 0 19:50 18.03.2022
4708 Rain 24 1007 94 10000 1.03 0 19:21 18.03.2022
4709 Rain 24 1007 94 10000 1.03 0 19:21 18.03.2022
4710 Clouds 23 1006 100 10000 1.03 0 17:43 18.03.2022
4711 Clouds 23 1006 100 10000 1.03 10 16:47 18.03.2022
4712 Clouds 23 1007 100 10000 1.54 310 14:45 18.03.2022
4713 Clouds 23 1007 100 10000 1.54 310 14:20 18.03.2022
4714 Clouds 24 1009 94 10000 3.6 360 12:26 18.03.2022
4715 Clouds 24 1010 100 10000 2.06 10 10:47 18.03.2022
4716 Rain 25 1010 94 10000 2.06 360 09:28 18.03.2022
4717 Rain 26 1008 89 10000 4.12 300 07:59 18.03.2022
4718 Rain 27 1007 89 10000 2.57 310 06:34 18.03.2022
4719 Rain 30 1008 70 10000 5.14 350 02:51 18.03.2022
4720 Rain 30 1009 74 10000 5.14 330 00:22 18.03.2022
4721 Clouds 30 1009 74 10000 2.06 330 23:20 17.03.2022
4722 Clouds 28 1010 83 10000 3.09 340 22:23 17.03.2022
4723 Clouds 26 1009 89 10000 2.06 340 21:48 17.03.2022
4724 Clouds 26 1010 83 10000 2.8 334 21:20 17.03.2022
4725 Clouds 23 1009 100 10000 2.57 320 20:41 17.03.2022
4726 Clouds 23 1008 94 10000 2.06 330 19:45 17.03.2022
4727 Clouds 23 1008 94 10000 1.54 350 18:57 17.03.2022
4728 Clouds 24 1008 94 10000 2.06 330 17:56 17.03.2022
4729 Clouds 24 1008 94 10000 1.54 350 16:43 17.03.2022
4730 Clouds 24 1009 94 10000 0 0 15:44 17.03.2022
4731 Clouds 25 1009 86 10000 2.28 341 15:22 17.03.2022
4732 Rain 24 1011 94 10000 1.54 360 13:49 17.03.2022
4733 Clouds 23 1011 100 10000 3.09 350 12:49 17.03.2022
4734 Clouds 24 1011 94 10000 3.09 320 11:53 17.03.2022
4735 Clouds 24 1011 94 10000 3.09 320 11:22 17.03.2022
4736 Clouds 24 1011 94 10000 1.03 0 09:47 17.03.2022
4737 Clouds 24 1010 94 10000 2.06 330 08:31 17.03.2022
4738 Clouds 23 1010 100 10000 2.06 220 07:32 17.03.2022
4739 Clouds 27 1009 89 800 4.12 190 05:39 17.03.2022
4740 Clouds 27 1009 89 800 4.12 190 05:39 17.03.2022
4741 Clouds 31 1012 66 10000 3.09 50 00:42 17.03.2022
4742 Clouds 29 1012 79 10000 2.57 330 22:59 16.03.2022
4743 Clouds 29 1012 79 10000 2.57 330 22:39 16.03.2022
4744 Clouds 27 1012 82 10000 3 8 22:19 16.03.2022
4745 Clouds 26 1012 87 10000 2.86 3 21:18 16.03.2022
4746 Clouds 25 1011 88 10000 2.98 11 19:25 16.03.2022
4747 Clouds 24 1011 100 10000 0 0 18:55 16.03.2022
4748 Clouds 25 1011 87 10000 1.75 28 18:20 16.03.2022
4749 Clouds 24 1010 100 10000 3.09 350 17:37 16.03.2022
4750 Clouds 24 1010 100 10000 2.06 330 16:49 16.03.2022
4751 Clouds 25 1011 94 10000 1.03 0 15:35 16.03.2022
4752 Clouds 26 1012 94 10000 2.06 90 13:41 16.03.2022
4753 Clouds 25 1014 94 10000 1.03 0 12:57 16.03.2022
4754 Thunderstorm 25 1014 94 10000 0 0 11:26 16.03.2022
4755 Thunderstorm 25 1013 94 10000 2.57 230 10:43 16.03.2022
4756 Rain 26 1012 94 10000 2.57 220 09:58 16.03.2022
4757 Rain 27 1012 89 10000 2.06 200 08:33 16.03.2022
4758 Clouds 32 1010 66 10000 4.63 40 03:30 16.03.2022
4759 Clouds 30 1012 74 10000 2.57 360 23:37 15.03.2022
4760 Clouds 28 1012 89 10000 2.57 330 22:36 15.03.2022
4761 Clouds 26 1011 89 10000 2.57 330 21:27 15.03.2022
4762 Clouds 25 1010 94 10000 2.57 340 19:47 15.03.2022
4763 Clouds 25 1010 100 10000 1.54 340 18:35 15.03.2022
4764 Rain 25 1011 100 10000 1.03 0 16:42 15.03.2022
4765 Rain 26 1012 94 10000 1.54 300 15:42 15.03.2022
4766 Rain 26 1012 94 10000 1.54 270 14:54 15.03.2022
4767 Clouds 26 1012 94 10000 1.03 0 13:57 15.03.2022
4768 Rain 26 1012 94 10000 1.03 0 13:23 15.03.2022
4769 Clouds 26 1013 100 10000 1.03 0 11:34 15.03.2022
4770 Clouds 26 1012 94 10000 0 0 10:55 15.03.2022
4771 Clouds 27 1011 94 10000 1.54 0 09:29 15.03.2022
4772 Clouds 27 1012 83 10000 3.17 44 08:27 15.03.2022
4773 Clouds 30 1009 74 10000 2.57 40 07:38 15.03.2022
4774 Clouds 31 1009 70 10000 3.6 30 06:32 15.03.2022
4775 Clouds 32 1011 62 10000 4.12 60 00:58 15.03.2022
4776 Clouds 31 1011 70 10000 3.6 40 23:30 14.03.2022
4777 Clouds 29 1012 79 10000 3.09 330 22:50 14.03.2022
4778 Clouds 26 1012 89 10000 2.57 340 21:53 14.03.2022
4779 Clouds 24 1011 100 10000 2.06 310 20:59 14.03.2022
4780 Clouds 24 1011 100 10000 2.06 310 20:28 14.03.2022
4781 Clouds 24 1011 94 10000 1.54 330 19:32 14.03.2022
4782 Clouds 24 1010 94 10000 2.57 320 17:58 14.03.2022
4783 Clouds 24 1010 94 10000 2.57 320 17:40 14.03.2022
4784 Clouds 24 1010 100 10000 2.06 330 16:33 14.03.2022
4785 Clouds 24 1012 100 10000 1.03 0 14:48 14.03.2022
4786 Clouds 25 1012 94 10000 1.03 0 13:29 14.03.2022
4787 Clouds 25 1012 94 10000 2.06 320 11:26 14.03.2022
4788 Rain 26 1011 94 10000 1.54 340 09:57 14.03.2022
4789 Rain 26 1011 94 10000 1.54 340 09:34 14.03.2022
4790 Rain 26 1010 94 10000 1.03 0 08:57 14.03.2022
4791 Rain 26 1010 94 10000 1.03 0 08:26 14.03.2022
4792 Rain 27 1010 80 10000 1.95 169 06:19 14.03.2022
4793 Clouds 31 1010 70 10000 2.06 70 02:59 14.03.2022
4794 Clouds 31 1011 70 10000 2.57 360 01:39 14.03.2022
4795 Clouds 27 1012 89 10000 1.03 0 23:41 13.03.2022
4796 Clouds 25 1012 94 10000 1.03 10 21:46 13.03.2022
4797 Clouds 25 1012 94 10000 1.03 10 21:21 13.03.2022
4798 Clouds 24 1010 100 10000 1.03 310 20:46 13.03.2022
4799 Clouds 24 1010 100 10000 1.03 310 20:21 13.03.2022
4800 Clouds 23 1010 100 10000 2.06 300 19:41 13.03.2022
4801 Clouds 23 1010 100 10000 2.06 300 19:21 13.03.2022
4802 Clouds 24 1010 94 10000 1.03 0 18:41 13.03.2022
4803 Clouds 24 1010 94 10000 1.03 0 18:22 13.03.2022
4804 Clouds 24 1010 94 10000 1.54 330 17:36 13.03.2022
4805 Clouds 24 1010 100 10000 1.54 310 16:44 13.03.2022
4806 Clouds 24 1010 100 10000 1.54 310 16:21 13.03.2022
4807 Clouds 24 1010 100 10000 2.06 330 15:36 13.03.2022
4808 Clouds 24 1011 100 10000 3.09 330 14:20 13.03.2022
4809 Clouds 24 1011 100 10000 2.06 320 13:27 13.03.2022
4810 Clouds 25 1012 94 10000 2.06 350 12:20 13.03.2022
4811 Clouds 25 1013 94 10000 2.06 310 11:36 13.03.2022
4812 Clouds 25 1013 94 10000 2.06 310 11:36 13.03.2022
4813 Clouds 25 1012 94 10000 2.06 320 10:49 13.03.2022
4814 Clouds 25 1012 94 10000 2.06 320 10:25 13.03.2022
4815 Clouds 25 1012 94 10000 1.54 310 09:41 13.03.2022
4816 Rain 25 1011 94 10000 2.57 350 08:48 13.03.2022
4817 Rain 25 1011 94 10000 2.57 350 08:21 13.03.2022
4818 Rain 28 1010 83 10000 2.06 190 05:59 13.03.2022
4819 Clouds 31 1009 70 10000 3.09 140 03:33 13.03.2022
4820 Clouds 31 1012 70 10000 1.03 0 00:48 13.03.2022
4821 Clouds 28 1012 74 10000 2.06 320 22:47 12.03.2022
4822 Clouds 24 1012 94 10000 1.54 310 20:59 12.03.2022
4823 Clouds 23 1011 100 10000 1.54 320 19:57 12.03.2022
4824 Clouds 23 1011 100 10000 1.54 320 19:57 12.03.2022
4825 Clouds 23 1011 100 10000 1.54 320 19:38 12.03.2022
4826 Clouds 25 1011 85 10000 0.77 333 18:29 12.03.2022
4827 Clouds 24 1010 100 10000 0 0 17:39 12.03.2022
4828 Clouds 24 1010 100 10000 0 0 16:24 12.03.2022
4829 Clouds 24 1010 100 10000 1.54 340 15:24 12.03.2022
4830 Clouds 24 1010 100 10000 1.54 340 15:24 12.03.2022
4831 Clouds 24 1011 100 10000 1.03 320 14:51 12.03.2022
4832 Clouds 24 1011 100 10000 2.06 340 13:47 12.03.2022
4833 Clouds 25 1012 100 10000 0 0 12:18 12.03.2022
4834 Clouds 25 1012 94 10000 1.03 350 11:45 12.03.2022
4835 Clouds 25 1012 94 10000 1.03 350 11:19 12.03.2022
4836 Clouds 25 1011 94 10000 2.06 300 09:47 12.03.2022
4837 Clouds 25 1011 94 10000 2.06 300 09:20 12.03.2022
4838 Clouds 25 1009 94 10000 2.57 320 07:50 12.03.2022
4839 Rain 27 1008 94 10000 1.03 140 04:50 12.03.2022
4840 Clouds 29 1010 68 10000 0.7 82 00:21 12.03.2022
4841 Clouds 30 1010 79 10000 2.06 20 23:28 11.03.2022
4842 Clouds 25 1010 94 10000 2.57 310 21:43 11.03.2022
4843 Clouds 24 1009 94 10000 2.57 310 20:57 11.03.2022
4844 Clouds 24 1009 94 10000 2.57 310 20:37 11.03.2022
4845 Clouds 23 1009 100 10000 2.57 320 19:52 11.03.2022
4846 Fog 23 1009 100 900 2.57 330 19:22 11.03.2022
4847 Clouds 23 1008 100 10000 3.09 330 17:34 11.03.2022
4848 Clouds 23 1008 100 10000 2.06 320 16:42 11.03.2022
4849 Clouds 24 1008 100 10000 2.06 330 15:57 11.03.2022
4850 Clouds 24 1008 100 10000 2.06 300 14:21 11.03.2022
4851 Clear 26 1009 86 10000 2.58 271 12:52 11.03.2022
4852 Clear 26 1010 85 10000 2.42 253 12:21 11.03.2022
4853 Clouds 26 1009 94 10000 1.03 350 11:55 11.03.2022
4854 Clear 26 1009 84 10000 2.42 243 10:18 11.03.2022
4855 Clouds 26 1007 94 10000 3.09 240 08:57 11.03.2022
4856 Clouds 26 1007 94 10000 3.09 240 08:24 11.03.2022
4857 Clouds 26 1006 94 10000 0 0 07:45 11.03.2022
4858 Clouds 26 1005 94 10000 1.54 220 05:44 11.03.2022
4859 Rain 30 1005 79 10000 2.57 40 03:48 11.03.2022
4860 Clouds 30 1007 70 10000 1.54 270 23:38 10.03.2022
4861 Clouds 28 1008 83 10000 2.06 330 22:30 10.03.2022
4862 Clouds 26 1008 94 10000 3.09 330 21:40 10.03.2022
4863 Clear 27 1008 82 10000 2.14 259 21:18 10.03.2022
4864 Clear 26 1008 84 10000 2.03 261 19:43 10.03.2022
4865 Rain 24 1006 100 10000 1.54 260 18:40 10.03.2022
4866 Clouds 24 1006 100 10000 1.03 0 17:28 10.03.2022
4867 Clouds 24 1007 100 10000 1.03 0 15:55 10.03.2022
4868 Rain 24 1006 100 10000 0.51 0 14:44 10.03.2022
4869 Rain 26 1008 83 10000 1.12 281 13:19 10.03.2022
4870 Rain 25 1007 88 10000 1.03 0 11:57 10.03.2022
4871 Clouds 25 1007 94 10000 1.54 340 10:50 10.03.2022
4872 Clouds 26 1008 81 10000 1.48 215 09:18 10.03.2022
4873 Clouds 28 1006 78 10000 2.57 330 07:33 10.03.2022
4874 Rain 28 1006 80 10000 2.42 209 04:18 10.03.2022
4875 Clouds 30 1007 74 10000 1.03 0 01:40 10.03.2022
4876 Rain 28 1008 83 10000 1.54 280 22:46 09.03.2022
4877 Clouds 26 1008 89 10000 1.03 0 21:49 09.03.2022
4878 Clouds 26 1008 89 10000 1.03 0 21:24 09.03.2022
4879 Clouds 24 1008 94 10000 3.6 330 19:42 09.03.2022
4880 Clouds 24 1008 94 10000 1.03 0 18:29 09.03.2022
4881 Clouds 24 1008 94 10000 2.06 300 17:26 09.03.2022
4882 Clouds 24 1008 94 10000 2.06 300 17:26 09.03.2022
4883 Rain 24 1008 94 10000 1.03 0 16:30 09.03.2022
4884 Clouds 24 1008 94 10000 2.06 320 14:56 09.03.2022
4885 Clouds 24 1009 100 10000 2.06 340 13:52 09.03.2022
4886 Clouds 24 1009 94 10000 3.09 300 12:36 09.03.2022
4887 Rain 24 1009 94 10000 2.06 320 11:48 09.03.2022
4888 Rain 26 1010 82 10000 0.77 31 11:18 09.03.2022
4889 Rain 24 1010 94 10000 4.12 340 09:45 09.03.2022
4890 Clouds 25 1009 94 10000 1.03 0 08:47 09.03.2022
4891 Thunderstorm 28 1007 83 10000 1.03 0 06:51 09.03.2022
4892 Clouds 31 1009 70 10000 2.57 70 01:53 09.03.2022
4893 Rain 31 1010 70 10000 2.06 120 00:26 09.03.2022
4894 Clouds 28 1011 83 10000 1.03 0 22:46 08.03.2022
4895 Clouds 26 1010 94 10000 2.57 310 21:52 08.03.2022
4896 Clouds 26 1010 94 10000 2.57 310 21:22 08.03.2022
4897 Clouds 26 1010 94 10000 2.57 310 21:22 08.03.2022
4898 Clouds 24 1010 100 10000 2.57 340 20:22 08.03.2022
4899 Clouds 24 1010 100 10000 1.54 310 19:24 08.03.2022
4900 Clouds 24 1009 100 10000 2.06 310 18:22 08.03.2022
4901 Clouds 24 1009 100 10000 1.03 340 16:44 08.03.2022
4902 Clouds 25 1010 94 10000 1.03 0 14:57 08.03.2022
4903 Clouds 25 1011 94 10000 2.06 350 13:48 08.03.2022
4904 Clouds 25 1012 94 10000 2.06 310 12:23 08.03.2022
4905 Clouds 25 1011 94 10000 2.06 310 11:42 08.03.2022
4906 Clouds 25 1011 94 10000 2.57 300 10:28 08.03.2022
4907 Clouds 26 1010 89 10000 2.06 310 08:57 08.03.2022
4908 Clouds 27 1009 89 10000 2.57 310 06:30 08.03.2022
4909 Clouds 32 1009 58 10000 3.6 60 02:50 08.03.2022
4910 Clouds 29 1010 74 10000 1.03 0 22:48 07.03.2022
4911 Clouds 27 1010 83 10000 2.06 330 21:45 07.03.2022
4912 Clouds 27 1011 81 10000 1.12 267 21:22 07.03.2022
4913 Clouds 25 1009 94 10000 1.54 330 20:33 07.03.2022
4914 Clouds 24 1009 94 10000 1.54 330 19:49 07.03.2022
4915 Clouds 24 1009 94 10000 1.54 310 18:57 07.03.2022
4916 Clouds 24 1009 94 10000 1.54 310 18:29 07.03.2022
4917 Clouds 25 1008 94 10000 1.54 310 17:24 07.03.2022
4918 Clouds 25 1008 94 10000 1.54 330 16:41 07.03.2022
4919 Clouds 25 1009 100 10000 2.06 320 14:51 07.03.2022
4920 Clouds 25 1010 100 10000 1.03 310 12:34 07.03.2022
4921 Clouds 26 1010 94 10000 1.03 230 11:26 07.03.2022
4922 Clouds 26 1009 94 10000 1.03 0 10:30 07.03.2022
4923 Clouds 28 1007 78 10000 1.03 30 08:19 07.03.2022
4924 Clouds 33 1008 52 10000 1.03 0 02:25 07.03.2022
4925 Clouds 29 1010 73 9812 0.98 216 00:20 07.03.2022
4926 Clouds 28 1010 75 10000 0.7 244 23:22 06.03.2022
4927 Clouds 27 1009 89 10000 3.09 340 22:26 06.03.2022
4928 Clouds 26 1009 94 10000 2.06 290 21:24 06.03.2022
4929 Rain 25 1009 94 10000 0 0 20:29 06.03.2022
4930 Clouds 25 1008 100 10000 2.06 300 19:39 06.03.2022
4931 Clouds 25 1008 100 10000 0 0 18:49 06.03.2022
4932 Clouds 25 1007 100 10000 1.54 310 17:46 06.03.2022
4933 Clouds 25 1007 100 10000 1.54 310 17:19 06.03.2022
4934 Clouds 25 1007 100 10000 2.06 310 16:26 06.03.2022
4935 Clouds 26 1008 94 10000 0 0 15:25 06.03.2022
4936 Clouds 26 1008 100 10000 1.54 310 14:42 06.03.2022
4937 Clouds 26 1008 100 10000 0 0 13:48 06.03.2022
4938 Clouds 26 1008 100 10000 0 0 12:39 06.03.2022
4939 Clouds 26 1009 94 10000 0 0 11:39 06.03.2022
4940 Clouds 26 1008 94 10000 1.54 10 10:33 06.03.2022
4941 Clouds 26 1007 94 10000 2.06 210 08:51 06.03.2022
4942 Clouds 26 1007 94 10000 2.06 210 08:27 06.03.2022
4943 Rain 27 1007 84 10000 2.28 196 07:18 06.03.2022
4944 Clouds 29 1008 84 10000 3.09 20 01:54 06.03.2022
4945 Clouds 31 1008 70 10000 3.09 40 00:34 06.03.2022
4946 Clouds 30 1009 79 10000 2.57 330 23:56 05.03.2022
4947 Clouds 29 1009 70 10000 1.35 49 23:18 05.03.2022
4948 Clouds 29 1009 84 10000 3.09 340 22:31 05.03.2022
4949 Clouds 29 1009 84 10000 3.09 340 22:31 05.03.2022
4950 Clouds 27 1009 89 10000 2.06 300 21:25 05.03.2022
4951 Clouds 24 1008 100 10000 1.03 330 19:59 05.03.2022
4952 Clouds 24 1008 100 10000 1.54 340 18:58 05.03.2022
4953 Clouds 24 1008 100 10000 1.54 340 18:37 05.03.2022
4954 Clouds 24 1008 100 10000 1.54 20 16:58 05.03.2022
4955 Clouds 24 1008 100 10000 1.03 0 15:49 05.03.2022
4956 Clouds 24 1009 100 10000 1.54 310 14:53 05.03.2022
4957 Rain 24 1009 100 10000 1.54 310 14:34 05.03.2022
4958 Clouds 25 1009 100 10000 1.03 0 13:37 05.03.2022
4959 Clouds 25 1009 94 10000 1.03 0 12:33 05.03.2022
4960 Clouds 27 1010 82 10000 0.52 344 11:20 05.03.2022
4961 Clouds 25 1009 94 10000 1.03 0 10:48 05.03.2022
4962 Clouds 25 1009 94 10000 1.03 0 09:28 05.03.2022
4963 Clouds 25 1007 94 10000 1.03 0 07:59 05.03.2022
4964 Clouds 25 1007 100 10000 1.54 190 05:47 05.03.2022
4965 Rain 27 1007 89 10000 4.12 230 04:38 05.03.2022
4966 Clouds 30 1009 74 10000 3.09 350 23:39 04.03.2022
4967 Clouds 28 1009 83 10000 3.09 350 22:44 04.03.2022
4968 Clouds 28 1010 78 10000 1.82 339 22:23 04.03.2022
4969 Clouds 26 1010 89 10000 2.06 330 21:39 04.03.2022
4970 Clouds 25 1009 94 10000 1.03 0 20:32 04.03.2022
4971 Clouds 24 1009 94 10000 2.06 350 19:36 04.03.2022
4972 Clouds 24 1009 100 10000 2.06 290 18:47 04.03.2022
4973 Clouds 24 1009 100 10000 2.06 290 18:22 04.03.2022
4974 Clouds 24 1009 100 10000 1.03 0 17:28 04.03.2022
4975 Clouds 25 1010 94 10000 1.03 0 15:31 04.03.2022
4976 Clouds 25 1011 94 10000 1.54 330 14:40 04.03.2022
4977 Clouds 25 1011 94 10000 1.54 350 13:27 04.03.2022
4978 Clouds 25 1011 94 10000 1.54 280 11:56 04.03.2022
4979 Clouds 25 1010 94 10000 2.57 340 10:58 04.03.2022
4980 Clouds 27 1010 81 10000 0.51 359 10:21 04.03.2022
4981 Clouds 25 1009 100 10000 1.54 30 08:48 04.03.2022
4982 Clouds 25 1009 94 10000 2.57 330 07:41 04.03.2022
4983 Clouds 25 1008 94 10000 1.03 0 05:26 04.03.2022
4984 Clouds 32 1010 70 10000 4.12 30 00:41 04.03.2022
4985 Clouds 29 1010 79 10000 1.54 360 22:54 03.03.2022
4986 Clouds 27 1009 83 10000 2.57 320 21:58 03.03.2022
4987 Clouds 27 1009 83 10000 2.57 320 21:34 03.03.2022
4988 Clouds 25 1009 94 10000 2.06 340 20:21 03.03.2022
4989 Clouds 24 1009 100 10000 1.03 0 18:58 03.03.2022
4990 Clouds 24 1009 100 10000 1.03 0 18:25 03.03.2022
4991 Clouds 25 1009 94 10000 2.06 300 17:31 03.03.2022
4992 Clouds 25 1008 94 10000 2.06 310 16:28 03.03.2022
4993 Clouds 25 1009 94 10000 2.57 350 15:41 03.03.2022
4994 Clouds 25 1010 94 10000 2.57 340 14:44 03.03.2022
4995 Clouds 25 1010 94 10000 2.57 340 14:25 03.03.2022
4996 Clouds 26 1011 89 10000 2.57 350 12:27 03.03.2022
4997 Clouds 27 1011 89 10000 1.03 0 10:49 03.03.2022
4998 Clouds 27 1011 89 10000 2.06 10 09:56 03.03.2022
4999 Clouds 27 1010 89 10000 1.54 360 08:34 03.03.2022
5000 Drizzle 29 1009 84 10000 2.57 40 06:38 03.03.2022
5001 Clouds 30 1009 79 10000 3.6 40 04:47 03.03.2022
5002 Clouds 26 1011 85 10000 2.06 278 23:41 02.03.2022
5003 Clouds 26 1011 85 8473 2.18 320 22:53 02.03.2022
5004 Clouds 26 1011 85 8473 2.18 320 22:53 02.03.2022
5005 Clouds 26 1011 85 10000 2.19 334 21:36 02.03.2022
5006 Clouds 26 1011 85 10000 2.32 337 20:59 02.03.2022
5007 Clouds 25 1011 86 10000 2.32 342 20:25 02.03.2022
5008 Clouds 25 1011 86 10000 2.32 342 19:37 02.03.2022
5009 Clouds 26 1010 84 9593 1.35 278 18:57 02.03.2022
5010 Clouds 25 1010 84 10000 1.69 294 18:26 02.03.2022
5011 Rain 25 1010 84 10000 1.69 294 17:37 02.03.2022
5012 Rain 25 1009 86 10000 2.12 310 16:51 02.03.2022
5013 Rain 25 1009 89 10000 3.17 341 15:20 02.03.2022
5014 Clouds 25 1010 91 7306 3.31 351 13:35 02.03.2022
5015 Clouds 25 1011 94 10000 0 0 12:45 02.03.2022
5016 Clouds 25 1011 94 10000 0 0 12:21 02.03.2022
5017 Clouds 25 1010 94 10000 2.06 310 11:26 02.03.2022
5018 Drizzle 26 1010 94 10000 1.54 330 10:30 02.03.2022
5019 Drizzle 26 1010 94 10000 1.54 330 10:30 02.03.2022
5020 Clouds 26 1010 89 10000 2.06 360 09:31 02.03.2022
5021 Rain 29 1009 79 10000 2.57 50 07:59 02.03.2022
5022 Rain 29 1009 79 10000 2.57 50 07:23 02.03.2022
5023 Clouds 32 1008 58 10000 5.66 40 03:56 02.03.2022
5024 Clouds 30 1010 79 10000 4.12 30 00:40 02.03.2022
5025 Clouds 29 1011 79 10000 2.06 360 22:53 01.03.2022
5026 Clouds 29 1011 79 10000 2.06 360 22:35 01.03.2022
5027 Clouds 26 1011 89 10000 2.06 330 21:26 01.03.2022
5028 Clouds 25 1010 94 10000 1.03 0 20:37 01.03.2022
5029 Clouds 25 1010 87 10000 2.91 23 20:19 01.03.2022
5030 Clouds 25 1009 94 10000 2.57 330 18:52 01.03.2022
5031 Clouds 25 1009 86 10000 2.22 0 18:21 01.03.2022
5032 Clouds 25 1009 86 10000 2.22 0 18:21 01.03.2022
5033 Clouds 25 1009 94 10000 1.03 0 17:37 01.03.2022
5034 Clouds 25 1009 100 10000 1.03 0 16:35 01.03.2022
5035 Clouds 25 1010 100 10000 1.03 0 15:47 01.03.2022
5036 Clouds 26 1010 94 10000 2.06 330 14:41 01.03.2022
5037 Clouds 26 1010 94 10000 2.06 330 14:23 01.03.2022
5038 Clouds 25 1011 100 10000 2.06 330 13:26 01.03.2022
5039 Clouds 26 1011 94 10000 2.06 330 12:35 01.03.2022
5040 Clouds 26 1011 94 10000 2.06 330 12:35 01.03.2022
5041 Clouds 27 1010 94 10000 0 0 10:38 01.03.2022
5042 Clouds 27 1010 94 10000 0 0 09:25 01.03.2022
5043 Clouds 28 1009 78 10000 1.54 90 07:55 01.03.2022
5044 Clouds 29 1009 74 10000 2.06 110 06:27 01.03.2022
5045 Rain 30 1009 74 10000 1.54 170 02:45 01.03.2022
5046 Clouds 30 1010 79 10000 2.06 280 00:39 01.03.2022
5047 Clouds 29 1011 74 10000 1.54 0 23:35 28.02.2022
5048 Clouds 27 1012 89 10000 2.57 330 22:28 28.02.2022
5049 Clouds 25 1011 94 10000 2.06 330 21:41 28.02.2022
5050 Rain 24 1011 100 10000 2.06 320 20:28 28.02.2022
5051 Clouds 24 1011 100 10000 2.57 340 19:41 28.02.2022
5052 Clouds 24 1010 100 10000 2.57 310 18:49 28.02.2022
5053 Clouds 24 1010 100 10000 2.06 320 17:33 28.02.2022
5054 Clouds 24 1010 100 10000 1.54 310 16:53 28.02.2022
5055 Clouds 25 1010 100 10000 1.03 310 15:31 28.02.2022
5056 Clouds 25 1011 100 10000 1.54 280 14:32 28.02.2022
5057 Clouds 25 1011 100 10000 1.03 0 13:48 28.02.2022
5058 Clouds 25 1012 100 10000 1.03 0 12:50 28.02.2022
5059 Rain 26 1012 94 10000 0 0 11:58 28.02.2022
5060 Clouds 24 1013 91 10000 1.34 92 11:18 28.02.2022
5061 Clouds 24 1013 91 10000 1.01 80 10:21 28.02.2022
5062 Rain 25 1011 94 10000 1.03 0 09:36 28.02.2022
5063 Rain 26 1010 89 10000 1.03 0 08:48 28.02.2022
5064 Clouds 27 1010 83 10000 1.54 360 07:43 28.02.2022
5065 Clouds 27 1010 83 10000 1.54 360 07:43 28.02.2022
5066 Clouds 27 1010 83 10000 3.09 30 05:25 28.02.2022
5067 Clouds 28 1010 83 10000 3.09 340 04:27 28.02.2022
5068 Clouds 27 1012 89 10000 2.06 340 23:45 27.02.2022
5069 Clouds 26 1012 94 10000 2.06 310 22:36 27.02.2022
5070 Fog 25 1012 94 10000 2.06 320 21:52 27.02.2022
5071 Fog 25 1012 94 10000 2.06 320 21:27 27.02.2022
5072 Fog 25 1012 94 10000 1.54 330 20:40 27.02.2022
5073 Rain 25 1011 94 10000 1.03 0 19:59 27.02.2022
5074 Rain 25 1011 94 10000 1.03 0 19:27 27.02.2022
5075 Rain 25 1011 94 10000 1.03 0 19:27 27.02.2022
5076 Rain 24 1011 100 10000 1.03 0 18:48 27.02.2022
5077 Rain 24 1010 100 10000 1.03 0 17:57 27.02.2022
5078 Rain 24 1010 100 10000 1.03 0 17:20 27.02.2022
5079 Rain 25 1010 94 10000 1.03 0 16:22 27.02.2022
5080 Clouds 25 1011 94 10000 3.09 310 13:40 27.02.2022
5081 Rain 25 1011 94 10000 2.06 340 12:33 27.02.2022
5082 Rain 25 1010 94 10000 1.03 0 11:27 27.02.2022
5083 Rain 26 1010 84 10000 2.17 253 10:20 27.02.2022
5084 Clouds 25 1010 94 10000 1.03 0 09:50 27.02.2022
5085 Clouds 27 1010 83 10000 2.04 249 09:20 27.02.2022
5086 Rain 27 1009 83 10000 1.85 256 08:20 27.02.2022
5087 Clouds 30 1006 74 10000 5.66 50 05:39 27.02.2022
5088 Clouds 31 1008 74 10000 1.03 0 02:35 27.02.2022
5089 Clouds 30 1009 74 10000 4.12 10 23:30 26.02.2022
5090 Clouds 30 1009 74 10000 4.12 10 23:30 26.02.2022
5091 Clouds 29 1009 79 10000 2.57 350 22:31 26.02.2022
5092 Clouds 26 1009 94 10000 2.06 330 21:19 26.02.2022
5093 Clouds 24 1008 100 10000 2.06 330 20:33 26.02.2022
5094 Clouds 23 1007 100 10000 2.06 330 19:52 26.02.2022
5095 Clouds 23 1007 100 10000 2.06 330 19:31 26.02.2022
5096 Clouds 24 1006 100 10000 0 0 17:55 26.02.2022
5097 Clouds 24 1006 100 10000 0 0 17:29 26.02.2022
5098 Clouds 24 1007 100 10000 2.06 340 16:33 26.02.2022
5099 Clouds 24 1007 100 10000 0 0 15:26 26.02.2022
5100 Clouds 25 1008 100 10000 2.57 320 14:57 26.02.2022
5101 Clouds 25 1008 100 10000 2.57 320 14:38 26.02.2022
5102 Clouds 25 1008 100 10000 2.06 330 13:40 26.02.2022
5103 Clouds 25 1009 94 10000 2.06 320 12:52 26.02.2022
5104 Clouds 26 1009 94 10000 2.06 320 11:38 26.02.2022
5105 Clouds 26 1008 94 10000 1.54 350 10:56 26.02.2022
5106 Clouds 26 1008 89 10000 1.03 0 09:21 26.02.2022
5107 Clouds 28 1006 83 10000 1.03 0 07:57 26.02.2022
5108 Thunderstorm 30 1005 74 10000 4.63 50 03:21 26.02.2022
5109 Clouds 30 1007 74 10000 2.57 360 23:32 25.02.2022
5110 Clouds 25 1006 100 10000 2.06 290 21:49 25.02.2022
5111 Clouds 25 1006 100 10000 2.06 290 21:29 25.02.2022
5112 Clouds 24 1006 100 10000 2.06 330 20:33 25.02.2022
5113 Fog 24 1005 100 100 2.57 320 19:53 25.02.2022
5114 Clouds 25 1004 94 10000 0 0 17:48 25.02.2022
5115 Clouds 25 1004 94 10000 1.54 280 16:46 25.02.2022
5116 Clouds 26 1004 94 10000 1.54 320 15:49 25.02.2022
5117 Clouds 26 1004 94 10000 1.54 320 15:23 25.02.2022
5118 Clouds 26 1005 94 10000 1.03 330 14:49 25.02.2022
5119 Clouds 26 1005 94 10000 1.03 330 14:18 25.02.2022
5120 Clouds 26 1005 94 10000 0 0 13:20 25.02.2022
5121 Clouds 26 1005 94 10000 0 0 13:20 25.02.2022
5122 Clouds 26 1005 89 10000 0 0 11:39 25.02.2022
5123 Clouds 26 1005 89 10000 0 0 11:18 25.02.2022
5124 Clouds 27 1005 89 10000 2.06 100 10:23 25.02.2022
5125 Clouds 28 1005 89 10000 0 0 09:36 25.02.2022
5126 Clouds 29 1003 74 10000 1.03 0 07:47 25.02.2022
5127 Clouds 29 1003 84 10000 2.57 100 06:51 25.02.2022
5128 Clouds 29 1003 84 10000 2.57 90 05:38 25.02.2022
5129 Clouds 30 1005 70 10000 1.03 240 00:46 25.02.2022
5130 Clouds 29 1005 79 10000 2.57 310 22:30 24.02.2022
5131 Clouds 27 1005 89 10000 3.09 330 21:43 24.02.2022
5132 Clear 27 1006 83 10000 2.64 263 21:21 24.02.2022
5133 Clouds 25 1004 94 10000 1.03 0 20:42 24.02.2022
5134 Clouds 25 1004 94 10000 2.06 330 19:29 24.02.2022
5135 Clear 25 1004 87 10000 2.12 298 18:20 24.02.2022
5136 Clouds 24 1003 100 10000 2.57 190 17:51 24.02.2022
5137 Clouds 25 1004 94 10000 2.57 270 16:57 24.02.2022
5138 Clouds 25 1004 94 10000 2.57 270 16:25 24.02.2022
5139 Clouds 25 1004 94 10000 2.57 270 15:31 24.02.2022
5140 Clouds 25 1005 100 10000 2.06 340 14:43 24.02.2022
5141 Clouds 25 1006 100 10000 2.06 350 13:51 24.02.2022
5142 Clouds 25 1006 100 10000 2.06 350 13:30 24.02.2022
5143 Clouds 26 1006 94 8000 2.06 320 10:50 24.02.2022
5144 Clouds 27 1005 89 10000 3.09 300 09:42 24.02.2022
5145 Clouds 27 1005 94 10000 3.6 330 08:43 24.02.2022
5146 Clouds 27 1005 94 10000 3.6 330 08:43 24.02.2022
5147 Clouds 29 1004 79 10000 1.54 210 06:27 24.02.2022
5148 Clouds 30 1004 74 10000 3.09 190 05:36 24.02.2022
5149 Clouds 30 1016 70 10000 3.09 230 00:30 24.02.2022
5150 Clouds 30 1016 70 10000 3.09 230 00:30 24.02.2022
5151 Clouds 27 1006 89 10000 1.03 0 21:56 23.02.2022
5152 Clouds 24 1006 100 10000 2.06 330 20:33 23.02.2022
5153 Clouds 24 1005 94 10000 1.03 310 19:56 23.02.2022
5154 Clouds 24 1005 94 10000 1.54 310 18:59 23.02.2022
5155 Clouds 24 1005 100 10000 1.54 320 17:47 23.02.2022
5156 Clouds 24 1005 100 10000 2.06 310 15:47 23.02.2022
5157 Clouds 25 1007 94 10000 3.09 310 13:34 23.02.2022
5158 Clouds 26 1007 89 10000 1.54 320 12:28 23.02.2022
5159 Clouds 26 1007 94 10000 2.57 330 10:55 23.02.2022
5160 Rain 27 1007 89 10000 2.57 330 09:31 23.02.2022
5161 Rain 27 1007 83 10000 1.03 0 08:28 23.02.2022
5162 Clouds 27 1007 83 10000 2.34 191 07:19 23.02.2022
5163 Clouds 31 1007 66 10000 4.12 210 02:22 23.02.2022
5164 Clouds 30 1008 74 10000 2.57 200 23:46 22.02.2022
5165 Clouds 30 1008 74 10000 2.57 200 23:28 22.02.2022
5166 Clouds 27 1009 89 10000 1.03 0 21:58 22.02.2022
5167 Clouds 27 1009 89 10000 1.03 0 21:40 22.02.2022
5168 Clouds 27 1009 89 10000 1.03 0 21:18 22.02.2022
5169 Clouds 24 1008 94 10000 1.03 0 20:31 22.02.2022
5170 Clouds 23 1008 100 10000 2.06 300 19:53 22.02.2022
5171 Clouds 23 1008 100 10000 2.06 300 19:33 22.02.2022
5172 Clouds 24 1008 94 10000 1.03 0 18:27 22.02.2022
5173 Clouds 24 1007 100 10000 2.06 320 17:26 22.02.2022
5174 Clouds 24 1007 100 10000 2.57 300 16:42 22.02.2022
5175 Clouds 25 1008 94 10000 1.54 300 15:59 22.02.2022
5176 Clouds 25 1009 100 10000 1.03 0 14:52 22.02.2022
5177 Clouds 25 1009 100 10000 1.03 0 12:52 22.02.2022
5178 Clouds 26 1009 94 10000 1.03 0 10:54 22.02.2022
5179 Clouds 27 1008 83 10000 1.03 0 08:56 22.02.2022
5180 Clouds 28 1007 83 10000 3.09 170 07:27 22.02.2022
5181 Clouds 30 1006 70 10000 3.6 140 06:52 22.02.2022
5182 Clouds 31 1008 70 10000 4.12 150 02:48 22.02.2022
5183 Clouds 29 1009 79 10000 2.06 110 23:18 21.02.2022
5184 Clouds 26 1009 89 10000 1.03 0 21:56 21.02.2022
5185 Clouds 24 1008 94 10000 1.03 0 20:38 21.02.2022
5186 Clouds 24 1008 94 10000 1.03 0 20:38 21.02.2022
5187 Clouds 24 1008 94 10000 2.06 310 18:47 21.02.2022
5188 Clouds 24 1008 100 10000 0 0 17:41 21.02.2022
5189 Clouds 24 1008 100 10000 0 0 17:41 21.02.2022
5190 Clouds 25 1008 94 10000 1.54 160 15:26 21.02.2022
5191 Clouds 26 1009 85 10000 3.13 93 14:22 21.02.2022
5192 Clouds 25 1008 94 10000 0 0 13:30 21.02.2022
5193 Clouds 25 1009 88 10000 2.06 360 12:24 21.02.2022
5194 Clouds 25 1009 94 10000 0 0 11:31 21.02.2022
5195 Clouds 26 1009 89 10000 1.03 0 10:23 21.02.2022
5196 Clouds 30 1007 70 10000 4.12 90 05:35 21.02.2022
5197 Clouds 29 1009 65 10000 3.57 91 00:20 21.02.2022
5198 Clouds 30 1009 70 10000 2.06 90 22:30 20.02.2022
5199 Clouds 26 1009 94 10000 1.54 330 21:43 20.02.2022
5200 Clouds 27 1009 75 10000 2.83 75 21:19 20.02.2022
5201 Clouds 24 1009 100 10000 1.54 310 20:41 20.02.2022
5202 Clouds 24 1008 94 10000 1.54 320 19:42 20.02.2022
5203 Clouds 24 1008 100 10000 1.03 340 18:54 20.02.2022
5204 Clouds 24 1008 100 10000 1.03 340 18:34 20.02.2022
5205 Clouds 24 1007 100 10000 1.03 330 17:53 20.02.2022
5206 Clouds 24 1008 94 10000 2.06 320 15:54 20.02.2022
5207 Clouds 26 1009 89 10000 1.54 0 14:52 20.02.2022
5208 Clouds 25 1009 94 10000 0 0 13:33 20.02.2022
5209 Clouds 25 1010 94 10000 2.06 310 12:34 20.02.2022
5210 Clouds 27 1009 89 10000 0 0 10:47 20.02.2022
5211 Clouds 26 1010 83 10000 3.67 98 10:20 20.02.2022
5212 Clouds 28 1007 78 10000 2.06 90 08:56 20.02.2022
5213 Clouds 31 1007 62 10000 3.6 60 00:55 20.02.2022
5214 Clouds 31 1007 62 10000 3.6 60 00:30 20.02.2022
5215 Clouds 28 1009 72 10000 2.71 59 23:18 19.02.2022
5216 Clouds 29 1008 84 10000 2.06 320 22:22 19.02.2022
5217 Clouds 25 1008 94 10000 1.03 0 21:34 19.02.2022
5218 Clouds 24 1008 94 10000 1.54 330 19:53 19.02.2022
5219 Clouds 24 1008 94 10000 1.54 330 19:30 19.02.2022
5220 Clouds 24 1007 100 10000 1.54 330 18:33 19.02.2022
5221 Clouds 24 1007 100 10000 2.06 330 17:36 19.02.2022
5222 Clouds 24 1007 100 10000 2.06 330 16:28 19.02.2022
5223 Clouds 25 1009 100 10000 1.54 330 14:57 19.02.2022
5224 Clouds 25 1009 100 10000 1.54 330 14:37 19.02.2022
5225 Clouds 25 1009 100 10000 1.03 0 13:45 19.02.2022
5226 Clouds 27 1010 89 10000 1.54 340 11:38 19.02.2022
5227 Clouds 27 1009 83 10000 0 0 09:55 19.02.2022
5228 Clouds 31 1006 66 10000 3.6 120 06:54 19.02.2022
5229 Clouds 32 1008 62 10000 3.6 40 03:38 19.02.2022
5230 Clouds 30 1009 79 10000 3.09 40 23:29 18.02.2022
5231 Clouds 27 1009 100 10000 1.54 300 21:49 18.02.2022
5232 Clouds 25 1009 100 10000 0 0 20:42 18.02.2022
5233 Clouds 24 1008 100 10000 1.54 330 19:52 18.02.2022
5234 Clouds 25 1008 100 10000 0 0 18:50 18.02.2022
5235 Clouds 25 1008 100 10000 0 0 18:20 18.02.2022
5236 Clouds 25 1008 100 10000 0 0 17:38 18.02.2022
5237 Clouds 25 1009 100 10000 1.54 310 14:50 18.02.2022
5238 Clouds 26 1009 94 10000 1.54 310 13:55 18.02.2022
5239 Clouds 26 1009 94 10000 1.54 330 12:53 18.02.2022
5240 Clouds 26 1009 94 10000 0 0 11:58 18.02.2022
5241 Clouds 26 1009 94 10000 0 0 11:58 18.02.2022
5242 Clouds 26 1010 82 10000 1.39 116 11:21 18.02.2022
5243 Clouds 27 1009 89 10000 0.51 0 09:33 18.02.2022
5244 Clouds 31 1006 66 10000 3.6 150 06:52 18.02.2022
5245 Clouds 31 1006 66 10000 3.6 130 05:38 18.02.2022
5246 Clouds 29 1009 79 10000 1.54 360 22:47 17.02.2022
5247 Clouds 26 1009 89 10000 2.06 320 21:43 17.02.2022
5248 Clouds 24 1008 94 10000 2.06 330 20:52 17.02.2022
5249 Clouds 24 1008 94 10000 2.06 330 20:34 17.02.2022
5250 Clouds 23 1008 100 10000 2.06 320 19:43 17.02.2022
5251 Clouds 24 1007 94 10000 1.03 0 18:38 17.02.2022
5252 Clouds 24 1007 94 10000 1.54 310 17:48 17.02.2022
5253 Clouds 24 1007 94 10000 1.54 320 16:20 17.02.2022
5254 Clouds 24 1009 100 10000 1.03 0 14:57 17.02.2022
5255 Clouds 24 1009 100 10000 1.03 0 14:19 17.02.2022
5256 Clouds 26 1009 94 10000 1.03 0 11:59 17.02.2022
5257 Clouds 26 1009 84 10000 2.23 105 11:21 17.02.2022
5258 Clouds 28 1007 78 10000 1.54 130 08:38 17.02.2022
5259 Clouds 30 1008 74 10000 2.06 120 00:29 17.02.2022
5260 Clouds 28 1008 83 10000 1.03 0 22:39 16.02.2022
5261 Clouds 23 1007 100 10000 2.06 320 20:39 16.02.2022
5262 Clouds 23 1006 100 10000 1.54 310 19:32 16.02.2022
5263 Clouds 23 1006 94 10000 1.03 0 18:36 16.02.2022
5264 Clouds 23 1006 100 10000 2.06 320 17:34 16.02.2022
5265 Clouds 23 1007 100 10000 1.54 320 15:26 16.02.2022
5266 Clouds 23 1007 100 10000 0 0 14:46 16.02.2022
5267 Clouds 24 1008 94 10000 1.03 0 12:32 16.02.2022
5268 Clouds 25 1008 94 10000 1.03 0 11:51 16.02.2022
5269 Clouds 26 1007 89 10000 1.03 0 10:37 16.02.2022
5270 Clouds 26 1007 89 10000 1.03 0 10:18 16.02.2022
5271 Clouds 30 1005 70 10000 3.09 150 06:44 16.02.2022
5272 Clouds 30 1006 74 10000 4.12 150 03:41 16.02.2022
5273 Clouds 28 1007 83 10000 0 0 22:35 15.02.2022
5274 Clouds 25 1007 94 10000 1.54 20 21:52 15.02.2022
5275 Clouds 25 1007 94 10000 1.54 20 21:31 15.02.2022
5276 Clouds 23 1006 100 10000 1.54 300 20:58 15.02.2022
5277 Clouds 23 1006 100 10000 1.54 300 20:38 15.02.2022
5278 Clouds 23 1006 94 10000 1.54 310 19:48 15.02.2022
5279 Clouds 23 1006 100 10000 2.06 320 18:28 15.02.2022
5280 Clouds 23 1005 100 10000 2.57 320 17:57 15.02.2022
5281 Clouds 23 1005 100 10000 2.57 320 17:38 15.02.2022
5282 Clouds 24 1007 94 10000 1.54 310 15:44 15.02.2022
5283 Clouds 24 1007 94 10000 1.54 320 14:31 15.02.2022
5284 Clouds 24 1008 94 10000 1.54 290 13:26 15.02.2022
5285 Clouds 24 1009 94 10000 0 0 11:41 15.02.2022
5286 Clouds 25 1008 94 10000 0 0 10:32 15.02.2022
5287 Clouds 27 1007 78 10000 0 0 08:56 15.02.2022
5288 Clouds 30 1007 70 10000 3.09 160 06:47 15.02.2022
5289 Clouds 30 1010 70 10000 3.6 120 00:26 15.02.2022
5290 Clouds 25 1010 94 10000 1.03 0 21:58 14.02.2022
5291 Clouds 25 1009 94 10000 1.54 0 20:54 14.02.2022
5292 Clouds 25 1009 94 10000 1.54 0 19:49 14.02.2022
5293 Clouds 25 1009 94 10000 1.54 0 19:29 14.02.2022
5294 Clouds 24 1009 100 10000 1.03 0 18:24 14.02.2022
5295 Clouds 24 1009 100 10000 1.03 0 18:24 14.02.2022
5296 Clouds 24 1009 100 10000 1.54 0 17:30 14.02.2022
5297 Clouds 24 1009 100 10000 0 0 16:49 14.02.2022
5298 Clouds 24 1010 100 10000 2.06 140 15:42 14.02.2022
5299 Clouds 25 1011 94 10000 1.54 230 13:35 14.02.2022
5300 Clouds 25 1012 100 10000 2.06 160 12:59 14.02.2022
5301 Clouds 25 1012 100 10000 2.06 160 12:32 14.02.2022
5302 Clouds 26 1012 94 10000 0 0 11:39 14.02.2022
5303 Clouds 26 1011 86 9743 4.61 100 10:21 14.02.2022
5304 Clouds 26 1010 86 10000 5.33 109 08:18 14.02.2022
5305 Rain 28 1010 83 10000 5.14 110 07:26 14.02.2022
5306 Rain 27 1012 89 10000 3.09 120 22:49 13.02.2022
5307 Rain 27 1012 89 10000 3.09 120 22:30 13.02.2022
5308 Clouds 27 1012 83 10000 3.09 130 21:59 13.02.2022
5309 Clouds 27 1012 83 10000 3.09 130 21:23 13.02.2022
5310 Clouds 25 1012 94 10000 3.09 130 20:27 13.02.2022
5311 Clouds 26 1012 86 9237 4.26 96 19:18 13.02.2022
5312 Clouds 25 1010 94 10000 1.54 170 18:41 13.02.2022
5313 Clouds 25 1011 94 10000 1.54 160 17:22 13.02.2022
5314 Rain 25 1011 94 10000 2.57 120 15:51 13.02.2022
5315 Clouds 26 1011 94 10000 1.54 120 14:50 13.02.2022
5316 Clouds 25 1012 94 10000 1.03 0 13:29 13.02.2022
5317 Clouds 26 1012 94 10000 2.06 120 12:42 13.02.2022
5318 Clouds 27 1012 94 10000 3.6 120 10:44 13.02.2022
5319 Clouds 27 1012 94 10000 3.6 120 10:25 13.02.2022
5320 Clouds 28 1011 78 10000 2.06 130 08:56 13.02.2022
5321 Clouds 31 1010 66 10000 5.14 120 02:49 13.02.2022
5322 Clouds 31 1011 70 10000 5.66 100 00:32 13.02.2022
5323 Clouds 30 1011 74 10000 3.6 120 22:55 12.02.2022
5324 Clouds 30 1011 74 10000 3.6 120 22:30 12.02.2022
5325 Clouds 24 1011 100 10000 1.03 0 20:55 12.02.2022
5326 Clouds 24 1011 100 10000 1.03 0 20:23 12.02.2022
5327 Clouds 24 1010 94 10000 1.03 0 18:54 12.02.2022
5328 Clouds 24 1010 94 10000 1.03 0 18:36 12.02.2022
5329 Clouds 24 1010 100 10000 2.06 320 17:39 12.02.2022
5330 Clouds 24 1010 100 10000 1.54 310 16:46 12.02.2022
5331 Clouds 24 1010 100 10000 1.03 0 15:53 12.02.2022
5332 Clouds 24 1010 100 10000 1.03 0 15:21 12.02.2022
5333 Clouds 25 1011 94 10000 2.06 320 14:29 12.02.2022
5334 Clouds 26 1011 94 10000 1.03 0 11:33 12.02.2022
5335 Clouds 27 1010 89 10000 1.03 60 10:32 12.02.2022
5336 Clouds 27 1010 89 10000 1.54 80 09:37 12.02.2022
5337 Clouds 29 1009 74 10000 2.06 60 08:47 12.02.2022
5338 Clouds 30 1008 70 10000 4.63 90 07:45 12.02.2022
5339 Clouds 31 1008 66 10000 5.66 40 04:50 12.02.2022
5340 Clouds 31 1009 66 10000 6.17 50 02:19 12.02.2022
5341 Clouds 30 1011 74 10000 4.63 40 23:34 11.02.2022
5342 Clouds 29 1011 79 10000 2.57 40 22:23 11.02.2022
5343 Clouds 26 1010 94 10000 2.57 330 21:35 11.02.2022
5344 Clouds 25 1010 94 10000 2.06 340 20:29 11.02.2022
5345 Clouds 24 1010 100 10000 0 0 19:29 11.02.2022
5346 Clouds 24 1009 94 10000 0 0 18:44 11.02.2022
5347 Clouds 24 1009 100 10000 0 0 17:27 11.02.2022
5348 Clouds 24 1008 100 10000 0 0 16:47 11.02.2022
5349 Clouds 24 1009 100 10000 0 0 15:22 11.02.2022
5350 Clouds 24 1009 100 10000 0 0 14:38 11.02.2022
5351 Clouds 24 1009 100 10000 0 0 14:19 11.02.2022
5352 Clouds 24 1010 100 10000 2.57 340 13:44 11.02.2022
5353 Clouds 24 1010 100 10000 2.57 340 13:25 11.02.2022
5354 Clouds 25 1010 94 10000 1.54 350 10:59 11.02.2022
5355 Clouds 26 1010 94 10000 1.03 0 09:32 11.02.2022
5356 Clouds 26 1009 94 10000 1.03 0 08:35 11.02.2022
5357 Clouds 27 1008 89 10000 1.54 270 07:46 11.02.2022
5358 Clouds 27 1008 89 10000 1.54 270 07:46 11.02.2022
5359 Clouds 27 1008 83 10000 2.06 210 06:24 11.02.2022
5360 Clouds 28 1008 79 9695 1.05 8 02:21 11.02.2022
5361 Clouds 30 1009 74 10000 2.57 350 23:45 10.02.2022
5362 Clouds 28 1009 83 10000 2.57 360 22:33 10.02.2022
5363 Clouds 26 1009 89 10000 2.57 40 21:42 10.02.2022
5364 Clouds 25 1008 94 10000 3.09 330 20:50 10.02.2022
5365 Clouds 24 1008 94 10000 2.57 320 19:56 10.02.2022
5366 Clouds 24 1008 94 10000 2.57 320 19:22 10.02.2022
5367 Clouds 24 1007 100 10000 2.06 320 18:32 10.02.2022
5368 Clouds 25 1006 86 10000 1.54 329 17:21 10.02.2022
5369 Clouds 25 1006 94 10000 3.09 340 16:43 10.02.2022
5370 Clouds 24 1007 100 10000 0 0 15:40 10.02.2022
5371 Clouds 25 1006 86 10000 1.57 329 15:21 10.02.2022
5372 Clouds 25 1007 94 10000 2.57 350 14:35 10.02.2022
5373 Clouds 25 1008 94 10000 2.57 320 13:40 10.02.2022
5374 Clouds 25 1008 85 10000 1.28 357 13:19 10.02.2022
5375 Clouds 25 1008 94 10000 2.57 330 11:52 10.02.2022
5376 Clouds 25 1008 94 10000 2.57 330 11:30 10.02.2022
5377 Clouds 26 1008 89 10000 2.06 350 10:23 10.02.2022
5378 Clouds 26 1008 94 10000 0 0 09:44 10.02.2022
5379 Clouds 26 1007 89 10000 2.06 350 08:40 10.02.2022
5380 Clouds 27 1006 83 10000 1.03 0 06:33 10.02.2022
5381 Clouds 26 1007 94 6000 5.14 290 02:43 10.02.2022
5382 Clouds 32 1007 62 10000 2.06 20 00:53 10.02.2022
5383 Clouds 32 1007 62 10000 2.06 20 00:30 10.02.2022
5384 Clouds 30 1007 74 10000 2.57 300 23:58 09.02.2022
5385 Clouds 28 1008 83 10000 3.6 320 22:54 09.02.2022
5386 Clouds 28 1008 83 10000 3.6 320 22:30 09.02.2022
5387 Clouds 28 1008 83 10000 3.6 340 21:46 09.02.2022
5388 Clouds 28 1008 83 10000 3.6 340 21:26 09.02.2022
5389 Clouds 26 1007 94 10000 2.06 320 20:42 09.02.2022
5390 Clouds 26 1007 94 10000 2.06 320 20:22 09.02.2022
5391 Clouds 24 1006 100 10000 1.54 300 19:39 09.02.2022
5392 Clouds 25 1006 94 10000 0 0 18:30 09.02.2022
5393 Clouds 25 1006 94 10000 1.54 310 16:54 09.02.2022
5394 Clouds 25 1006 94 10000 0 0 15:56 09.02.2022
5395 Clouds 25 1006 94 10000 0 0 15:22 09.02.2022
5396 Rain 26 1008 89 10000 0 0 12:42 09.02.2022
5397 Clouds 26 1008 84 10000 1.2 290 11:20 09.02.2022
5398 Clouds 27 1007 83 10000 0 0 10:33 09.02.2022
5399 Clouds 27 1007 83 10000 3.09 350 09:45 09.02.2022
5400 Clouds 26 1007 84 10000 1.6 307 09:20 09.02.2022
5401 Clouds 28 1006 78 10000 3.6 330 08:43 09.02.2022
5402 Clouds 30 1004 70 10000 4.12 350 05:37 09.02.2022
5403 Rain 30 1005 70 10000 5.66 350 03:51 09.02.2022
5404 Clouds 30 1006 70 10000 3.6 340 01:33 09.02.2022
5405 Rain 27 1007 83 10000 5.14 350 23:39 08.02.2022
5406 Rain 27 1007 83 10000 4.12 340 22:53 08.02.2022
5407 Rain 25 1007 88 10000 3.34 10 22:22 08.02.2022
5408 Rain 26 1007 89 10000 3.09 340 21:52 08.02.2022
5409 Rain 25 1006 89 10000 3.47 20 21:21 08.02.2022
5410 Rain 24 1006 94 10000 2.57 340 20:55 08.02.2022
5411 Clouds 24 1006 94 10000 2.57 350 19:52 08.02.2022
5412 Clouds 24 1005 94 10000 4.12 360 18:53 08.02.2022
5413 Clouds 24 1005 94 10000 2.06 30 17:50 08.02.2022
5414 Clouds 24 1006 94 10000 0.51 0 16:35 08.02.2022
5415 Rain 24 1006 94 10000 2.06 340 15:39 08.02.2022
5416 Clouds 24 1006 91 10000 1.09 5 14:44 08.02.2022
5417 Clouds 24 1007 94 10000 2.57 360 13:29 08.02.2022
5418 Clouds 24 1008 93 10000 1.1 303 12:18 08.02.2022
5419 Clouds 25 1007 94 10000 2.06 350 10:39 08.02.2022
5420 Rain 25 1006 88 10000 1.03 0 09:45 08.02.2022
5421 Rain 26 1005 94 10000 1.54 350 07:55 08.02.2022
5422 Clouds 26 1005 89 10000 3.09 330 05:41 08.02.2022
5423 Clouds 27 1005 89 10000 3.6 330 04:39 08.02.2022
5424 Clouds 24 1005 93 10000 0.86 31 04:21 08.02.2022
5425 Clouds 27 1006 89 10000 3.6 350 03:36 08.02.2022
5426 Rain 24 1005 92 10000 0.53 32 03:18 08.02.2022
5427 Rain 27 1006 89 10000 3.09 10 02:59 08.02.2022
5428 Rain 27 1006 89 10000 3.09 10 02:36 08.02.2022
5429 Rain 24 1006 92 10000 0.75 337 02:18 08.02.2022
5430 Rain 24 1006 92 10000 0.75 337 02:18 08.02.2022
5431 Clouds 27 1006 89 10000 2.06 340 01:44 08.02.2022
5432 Rain 27 1006 89 10000 2.06 340 01:24 08.02.2022
5433 Rain 25 1007 94 10000 1.03 350 00:54 08.02.2022
5434 Rain 25 1007 94 10000 2.06 330 23:55 07.02.2022
5435 Rain 25 1007 94 10000 2.06 330 23:37 07.02.2022
5436 Rain 24 1006 95 9324 1.6 330 23:18 07.02.2022
5437 Rain 25 1007 94 10000 1.03 0 22:20 07.02.2022
5438 Rain 25 1007 94 10000 1.03 0 21:55 07.02.2022
5439 Rain 25 1007 94 10000 1.03 0 21:29 07.02.2022
5440 Rain 24 1007 94 10000 1.03 0 20:59 07.02.2022
5441 Clouds 24 1007 94 10000 1.03 0 20:40 07.02.2022
5442 Clouds 23 1006 100 10000 1.03 0 19:51 07.02.2022
5443 Clouds 23 1006 100 10000 1.03 0 19:32 07.02.2022
5444 Clouds 23 1005 100 10000 1.03 0 17:52 07.02.2022
5445 Rain 24 1005 94 10000 1.03 0 16:53 07.02.2022
5446 Rain 24 1005 94 10000 1.54 330 15:49 07.02.2022
5447 Rain 24 1006 94 10000 2.57 350 14:55 07.02.2022
5448 Rain 24 1007 94 10000 2.06 360 13:28 07.02.2022
5449 Rain 24 1007 94 10000 3.09 350 12:42 07.02.2022
5450 Rain 24 1007 100 10000 3.09 350 11:57 07.02.2022
5451 Rain 24 1007 100 10000 3.09 350 11:34 07.02.2022
5452 Rain 24 1006 100 10000 2.57 10 10:49 07.02.2022
5453 Rain 24 1006 94 8354 3.4 354 10:29 07.02.2022
5454 Rain 24 1006 100 10000 1.03 340 09:53 07.02.2022
5455 Rain 24 1006 95 7899 2.87 348 09:18 07.02.2022
5456 Rain 25 1006 94 10000 0.51 0 08:24 07.02.2022
5457 Rain 25 1005 94 10000 2.57 360 06:52 07.02.2022
5458 Rain 25 1005 94 10000 2.57 360 06:33 07.02.2022
5459 Rain 28 1006 83 10000 4.63 20 02:58 07.02.2022
5460 Rain 25 1008 94 10000 2.57 10 00:44 07.02.2022
5461 Rain 25 1008 94 10000 2.57 10 23:42 06.02.2022
5462 Rain 25 1008 94 10000 2.06 10 22:47 06.02.2022
5463 Rain 24 1007 100 10000 2.06 10 21:52 06.02.2022
5464 Rain 24 1007 100 10000 2.06 10 21:30 06.02.2022
5465 Rain 24 1007 100 10000 0 0 20:52 06.02.2022
5466 Rain 24 1007 100 10000 0 0 20:28 06.02.2022
5467 Rain 24 1006 94 10000 2.06 360 19:37 06.02.2022
5468 Rain 24 1006 100 10000 3.09 350 18:38 06.02.2022
5469 Rain 24 1006 100 10000 2.57 360 17:55 06.02.2022
5470 Rain 24 1006 94 10000 2.06 340 16:56 06.02.2022
5471 Rain 24 1006 94 10000 2.06 340 16:38 06.02.2022
5472 Rain 24 1007 94 10000 0 0 15:47 06.02.2022
5473 Rain 24 1007 94 10000 0 0 15:26 06.02.2022
5474 Clouds 24 1007 94 10000 2.06 10 14:33 06.02.2022
5475 Clouds 24 1008 94 10000 2.57 20 13:25 06.02.2022
5476 Drizzle 24 1009 94 10000 1.54 70 12:49 06.02.2022
5477 Clouds 24 1009 94 10000 1.03 0 11:23 06.02.2022
5478 Rain 25 1008 94 10000 1.03 0 09:56 06.02.2022
5479 Drizzle 25 1008 94 10000 2.57 30 08:47 06.02.2022
5480 Drizzle 25 1007 94 10000 2.57 30 07:36 06.02.2022
5481 Rain 26 1007 94 10000 2.57 350 05:29 06.02.2022
5482 Rain 28 1008 78 10000 5.66 340 02:26 06.02.2022
5483 Clouds 29 1008 74 10000 4.63 310 01:32 06.02.2022
5484 Rain 28 1008 83 10000 4.12 330 00:24 06.02.2022
5485 Rain 26 1008 84 10000 3.24 352 22:19 05.02.2022
5486 Clouds 25 1007 94 10000 2.57 350 20:52 05.02.2022
5487 Rain 25 1007 94 10000 2.57 350 20:24 05.02.2022
5488 Rain 24 1007 100 10000 3.09 20 19:45 05.02.2022
5489 Rain 24 1007 100 10000 4.12 340 18:49 05.02.2022
5490 Clouds 24 1006 100 10000 3.6 340 17:37 05.02.2022
5491 Rain 24 1006 100 10000 2.57 340 16:36 05.02.2022
5492 Clouds 24 1007 100 10000 2.57 350 15:33 05.02.2022
5493 Clouds 25 1007 94 10000 2.57 10 14:40 05.02.2022
5494 Clouds 25 1008 94 10000 4.12 10 12:46 05.02.2022
5495 Rain 25 1008 94 10000 0 0 11:47 05.02.2022
5496 Rain 25 1008 94 10000 0 0 10:46 05.02.2022
5497 Rain 26 1007 89 10000 1.03 0 09:51 05.02.2022
5498 Rain 26 1007 89 10000 1.03 0 09:23 05.02.2022
5499 Rain 27 1006 83 10000 2.57 330 07:32 05.02.2022
5500 Clouds 28 1005 83 10000 2.57 350 06:55 05.02.2022
5501 Rain 27 1005 81 10000 4.55 359 03:22 05.02.2022
5502 Rain 26 1006 88 10000 4.31 355 01:18 05.02.2022
5503 Rain 28 1007 78 10000 5.14 340 00:39 05.02.2022
5504 Rain 28 1007 78 10000 5.14 350 23:33 04.02.2022
5505 Rain 27 1007 83 10000 4.63 360 22:55 04.02.2022
5506 Clouds 25 1006 94 10000 3.09 360 21:36 04.02.2022
5507 Clouds 25 1006 91 10000 4.67 8 21:18 04.02.2022
5508 Clouds 24 1006 100 10000 1.54 360 20:40 04.02.2022
5509 Clouds 24 1006 94 10000 2.57 350 19:29 04.02.2022
5510 Clouds 24 1006 100 10000 2.06 330 16:50 04.02.2022
5511 Clouds 24 1006 100 10000 1.03 0 15:33 04.02.2022
5512 Clouds 24 1007 100 10000 2.06 340 14:47 04.02.2022
5513 Rain 25 1008 94 10000 2.57 360 12:43 04.02.2022
5514 Rain 25 1008 94 10000 0 0 11:45 04.02.2022
5515 Rain 25 1007 94 10000 1.03 310 10:56 04.02.2022
5516 Rain 25 1007 94 10000 1.03 310 10:22 04.02.2022
5517 Clouds 25 1006 94 10000 1.54 360 08:30 04.02.2022
5518 Thunderstorm 24 1006 100 5000 3.6 350 03:47 04.02.2022
5519 Rain 30 1005 70 10000 3.6 90 02:38 04.02.2022
5520 Clouds 28 1007 83 10000 4 330 23:56 03.02.2022
5521 Clouds 27 1007 83 10000 2.06 280 22:51 03.02.2022
5522 Clouds 25 1007 88 10000 1.54 340 21:58 03.02.2022
5523 Clouds 25 1007 88 10000 1.54 340 21:29 03.02.2022
5524 Clouds 24 1007 93 10000 1.2 296 20:22 03.02.2022
5525 Clouds 24 1006 94 10000 1.54 350 19:46 03.02.2022
5526 Rain 24 1005 94 10000 2.57 330 18:56 03.02.2022
5527 Rain 24 1005 94 10000 2.57 320 17:59 03.02.2022
5528 Rain 24 1005 93 10000 1.26 11 17:19 03.02.2022
5529 Rain 24 1007 94 10000 1.54 350 15:34 03.02.2022
5530 Rain 24 1008 94 10000 1.54 360 13:50 03.02.2022
5531 Rain 24 1008 90 10000 2.8 359 12:22 03.02.2022
5532 Rain 27 1007 83 10000 1.03 330 08:56 03.02.2022
5533 Rain 28 1006 74 10000 1.54 10 07:43 03.02.2022
5534 Clouds 31 1007 62 10000 4.12 40 00:49 03.02.2022
5535 Clouds 29 1007 61 10000 2.63 50 00:22 03.02.2022
5536 Clouds 28 1008 78 10000 2.06 330 22:39 02.02.2022
5537 Clouds 26 1008 94 10000 2.57 320 21:46 02.02.2022
5538 Clouds 26 1008 94 10000 2.57 320 21:28 02.02.2022
5539 Fog 24 1008 100 10000 3.09 310 20:24 02.02.2022
5540 Clouds 23 1007 100 10000 1.54 330 19:46 02.02.2022
5541 Clouds 23 1007 100 10000 1.03 0 18:56 02.02.2022
5542 Clouds 23 1007 100 10000 1.03 0 18:24 02.02.2022
5543 Rain 24 1007 94 10000 2.06 330 17:20 02.02.2022
5544 Rain 24 1007 100 10000 2.57 330 16:54 02.02.2022
5545 Clouds 24 1008 100 10000 2.06 320 14:42 02.02.2022
5546 Rain 25 1009 94 10000 1.54 320 12:29 02.02.2022
5547 Rain 25 1009 100 10000 2.06 320 11:44 02.02.2022
5548 Clouds 25 1009 100 10000 2.06 320 11:24 02.02.2022
5549 Rain 27 1007 83 10000 1.54 330 08:27 02.02.2022
5550 Clouds 28 1009 83 10000 3.6 50 01:37 02.02.2022
5551 Rain 28 1009 83 10000 2.06 360 22:29 01.02.2022
5552 Clouds 24 1008 94 10000 0 0 20:49 01.02.2022
5553 Clouds 23 1007 100 10000 1.03 0 18:55 01.02.2022
5554 Clouds 24 1007 100 10000 1.03 0 16:46 01.02.2022
5555 Clouds 24 1007 100 10000 1.03 0 15:44 01.02.2022
5556 Clouds 24 1010 100 10000 1.03 0 12:49 01.02.2022
5557 Clouds 25 1010 94 10000 1.03 0 11:51 01.02.2022
5558 Drizzle 26 1009 94 10000 1.03 0 08:37 01.02.2022
5559 Clouds 30 1009 66 10000 3.6 60 00:28 01.02.2022
5560 Clouds 29 1009 79 10000 1.54 30 23:36 31.01.2022
5561 Clouds 27 1010 83 10000 1.54 320 22:30 31.01.2022
5562 Clouds 25 1010 94 10000 1.54 320 21:34 31.01.2022
5563 Clouds 24 1009 100 10000 0 0 20:34 31.01.2022
5564 Clouds 24 1008 94 10000 0 0 19:46 31.01.2022
5565 Clouds 24 1008 100 10000 0 0 18:31 31.01.2022
5566 Clouds 24 1008 100 10000 0 0 18:31 31.01.2022
5567 Clouds 24 1008 100 10000 0 0 18:31 31.01.2022
5568 Clouds 24 1008 100 10000 0 0 17:53 31.01.2022
5569 Clouds 24 1008 100 10000 0 0 16:58 31.01.2022
5570 Clouds 24 1009 100 10000 1.54 310 15:46 31.01.2022
5571 Clouds 24 1009 100 10000 1.03 0 14:27 31.01.2022
5572 Clouds 25 1011 100 10000 1.03 320 12:55 31.01.2022
5573 Clouds 25 1011 94 10000 1.03 0 11:59 31.01.2022
5574 Clouds 24 1010 100 10000 2.06 330 10:54 31.01.2022
5575 Clouds 24 1010 100 10000 2.06 330 10:36 31.01.2022
5576 Rain 25 1010 94 10000 1.03 0 09:34 31.01.2022
5577 Rain 25 1010 94 10000 1.03 0 08:52 31.01.2022
5578 Clouds 25 1010 94 10000 1.03 0 08:20 31.01.2022
5579 Clouds 26 1009 94 10000 4.63 70 06:53 31.01.2022
5580 Clouds 27 1008 89 10000 3.6 80 05:24 31.01.2022
5581 Rain 27 1011 89 10000 0 0 23:30 30.01.2022
5582 Clouds 27 1011 83 10000 1.03 0 22:30 30.01.2022
5583 Rain 25 1011 94 10000 2.06 330 21:44 30.01.2022
5584 Rain 26 1011 80 10000 3.02 12 21:21 30.01.2022
5585 Rain 25 1010 94 10000 1.54 0 20:50 30.01.2022
5586 Rain 25 1010 94 10000 1.54 0 20:30 30.01.2022
5587 Clouds 24 1010 100 10000 1.03 0 19:54 30.01.2022
5588 Clouds 24 1009 100 10000 1.03 0 18:45 30.01.2022
5589 Clouds 26 1009 83 10000 3.14 13 18:21 30.01.2022
5590 Clouds 24 1009 100 10000 1.03 0 17:29 30.01.2022
5591 Clouds 25 1010 94 10000 2.57 330 16:41 30.01.2022
5592 Clouds 25 1010 94 10000 2.57 330 16:22 30.01.2022
5593 Clouds 25 1010 94 10000 1.54 360 15:53 30.01.2022
5594 Clouds 25 1010 94 10000 1.54 360 15:32 30.01.2022
5595 Clouds 25 1011 94 10000 2.06 330 14:46 30.01.2022
5596 Clouds 25 1011 94 10000 2.06 330 13:36 30.01.2022
5597 Clouds 25 1012 94 10000 1.54 330 12:40 30.01.2022
5598 Clouds 27 1011 83 10000 1.54 10 10:38 30.01.2022
5599 Clouds 26 1011 89 10000 1.54 320 09:56 30.01.2022
5600 Clouds 26 1011 89 10000 1.54 320 09:21 30.01.2022
5601 Rain 27 1010 83 10000 2.57 10 07:56 30.01.2022
5602 Rain 31 1010 70 10000 5.14 360 02:42 30.01.2022
5603 Clouds 30 1011 79 10000 5.14 10 01:39 30.01.2022
5604 Clouds 28 1011 83 10000 3.6 340 23:30 29.01.2022
5605 Rain 29 1011 84 10000 3.09 340 22:34 29.01.2022
5606 Clouds 26 1011 94 10000 1.03 10 21:27 29.01.2022
5607 Clouds 25 1010 94 10000 5.14 350 20:38 29.01.2022
5608 Clouds 25 1009 94 10000 1.54 360 19:36 29.01.2022
5609 Clouds 26 1009 89 10000 2.57 340 18:59 29.01.2022
5610 Rain 26 1009 89 10000 2.57 340 18:30 29.01.2022
5611 Rain 26 1009 94 10000 2.06 350 17:41 29.01.2022
5612 Clouds 25 1009 88 10000 4.4 23 16:38 29.01.2022
5613 Rain 26 1010 94 10000 1.54 330 14:24 29.01.2022
5614 Rain 28 1010 83 10000 4.12 30 13:45 29.01.2022
5615 Clouds 28 1010 83 10000 4.12 30 13:24 29.01.2022
5616 Rain 26 1011 94 10000 1.54 310 12:35 29.01.2022
5617 Clouds 26 1011 94 10000 2.06 330 11:27 29.01.2022
5618 Clouds 27 1010 89 10000 6.17 90 09:49 29.01.2022
5619 Clouds 28 1008 83 10000 6.69 70 06:55 29.01.2022
5620 Clouds 31 1010 70 10000 4.12 70 00:49 29.01.2022
5621 Clouds 31 1010 70 10000 4.12 70 00:31 29.01.2022
5622 Clouds 28 1011 83 10000 1.54 300 22:51 28.01.2022
5623 Clouds 28 1011 83 10000 1.54 300 22:26 28.01.2022
5624 Clouds 26 1011 89 10000 1.03 0 21:50 28.01.2022
5625 Clouds 25 1011 94 10000 1.03 0 20:30 28.01.2022
5626 Clouds 24 1010 100 10000 1.03 0 19:42 28.01.2022
5627 Clouds 24 1010 100 10000 1.54 310 18:47 28.01.2022
5628 Clouds 24 1010 100 10000 1.03 0 17:42 28.01.2022
5629 Clouds 25 1010 94 10000 1.03 0 15:21 28.01.2022
5630 Clouds 25 1011 94 10000 1.54 330 13:57 28.01.2022
5631 Clouds 26 1011 94 10000 1.54 340 12:31 28.01.2022
5632 Clouds 26 1010 94 10000 2.06 320 11:25 28.01.2022
5633 Clouds 27 1010 89 10000 1.54 330 09:52 28.01.2022
5634 Clouds 29 1009 79 10000 3.6 60 08:26 28.01.2022
5635 Clouds 27 1008 94 10000 1.54 350 07:34 28.01.2022
5636 Clouds 30 1008 74 10000 4.63 50 05:23 28.01.2022
5637 Clouds 31 1008 74 10000 6.17 60 03:44 28.01.2022
5638 Clouds 31 1008 70 10000 5.66 60 02:22 28.01.2022
5639 Clouds 31 1009 70 10000 5.66 50 01:32 28.01.2022
5640 Drizzle 28 1010 83 10000 3.6 10 22:52 27.01.2022
5641 Clouds 26 1009 94 10000 2.06 350 21:47 27.01.2022
5642 Clouds 26 1009 94 10000 2.06 350 21:29 27.01.2022
5643 Clouds 25 1009 100 10000 0 0 20:25 27.01.2022
5644 Clouds 25 1008 100 10000 0 0 18:40 27.01.2022
5645 Clouds 25 1008 100 10000 0 0 17:55 27.01.2022
5646 Clouds 26 1008 94 10000 0 0 14:42 27.01.2022
5647 Clouds 26 1009 94 10000 0 0 13:26 27.01.2022
5648 Clouds 25 1010 94 10000 1.03 0 12:39 27.01.2022
5649 Clouds 25 1010 100 8000 2.57 20 10:23 27.01.2022
5650 Clouds 28 1008 83 10000 2.06 70 08:49 27.01.2022
5651 Clouds 28 1008 83 10000 2.06 70 08:28 27.01.2022
5652 Clouds 33 1007 58 10000 5.14 70 03:47 27.01.2022
5653 Clouds 32 1008 58 10000 4.12 60 01:45 27.01.2022
5654 Clouds 30 1008 70 10000 4.63 70 22:39 26.01.2022
5655 Clouds 28 1009 74 10000 2.06 310 21:45 26.01.2022
5656 Clouds 28 1009 74 10000 2.06 310 21:26 26.01.2022
5657 Clouds 26 1008 94 10000 1.54 330 20:35 26.01.2022
5658 Clouds 26 1008 89 10000 0 0 19:52 26.01.2022
5659 Clouds 26 1008 89 10000 0 0 19:19 26.01.2022
5660 Clouds 26 1007 89 10000 0 0 18:26 26.01.2022
5661 Clouds 26 1007 94 10000 2.06 70 17:49 26.01.2022
5662 Clouds 26 1007 94 10000 2.06 70 17:19 26.01.2022
5663 Clouds 26 1007 94 10000 0 0 16:26 26.01.2022
5664 Clouds 26 1007 94 10000 0 0 15:24 26.01.2022
5665 Clouds 27 1010 89 10000 0 0 12:54 26.01.2022
5666 Clouds 27 1009 94 10000 0 0 11:34 26.01.2022
5667 Clouds 28 1008 83 10000 2.06 90 09:59 26.01.2022
5668 Clouds 28 1008 83 10000 2.06 90 09:40 26.01.2022
5669 Clouds 31 1007 66 10000 4.63 80 07:31 26.01.2022
5670 Clouds 32 1008 62 10000 3.6 30 00:44 26.01.2022
5671 Clouds 31 1008 70 10000 3.6 50 23:44 25.01.2022
5672 Clouds 30 1008 79 10000 1.54 10 22:50 25.01.2022
5673 Clouds 30 1008 79 10000 1.54 10 22:21 25.01.2022
5674 Clouds 26 1009 94 10000 1.54 0 21:35 25.01.2022
5675 Clouds 25 1008 100 10000 1.54 330 20:46 25.01.2022
5676 Clouds 24 1007 100 10000 2.06 330 19:59 25.01.2022
5677 Clouds 24 1007 100 10000 2.06 330 19:34 25.01.2022
5678 Clouds 26 1007 85 10000 3.95 61 18:20 25.01.2022
5679 Clouds 25 1007 94 10000 1.54 0 17:40 25.01.2022
5680 Clouds 25 1007 94 10000 1.54 0 16:35 25.01.2022
5681 Clouds 25 1007 94 10000 1.54 0 15:43 25.01.2022
5682 Clouds 25 1007 94 10000 1.54 0 15:25 25.01.2022
5683 Clouds 25 1008 94 10000 1.54 0 14:56 25.01.2022
5684 Clouds 26 1009 94 10000 0 0 12:23 25.01.2022
5685 Clouds 28 1009 83 10000 1.54 70 09:58 25.01.2022
5686 Clouds 29 1008 79 10000 1.54 80 08:29 25.01.2022
5687 Clouds 30 1007 70 10000 4.12 80 07:28 25.01.2022
5688 Clouds 32 1006 62 10000 4.12 60 05:54 25.01.2022
5689 Clouds 30 1007 74 10000 3.6 40 00:58 25.01.2022
5690 Clouds 30 1007 74 10000 3.6 30 23:36 24.01.2022
5691 Clouds 29 1008 72 10000 3.11 48 23:18 24.01.2022
5692 Clouds 29 1008 79 10000 2.57 330 22:53 24.01.2022
5693 Clouds 29 1008 79 10000 2.57 330 22:35 24.01.2022
5694 Clouds 26 1007 89 10000 2.06 290 21:42 24.01.2022
5695 Clouds 26 1007 89 10000 2.06 290 21:24 24.01.2022
5696 Clouds 24 1007 100 10000 2.57 320 20:27 24.01.2022
5697 Clouds 23 1007 100 10000 2.06 330 19:38 24.01.2022
5698 Clouds 24 1007 100 10000 1.03 320 18:50 24.01.2022
5699 Clouds 24 1007 100 10000 1.03 320 18:50 24.01.2022
5700 Clouds 24 1007 100 10000 2.06 300 17:39 24.01.2022
5701 Clouds 24 1007 89 10000 2.7 20 17:21 24.01.2022
5702 Clouds 24 1006 100 10000 1.54 320 16:31 24.01.2022
5703 Clouds 24 1006 100 10000 1.03 0 15:25 24.01.2022
5704 Clouds 27 1008 78 10000 1.54 10 13:59 24.01.2022
5705 Clouds 27 1008 83 10000 1.54 60 12:34 24.01.2022
5706 Clouds 27 1008 83 10000 1.54 80 11:41 24.01.2022
5707 Clouds 26 1008 82 10000 2.84 63 10:19 24.01.2022
5708 Clouds 28 1007 78 10000 0 0 09:44 24.01.2022
5709 Clouds 29 1006 74 10000 4.12 90 07:45 24.01.2022
5710 Clouds 31 1007 58 10000 4.12 70 01:38 24.01.2022
5711 Clouds 31 1007 58 10000 3.09 70 00:55 24.01.2022
5712 Clouds 31 1007 58 10000 3.09 70 00:30 24.01.2022
5713 Clouds 30 1007 66 10000 3.09 60 23:39 23.01.2022
5714 Clouds 27 1007 89 10000 1.54 320 21:53 23.01.2022
5715 Clouds 27 1007 89 10000 1.54 320 21:29 23.01.2022
5716 Clouds 25 1007 94 10000 2.06 330 20:57 23.01.2022
5717 Clouds 25 1007 94 10000 2.06 330 20:22 23.01.2022
5718 Clouds 24 1006 100 10000 2.06 320 18:56 23.01.2022
5719 Clouds 24 1006 100 10000 2.06 320 18:23 23.01.2022
5720 Clouds 24 1006 100 10000 2.06 330 16:56 23.01.2022
5721 Clouds 25 1006 94 10000 1.03 0 15:56 23.01.2022
5722 Clouds 25 1007 94 10000 2.57 340 14:50 23.01.2022
5723 Clouds 25 1007 94 10000 2.57 340 14:18 23.01.2022
5724 Clouds 26 1008 94 10000 1.03 300 12:45 23.01.2022
5725 Clouds 26 1009 85 10000 3.07 73 12:19 23.01.2022
5726 Clouds 27 1008 89 10000 1.54 350 11:26 23.01.2022
5727 Clouds 27 1008 89 10000 2.06 30 10:57 23.01.2022
5728 Clouds 26 1008 86 10000 3.38 71 10:25 23.01.2022
5729 Clouds 28 1007 78 10000 3.09 60 09:31 23.01.2022
5730 Clouds 28 1007 78 10000 3.09 60 09:31 23.01.2022
5731 Clouds 28 1006 78 10000 1.54 120 08:33 23.01.2022
5732 Clouds 31 1006 74 10000 4.63 80 03:34 23.01.2022
5733 Clouds 31 1007 74 10000 5.66 60 01:37 23.01.2022
5734 Clouds 31 1007 74 10000 5.14 70 00:47 23.01.2022
5735 Clouds 31 1007 70 10000 4.63 70 23:59 22.01.2022
5736 Clouds 30 1008 74 10000 4.12 80 22:53 22.01.2022
5737 Clouds 30 1008 74 10000 4.12 80 22:19 22.01.2022
5738 Clouds 27 1007 89 10000 0 0 20:33 22.01.2022
5739 Clouds 26 1007 94 10000 4.12 290 19:46 22.01.2022
5740 Clouds 25 1006 100 10000 0 0 18:37 22.01.2022
5741 Clouds 25 1006 94 10000 0 0 17:46 22.01.2022
5742 Clouds 25 1006 94 10000 0 0 17:25 22.01.2022
5743 Clouds 26 1006 94 10000 0 0 16:54 22.01.2022
5744 Clouds 26 1006 94 10000 0 0 15:45 22.01.2022
5745 Clouds 26 1007 94 10000 0 0 14:52 22.01.2022
5746 Clouds 27 1008 89 10000 0 0 13:30 22.01.2022
5747 Clouds 27 1009 94 10000 1.54 100 12:37 22.01.2022
5748 Clouds 27 1009 94 10000 1.54 100 12:19 22.01.2022
5749 Clouds 27 1008 89 10000 1.03 0 10:54 22.01.2022
5750 Clouds 27 1008 89 10000 1.03 0 10:25 22.01.2022
5751 Clouds 29 1008 84 10000 1.54 80 08:59 22.01.2022
5752 Clouds 29 1008 84 10000 1.54 80 08:39 22.01.2022
5753 Clouds 31 1006 70 10000 5.14 100 06:46 22.01.2022
5754 Clouds 32 1006 66 10000 6.17 70 02:40 22.01.2022
5755 Clouds 30 1007 84 10000 5.14 80 23:50 21.01.2022
5756 Clouds 30 1007 84 10000 5.14 80 23:21 21.01.2022
5757 Clouds 29 1008 84 10000 4.12 80 21:34 21.01.2022
5758 Clouds 26 1007 100 10000 0 0 19:35 21.01.2022
5759 Clouds 27 1006 94 10000 1.54 70 17:51 21.01.2022
5760 Clouds 26 1006 100 10000 1.54 100 16:37 21.01.2022
5761 Clouds 27 1006 94 10000 0 0 15:23 21.01.2022
5762 Clouds 27 1008 94 10000 2.06 120 12:48 21.01.2022
5763 Clouds 27 1008 94 10000 2.06 120 11:29 21.01.2022
5764 Clouds 28 1007 89 10000 0 0 10:47 21.01.2022
5765 Clouds 29 1006 84 10000 2.06 80 08:59 21.01.2022
5766 Clouds 27 1007 89 10000 3.29 70 08:20 21.01.2022
5767 Clouds 30 1006 74 10000 4.12 80 01:55 21.01.2022
5768 Clouds 29 1007 84 10000 3.09 80 22:51 20.01.2022
5769 Clouds 26 1007 100 10000 3.09 60 21:49 20.01.2022
5770 Clouds 26 1007 100 10000 3.09 60 21:25 20.01.2022
5771 Clouds 26 1006 94 10000 2.06 30 19:54 20.01.2022
5772 Clouds 26 1007 87 10000 3.12 51 19:18 20.01.2022
5773 Clouds 25 1005 100 10000 2.06 100 17:37 20.01.2022
5774 Thunderstorm 26 1005 94 10000 1.54 0 16:24 20.01.2022
5775 Clouds 26 1005 86 10000 2 41 15:31 20.01.2022
5776 Thunderstorm 26 1005 100 10000 0 0 14:20 20.01.2022
5777 Clouds 27 1006 94 10000 0 0 12:49 20.01.2022
5778 Clouds 27 1006 94 10000 0 0 12:29 20.01.2022
5779 Clouds 26 1007 89 10000 2.46 74 11:19 20.01.2022
5780 Clouds 28 1005 89 10000 1.54 90 09:50 20.01.2022
5781 Clouds 29 1004 84 10000 2.06 110 08:45 20.01.2022
5782 Clouds 31 1003 70 10000 3.6 100 06:57 20.01.2022
5783 Clouds 30 1005 79 10000 3.6 90 00:40 20.01.2022
5784 Clouds 30 1004 74 10000 3.09 120 22:38 19.01.2022
5785 Clouds 30 1005 79 10000 1.03 0 21:34 19.01.2022
5786 Clouds 26 1005 94 10000 1.03 330 20:56 19.01.2022
5787 Clouds 26 1005 94 10000 1.03 330 20:30 19.01.2022
5788 Clouds 25 1004 100 10000 1.54 260 18:52 19.01.2022
5789 Clouds 25 1004 100 10000 1.03 0 17:51 19.01.2022
5790 Clouds 26 1005 87 10000 2.17 84 17:18 19.01.2022
5791 Clouds 26 1005 87 10000 2.17 84 17:18 19.01.2022
5792 Clouds 26 1005 87 10000 2.17 84 17:18 19.01.2022
5793 Clouds 25 1004 100 10000 1.03 310 15:31 19.01.2022
5794 Clouds 25 1006 89 10000 1.48 63 13:20 19.01.2022
5795 Clouds 26 1006 100 10000 0 0 11:58 19.01.2022
5796 Clouds 26 1006 100 10000 0 0 11:38 19.01.2022
5797 Clouds 27 1004 94 10000 0 0 09:35 19.01.2022
5798 Clouds 28 1004 100 10000 1.03 0 08:33 19.01.2022
5799 Clouds 28 1004 75 10000 4.08 84 05:19 19.01.2022
5800 Clouds 28 1005 82 10000 4.53 84 00:18 19.01.2022
5801 Clouds 28 1006 84 10000 4.62 82 23:18 18.01.2022
5802 Clouds 28 1005 89 10000 3.09 100 21:43 18.01.2022
5803 Clouds 27 1005 94 10000 3.09 80 20:22 18.01.2022
5804 Clouds 26 1004 94 10000 2.06 70 19:45 18.01.2022
5805 Clouds 26 1004 94 10000 2.06 70 19:25 18.01.2022
5806 Clouds 26 1004 94 10000 1.54 130 18:18 18.01.2022
5807 Clouds 26 1004 94 10000 2.57 100 17:31 18.01.2022
5808 Clouds 26 1004 94 10000 3.09 100 16:18 18.01.2022
5809 Clouds 26 1004 94 10000 2.57 110 15:25 18.01.2022
5810 Clouds 26 1005 94 10000 2.06 130 14:18 18.01.2022
5811 Clouds 26 1005 100 10000 2.06 110 11:31 18.01.2022
5812 Rain 26 1004 94 10000 2.57 120 09:59 18.01.2022
5813 Rain 27 1004 94 10000 2.57 120 08:29 18.01.2022
5814 Clouds 28 1004 89 10000 2.57 140 07:42 18.01.2022
5815 Clouds 29 1005 89 10000 3.09 140 00:38 18.01.2022
5816 Rain 27 1005 94 10000 2.06 140 22:39 17.01.2022
5817 Rain 25 1004 100 10000 1.03 0 21:41 17.01.2022
5818 Clouds 25 1005 100 10000 1.03 0 20:39 17.01.2022
5819 Rain 24 1003 100 10000 2.06 230 18:46 17.01.2022
5820 Rain 24 1003 100 10000 2.06 230 18:23 17.01.2022
5821 Rain 24 1004 100 8000 2.06 170 16:53 17.01.2022
5822 Rain 24 1005 100 10000 3.09 150 15:31 17.01.2022
5823 Rain 24 1005 100 8000 0 0 14:58 17.01.2022
5824 Rain 24 1005 100 8000 0 0 14:22 17.01.2022
5825 Rain 23 1007 100 8000 2.06 220 12:58 17.01.2022
5826 Rain 23 1007 100 5000 2.06 220 11:51 17.01.2022
5827 Rain 23 1008 100 5000 2.06 240 10:47 17.01.2022
5828 Clouds 24 1007 94 8000 2.57 210 09:35 17.01.2022
5829 Rain 24 1006 100 5000 2.57 190 08:18 17.01.2022
5830 Clouds 24 1005 100 5000 3.6 190 07:19 17.01.2022
5831 Clouds 24 1006 100 10000 3.09 200 00:58 17.01.2022
5832 Clouds 25 1006 100 10000 3.09 160 23:27 16.01.2022
5833 Clouds 24 1006 100 10000 0 0 20:41 16.01.2022
5834 Clouds 24 1005 100 8000 0 0 19:44 16.01.2022
5835 Clouds 24 1005 100 10000 0 0 18:42 16.01.2022
5836 Clouds 24 1005 100 10000 1.54 220 17:45 16.01.2022
5837 Clouds 24 1005 100 10000 1.54 200 16:48 16.01.2022
5838 Clouds 24 1005 100 10000 0 0 15:19 16.01.2022
5839 Clouds 24 1006 100 10000 0 0 14:28 16.01.2022
5840 Clouds 25 1007 94 10000 0 0 12:51 16.01.2022
5841 Rain 24 1007 100 5000 0 0 11:47 16.01.2022
5842 Rain 24 1006 100 10000 2.06 240 10:55 16.01.2022
5843 Rain 24 1006 100 10000 2.06 240 10:26 16.01.2022
5844 Rain 25 1006 94 10000 2.06 260 09:52 16.01.2022
5845 Rain 25 1006 94 10000 2.06 260 09:22 16.01.2022
5846 Rain 25 1005 100 10000 1.03 0 08:37 16.01.2022
5847 Clouds 29 1004 79 10000 3.09 170 03:21 16.01.2022
5848 Clouds 29 1006 79 10000 1.54 160 23:49 15.01.2022
5849 Clouds 26 1006 94 10000 1.54 330 21:46 15.01.2022
5850 Clouds 26 1008 84 10000 2.65 248 21:19 15.01.2022
5851 Fog 25 1006 100 10000 2.06 310 20:40 15.01.2022
5852 Fog 25 1006 94 10000 1.03 350 19:29 15.01.2022
5853 Clouds 24 1005 100 10000 0 0 18:45 15.01.2022
5854 Clouds 25 1005 100 10000 1.54 320 17:29 15.01.2022
5855 Clouds 25 1005 94 10000 1.54 330 15:50 15.01.2022
5856 Clouds 25 1006 100 10000 1.54 290 13:55 15.01.2022
5857 Clouds 26 1007 100 10000 0 0 11:46 15.01.2022
5858 Clouds 26 1006 100 10000 0 0 10:36 15.01.2022
5859 Clouds 27 1006 89 10000 1.54 170 07:48 15.01.2022
5860 Clouds 31 1005 66 10000 1.54 270 00:28 15.01.2022
5861 Clouds 26 1006 94 10000 1.54 290 21:52 14.01.2022
5862 Clouds 25 1005 94 10000 1.54 310 20:37 14.01.2022
5863 Fog 24 1005 94 200 1.54 320 19:58 14.01.2022
5864 Fog 24 1004 100 200 1.54 310 18:48 14.01.2022
5865 Clouds 24 1004 94 10000 1.54 320 17:57 14.01.2022
5866 Clouds 25 1004 94 10000 2.06 330 16:48 14.01.2022
5867 Clouds 25 1005 100 10000 1.03 0 15:34 14.01.2022
5868 Clouds 25 1005 100 10000 1.54 310 14:38 14.01.2022
5869 Clouds 25 1006 100 10000 1.54 290 13:34 14.01.2022
5870 Clouds 25 1007 100 10000 0 0 12:24 14.01.2022
5871 Clouds 26 1006 94 10000 2.06 300 10:47 14.01.2022
5872 Clouds 28 1005 89 10000 0 0 08:54 14.01.2022
5873 Clouds 28 1005 89 10000 0 0 08:20 14.01.2022
5874 Clouds 30 1003 79 10000 2.57 130 03:55 14.01.2022
5875 Clouds 33 1004 62 10000 3.09 320 00:50 14.01.2022
5876 Clouds 30 1004 70 10000 2.06 310 22:35 13.01.2022
5877 Clouds 28 1005 83 10000 1.03 0 21:30 13.01.2022
5878 Clouds 25 1005 100 10000 2.57 310 20:54 13.01.2022
5879 Clouds 24 1004 100 10000 1.54 350 19:32 13.01.2022
5880 Clouds 24 1004 100 10000 1.03 0 18:57 13.01.2022
5881 Clouds 24 1003 100 10000 2.06 350 17:25 13.01.2022
5882 Clouds 24 1003 100 10000 1.54 20 16:19 13.01.2022
5883 Clouds 25 1004 94 10000 1.54 360 15:35 13.01.2022
5884 Clouds 25 1005 94 10000 1.03 0 13:47 13.01.2022
5885 Clouds 25 1006 87 10000 2.45 335 12:20 13.01.2022
5886 Clouds 27 1004 89 10000 4.12 340 09:38 13.01.2022
5887 Clouds 28 1004 83 10000 3.6 330 08:54 13.01.2022
5888 Clouds 28 1004 83 10000 3.6 330 08:24 13.01.2022
5889 Clouds 31 1003 70 10000 4.12 340 07:21 13.01.2022
5890 Clouds 30 1002 79 10000 1.54 280 05:57 13.01.2022
5891 Clouds 30 1003 69 10000 2.67 297 05:18 13.01.2022
5892 Clouds 30 1005 79 10000 5.66 350 01:49 13.01.2022
5893 Clouds 29 1006 84 10000 3.6 10 23:54 12.01.2022
5894 Clouds 29 1006 84 10000 3.6 10 23:35 12.01.2022
5895 Clouds 28 1006 83 10000 4.63 360 22:56 12.01.2022
5896 Clouds 27 1006 89 10000 3.6 350 21:56 12.01.2022
5897 Clouds 27 1006 89 10000 3.6 350 21:21 12.01.2022
5898 Clouds 26 1005 94 10000 0 0 20:56 12.01.2022
5899 Clouds 25 1005 94 10000 2.06 340 19:28 12.01.2022
5900 Clouds 25 1004 94 10000 2.06 320 18:29 12.01.2022
5901 Clouds 25 1004 94 10000 0 0 16:59 12.01.2022
5902 Clouds 25 1004 94 10000 0 0 15:58 12.01.2022
5903 Clouds 25 1005 94 10000 0 0 14:47 12.01.2022
5904 Clouds 25 1006 100 10000 2.06 10 12:58 12.01.2022
5905 Clouds 25 1006 100 10000 2.06 10 12:58 12.01.2022
5906 Rain 25 1006 100 10000 1.03 0 09:59 12.01.2022
5907 Clouds 25 1005 100 10000 1.03 0 08:36 12.01.2022
5908 Rain 25 1004 100 8000 3.09 10 07:34 12.01.2022
5909 Thunderstorm 26 1004 100 8000 2.57 10 06:21 12.01.2022
5910 Clouds 29 1006 84 10000 5.66 20 23:30 11.01.2022
5911 Clouds 27 1006 94 10000 3.09 20 22:41 11.01.2022
5912 Clouds 27 1006 94 10000 3.09 20 22:21 11.01.2022
5913 Clouds 26 1005 94 10000 3.09 30 20:49 11.01.2022
5914 Clouds 26 1005 94 10000 3.09 20 19:42 11.01.2022
5915 Clouds 26 1004 94 10000 4.12 10 18:25 11.01.2022
5916 Clouds 26 1004 94 10000 3.09 20 17:18 11.01.2022
5917 Clouds 26 1003 94 10000 2.06 10 16:36 11.01.2022
5918 Clouds 26 1004 94 10000 3.6 360 14:59 11.01.2022
5919 Clouds 26 1004 94 10000 3.6 360 14:40 11.01.2022
5920 Clouds 26 1005 94 10000 4.63 10 13:54 11.01.2022
5921 Clouds 26 1005 94 10000 4.63 10 13:31 11.01.2022
5922 Clouds 26 1006 94 10000 3.6 20 12:37 11.01.2022
5923 Clouds 26 1005 100 10000 5.14 20 10:52 11.01.2022
5924 Clouds 26 1004 94 10000 5.14 20 08:53 11.01.2022
5925 Clouds 27 1003 94 10000 5.66 20 06:28 11.01.2022
5926 Clouds 30 1003 74 10000 6.69 30 00:30 11.01.2022
5927 Clouds 28 1004 78 10000 5.14 20 23:41 10.01.2022
5928 Rain 27 1004 94 10000 5.14 20 22:43 10.01.2022
5929 Clouds 27 1004 94 10000 5.14 20 22:18 10.01.2022
5930 Clouds 26 1004 100 10000 4.63 20 21:48 10.01.2022
5931 Clouds 26 1004 100 10000 4.63 20 21:19 10.01.2022
5932 Clouds 26 1003 89 10000 3.6 30 20:56 10.01.2022
5933 Clouds 26 1003 89 10000 3.6 30 20:26 10.01.2022
5934 Clouds 25 1002 100 10000 4.12 20 19:41 10.01.2022
5935 Clouds 26 1003 88 10000 6.91 14 19:20 10.01.2022
5936 Clouds 24 1001 100 10000 5.14 10 18:48 10.01.2022
5937 Thunderstorm 25 1001 94 10000 3.6 20 17:24 10.01.2022
5938 Clouds 25 1001 100 10000 3.6 10 16:41 10.01.2022
5939 Clouds 24 1002 100 8000 1.03 0 15:20 10.01.2022
5940 Clouds 24 1003 100 10000 3.09 30 13:39 10.01.2022
5941 Clouds 25 1003 100 8000 5.14 340 11:57 10.01.2022
5942 Clouds 25 1003 100 8000 5.14 340 11:24 10.01.2022
5943 Clouds 27 1002 83 10000 3.09 20 09:41 10.01.2022
5944 Clouds 30 999 70 10000 6.17 350 05:52 10.01.2022
5945 Clouds 30 999 70 10000 6.17 350 05:23 10.01.2022
5946 Clouds 28 999 78 10000 7.2 10 01:24 10.01.2022
5947 Rain 26 1000 94 10000 6.17 10 00:23 10.01.2022
5948 Rain 25 1000 94 10000 6.17 10 23:28 09.01.2022
5949 Rain 25 1000 94 8000 5.14 10 22:33 09.01.2022
5950 Rain 25 1000 94 8000 4.63 20 21:42 09.01.2022
5951 Rain 25 1000 94 8000 4.63 20 21:42 09.01.2022
5952 Rain 25 1000 94 8000 4.63 20 21:23 09.01.2022
5953 Rain 25 1000 94 8000 4.63 20 21:23 09.01.2022
5954 Rain 24 1000 100 5000 7.2 20 20:49 09.01.2022
5955 Rain 24 1000 100 5000 7.2 20 20:29 09.01.2022
5956 Rain 26 1002 89 10000 7.39 349 19:44 09.01.2022
5957 Rain 25 1001 91 7161 5.63 338 19:22 09.01.2022
5958 Rain 25 1001 89 10000 8.42 354 18:49 09.01.2022
5959 Rain 25 1001 89 10000 8.42 354 18:30 09.01.2022
5960 Rain 25 1000 91 6642 8.73 352 17:30 09.01.2022
5961 Rain 24 998 94 8000 5.66 20 16:51 09.01.2022
5962 Rain 25 998 94 8000 7.2 20 15:52 09.01.2022
5963 Rain 25 998 94 8000 7.2 20 15:33 09.01.2022
5964 Rain 25 999 94 8000 7.72 20 14:40 09.01.2022
5965 Clouds 25 1000 94 8000 6.69 30 13:50 09.01.2022
5966 Clouds 24 1001 100 8000 8.75 360 12:44 09.01.2022
5967 Rain 24 1002 100 5000 8.23 20 11:48 09.01.2022
5968 Rain 24 1002 100 3000 6.17 360 09:59 09.01.2022
5969 Rain 24 1002 100 3000 6.17 360 09:41 09.01.2022
5970 Rain 25 1002 94 5000 6.17 10 08:30 09.01.2022
5971 Clouds 25 1004 88 8000 5.66 20 02:31 09.01.2022
5972 Clouds 24 1004 96 2064 9.51 22 01:20 09.01.2022
5973 Rain 25 1006 94 10000 6.69 30 23:38 08.01.2022
5974 Rain 25 1006 88 10000 4.63 30 22:59 08.01.2022
5975 Rain 24 1007 100 8000 4.12 30 21:33 08.01.2022
5976 Rain 24 1007 100 5000 3.09 310 20:45 08.01.2022
5977 Rain 24 1007 100 5000 3.09 310 20:24 08.01.2022
5978 Rain 24 1007 100 5000 3.6 20 19:58 08.01.2022
5979 Rain 24 1006 100 10000 2.57 50 17:51 08.01.2022
5980 Rain 24 1006 100 10000 2.57 50 17:21 08.01.2022
5981 Clouds 24 1006 100 10000 3.09 40 15:47 08.01.2022
5982 Rain 24 1007 100 10000 4.12 20 14:41 08.01.2022
5983 Rain 24 1008 94 10000 3.6 20 12:44 08.01.2022
5984 Rain 25 1008 94 10000 4.12 20 10:59 08.01.2022
5985 Rain 25 1008 94 10000 4.12 20 10:25 08.01.2022
5986 Rain 25 1007 94 10000 4.12 20 09:44 08.01.2022
5987 Clouds 24 1007 90 10000 6.37 10 07:19 08.01.2022
5988 Rain 25 1008 100 5000 6.17 20 02:39 08.01.2022
5989 Clouds 25 1009 100 8000 7.72 30 00:41 08.01.2022
5990 Clouds 25 1009 94 8000 7.72 320 22:40 07.01.2022
5991 Clouds 25 1008 94 10000 0 0 20:56 07.01.2022
5992 Rain 24 1007 100 10000 0 0 19:56 07.01.2022
5993 Rain 24 1007 100 10000 0 0 19:56 07.01.2022
5994 Rain 25 1007 94 10000 0 0 18:54 07.01.2022
5995 Clouds 25 1007 94 10000 0 0 18:34 07.01.2022
5996 Rain 25 1007 94 10000 2.57 350 17:25 07.01.2022
5997 Clouds 25 1006 94 10000 3.09 40 16:23 07.01.2022
5998 Clouds 25 1008 94 10000 3.09 10 13:53 07.01.2022
5999 Rain 25 1008 94 10000 3.09 10 13:19 07.01.2022
6000 Clouds 25 1009 94 10000 4.12 360 12:35 07.01.2022
6001 Drizzle 26 1007 94 10000 2.57 30 07:32 07.01.2022
6002 Clouds 27 1007 83 10000 6.17 10 02:54 07.01.2022
6003 Clouds 28 1007 83 10000 6.17 10 01:52 07.01.2022
6004 Clouds 28 1007 83 10000 6.17 10 01:27 07.01.2022
6005 Clouds 28 1008 83 10000 6.69 20 00:57 07.01.2022
6006 Rain 28 1007 78 10000 6.17 10 22:46 06.01.2022
6007 Clouds 29 1007 74 10000 6.69 10 21:23 06.01.2022
6008 Clouds 28 1007 83 10000 4.63 20 20:20 06.01.2022
6009 Clouds 27 1007 83 10000 4.12 10 19:40 06.01.2022
6010 Clouds 26 1006 94 10000 4.12 10 17:53 06.01.2022
6011 Clouds 26 1006 94 10000 4.12 10 17:32 06.01.2022
6012 Clouds 26 1006 94 10000 3.09 10 16:40 06.01.2022
6013 Clouds 26 1006 94 10000 4.12 10 15:45 06.01.2022
6014 Clouds 26 1006 94 10000 4.12 10 15:24 06.01.2022
6015 Clouds 26 1006 94 10000 2.57 20 14:21 06.01.2022
6016 Clouds 25 1007 100 10000 4.12 20 13:46 06.01.2022
6017 Rain 25 1008 100 10000 0 0 12:41 06.01.2022
6018 Rain 26 1008 94 10000 2.06 350 11:41 06.01.2022
6019 Rain 26 1008 94 10000 2.06 350 11:21 06.01.2022
6020 Clouds 27 1006 89 10000 3.09 30 08:50 06.01.2022
6021 Rain 28 1007 78 10000 3.09 40 00:42 06.01.2022
6022 Rain 26 1007 94 10000 4.12 10 23:36 05.01.2022
6023 Rain 27 1007 89 10000 3.09 10 22:51 05.01.2022
6024 Rain 27 1007 89 10000 3.09 10 22:29 05.01.2022
6025 Clouds 26 1007 94 10000 3.6 10 21:45 05.01.2022
6026 Rain 25 1006 94 10000 1.54 0 20:49 05.01.2022
6027 Rain 24 1007 100 10000 2.57 350 19:58 05.01.2022
6028 Clouds 24 1006 100 10000 1.54 0 18:33 05.01.2022
6029 Clouds 25 1005 87 10000 1.87 21 17:23 05.01.2022
6030 Clouds 24 1005 100 10000 2.06 340 16:24 05.01.2022
6031 Clouds 25 1006 87 10000 1.13 332 15:20 05.01.2022
6032 Clouds 25 1006 94 10000 1.03 0 13:39 05.01.2022
6033 Clouds 25 1007 100 10000 0 0 12:51 05.01.2022
6034 Clouds 27 1005 83 10000 0 0 08:58 05.01.2022
6035 Clouds 29 1005 79 10000 3.6 80 07:34 05.01.2022
6036 Clouds 31 1005 66 10000 3.6 150 03:32 05.01.2022
6037 Clouds 31 1005 70 10000 3.09 150 00:33 05.01.2022
6038 Clouds 30 1006 74 10000 2.57 150 23:26 04.01.2022
6039 Clouds 30 1006 74 10000 1.54 150 22:27 04.01.2022
6040 Clouds 26 1006 89 10000 2.06 300 20:50 04.01.2022
6041 Clouds 25 1006 82 10000 0.72 98 19:19 04.01.2022
6042 Clouds 24 1004 100 10000 2.57 80 17:38 04.01.2022
6043 Clouds 24 1004 100 10000 3.09 50 16:40 04.01.2022
6044 Clouds 24 1004 100 10000 3.09 50 16:40 04.01.2022
6045 Clouds 25 1004 81 10000 1.18 163 16:21 04.01.2022
6046 Clouds 26 1004 94 10000 1.03 320 14:51 04.01.2022
6047 Clouds 26 1004 94 10000 1.03 320 14:33 04.01.2022
6048 Clouds 26 1004 94 10000 1.03 250 13:26 04.01.2022
6049 Clouds 26 1004 89 10000 1.03 0 10:40 04.01.2022
6050 Clouds 28 1003 78 10000 1.54 0 08:59 04.01.2022
6051 Clouds 28 1003 78 10000 1.54 0 08:23 04.01.2022
6052 Clouds 28 1003 70 10000 3.08 157 01:19 04.01.2022
6053 Clouds 30 1002 66 10000 3.09 180 00:40 04.01.2022
6054 Clouds 29 1003 74 10000 2.06 170 22:41 03.01.2022
6055 Clouds 28 1003 83 10000 1.03 0 21:41 03.01.2022
6056 Clouds 28 1003 83 10000 1.03 0 21:23 03.01.2022
6057 Clouds 24 1002 100 10000 1.54 300 19:46 03.01.2022
6058 Clouds 24 1001 100 10000 1.03 0 18:33 03.01.2022
6059 Clouds 25 1001 100 10000 1.03 0 17:40 03.01.2022
6060 Clouds 25 1001 100 10000 1.03 0 16:57 03.01.2022
6061 Clouds 25 1002 100 10000 1.54 300 14:54 03.01.2022
6062 Clouds 25 1002 94 10000 2.06 320 13:53 03.01.2022
6063 Clouds 25 1002 94 10000 2.06 310 12:33 03.01.2022
6064 Clouds 26 1002 94 10000 1.54 290 11:33 03.01.2022
6065 Clouds 28 1001 83 10000 1.54 180 09:49 03.01.2022
6066 Clouds 28 1001 83 10000 2.57 160 08:46 03.01.2022
6067 Clouds 29 999 79 10000 2.57 170 06:47 03.01.2022
6068 Clouds 30 1001 79 10000 3.6 160 23:47 02.01.2022
6069 Clouds 30 1001 79 10000 3.6 160 23:18 02.01.2022
6070 Clouds 29 1002 79 10000 3.6 170 22:42 02.01.2022
6071 Clouds 28 1001 83 10000 3.09 130 21:38 02.01.2022
6072 Clouds 26 1001 94 10000 0 0 20:31 02.01.2022
6073 Clouds 25 1001 100 10000 0 0 19:52 02.01.2022
6074 Clouds 25 1001 100 10000 0 0 19:25 02.01.2022
6075 Clouds 25 1000 100 10000 0 0 18:31 02.01.2022
6076 Clouds 25 1000 100 10000 0 0 17:43 02.01.2022
6077 Clouds 25 1000 100 10000 0 0 17:21 02.01.2022
6078 Clouds 25 1000 100 10000 1.03 0 16:33 02.01.2022
6079 Clouds 25 1001 100 10000 2.06 190 15:51 02.01.2022
6080 Clouds 25 1002 94 10000 0 0 13:58 02.01.2022
6081 Clouds 26 1004 94 10000 2.06 120 12:34 02.01.2022
6082 Clouds 27 1003 89 10000 1.54 120 11:56 02.01.2022
6083 Clouds 27 1003 89 10000 1.54 120 10:56 02.01.2022
6084 Clouds 27 1003 89 10000 1.54 120 10:26 02.01.2022
6085 Clouds 27 1002 89 10000 2.06 150 08:22 02.01.2022
6086 Clouds 30 1002 74 10000 2.57 160 02:58 02.01.2022
6087 Clouds 31 1003 70 10000 1.03 0 23:55 01.01.2022
6088 Clouds 31 1003 70 10000 1.03 0 23:36 01.01.2022
6089 Clouds 28 1003 78 10000 1.03 0 22:41 01.01.2022
6090 Clouds 28 1003 78 10000 1.03 0 22:18 01.01.2022
6091 Clouds 26 1003 94 10000 2.06 310 21:42 01.01.2022
6092 Rain 25 1004 94 10000 1.54 310 20:50 01.01.2022
6093 Rain 24 1003 100 10000 1.54 290 19:47 01.01.2022
6094 Clouds 24 1002 100 10000 1.54 320 18:53 01.01.2022
6095 Clouds 24 1002 100 10000 0 0 17:46 01.01.2022
6096 Clouds 24 1002 100 10000 0 0 16:35 01.01.2022
6097 Clouds 24 1003 100 10000 1.54 290 15:50 01.01.2022
6098 Clouds 24 1004 100 10000 0 0 14:40 01.01.2022
6099 Clouds 24 1004 100 10000 0 0 13:42 01.01.2022
6100 Clouds 24 1004 100 10000 0 0 13:42 01.01.2022
6101 Clouds 24 1004 100 10000 0 0 12:26 01.01.2022
6102 Clouds 24 1004 100 10000 3.09 330 11:30 01.01.2022
6103 Clouds 24 1004 100 10000 2.57 330 10:59 01.01.2022
6104 Clouds 24 1005 100 10000 0 0 09:48 01.01.2022
6105 Rain 24 1005 100 10000 0 0 08:45 01.01.2022
6106 Clouds 24 1005 100 10000 0 0 08:18 01.01.2022
6107 Rain 24 1005 100 10000 2.06 160 07:39 01.01.2022
6108 Rain 24 1004 100 10000 1.03 0 06:44 01.01.2022
6109 Rain 25 1004 100 5000 1.03 0 05:24 01.01.2022
6110 Thunderstorm 24 1004 100 5000 3.6 290 04:35 01.01.2022
6111 Rain 30 1006 74 10000 5.14 350 00:23 01.01.2022
6112 Rain 29 1007 79 10000 4.12 320 22:34 31.12.2021
6113 Clouds 26 1006 89 10000 1.03 0 21:47 31.12.2021
6114 Clouds 24 1006 100 10000 1.03 0 19:48 31.12.2021
6115 Clouds 24 1006 100 10000 1.03 0 19:28 31.12.2021
6116 Clouds 24 1005 94 10000 5.14 10 18:18 31.12.2021
6117 Clouds 24 1005 100 10000 2.57 40 17:28 31.12.2021
6118 Clouds 24 1005 100 10000 3.09 350 16:52 31.12.2021
6119 Clouds 24 1005 100 10000 3.09 350 16:18 31.12.2021
6120 Rain 24 1006 100 10000 3.09 330 15:50 31.12.2021
6121 Clouds 24 1006 100 10000 3.09 330 15:26 31.12.2021
6122 Clouds 25 1007 94 10000 3.09 10 14:39 31.12.2021
6123 Rain 24 1008 100 10000 4.12 350 13:51 31.12.2021
6124 Rain 24 1009 100 10000 2.57 320 12:51 31.12.2021
6125 Rain 24 1009 100 10000 2.57 320 12:21 31.12.2021
6126 Rain 25 1010 94 10000 1.03 0 11:42 31.12.2021
6127 Rain 24 1010 100 10000 1.54 250 10:55 31.12.2021
6128 Rain 24 1010 100 10000 1.54 250 10:28 31.12.2021
6129 Rain 25 1009 94 10000 1.03 0 09:34 31.12.2021
6130 Rain 27 1008 94 10000 3.09 50 08:52 31.12.2021
6131 Rain 27 1007 94 10000 1.03 0 07:55 31.12.2021
6132 Rain 28 1006 83 10000 2.57 340 04:54 31.12.2021
6133 Clouds 30 1008 74 10000 4.63 10 23:18 30.12.2021
6134 Clouds 29 1008 79 10000 3.6 360 22:31 30.12.2021
6135 Clouds 27 1008 89 10000 3.6 330 21:39 30.12.2021
6136 Clouds 27 1009 84 10000 3.82 360 21:18 30.12.2021
6137 Clouds 26 1008 94 10000 3.09 330 20:39 30.12.2021
6138 Clouds 25 1008 94 10000 2.06 360 19:55 30.12.2021
6139 Clouds 25 1008 94 10000 2.06 360 19:31 30.12.2021
6140 Clouds 25 1007 94 10000 2.06 330 18:26 30.12.2021
6141 Clouds 25 1007 100 10000 1.54 310 16:53 30.12.2021
6142 Clouds 25 1007 100 10000 1.03 0 15:54 30.12.2021
6143 Clouds 25 1008 100 10000 1.54 330 14:55 30.12.2021
6144 Clouds 25 1008 100 10000 1.54 330 14:36 30.12.2021
6145 Clouds 26 1009 94 10000 2.06 360 13:25 30.12.2021
6146 Clouds 26 1009 94 10000 2.06 360 13:25 30.12.2021
6147 Clouds 26 1009 94 10000 2.07 356 11:57 30.12.2021
6148 Clouds 27 1008 83 10000 0 0 10:35 30.12.2021
6149 Rain 28 1008 83 10000 1.03 0 09:47 30.12.2021
6150 Clouds 30 1005 74 10000 4.63 50 06:59 30.12.2021
6151 Rain 30 1005 70 10000 4.63 50 05:27 30.12.2021
6152 Clouds 32 1005 66 10000 6.17 40 03:41 30.12.2021
6153 Clouds 32 1006 66 10000 5.66 30 02:28 30.12.2021
6154 Clouds 30 1008 74 10000 3.6 360 23:37 29.12.2021
6155 Clouds 29 1009 79 10000 3.6 320 22:55 29.12.2021
6156 Clouds 27 1009 89 10000 2.57 330 21:56 29.12.2021
6157 Clouds 25 1009 94 10000 2.57 340 20:59 29.12.2021
6158 Rain 25 1009 94 10000 2.57 340 20:29 29.12.2021
6159 Rain 24 1009 94 10000 1.54 330 19:31 29.12.2021
6160 Clouds 23 1008 100 10000 3.09 350 18:43 29.12.2021
6161 Clouds 24 1007 94 10000 2.57 310 17:51 29.12.2021
6162 Clouds 24 1007 94 10000 2.57 310 17:27 29.12.2021
6163 Clouds 24 1007 100 10000 2.06 330 16:22 29.12.2021
6164 Clouds 24 1007 100 10000 2.06 330 15:21 29.12.2021
6165 Clouds 24 1009 100 10000 2.06 300 13:31 29.12.2021
6166 Clouds 25 1009 94 10000 1.54 360 12:35 29.12.2021
6167 Clouds 24 1009 100 10000 2.06 10 11:23 29.12.2021
6168 Clouds 24 1008 94 10000 0.51 0 09:38 29.12.2021
6169 Clouds 23 1007 100 10000 3.6 230 07:47 29.12.2021
6170 Clouds 27 1006 89 10000 4.63 260 06:36 29.12.2021
6171 Clouds 32 1005 66 10000 1.54 130 05:57 29.12.2021
6172 Clouds 32 1005 66 10000 1.54 130 05:27 29.12.2021
6173 Clouds 32 1007 66 10000 3.6 350 01:27 29.12.2021
6174 Clouds 30 1008 74 10000 5.66 360 23:59 28.12.2021
6175 Clouds 30 1008 74 10000 5.66 360 23:18 28.12.2021
6176 Clouds 29 1008 79 10000 4.12 350 22:26 28.12.2021
6177 Clouds 27 1008 83 10000 3.09 330 21:56 28.12.2021
6178 Clouds 27 1008 83 10000 3.09 330 21:35 28.12.2021
6179 Clouds 25 1008 94 10000 2.06 330 20:32 28.12.2021
6180 Clouds 23 1007 100 10000 0 0 18:56 28.12.2021
6181 Clouds 23 1007 100 10000 0 0 18:28 28.12.2021
6182 Clouds 23 1006 100 10000 3.09 10 17:42 28.12.2021
6183 Clouds 24 1007 94 10000 2.57 340 16:25 28.12.2021
6184 Clouds 24 1008 94 10000 2.06 20 15:41 28.12.2021
6185 Clouds 24 1008 94 10000 0 0 14:57 28.12.2021
6186 Clouds 24 1008 94 10000 0 0 14:57 28.12.2021
6187 Clouds 24 1008 94 10000 0 0 14:38 28.12.2021
6188 Clouds 24 1008 94 10000 0 0 14:20 28.12.2021
6189 Clouds 25 1009 94 10000 0 0 13:38 28.12.2021
6190 Clouds 26 1010 89 10000 1.54 350 12:56 28.12.2021
6191 Clouds 26 1010 89 10000 1.54 350 12:29 28.12.2021
6192 Clouds 27 1009 89 10000 2.06 340 10:52 28.12.2021
6193 Clouds 28 1008 78 10000 2.57 30 07:39 28.12.2021
6194 Rain 29 1007 74 10000 3.09 320 06:40 28.12.2021
6195 Clouds 29 1009 70 10000 4.63 360 23:42 27.12.2021
6196 Clouds 29 1009 74 10000 5.14 340 22:31 27.12.2021
6197 Clouds 26 1010 83 10000 2.57 10 21:32 27.12.2021
6198 Clouds 24 1009 94 10000 2.57 330 20:40 27.12.2021
6199 Rain 23 1009 100 10000 0 0 19:56 27.12.2021
6200 Rain 23 1009 100 10000 0 0 19:38 27.12.2021
6201 Clouds 23 1008 100 10000 0 0 17:55 27.12.2021
6202 Clouds 23 1008 100 10000 0 0 17:29 27.12.2021
6203 Clouds 23 1008 100 10000 0 0 16:32 27.12.2021
6204 Clouds 23 1008 100 10000 0 0 15:50 27.12.2021
6205 Clouds 23 1009 100 10000 0 0 14:29 27.12.2021
6206 Clouds 24 1010 94 10000 0 0 13:32 27.12.2021
6207 Clouds 25 1010 94 10000 2.06 350 11:34 27.12.2021
6208 Clouds 25 1010 88 10000 1.54 330 10:27 27.12.2021
6209 Clouds 26 1010 89 10000 2.57 10 09:38 27.12.2021
6210 Clouds 26 1009 89 10000 0 0 07:35 27.12.2021
6211 Clouds 29 1008 79 10000 3.6 10 06:30 27.12.2021
6212 Rain 30 1009 70 10000 3.09 30 01:59 27.12.2021
6213 Rain 29 1010 79 10000 4.12 30 23:50 26.12.2021
6214 Clouds 29 1010 79 10000 4.12 30 23:32 26.12.2021
6215 Rain 26 1010 78 10000 1.54 350 21:48 26.12.2021
6216 Rain 25 1010 94 10000 1.54 330 20:25 26.12.2021
6217 Clouds 24 1009 100 10000 2.57 340 18:53 26.12.2021
6218 Clouds 24 1009 100 10000 2.57 340 18:22 26.12.2021
6219 Clouds 24 1009 100 10000 1.03 0 15:54 26.12.2021
6220 Clouds 24 1011 100 10000 1.03 0 13:51 26.12.2021
6221 Clouds 24 1011 100 10000 1.03 0 13:32 26.12.2021
6222 Clouds 25 1011 94 10000 0 0 12:37 26.12.2021
6223 Clouds 25 1011 94 10000 0 0 11:56 26.12.2021
6224 Rain 25 1011 94 10000 0 0 09:44 26.12.2021
6225 Rain 25 1010 94 10000 0 0 08:59 26.12.2021
6226 Rain 25 1010 94 10000 0 0 08:38 26.12.2021
6227 Rain 25 1010 100 10000 2.06 290 06:47 26.12.2021
6228 Rain 26 1012 94 10000 0 0 00:45 26.12.2021
6229 Rain 26 1012 94 10000 4.12 250 23:49 25.12.2021
6230 Rain 26 1012 94 10000 4.12 250 23:25 25.12.2021
6231 Clouds 25 1012 94 10000 1.54 100 22:21 25.12.2021
6232 Rain 24 1012 100 10000 0 0 20:48 25.12.2021
6233 Clouds 24 1011 93 10000 3.5 45 19:21 25.12.2021
6234 Clouds 24 1010 100 10000 1.54 310 18:54 25.12.2021
6235 Rain 24 1010 100 10000 1.54 330 16:58 25.12.2021
6236 Clouds 24 1010 100 5000 3.6 20 15:54 25.12.2021
6237 Clouds 24 1011 100 5000 2.57 360 14:25 25.12.2021
6238 Rain 25 1012 94 10000 2.06 340 12:42 25.12.2021
6239 Clouds 25 1012 94 10000 2.57 330 11:27 25.12.2021
6240 Rain 25 1011 94 10000 1.54 60 09:49 25.12.2021
6241 Thunderstorm 29 1010 74 10000 4.12 60 07:51 25.12.2021
6242 Clouds 30 1010 74 10000 5.14 60 01:45 25.12.2021
6243 Clouds 28 1011 78 10000 6.17 50 00:30 25.12.2021
6244 Clouds 28 1011 78 10000 2.57 60 22:40 24.12.2021
6245 Clouds 24 1011 94 10000 1.03 0 19:37 24.12.2021
6246 Clouds 24 1011 94 10000 1.03 0 19:19 24.12.2021
6247 Clouds 24 1010 94 10000 3.6 20 16:50 24.12.2021
6248 Clouds 26 1010 89 10000 1.54 90 15:54 24.12.2021
6249 Clouds 26 1010 89 10000 1.54 90 15:34 24.12.2021
6250 Clouds 27 1011 83 10000 2.06 110 14:40 24.12.2021
6251 Clouds 27 1011 83 10000 2.06 110 14:19 24.12.2021
6252 Clouds 27 1011 83 10000 2.57 110 13:34 24.12.2021
6253 Clouds 27 1011 83 10000 1.54 110 12:47 24.12.2021
6254 Clouds 27 1011 83 10000 1.54 130 11:52 24.12.2021
6255 Clouds 27 1011 83 10000 1.54 130 11:25 24.12.2021
6256 Clouds 26 1011 89 10000 0 0 10:46 24.12.2021
6257 Clouds 27 1011 78 10000 2.06 70 09:33 24.12.2021
6258 Clouds 28 1010 78 10000 2.57 90 08:23 24.12.2021
6259 Clouds 29 1009 74 10000 3.09 80 07:47 24.12.2021
6260 Clouds 31 1010 70 10000 5.14 70 02:33 24.12.2021
6261 Clouds 27 1011 89 8000 8.23 60 23:56 23.12.2021
6262 Clouds 27 1011 89 10000 6.69 50 22:56 23.12.2021
6263 Clouds 27 1011 89 10000 6.69 50 22:37 23.12.2021
6264 Clouds 27 1011 89 10000 6.69 50 22:18 23.12.2021
6265 Clouds 25 1010 94 10000 0 0 20:56 23.12.2021
6266 Clouds 24 1009 100 10000 0 0 19:47 23.12.2021
6267 Clouds 24 1008 100 10000 1.54 330 18:34 23.12.2021
6268 Clouds 24 1008 100 10000 1.54 350 17:56 23.12.2021
6269 Clouds 25 1009 94 10000 1.03 360 16:43 23.12.2021
6270 Clouds 25 1009 94 10000 1.03 360 16:23 23.12.2021
6271 Clouds 26 1009 89 10000 1.03 110 15:31 23.12.2021
6272 Clouds 26 1009 89 10000 1.03 110 15:31 23.12.2021
6273 Clouds 26 1010 89 10000 1.54 80 14:49 23.12.2021
6274 Clouds 26 1010 89 10000 1.54 80 14:30 23.12.2021
6275 Clouds 26 1011 89 10000 1.03 0 12:53 23.12.2021
6276 Clouds 28 1011 83 10000 1.03 0 10:43 23.12.2021
6277 Clouds 28 1011 83 10000 1.54 140 09:35 23.12.2021
6278 Clouds 29 1010 79 10000 2.06 100 08:59 23.12.2021
6279 Clouds 30 1008 74 10000 4.63 120 06:48 23.12.2021
6280 Clouds 32 1008 62 10000 4.63 70 04:30 23.12.2021
6281 Clouds 29 1010 79 10000 1.54 30 22:57 22.12.2021
6282 Clouds 29 1010 79 10000 1.54 30 22:32 22.12.2021
6283 Clouds 27 1010 83 10000 2.06 330 21:53 22.12.2021
6284 Clouds 27 1010 83 10000 2.06 330 21:28 22.12.2021
6285 Clouds 26 1009 94 10000 1.03 310 20:41 22.12.2021
6286 Clouds 26 1009 94 10000 1.03 310 20:20 22.12.2021
6287 Clouds 25 1009 100 10000 1.54 330 19:19 22.12.2021
6288 Clouds 24 1008 100 10000 1.54 310 17:39 22.12.2021
6289 Clouds 25 1008 94 10000 1.54 300 16:36 22.12.2021
6290 Clouds 25 1009 94 10000 1.03 250 15:36 22.12.2021
6291 Clouds 25 1010 100 10000 1.03 300 13:23 22.12.2021
6292 Clouds 26 1010 94 10000 1.03 290 12:19 22.12.2021
6293 Clouds 28 1009 78 10000 1.03 0 09:53 22.12.2021
6294 Clouds 28 1009 78 10000 1.03 0 09:33 22.12.2021
6295 Clouds 30 1008 70 10000 3.6 70 07:22 22.12.2021
6296 Clouds 31 1007 70 10000 4.63 80 05:41 22.12.2021
6297 Clouds 31 1007 70 10000 4.63 80 05:22 22.12.2021
6298 Clouds 32 1008 62 10000 4.63 80 04:45 22.12.2021
6299 Clouds 32 1008 62 10000 4.63 80 04:19 22.12.2021
6300 Clouds 32 1009 58 10000 4.63 70 03:32 22.12.2021
6301 Clouds 31 1010 66 10000 3.6 70 23:58 21.12.2021
6302 Clouds 30 1010 70 10000 2.57 80 22:49 21.12.2021
6303 Clouds 30 1010 70 10000 2.57 80 22:27 21.12.2021
6304 Clouds 27 1010 78 10000 1.03 0 21:43 21.12.2021
6305 Clouds 26 1010 83 10000 2.06 320 20:53 21.12.2021
6306 Clouds 26 1010 83 10000 2.06 320 20:20 21.12.2021
6307 Clouds 24 1010 100 10000 1.03 0 19:41 21.12.2021
6308 Clouds 24 1009 100 10000 1.03 0 18:38 21.12.2021
6309 Clouds 25 1009 94 10000 1.03 0 17:59 21.12.2021
6310 Clouds 25 1009 94 10000 1.03 0 17:40 21.12.2021
6311 Clouds 26 1010 94 10000 1.03 0 15:46 21.12.2021
6312 Clouds 26 1010 94 10000 0 0 14:59 21.12.2021
6313 Clouds 26 1011 94 10000 1.54 310 13:44 21.12.2021
6314 Clouds 27 1011 83 10000 1.54 100 12:58 21.12.2021
6315 Clouds 28 1011 78 10000 1.54 60 10:53 21.12.2021
6316 Clouds 27 1011 89 10000 0 0 09:57 21.12.2021
6317 Clouds 27 1011 89 10000 0 0 09:18 21.12.2021
6318 Clouds 27 1011 89 10000 0 0 09:18 21.12.2021
6319 Clouds 29 1010 70 10000 3.09 80 07:50 21.12.2021
6320 Clouds 29 1010 70 10000 3.09 80 07:25 21.12.2021
6321 Clouds 32 1010 62 10000 5.14 60 04:48 21.12.2021
6322 Clouds 31 1010 66 10000 5.66 80 02:39 21.12.2021
6323 Clouds 31 1012 74 10000 6.69 80 23:57 20.12.2021
6324 Clouds 30 1012 74 10000 6.17 80 22:48 20.12.2021
6325 Clouds 30 1012 74 10000 6.17 80 22:27 20.12.2021
6326 Clouds 30 1012 74 10000 5.66 80 21:28 20.12.2021
6327 Clouds 28 1012 89 10000 2.06 80 20:57 20.12.2021
6328 Clouds 28 1012 89 10000 2.06 80 20:32 20.12.2021
6329 Clouds 26 1011 94 10000 1.03 100 19:39 20.12.2021
6330 Clouds 26 1011 94 10000 1.03 100 19:20 20.12.2021
6331 Clouds 26 1011 94 10000 1.03 240 18:35 20.12.2021
6332 Clouds 27 1011 89 10000 0 0 17:51 20.12.2021
6333 Clouds 27 1011 89 10000 2.57 80 16:47 20.12.2021
6334 Clouds 27 1011 89 10000 2.57 80 16:25 20.12.2021
6335 Clouds 26 1011 94 10000 1.54 70 15:40 20.12.2021
6336 Clouds 27 1012 94 10000 2.06 80 14:26 20.12.2021
6337 Clouds 28 1013 83 10000 3.09 80 12:40 20.12.2021
6338 Clouds 27 1013 89 10000 2.57 80 10:51 20.12.2021
6339 Clouds 28 1012 83 10000 3.09 80 09:44 20.12.2021
6340 Clouds 28 1012 83 10000 2.57 80 08:56 20.12.2021
6341 Clouds 28 1012 83 10000 2.57 80 08:38 20.12.2021
6342 Clouds 29 1011 74 10000 4.12 80 07:38 20.12.2021
6343 Clouds 30 1011 74 10000 4.12 70 06:39 20.12.2021
6344 Clouds 32 1012 66 10000 6.69 80 01:33 20.12.2021
6345 Clouds 31 1013 70 10000 5.66 70 23:28 19.12.2021
6346 Clouds 30 1014 74 10000 5.14 80 22:44 19.12.2021
6347 Clouds 29 1014 84 10000 4.12 80 21:32 19.12.2021
6348 Clouds 26 1014 94 10000 1.03 0 20:44 19.12.2021
6349 Clouds 26 1014 94 10000 1.03 0 20:23 19.12.2021
6350 Clouds 25 1013 94 10000 1.03 0 19:42 19.12.2021
6351 Clouds 24 1013 100 10000 1.03 0 18:46 19.12.2021
6352 Clouds 24 1012 100 10000 1.03 0 17:54 19.12.2021
6353 Clouds 24 1012 100 10000 1.03 0 17:35 19.12.2021
6354 Clouds 24 1013 100 10000 1.03 0 16:41 19.12.2021
6355 Clouds 24 1013 94 10000 1.03 0 15:56 19.12.2021
6356 Clouds 24 1013 94 10000 1.03 0 15:25 19.12.2021
6357 Clouds 25 1014 94 10000 1.03 0 14:45 19.12.2021
6358 Clouds 24 1015 100 10000 1.03 0 13:35 19.12.2021
6359 Clouds 24 1015 100 8000 3.09 80 12:59 19.12.2021
6360 Rain 25 1015 100 10000 0 0 12:31 19.12.2021
6361 Clouds 25 1014 94 10000 1.54 320 11:38 19.12.2021
6362 Rain 26 1014 94 10000 1.54 90 10:50 19.12.2021
6363 Clouds 26 1014 94 10000 1.54 90 10:22 19.12.2021
6364 Clouds 28 1013 83 10000 4.63 90 08:51 19.12.2021
6365 Clouds 30 1011 74 10000 5.66 80 06:51 19.12.2021
6366 Clouds 30 1013 74 10000 6.17 50 01:52 19.12.2021
6367 Clouds 31 1013 70 10000 7.2 70 00:54 19.12.2021
6368 Clouds 30 1013 74 10000 6.17 70 23:18 18.12.2021
6369 Clouds 29 1013 79 10000 6.69 70 22:28 18.12.2021
6370 Clouds 29 1012 79 10000 5.66 70 21:44 18.12.2021
6371 Clouds 29 1012 79 10000 5.66 70 21:25 18.12.2021
6372 Clouds 26 1012 94 10000 0 0 20:43 18.12.2021
6373 Clouds 25 1011 100 10000 0 0 19:38 18.12.2021
6374 Clouds 24 1011 100 10000 0 0 18:25 18.12.2021
6375 Clouds 25 1010 100 10000 0 0 17:49 18.12.2021
6376 Clouds 25 1010 100 10000 0 0 16:48 18.12.2021
6377 Clouds 25 1010 100 10000 0 0 16:20 18.12.2021
6378 Clouds 24 1011 100 10000 0 0 14:54 18.12.2021
6379 Clouds 25 1012 100 10000 0 0 13:45 18.12.2021
6380 Clouds 25 1013 94 10000 0 0 11:57 18.12.2021
6381 Clouds 25 1012 94 10000 1.03 0 09:54 18.12.2021
6382 Rain 25 1012 94 10000 1.03 0 09:31 18.12.2021
6383 Rain 24 1011 94 8000 3.6 20 08:36 18.12.2021
6384 Clouds 26 1009 89 10000 3.09 50 06:28 18.12.2021
6385 Clouds 31 1010 70 10000 7.2 50 00:59 18.12.2021
6386 Clouds 27 1010 94 10000 3.6 10 23:47 17.12.2021
6387 Clouds 29 1010 79 10000 4.12 30 22:39 17.12.2021
6388 Clouds 27 1010 89 10000 2.06 330 21:29 17.12.2021
6389 Clouds 25 1010 100 10000 0 0 20:43 17.12.2021
6390 Clouds 24 1009 94 10000 0 0 19:51 17.12.2021
6391 Clouds 23 1008 100 10000 0 0 18:39 17.12.2021
6392 Clouds 24 1008 94 10000 0 0 17:47 17.12.2021
6393 Clouds 24 1008 100 10000 0 0 16:51 17.12.2021
6394 Clouds 24 1008 100 10000 0 0 16:27 17.12.2021
6395 Clouds 24 1009 100 10000 0 0 15:27 17.12.2021
6396 Clouds 24 1009 100 10000 0 0 14:42 17.12.2021
6397 Clouds 24 1010 100 10000 0 0 13:35 17.12.2021
6398 Clouds 25 1010 94 10000 0 0 12:36 17.12.2021
6399 Clouds 25 1009 94 10000 3.6 330 10:41 17.12.2021
6400 Clouds 25 1009 94 10000 0 0 09:47 17.12.2021
6401 Clouds 25 1009 94 10000 0 0 09:47 17.12.2021
6402 Clouds 25 1008 94 10000 0 0 08:31 17.12.2021
6403 Rain 26 1008 94 10000 3.6 90 07:21 17.12.2021
6404 Rain 30 1007 70 10000 5.66 60 04:40 17.12.2021
6405 Clouds 31 1008 70 10000 6.17 20 23:58 16.12.2021
6406 Clouds 30 1009 70 10000 6.17 40 22:24 16.12.2021
6407 Clouds 29 1008 74 10000 3.09 10 21:51 16.12.2021
6408 Clouds 29 1008 74 10000 3.09 10 21:30 16.12.2021
6409 Clouds 26 1008 83 10000 1.54 30 20:31 16.12.2021
6410 Clouds 24 1008 94 10000 1.03 0 19:51 16.12.2021
6411 Clouds 24 1007 94 10000 1.54 350 18:41 16.12.2021
6412 Clouds 24 1007 100 10000 1.54 350 17:57 16.12.2021
6413 Clouds 24 1007 100 10000 1.54 350 17:31 16.12.2021
6414 Clouds 25 1007 94 10000 1.54 350 16:23 16.12.2021
6415 Clouds 25 1008 94 10000 1.54 350 14:54 16.12.2021
6416 Clouds 25 1009 88 10000 3.09 330 13:43 16.12.2021
6417 Clouds 25 1009 94 10000 0 0 11:21 16.12.2021
6418 Clouds 26 1009 83 10000 2.57 10 10:59 16.12.2021
6419 Clouds 26 1009 83 10000 2.57 10 10:22 16.12.2021
6420 Clouds 26 1008 94 10000 2.57 320 08:37 16.12.2021
6421 Rain 28 1006 78 10000 1.03 0 06:22 16.12.2021
6422 Clouds 31 1006 66 10000 4.63 320 02:54 16.12.2021
6423 Clouds 30 1008 70 10000 6.69 40 23:35 15.12.2021
6424 Clouds 29 1008 79 10000 3.6 350 22:44 15.12.2021
6425 Clouds 27 1007 83 10000 2.06 360 21:57 15.12.2021
6426 Clouds 27 1007 83 10000 2.06 360 21:27 15.12.2021
6427 Clouds 25 1008 94 10000 2.06 340 20:19 15.12.2021
6428 Clouds 25 1007 94 10000 2.06 340 19:51 15.12.2021
6429 Clouds 25 1006 94 10000 2.57 360 18:38 15.12.2021
6430 Clouds 25 1006 88 10000 1.54 350 17:54 15.12.2021
6431 Clouds 25 1006 88 10000 1.54 350 17:36 15.12.2021
6432 Clouds 25 1006 94 10000 2.06 340 16:28 15.12.2021
6433 Clouds 25 1006 94 10000 2.06 360 15:47 15.12.2021
6434 Clouds 25 1006 94 10000 2.06 360 15:27 15.12.2021
6435 Clouds 26 1007 89 10000 2.06 360 14:29 15.12.2021
6436 Clouds 26 1008 89 10000 2.57 20 12:37 15.12.2021
6437 Clouds 27 1009 83 10000 1.54 0 10:42 15.12.2021
6438 Rain 29 1008 74 10000 1.54 350 08:55 15.12.2021
6439 Clouds 29 1007 79 10000 2.06 30 07:25 15.12.2021
6440 Clouds 32 1007 62 10000 6.17 30 01:20 15.12.2021
6441 Clouds 31 1008 70 10000 4.63 30 23:42 14.12.2021
6442 Clouds 30 1008 70 10000 4.12 30 22:49 14.12.2021
6443 Clouds 30 1008 70 10000 4.12 30 22:19 14.12.2021
6444 Clouds 25 1008 88 10000 2.06 340 20:29 14.12.2021
6445 Clouds 23 1008 100 10000 2.06 310 19:43 14.12.2021
6446 Clouds 23 1008 100 10000 2.06 310 19:19 14.12.2021
6447 Clouds 23 1007 100 10000 1.03 0 18:25 14.12.2021
6448 Clouds 24 1007 94 10000 1.03 0 17:30 14.12.2021
6449 Clouds 24 1007 94 10000 2.57 320 16:39 14.12.2021
6450 Clouds 24 1007 94 10000 2.06 330 15:35 14.12.2021
6451 Clouds 25 1008 94 10000 1.03 0 13:31 14.12.2021
6452 Clouds 26 1008 89 10000 0 0 11:59 14.12.2021
6453 Clouds 26 1008 89 10000 0 0 11:24 14.12.2021
6454 Clouds 27 1008 83 10000 1.54 20 09:57 14.12.2021
6455 Clouds 27 1008 83 10000 1.54 20 09:35 14.12.2021
6456 Clouds 28 1007 78 10000 2.57 60 08:25 14.12.2021
6457 Clouds 28 1007 78 10000 3.6 50 07:43 14.12.2021
6458 Clouds 30 1007 70 10000 5.66 60 02:27 14.12.2021
6459 Clouds 28 1009 78 10000 2.06 40 22:55 13.12.2021
6460 Clouds 27 1009 83 10000 2.06 300 21:52 13.12.2021
6461 Clouds 24 1008 94 10000 2.06 320 20:59 13.12.2021
6462 Clouds 24 1008 94 10000 2.06 320 20:38 13.12.2021
6463 Clouds 23 1008 100 10000 2.06 320 19:52 13.12.2021
6464 Clouds 23 1007 100 10000 1.54 320 17:56 13.12.2021
6465 Clouds 23 1007 100 10000 1.54 320 17:24 13.12.2021
6466 Clouds 23 1007 100 10000 2.16 34 15:51 13.12.2021
6467 Clouds 23 1007 100 10000 2.29 40 15:19 13.12.2021
6468 Clouds 24 1009 94 10000 2.06 330 13:39 13.12.2021
6469 Clouds 25 1010 94 10000 0 0 12:46 13.12.2021
6470 Clouds 25 1010 94 10000 0 0 11:54 13.12.2021
6471 Clouds 25 1010 94 10000 0 0 11:35 13.12.2021
6472 Clouds 26 1010 89 10000 1.03 0 10:43 13.12.2021
6473 Clouds 26 1009 89 10000 1.54 90 09:29 13.12.2021
6474 Clouds 28 1008 78 10000 3.6 130 07:46 13.12.2021
6475 Clouds 30 1007 70 10000 4.12 100 05:35 13.12.2021
6476 Clouds 30 1008 62 10000 3.6 110 03:26 13.12.2021
6477 Clouds 29 1011 70 10000 0 0 22:23 12.12.2021
6478 Clouds 27 1011 89 10000 1.54 330 21:38 12.12.2021
6479 Clouds 23 1010 94 10000 1.54 300 19:47 12.12.2021
6480 Clouds 23 1010 100 10000 0 0 18:35 12.12.2021
6481 Clouds 23 1010 100 10000 1.54 330 17:26 12.12.2021
6482 Clouds 23 1010 100 10000 1.54 320 16:27 12.12.2021
6483 Clouds 24 1010 100 10000 0 0 15:41 12.12.2021
6484 Clouds 24 1010 100 10000 0 0 15:22 12.12.2021
6485 Clouds 24 1010 94 10000 1.54 320 14:34 12.12.2021
6486 Clouds 24 1011 94 10000 2.06 320 13:22 12.12.2021
6487 Clouds 24 1012 94 10000 0 0 12:27 12.12.2021
6488 Clouds 24 1012 94 10000 2.57 320 11:44 12.12.2021
6489 Clouds 24 1012 94 10000 2.57 320 11:44 12.12.2021
6490 Clouds 24 1012 94 10000 2.57 320 11:20 12.12.2021
6491 Clouds 25 1012 88 10000 0 0 10:22 12.12.2021
6492 Clouds 25 1011 88 10000 2.06 300 08:54 12.12.2021
6493 Clouds 26 1011 83 10000 2.06 300 07:32 12.12.2021
6494 Clouds 25 1010 83 10000 5.14 290 05:57 12.12.2021
6495 Clouds 29 1010 74 10000 3.09 130 04:55 12.12.2021
6496 Clouds 30 1010 70 10000 4.63 60 02:58 12.12.2021
6497 Clouds 27 1012 80 10000 3.67 71 23:31 11.12.2021
6498 Clouds 29 1012 79 10000 3.09 60 22:22 11.12.2021
6499 Clouds 28 1012 83 10000 2.06 340 21:51 11.12.2021
6500 Clouds 26 1012 89 10000 1.54 280 20:29 11.12.2021
6501 Clouds 25 1010 94 10000 0 0 19:21 11.12.2021
6502 Clouds 25 1011 94 10000 0 0 18:51 11.12.2021
6503 Clouds 25 1011 94 10000 0 0 18:19 11.12.2021
6504 Clouds 25 1011 100 10000 1.54 340 17:20 11.12.2021
6505 Clouds 25 1011 100 10000 0 0 15:52 11.12.2021
6506 Clouds 25 1011 100 10000 0 0 15:18 11.12.2021
6507 Clouds 25 1013 94 10000 2.06 260 12:49 11.12.2021
6508 Clouds 25 1012 100 10000 2.57 290 11:24 11.12.2021
6509 Clouds 27 1012 83 10000 2.57 90 09:45 11.12.2021
6510 Clouds 28 1010 74 10000 2.57 80 07:32 11.12.2021
6511 Clouds 30 1011 66 10000 5.14 70 00:51 11.12.2021
6512 Clouds 30 1012 66 10000 5.14 80 23:50 10.12.2021
6513 Clouds 30 1012 66 10000 5.14 80 23:18 10.12.2021
6514 Clouds 26 1012 94 10000 1.54 220 21:52 10.12.2021
6515 Clouds 25 1012 94 10000 2.06 310 20:57 10.12.2021
6516 Clouds 25 1011 94 10000 0 0 19:21 10.12.2021
6517 Clouds 25 1010 94 10000 0 0 17:54 10.12.2021
6518 Clouds 25 1009 94 10000 0 0 16:55 10.12.2021
6519 Clouds 24 1010 100 10000 2.57 210 15:51 10.12.2021
6520 Clouds 24 1010 100 10000 2.57 210 15:29 10.12.2021
6521 Clouds 24 1010 100 10000 2.57 310 14:59 10.12.2021
6522 Clouds 25 1011 94 10000 3.09 310 13:51 10.12.2021
6523 Clouds 25 1011 94 10000 3.09 310 13:25 10.12.2021
6524 Clouds 25 1011 94 10000 1.54 320 12:23 10.12.2021
6525 Clouds 25 1011 94 10000 1.54 320 11:28 10.12.2021
6526 Clouds 26 1010 83 10000 2.57 300 09:54 10.12.2021
6527 Clouds 27 1009 83 10000 4.63 110 08:30 10.12.2021
6528 Clouds 30 1008 74 10000 6.17 80 05:57 10.12.2021
6529 Clouds 29 1009 74 10000 7.2 30 02:48 10.12.2021
6530 Clouds 30 1009 74 10000 2.57 310 23:46 09.12.2021
6531 Clouds 29 1009 79 10000 4.12 90 22:59 09.12.2021
6532 Clouds 29 1009 79 10000 4.12 90 22:24 09.12.2021
6533 Clouds 27 1010 83 10000 3.6 30 21:49 09.12.2021
6534 Clouds 25 1010 94 10000 1.03 0 20:41 09.12.2021
6535 Clouds 25 1010 94 10000 1.03 0 20:20 09.12.2021
6536 Clouds 24 1009 94 10000 1.03 0 19:21 09.12.2021
6537 Clouds 24 1009 94 10000 2.06 340 18:25 09.12.2021
6538 Clouds 24 1008 94 10000 1.03 0 17:51 09.12.2021
6539 Clouds 24 1008 94 10000 1.03 0 17:25 09.12.2021
6540 Clouds 24 1008 94 10000 1.03 0 16:51 09.12.2021
6541 Clouds 24 1009 94 10000 1.03 0 15:31 09.12.2021
6542 Clouds 25 1009 94 10000 1.03 0 14:43 09.12.2021
6543 Clouds 25 1010 94 10000 1.03 0 13:18 09.12.2021
6544 Clouds 25 1010 88 10000 0 0 12:31 09.12.2021
6545 Clouds 26 1009 89 10000 2.57 100 10:47 09.12.2021
6546 Clouds 25 1009 94 10000 0 0 08:38 09.12.2021
6547 Clouds 29 1007 74 10000 4.12 80 05:54 09.12.2021
6548 Clouds 30 1009 70 10000 5.66 60 01:52 09.12.2021
6549 Clouds 29 1009 79 10000 4.63 70 23:40 08.12.2021
6550 Clouds 29 1009 79 10000 4.63 70 23:20 08.12.2021
6551 Clouds 28 1010 83 10000 4.12 90 22:43 08.12.2021
6552 Clouds 27 1009 89 10000 0 0 21:39 08.12.2021
6553 Clouds 25 1009 94 10000 0 0 20:58 08.12.2021
6554 Clouds 24 1009 100 10000 1.54 320 19:57 08.12.2021
6555 Clouds 24 1009 100 10000 1.54 320 19:29 08.12.2021
6556 Clouds 24 1008 100 10000 2.06 320 18:30 08.12.2021
6557 Clouds 24 1008 100 10000 0 0 17:24 08.12.2021
6558 Clouds 25 1009 94 10000 0 0 15:45 08.12.2021
6559 Clouds 25 1009 94 10000 0 0 15:23 08.12.2021
6560 Clouds 25 1010 100 10000 0 0 13:40 08.12.2021
6561 Clouds 26 1011 89 10000 1.03 0 10:45 08.12.2021
6562 Clouds 26 1011 89 10000 1.03 0 10:23 08.12.2021
6563 Clouds 26 1010 89 10000 1.54 50 08:54 08.12.2021
6564 Clouds 28 1009 78 10000 4.63 60 06:52 08.12.2021
6565 Clouds 28 1009 78 10000 5.14 70 01:21 08.12.2021
6566 Clouds 25 1010 94 10000 5.66 100 23:29 07.12.2021
6567 Clouds 25 1010 100 10000 3.09 110 21:26 07.12.2021
6568 Rain 25 1010 100 10000 0 0 20:26 07.12.2021
6569 Rain 25 1009 94 10000 0 0 19:23 07.12.2021
6570 Rain 25 1008 94 10000 1.54 80 18:32 07.12.2021
6571 Rain 25 1008 94 10000 2.57 110 17:27 07.12.2021
6572 Rain 25 1008 94 10000 2.06 200 16:56 07.12.2021
6573 Rain 25 1008 94 10000 2.06 200 16:26 07.12.2021
6574 Rain 25 1008 100 3000 4.12 270 14:38 07.12.2021
6575 Clouds 26 1009 94 10000 1.54 300 13:45 07.12.2021
6576 Clouds 25 1010 94 10000 0 0 12:27 07.12.2021
6577 Clouds 25 1010 94 10000 0 0 11:23 07.12.2021
6578 Clouds 26 1009 89 10000 0 0 09:40 07.12.2021
6579 Rain 26 1008 89 10000 5.14 90 07:50 07.12.2021
6580 Rain 27 1008 89 10000 5.66 80 05:54 07.12.2021
6581 Clouds 27 1008 89 10000 5.66 80 05:26 07.12.2021
6582 Clouds 27 1008 89 10000 5.66 80 05:26 07.12.2021
6583 Clouds 28 1010 78 10000 4.63 40 23:38 06.12.2021
6584 Clouds 27 1010 83 10000 2.57 30 22:41 06.12.2021
6585 Drizzle 25 1009 94 10000 2.06 350 21:59 06.12.2021
6586 Drizzle 25 1009 94 10000 2.06 350 21:36 06.12.2021
6587 Clouds 25 1009 94 10000 1.03 0 20:33 06.12.2021
6588 Clouds 25 1009 94 10000 1.03 0 20:33 06.12.2021
6589 Clouds 24 1009 100 10000 1.03 0 19:25 06.12.2021
6590 Clouds 24 1009 94 10000 1.54 110 18:55 06.12.2021
6591 Clouds 24 1009 94 10000 0 0 17:55 06.12.2021
6592 Clouds 24 1009 94 10000 0 0 17:34 06.12.2021
6593 Clouds 24 1009 100 10000 2.06 160 15:52 06.12.2021
6594 Clouds 24 1008 94 10000 1.54 170 14:46 06.12.2021
6595 Clouds 25 1009 100 10000 3.09 100 13:35 06.12.2021
6596 Clouds 25 1009 100 8000 2.57 140 12:38 06.12.2021
6597 Clouds 27 1009 83 10000 1.03 0 10:28 06.12.2021
6598 Clouds 26 1007 94 10000 2.06 130 07:41 06.12.2021
6599 Clouds 30 1007 74 10000 4.63 120 02:28 06.12.2021
6600 Rain 28 1009 89 10000 1.03 0 22:28 05.12.2021
6601 Rain 28 1009 89 10000 1.03 0 22:28 05.12.2021
6602 Rain 27 1009 94 10000 2.57 360 21:25 05.12.2021
6603 Clouds 27 1009 94 10000 1.03 120 20:54 05.12.2021
6604 Clouds 27 1009 94 10000 1.03 120 20:18 05.12.2021
6605 Rain 26 1008 94 10000 1.03 310 19:26 05.12.2021
6606 Clouds 25 1007 100 10000 1.54 300 18:31 05.12.2021
6607 Clouds 25 1007 100 10000 1.03 300 17:52 05.12.2021
6608 Clouds 25 1007 100 10000 1.03 300 17:34 05.12.2021
6609 Clouds 25 1007 100 10000 1.03 210 16:36 05.12.2021
6610 Clouds 25 1007 100 10000 1.03 210 16:18 05.12.2021
6611 Clouds 25 1008 94 10000 1.03 330 14:48 05.12.2021
6612 Clouds 25 1008 94 10000 1.03 330 14:30 05.12.2021
6613 Clouds 26 1009 94 10000 1.54 290 13:35 05.12.2021
6614 Clouds 26 1010 94 10000 4.12 210 12:46 05.12.2021
6615 Clouds 26 1010 94 10000 4.12 210 12:26 05.12.2021
6616 Clouds 26 1010 94 10000 4.12 270 11:46 05.12.2021
6617 Clouds 26 1009 94 10000 0 0 10:43 05.12.2021
6618 Clouds 27 1009 89 10000 1.03 0 09:47 05.12.2021
6619 Clouds 28 1007 74 10000 2.06 140 06:30 05.12.2021
6620 Clouds 31 1009 62 10000 3.09 120 01:29 05.12.2021
6621 Clouds 30 1009 66 10000 2.57 110 23:22 04.12.2021
6622 Clouds 28 1009 78 10000 2.57 130 21:51 04.12.2021
6623 Clouds 26 1009 89 10000 1.03 0 20:47 04.12.2021
6624 Clouds 23 1008 94 10000 1.03 0 19:54 04.12.2021
6625 Clouds 23 1008 94 10000 1.03 0 19:30 04.12.2021
6626 Clouds 23 1008 94 10000 2.06 310 17:58 04.12.2021
6627 Clouds 23 1008 94 10000 2.06 310 17:36 04.12.2021
6628 Clouds 23 1007 94 10000 1.03 0 16:47 04.12.2021
6629 Clouds 23 1007 94 10000 1.03 0 16:28 04.12.2021
6630 Clouds 23 1009 94 10000 1.03 0 13:39 04.12.2021
6631 Clouds 25 1009 88 10000 0 0 11:44 04.12.2021
6632 Clouds 25 1009 88 10000 0 0 11:20 04.12.2021
6633 Clouds 26 1008 83 10000 2.06 140 10:24 04.12.2021
6634 Clouds 27 1008 78 10000 3.09 130 08:42 04.12.2021
6635 Clouds 28 1006 69 10000 5.14 110 05:30 04.12.2021
6636 Clouds 29 1007 70 10000 5.14 110 04:40 04.12.2021
6637 Clouds 28 1009 74 10000 5.66 130 23:49 03.12.2021
6638 Clouds 29 1009 70 10000 4.12 120 22:55 03.12.2021
6639 Clouds 28 1008 69 10000 4.63 120 21:58 03.12.2021
6640 Clouds 28 1008 69 10000 4.63 120 21:24 03.12.2021
6641 Clouds 28 1008 69 10000 2.57 110 20:43 03.12.2021
6642 Clouds 25 1007 78 10000 2.06 130 19:29 03.12.2021
6643 Clouds 25 1007 78 10000 2.06 120 18:24 03.12.2021
6644 Clouds 25 1007 83 10000 1.54 130 17:33 03.12.2021
6645 Clouds 26 1009 83 10000 3.6 120 13:45 03